<?xml version="1.0" encoding="UTF-8" standalone="no" ?>
<gpx xmlns="http://www.topografix.com/GPX/1/1" xmlns:xsi="http://www.w3.org/2001/XMLSchema-instance" xsi:schemaLocation="http://www.topografix.com/GPX/1/1 http://www.topografix.com/GPX/1/1/gpx.xsd" version="1.1" creator="VisuGPX - https://www.visugpx.com">
  <metadata>
    <name>Rando de la Jouanne</name>
    <desc><![CDATA[Rando VTT comptant pour le tour de la Mayenne]]></desc>
  </metadata>
  <trk>
    <name><![CDATA[25/10/09 09:37:04]]></name>
    <desc><![CDATA[33,58 km 02:11:37 ex stop 0,0 15,3 42,9 km/h battery 43% 1h48m left]]></desc>
    <trkseg>
      <trkpt lat="48.13573" lon="-0.55783">
        <ele>139</ele>
        <time>2009-10-25T09:37:04Z</time>
      </trkpt>
      <trkpt lat="48.13573" lon="-0.55783">
        <ele>138</ele>
        <time>2009-10-25T09:37:09Z</time>
      </trkpt>
      <trkpt lat="48.13573" lon="-0.55783">
        <ele>136</ele>
        <time>2009-10-25T09:37:13Z</time>
      </trkpt>
      <trkpt lat="48.13573" lon="-0.55781">
        <ele>137</ele>
        <time>2009-10-25T09:37:17Z</time>
      </trkpt>
      <trkpt lat="48.13575" lon="-0.55782">
        <ele>136</ele>
        <time>2009-10-25T09:37:21Z</time>
      </trkpt>
      <trkpt lat="48.13575" lon="-0.55782">
        <ele>135</ele>
        <time>2009-10-25T09:37:25Z</time>
      </trkpt>
      <trkpt lat="48.13574" lon="-0.55781">
        <ele>135</ele>
        <time>2009-10-25T09:37:29Z</time>
      </trkpt>
      <trkpt lat="48.13571" lon="-0.55783">
        <ele>130</ele>
        <time>2009-10-25T09:37:33Z</time>
      </trkpt>
      <trkpt lat="48.13568" lon="-0.55784">
        <ele>127</ele>
        <time>2009-10-25T09:37:37Z</time>
      </trkpt>
      <trkpt lat="48.13567" lon="-0.55786">
        <ele>124</ele>
        <time>2009-10-25T09:37:41Z</time>
      </trkpt>
      <trkpt lat="48.13567" lon="-0.55787">
        <ele>123</ele>
        <time>2009-10-25T09:37:45Z</time>
      </trkpt>
      <trkpt lat="48.13567" lon="-0.55787">
        <ele>123</ele>
        <time>2009-10-25T09:37:49Z</time>
      </trkpt>
      <trkpt lat="48.13566" lon="-0.55787">
        <ele>123</ele>
        <time>2009-10-25T09:37:53Z</time>
      </trkpt>
      <trkpt lat="48.13566" lon="-0.55787">
        <ele>122</ele>
        <time>2009-10-25T09:37:57Z</time>
      </trkpt>
      <trkpt lat="48.13566" lon="-0.55787">
        <ele>122</ele>
        <time>2009-10-25T09:38:01Z</time>
      </trkpt>
      <trkpt lat="48.13565" lon="-0.55787">
        <ele>122</ele>
        <time>2009-10-25T09:38:05Z</time>
      </trkpt>
      <trkpt lat="48.13565" lon="-0.55786">
        <ele>123</ele>
        <time>2009-10-25T09:38:09Z</time>
      </trkpt>
      <trkpt lat="48.13565" lon="-0.55786">
        <ele>123</ele>
        <time>2009-10-25T09:38:13Z</time>
      </trkpt>
      <trkpt lat="48.13565" lon="-0.55784">
        <ele>122</ele>
        <time>2009-10-25T09:38:17Z</time>
      </trkpt>
      <trkpt lat="48.13565" lon="-0.55784">
        <ele>122</ele>
        <time>2009-10-25T09:38:21Z</time>
      </trkpt>
      <trkpt lat="48.13564" lon="-0.55784">
        <ele>122</ele>
        <time>2009-10-25T09:38:25Z</time>
      </trkpt>
      <trkpt lat="48.13563" lon="-0.55786">
        <ele>123</ele>
        <time>2009-10-25T09:38:29Z</time>
      </trkpt>
      <trkpt lat="48.13561" lon="-0.55786">
        <ele>122</ele>
        <time>2009-10-25T09:38:33Z</time>
      </trkpt>
      <trkpt lat="48.13551" lon="-0.55782">
        <ele>125</ele>
        <time>2009-10-25T09:38:37Z</time>
      </trkpt>
      <trkpt lat="48.13548" lon="-0.55776">
        <ele>126</ele>
        <time>2009-10-25T09:38:41Z</time>
      </trkpt>
      <trkpt lat="48.13554" lon="-0.5577">
        <ele>127</ele>
        <time>2009-10-25T09:38:45Z</time>
      </trkpt>
      <trkpt lat="48.13564" lon="-0.55763">
        <ele>127</ele>
        <time>2009-10-25T09:38:49Z</time>
      </trkpt>
      <trkpt lat="48.13575" lon="-0.55754">
        <ele>127</ele>
        <time>2009-10-25T09:38:53Z</time>
      </trkpt>
      <trkpt lat="48.13583" lon="-0.55738">
        <ele>127</ele>
        <time>2009-10-25T09:38:57Z</time>
      </trkpt>
      <trkpt lat="48.13577" lon="-0.55716">
        <ele>127</ele>
        <time>2009-10-25T09:39:01Z</time>
      </trkpt>
      <trkpt lat="48.13573" lon="-0.5571">
        <ele>124</ele>
        <time>2009-10-25T09:39:05Z</time>
      </trkpt>
      <trkpt lat="48.13571" lon="-0.55709">
        <ele>124</ele>
        <time>2009-10-25T09:39:09Z</time>
      </trkpt>
      <trkpt lat="48.13572" lon="-0.55709">
        <ele>125</ele>
        <time>2009-10-25T09:39:13Z</time>
      </trkpt>
      <trkpt lat="48.13574" lon="-0.55709">
        <ele>126</ele>
        <time>2009-10-25T09:39:17Z</time>
      </trkpt>
      <trkpt lat="48.13577" lon="-0.55708">
        <ele>128</ele>
        <time>2009-10-25T09:39:21Z</time>
      </trkpt>
      <trkpt lat="48.13578" lon="-0.5571">
        <ele>128</ele>
        <time>2009-10-25T09:39:25Z</time>
      </trkpt>
      <trkpt lat="48.13577" lon="-0.55711">
        <ele>125</ele>
        <time>2009-10-25T09:39:29Z</time>
      </trkpt>
      <trkpt lat="48.13575" lon="-0.55711">
        <ele>122</ele>
        <time>2009-10-25T09:39:33Z</time>
      </trkpt>
      <trkpt lat="48.13574" lon="-0.55711">
        <ele>120</ele>
        <time>2009-10-25T09:39:37Z</time>
      </trkpt>
      <trkpt lat="48.13573" lon="-0.55711">
        <ele>117</ele>
        <time>2009-10-25T09:39:41Z</time>
      </trkpt>
      <trkpt lat="48.13571" lon="-0.5571">
        <ele>116</ele>
        <time>2009-10-25T09:39:45Z</time>
      </trkpt>
      <trkpt lat="48.13571" lon="-0.5571">
        <ele>117</ele>
        <time>2009-10-25T09:39:49Z</time>
      </trkpt>
      <trkpt lat="48.13571" lon="-0.55709">
        <ele>117</ele>
        <time>2009-10-25T09:39:53Z</time>
      </trkpt>
      <trkpt lat="48.13571" lon="-0.55709">
        <ele>118</ele>
        <time>2009-10-25T09:39:57Z</time>
      </trkpt>
      <trkpt lat="48.13571" lon="-0.55709">
        <ele>120</ele>
        <time>2009-10-25T09:40:01Z</time>
      </trkpt>
      <trkpt lat="48.13569" lon="-0.55707">
        <ele>121</ele>
        <time>2009-10-25T09:40:05Z</time>
      </trkpt>
      <trkpt lat="48.13568" lon="-0.55706">
        <ele>121</ele>
        <time>2009-10-25T09:40:09Z</time>
      </trkpt>
      <trkpt lat="48.13567" lon="-0.55706">
        <ele>122</ele>
        <time>2009-10-25T09:40:13Z</time>
      </trkpt>
      <trkpt lat="48.13566" lon="-0.55705">
        <ele>122</ele>
        <time>2009-10-25T09:40:17Z</time>
      </trkpt>
      <trkpt lat="48.13567" lon="-0.55704">
        <ele>122</ele>
        <time>2009-10-25T09:40:21Z</time>
      </trkpt>
      <trkpt lat="48.13567" lon="-0.55705">
        <ele>122</ele>
        <time>2009-10-25T09:40:25Z</time>
      </trkpt>
      <trkpt lat="48.13564" lon="-0.55712">
        <ele>122</ele>
        <time>2009-10-25T09:40:29Z</time>
      </trkpt>
      <trkpt lat="48.13564" lon="-0.55724">
        <ele>122</ele>
        <time>2009-10-25T09:40:33Z</time>
      </trkpt>
      <trkpt lat="48.13565" lon="-0.55739">
        <ele>122</ele>
        <time>2009-10-25T09:40:37Z</time>
      </trkpt>
      <trkpt lat="48.13566" lon="-0.55756">
        <ele>123</ele>
        <time>2009-10-25T09:40:41Z</time>
      </trkpt>
      <trkpt lat="48.13556" lon="-0.55767">
        <ele>122</ele>
        <time>2009-10-25T09:40:45Z</time>
      </trkpt>
      <trkpt lat="48.13546" lon="-0.55776">
        <ele>122</ele>
        <time>2009-10-25T09:40:49Z</time>
      </trkpt>
      <trkpt lat="48.1354" lon="-0.55783">
        <ele>123</ele>
        <time>2009-10-25T09:40:53Z</time>
      </trkpt>
      <trkpt lat="48.13547" lon="-0.55784">
        <ele>124</ele>
        <time>2009-10-25T09:40:57Z</time>
      </trkpt>
      <trkpt lat="48.13551" lon="-0.55789">
        <ele>125</ele>
        <time>2009-10-25T09:41:01Z</time>
      </trkpt>
      <trkpt lat="48.13554" lon="-0.55789">
        <ele>125</ele>
        <time>2009-10-25T09:41:05Z</time>
      </trkpt>
      <trkpt lat="48.13555" lon="-0.5579">
        <ele>126</ele>
        <time>2009-10-25T09:41:09Z</time>
      </trkpt>
      <trkpt lat="48.13555" lon="-0.55794">
        <ele>128</ele>
        <time>2009-10-25T09:41:13Z</time>
      </trkpt>
      <trkpt lat="48.13557" lon="-0.55795">
        <ele>130</ele>
        <time>2009-10-25T09:41:17Z</time>
      </trkpt>
      <trkpt lat="48.13557" lon="-0.55795">
        <ele>129</ele>
        <time>2009-10-25T09:41:21Z</time>
      </trkpt>
      <trkpt lat="48.13556" lon="-0.55795">
        <ele>129</ele>
        <time>2009-10-25T09:41:25Z</time>
      </trkpt>
      <trkpt lat="48.13554" lon="-0.55794">
        <ele>129</ele>
        <time>2009-10-25T09:41:29Z</time>
      </trkpt>
      <trkpt lat="48.13552" lon="-0.55796">
        <ele>129</ele>
        <time>2009-10-25T09:41:33Z</time>
      </trkpt>
      <trkpt lat="48.13552" lon="-0.55797">
        <ele>129</ele>
        <time>2009-10-25T09:41:37Z</time>
      </trkpt>
      <trkpt lat="48.13552" lon="-0.55798">
        <ele>130</ele>
        <time>2009-10-25T09:41:41Z</time>
      </trkpt>
      <trkpt lat="48.13552" lon="-0.55798">
        <ele>131</ele>
        <time>2009-10-25T09:41:45Z</time>
      </trkpt>
      <trkpt lat="48.13553" lon="-0.558">
        <ele>131</ele>
        <time>2009-10-25T09:41:49Z</time>
      </trkpt>
      <trkpt lat="48.13552" lon="-0.558">
        <ele>130</ele>
        <time>2009-10-25T09:41:53Z</time>
      </trkpt>
      <trkpt lat="48.13552" lon="-0.558">
        <ele>131</ele>
        <time>2009-10-25T09:41:57Z</time>
      </trkpt>
      <trkpt lat="48.13553" lon="-0.558">
        <ele>131</ele>
        <time>2009-10-25T09:42:01Z</time>
      </trkpt>
      <trkpt lat="48.13553" lon="-0.558">
        <ele>131</ele>
        <time>2009-10-25T09:42:05Z</time>
      </trkpt>
      <trkpt lat="48.13553" lon="-0.55801">
        <ele>131</ele>
        <time>2009-10-25T09:42:09Z</time>
      </trkpt>
      <trkpt lat="48.13553" lon="-0.55801">
        <ele>131</ele>
        <time>2009-10-25T09:42:13Z</time>
      </trkpt>
      <trkpt lat="48.13553" lon="-0.55801">
        <ele>132</ele>
        <time>2009-10-25T09:42:17Z</time>
      </trkpt>
      <trkpt lat="48.13553" lon="-0.558">
        <ele>130</ele>
        <time>2009-10-25T09:42:21Z</time>
      </trkpt>
      <trkpt lat="48.13552" lon="-0.55798">
        <ele>127</ele>
        <time>2009-10-25T09:42:25Z</time>
      </trkpt>
      <trkpt lat="48.13552" lon="-0.55797">
        <ele>127</ele>
        <time>2009-10-25T09:42:29Z</time>
      </trkpt>
      <trkpt lat="48.13552" lon="-0.55797">
        <ele>128</ele>
        <time>2009-10-25T09:42:33Z</time>
      </trkpt>
      <trkpt lat="48.13552" lon="-0.55797">
        <ele>128</ele>
        <time>2009-10-25T09:42:37Z</time>
      </trkpt>
      <trkpt lat="48.13552" lon="-0.55797">
        <ele>127</ele>
        <time>2009-10-25T09:42:41Z</time>
      </trkpt>
      <trkpt lat="48.13552" lon="-0.55797">
        <ele>128</ele>
        <time>2009-10-25T09:42:45Z</time>
      </trkpt>
      <trkpt lat="48.13553" lon="-0.55797">
        <ele>128</ele>
        <time>2009-10-25T09:42:49Z</time>
      </trkpt>
      <trkpt lat="48.13553" lon="-0.55796">
        <ele>129</ele>
        <time>2009-10-25T09:42:53Z</time>
      </trkpt>
      <trkpt lat="48.13553" lon="-0.55796">
        <ele>129</ele>
        <time>2009-10-25T09:42:57Z</time>
      </trkpt>
      <trkpt lat="48.13553" lon="-0.55796">
        <ele>129</ele>
        <time>2009-10-25T09:43:01Z</time>
      </trkpt>
      <trkpt lat="48.13554" lon="-0.55794">
        <ele>129</ele>
        <time>2009-10-25T09:43:05Z</time>
      </trkpt>
      <trkpt lat="48.13554" lon="-0.55796">
        <ele>128</ele>
        <time>2009-10-25T09:43:09Z</time>
      </trkpt>
      <trkpt lat="48.13554" lon="-0.55796">
        <ele>127</ele>
        <time>2009-10-25T09:43:13Z</time>
      </trkpt>
      <trkpt lat="48.13555" lon="-0.55795">
        <ele>128</ele>
        <time>2009-10-25T09:43:17Z</time>
      </trkpt>
      <trkpt lat="48.13556" lon="-0.55794">
        <ele>129</ele>
        <time>2009-10-25T09:43:21Z</time>
      </trkpt>
      <trkpt lat="48.13556" lon="-0.55794">
        <ele>129</ele>
        <time>2009-10-25T09:43:25Z</time>
      </trkpt>
      <trkpt lat="48.13556" lon="-0.55795">
        <ele>128</ele>
        <time>2009-10-25T09:43:29Z</time>
      </trkpt>
      <trkpt lat="48.13557" lon="-0.55794">
        <ele>129</ele>
        <time>2009-10-25T09:43:33Z</time>
      </trkpt>
      <trkpt lat="48.13557" lon="-0.55794">
        <ele>130</ele>
        <time>2009-10-25T09:43:37Z</time>
      </trkpt>
      <trkpt lat="48.13557" lon="-0.55794">
        <ele>130</ele>
        <time>2009-10-25T09:43:41Z</time>
      </trkpt>
      <trkpt lat="48.13557" lon="-0.55794">
        <ele>130</ele>
        <time>2009-10-25T09:43:45Z</time>
      </trkpt>
      <trkpt lat="48.13557" lon="-0.55794">
        <ele>130</ele>
        <time>2009-10-25T09:43:49Z</time>
      </trkpt>
      <trkpt lat="48.13557" lon="-0.55794">
        <ele>130</ele>
        <time>2009-10-25T09:43:53Z</time>
      </trkpt>
      <trkpt lat="48.13557" lon="-0.55794">
        <ele>130</ele>
        <time>2009-10-25T09:43:57Z</time>
      </trkpt>
      <trkpt lat="48.13557" lon="-0.55794">
        <ele>130</ele>
        <time>2009-10-25T09:44:01Z</time>
      </trkpt>
      <trkpt lat="48.13558" lon="-0.55794">
        <ele>130</ele>
        <time>2009-10-25T09:44:05Z</time>
      </trkpt>
      <trkpt lat="48.13557" lon="-0.55794">
        <ele>130</ele>
        <time>2009-10-25T09:44:09Z</time>
      </trkpt>
      <trkpt lat="48.13557" lon="-0.55794">
        <ele>130</ele>
        <time>2009-10-25T09:44:13Z</time>
      </trkpt>
      <trkpt lat="48.13558" lon="-0.55794">
        <ele>132</ele>
        <time>2009-10-25T09:44:17Z</time>
      </trkpt>
      <trkpt lat="48.13558" lon="-0.55794">
        <ele>132</ele>
        <time>2009-10-25T09:44:21Z</time>
      </trkpt>
      <trkpt lat="48.13557" lon="-0.55795">
        <ele>133</ele>
        <time>2009-10-25T09:44:25Z</time>
      </trkpt>
      <trkpt lat="48.13557" lon="-0.55795">
        <ele>132</ele>
        <time>2009-10-25T09:44:29Z</time>
      </trkpt>
      <trkpt lat="48.13557" lon="-0.55795">
        <ele>133</ele>
        <time>2009-10-25T09:44:33Z</time>
      </trkpt>
      <trkpt lat="48.13557" lon="-0.55795">
        <ele>132</ele>
        <time>2009-10-25T09:44:37Z</time>
      </trkpt>
      <trkpt lat="48.13557" lon="-0.55795">
        <ele>132</ele>
        <time>2009-10-25T09:44:41Z</time>
      </trkpt>
      <trkpt lat="48.13557" lon="-0.55795">
        <ele>132</ele>
        <time>2009-10-25T09:44:45Z</time>
      </trkpt>
      <trkpt lat="48.13557" lon="-0.55795">
        <ele>132</ele>
        <time>2009-10-25T09:44:49Z</time>
      </trkpt>
      <trkpt lat="48.13557" lon="-0.55795">
        <ele>132</ele>
        <time>2009-10-25T09:44:53Z</time>
      </trkpt>
      <trkpt lat="48.13557" lon="-0.55795">
        <ele>132</ele>
        <time>2009-10-25T09:44:57Z</time>
      </trkpt>
      <trkpt lat="48.13557" lon="-0.55795">
        <ele>132</ele>
        <time>2009-10-25T09:45:01Z</time>
      </trkpt>
      <trkpt lat="48.13558" lon="-0.55795">
        <ele>132</ele>
        <time>2009-10-25T09:45:05Z</time>
      </trkpt>
      <trkpt lat="48.13558" lon="-0.55795">
        <ele>132</ele>
        <time>2009-10-25T09:45:09Z</time>
      </trkpt>
      <trkpt lat="48.13558" lon="-0.55795">
        <ele>132</ele>
        <time>2009-10-25T09:45:13Z</time>
      </trkpt>
      <trkpt lat="48.13558" lon="-0.55795">
        <ele>132</ele>
        <time>2009-10-25T09:45:17Z</time>
      </trkpt>
      <trkpt lat="48.13558" lon="-0.55795">
        <ele>133</ele>
        <time>2009-10-25T09:45:21Z</time>
      </trkpt>
      <trkpt lat="48.13558" lon="-0.55795">
        <ele>133</ele>
        <time>2009-10-25T09:45:25Z</time>
      </trkpt>
      <trkpt lat="48.13558" lon="-0.55795">
        <ele>133</ele>
        <time>2009-10-25T09:45:29Z</time>
      </trkpt>
      <trkpt lat="48.13558" lon="-0.55795">
        <ele>133</ele>
        <time>2009-10-25T09:45:33Z</time>
      </trkpt>
      <trkpt lat="48.13558" lon="-0.55795">
        <ele>133</ele>
        <time>2009-10-25T09:45:37Z</time>
      </trkpt>
      <trkpt lat="48.13558" lon="-0.55794">
        <ele>133</ele>
        <time>2009-10-25T09:45:41Z</time>
      </trkpt>
      <trkpt lat="48.13558" lon="-0.55794">
        <ele>133</ele>
        <time>2009-10-25T09:45:45Z</time>
      </trkpt>
      <trkpt lat="48.13547" lon="-0.55791">
        <ele>137</ele>
        <time>2009-10-25T09:45:49Z</time>
      </trkpt>
      <trkpt lat="48.13539" lon="-0.55794">
        <ele>135</ele>
        <time>2009-10-25T09:45:53Z</time>
      </trkpt>
      <trkpt lat="48.13528" lon="-0.55797">
        <ele>134</ele>
        <time>2009-10-25T09:45:57Z</time>
      </trkpt>
      <trkpt lat="48.13527" lon="-0.55805">
        <ele>134</ele>
        <time>2009-10-25T09:46:01Z</time>
      </trkpt>
      <trkpt lat="48.13524" lon="-0.55821">
        <ele>132</ele>
        <time>2009-10-25T09:46:05Z</time>
      </trkpt>
      <trkpt lat="48.13525" lon="-0.55841">
        <ele>130</ele>
        <time>2009-10-25T09:46:09Z</time>
      </trkpt>
      <trkpt lat="48.13525" lon="-0.55863">
        <ele>129</ele>
        <time>2009-10-25T09:46:13Z</time>
      </trkpt>
      <trkpt lat="48.13527" lon="-0.55886">
        <ele>129</ele>
        <time>2009-10-25T09:46:17Z</time>
      </trkpt>
      <trkpt lat="48.13527" lon="-0.5591">
        <ele>129</ele>
        <time>2009-10-25T09:46:21Z</time>
      </trkpt>
      <trkpt lat="48.13528" lon="-0.55937">
        <ele>128</ele>
        <time>2009-10-25T09:46:25Z</time>
      </trkpt>
      <trkpt lat="48.13531" lon="-0.55965">
        <ele>128</ele>
        <time>2009-10-25T09:46:29Z</time>
      </trkpt>
      <trkpt lat="48.13533" lon="-0.55995">
        <ele>129</ele>
        <time>2009-10-25T09:46:33Z</time>
      </trkpt>
      <trkpt lat="48.13536" lon="-0.56025">
        <ele>128</ele>
        <time>2009-10-25T09:46:37Z</time>
      </trkpt>
      <trkpt lat="48.13539" lon="-0.56056">
        <ele>128</ele>
        <time>2009-10-25T09:46:41Z</time>
      </trkpt>
      <trkpt lat="48.13541" lon="-0.56084">
        <ele>128</ele>
        <time>2009-10-25T09:46:45Z</time>
      </trkpt>
      <trkpt lat="48.13543" lon="-0.56115">
        <ele>127</ele>
        <time>2009-10-25T09:46:49Z</time>
      </trkpt>
      <trkpt lat="48.13545" lon="-0.56143">
        <ele>128</ele>
        <time>2009-10-25T09:46:53Z</time>
      </trkpt>
      <trkpt lat="48.13548" lon="-0.56172">
        <ele>128</ele>
        <time>2009-10-25T09:46:57Z</time>
      </trkpt>
      <trkpt lat="48.1355" lon="-0.56202">
        <ele>128</ele>
        <time>2009-10-25T09:47:01Z</time>
      </trkpt>
      <trkpt lat="48.13552" lon="-0.56231">
        <ele>127</ele>
        <time>2009-10-25T09:47:05Z</time>
      </trkpt>
      <trkpt lat="48.13555" lon="-0.56259">
        <ele>128</ele>
        <time>2009-10-25T09:47:09Z</time>
      </trkpt>
      <trkpt lat="48.13557" lon="-0.56286">
        <ele>128</ele>
        <time>2009-10-25T09:47:14Z</time>
      </trkpt>
      <trkpt lat="48.13558" lon="-0.56312">
        <ele>128</ele>
        <time>2009-10-25T09:47:18Z</time>
      </trkpt>
      <trkpt lat="48.13559" lon="-0.5634">
        <ele>127</ele>
        <time>2009-10-25T09:47:22Z</time>
      </trkpt>
      <trkpt lat="48.13558" lon="-0.56371">
        <ele>126</ele>
        <time>2009-10-25T09:47:26Z</time>
      </trkpt>
      <trkpt lat="48.13557" lon="-0.56403">
        <ele>124</ele>
        <time>2009-10-25T09:47:30Z</time>
      </trkpt>
      <trkpt lat="48.13554" lon="-0.56437">
        <ele>123</ele>
        <time>2009-10-25T09:47:34Z</time>
      </trkpt>
      <trkpt lat="48.13549" lon="-0.56468">
        <ele>122</ele>
        <time>2009-10-25T09:47:38Z</time>
      </trkpt>
      <trkpt lat="48.13543" lon="-0.56496">
        <ele>122</ele>
        <time>2009-10-25T09:47:42Z</time>
      </trkpt>
      <trkpt lat="48.13535" lon="-0.56526">
        <ele>123</ele>
        <time>2009-10-25T09:47:46Z</time>
      </trkpt>
      <trkpt lat="48.13528" lon="-0.56555">
        <ele>124</ele>
        <time>2009-10-25T09:47:50Z</time>
      </trkpt>
      <trkpt lat="48.1352" lon="-0.56582">
        <ele>125</ele>
        <time>2009-10-25T09:47:54Z</time>
      </trkpt>
      <trkpt lat="48.13512" lon="-0.56608">
        <ele>126</ele>
        <time>2009-10-25T09:47:58Z</time>
      </trkpt>
      <trkpt lat="48.13503" lon="-0.56633">
        <ele>127</ele>
        <time>2009-10-25T09:48:02Z</time>
      </trkpt>
      <trkpt lat="48.13494" lon="-0.56655">
        <ele>129</ele>
        <time>2009-10-25T09:48:06Z</time>
      </trkpt>
      <trkpt lat="48.13484" lon="-0.56681">
        <ele>130</ele>
        <time>2009-10-25T09:48:10Z</time>
      </trkpt>
      <trkpt lat="48.13478" lon="-0.56698">
        <ele>132</ele>
        <time>2009-10-25T09:48:14Z</time>
      </trkpt>
      <trkpt lat="48.13471" lon="-0.56719">
        <ele>133</ele>
        <time>2009-10-25T09:48:18Z</time>
      </trkpt>
      <trkpt lat="48.13464" lon="-0.56742">
        <ele>135</ele>
        <time>2009-10-25T09:48:22Z</time>
      </trkpt>
      <trkpt lat="48.13453" lon="-0.56767">
        <ele>135</ele>
        <time>2009-10-25T09:48:26Z</time>
      </trkpt>
      <trkpt lat="48.1344" lon="-0.56792">
        <ele>135</ele>
        <time>2009-10-25T09:48:30Z</time>
      </trkpt>
      <trkpt lat="48.13438" lon="-0.56819">
        <ele>135</ele>
        <time>2009-10-25T09:48:34Z</time>
      </trkpt>
      <trkpt lat="48.13458" lon="-0.56839">
        <ele>135</ele>
        <time>2009-10-25T09:48:38Z</time>
      </trkpt>
      <trkpt lat="48.1347" lon="-0.56859">
        <ele>134</ele>
        <time>2009-10-25T09:48:42Z</time>
      </trkpt>
      <trkpt lat="48.1348" lon="-0.56872">
        <ele>136</ele>
        <time>2009-10-25T09:48:46Z</time>
      </trkpt>
      <trkpt lat="48.13489" lon="-0.56887">
        <ele>136</ele>
        <time>2009-10-25T09:48:50Z</time>
      </trkpt>
      <trkpt lat="48.13491" lon="-0.56914">
        <ele>137</ele>
        <time>2009-10-25T09:48:54Z</time>
      </trkpt>
      <trkpt lat="48.1348" lon="-0.56942">
        <ele>137</ele>
        <time>2009-10-25T09:48:58Z</time>
      </trkpt>
      <trkpt lat="48.13467" lon="-0.56965">
        <ele>136</ele>
        <time>2009-10-25T09:49:02Z</time>
      </trkpt>
      <trkpt lat="48.13456" lon="-0.56984">
        <ele>137</ele>
        <time>2009-10-25T09:49:06Z</time>
      </trkpt>
      <trkpt lat="48.13443" lon="-0.57008">
        <ele>137</ele>
        <time>2009-10-25T09:49:10Z</time>
      </trkpt>
      <trkpt lat="48.1343" lon="-0.57026">
        <ele>138</ele>
        <time>2009-10-25T09:49:14Z</time>
      </trkpt>
      <trkpt lat="48.13415" lon="-0.57043">
        <ele>138</ele>
        <time>2009-10-25T09:49:18Z</time>
      </trkpt>
      <trkpt lat="48.134" lon="-0.57062">
        <ele>137</ele>
        <time>2009-10-25T09:49:22Z</time>
      </trkpt>
      <trkpt lat="48.13387" lon="-0.57086">
        <ele>134</ele>
        <time>2009-10-25T09:49:26Z</time>
      </trkpt>
      <trkpt lat="48.13372" lon="-0.57112">
        <ele>133</ele>
        <time>2009-10-25T09:49:30Z</time>
      </trkpt>
      <trkpt lat="48.13359" lon="-0.57137">
        <ele>133</ele>
        <time>2009-10-25T09:49:34Z</time>
      </trkpt>
      <trkpt lat="48.13347" lon="-0.57162">
        <ele>133</ele>
        <time>2009-10-25T09:49:38Z</time>
      </trkpt>
      <trkpt lat="48.13343" lon="-0.57187">
        <ele>134</ele>
        <time>2009-10-25T09:49:42Z</time>
      </trkpt>
      <trkpt lat="48.1334" lon="-0.57213">
        <ele>134</ele>
        <time>2009-10-25T09:49:46Z</time>
      </trkpt>
      <trkpt lat="48.13332" lon="-0.57236">
        <ele>135</ele>
        <time>2009-10-25T09:49:50Z</time>
      </trkpt>
      <trkpt lat="48.13328" lon="-0.57258">
        <ele>136</ele>
        <time>2009-10-25T09:49:54Z</time>
      </trkpt>
      <trkpt lat="48.13322" lon="-0.5728">
        <ele>138</ele>
        <time>2009-10-25T09:49:58Z</time>
      </trkpt>
      <trkpt lat="48.13313" lon="-0.57304">
        <ele>137</ele>
        <time>2009-10-25T09:50:02Z</time>
      </trkpt>
      <trkpt lat="48.13305" lon="-0.57329">
        <ele>140</ele>
        <time>2009-10-25T09:50:06Z</time>
      </trkpt>
      <trkpt lat="48.13298" lon="-0.57356">
        <ele>140</ele>
        <time>2009-10-25T09:50:10Z</time>
      </trkpt>
      <trkpt lat="48.13292" lon="-0.57383">
        <ele>139</ele>
        <time>2009-10-25T09:50:14Z</time>
      </trkpt>
      <trkpt lat="48.13284" lon="-0.57409">
        <ele>139</ele>
        <time>2009-10-25T09:50:18Z</time>
      </trkpt>
      <trkpt lat="48.13279" lon="-0.57435">
        <ele>138</ele>
        <time>2009-10-25T09:50:22Z</time>
      </trkpt>
      <trkpt lat="48.13274" lon="-0.57458">
        <ele>138</ele>
        <time>2009-10-25T09:50:26Z</time>
      </trkpt>
      <trkpt lat="48.13271" lon="-0.57478">
        <ele>140</ele>
        <time>2009-10-25T09:50:30Z</time>
      </trkpt>
      <trkpt lat="48.13267" lon="-0.57501">
        <ele>141</ele>
        <time>2009-10-25T09:50:34Z</time>
      </trkpt>
      <trkpt lat="48.1326" lon="-0.57526">
        <ele>142</ele>
        <time>2009-10-25T09:50:38Z</time>
      </trkpt>
      <trkpt lat="48.13253" lon="-0.57548">
        <ele>144</ele>
        <time>2009-10-25T09:50:42Z</time>
      </trkpt>
      <trkpt lat="48.13247" lon="-0.5757">
        <ele>143</ele>
        <time>2009-10-25T09:50:46Z</time>
      </trkpt>
      <trkpt lat="48.13243" lon="-0.5759">
        <ele>143</ele>
        <time>2009-10-25T09:50:50Z</time>
      </trkpt>
      <trkpt lat="48.13238" lon="-0.57609">
        <ele>144</ele>
        <time>2009-10-25T09:50:54Z</time>
      </trkpt>
      <trkpt lat="48.13234" lon="-0.57628">
        <ele>144</ele>
        <time>2009-10-25T09:50:58Z</time>
      </trkpt>
      <trkpt lat="48.13229" lon="-0.57648">
        <ele>144</ele>
        <time>2009-10-25T09:51:02Z</time>
      </trkpt>
      <trkpt lat="48.13223" lon="-0.57672">
        <ele>143</ele>
        <time>2009-10-25T09:51:06Z</time>
      </trkpt>
      <trkpt lat="48.13218" lon="-0.57693">
        <ele>143</ele>
        <time>2009-10-25T09:51:10Z</time>
      </trkpt>
      <trkpt lat="48.13214" lon="-0.57714">
        <ele>144</ele>
        <time>2009-10-25T09:51:14Z</time>
      </trkpt>
      <trkpt lat="48.1321" lon="-0.57734">
        <ele>144</ele>
        <time>2009-10-25T09:51:18Z</time>
      </trkpt>
      <trkpt lat="48.13205" lon="-0.57756">
        <ele>144</ele>
        <time>2009-10-25T09:51:22Z</time>
      </trkpt>
      <trkpt lat="48.13201" lon="-0.57777">
        <ele>143</ele>
        <time>2009-10-25T09:51:26Z</time>
      </trkpt>
      <trkpt lat="48.13196" lon="-0.57805">
        <ele>142</ele>
        <time>2009-10-25T09:51:30Z</time>
      </trkpt>
      <trkpt lat="48.13192" lon="-0.57834">
        <ele>141</ele>
        <time>2009-10-25T09:51:34Z</time>
      </trkpt>
      <trkpt lat="48.13187" lon="-0.57873">
        <ele>140</ele>
        <time>2009-10-25T09:51:38Z</time>
      </trkpt>
      <trkpt lat="48.13174" lon="-0.57914">
        <ele>137</ele>
        <time>2009-10-25T09:51:42Z</time>
      </trkpt>
      <trkpt lat="48.13161" lon="-0.57953">
        <ele>133</ele>
        <time>2009-10-25T09:51:46Z</time>
      </trkpt>
      <trkpt lat="48.13161" lon="-0.57982">
        <ele>132</ele>
        <time>2009-10-25T09:51:50Z</time>
      </trkpt>
      <trkpt lat="48.13178" lon="-0.57991">
        <ele>132</ele>
        <time>2009-10-25T09:51:54Z</time>
      </trkpt>
      <trkpt lat="48.1319" lon="-0.58009">
        <ele>133</ele>
        <time>2009-10-25T09:51:58Z</time>
      </trkpt>
      <trkpt lat="48.13188" lon="-0.58037">
        <ele>133</ele>
        <time>2009-10-25T09:52:02Z</time>
      </trkpt>
      <trkpt lat="48.13184" lon="-0.58063">
        <ele>134</ele>
        <time>2009-10-25T09:52:06Z</time>
      </trkpt>
      <trkpt lat="48.13183" lon="-0.58087">
        <ele>135</ele>
        <time>2009-10-25T09:52:10Z</time>
      </trkpt>
      <trkpt lat="48.13186" lon="-0.58111">
        <ele>136</ele>
        <time>2009-10-25T09:52:14Z</time>
      </trkpt>
      <trkpt lat="48.13189" lon="-0.58134">
        <ele>137</ele>
        <time>2009-10-25T09:52:18Z</time>
      </trkpt>
      <trkpt lat="48.13193" lon="-0.58155">
        <ele>137</ele>
        <time>2009-10-25T09:52:22Z</time>
      </trkpt>
      <trkpt lat="48.13197" lon="-0.58178">
        <ele>138</ele>
        <time>2009-10-25T09:52:26Z</time>
      </trkpt>
      <trkpt lat="48.13201" lon="-0.58198">
        <ele>140</ele>
        <time>2009-10-25T09:52:30Z</time>
      </trkpt>
      <trkpt lat="48.13204" lon="-0.58218">
        <ele>141</ele>
        <time>2009-10-25T09:52:34Z</time>
      </trkpt>
      <trkpt lat="48.13208" lon="-0.58237">
        <ele>142</ele>
        <time>2009-10-25T09:52:38Z</time>
      </trkpt>
      <trkpt lat="48.13211" lon="-0.58254">
        <ele>143</ele>
        <time>2009-10-25T09:52:42Z</time>
      </trkpt>
      <trkpt lat="48.13213" lon="-0.58271">
        <ele>144</ele>
        <time>2009-10-25T09:52:46Z</time>
      </trkpt>
      <trkpt lat="48.13216" lon="-0.58287">
        <ele>145</ele>
        <time>2009-10-25T09:52:50Z</time>
      </trkpt>
      <trkpt lat="48.13219" lon="-0.58303">
        <ele>146</ele>
        <time>2009-10-25T09:52:54Z</time>
      </trkpt>
      <trkpt lat="48.13223" lon="-0.58319">
        <ele>147</ele>
        <time>2009-10-25T09:52:58Z</time>
      </trkpt>
      <trkpt lat="48.13226" lon="-0.58337">
        <ele>148</ele>
        <time>2009-10-25T09:53:02Z</time>
      </trkpt>
      <trkpt lat="48.13229" lon="-0.58354">
        <ele>149</ele>
        <time>2009-10-25T09:53:06Z</time>
      </trkpt>
      <trkpt lat="48.13232" lon="-0.58371">
        <ele>150</ele>
        <time>2009-10-25T09:53:10Z</time>
      </trkpt>
      <trkpt lat="48.13235" lon="-0.58387">
        <ele>151</ele>
        <time>2009-10-25T09:53:14Z</time>
      </trkpt>
      <trkpt lat="48.13238" lon="-0.58403">
        <ele>152</ele>
        <time>2009-10-25T09:53:18Z</time>
      </trkpt>
      <trkpt lat="48.13239" lon="-0.58421">
        <ele>152</ele>
        <time>2009-10-25T09:53:22Z</time>
      </trkpt>
      <trkpt lat="48.13245" lon="-0.5843">
        <ele>152</ele>
        <time>2009-10-25T09:53:26Z</time>
      </trkpt>
      <trkpt lat="48.13253" lon="-0.58425">
        <ele>153</ele>
        <time>2009-10-25T09:53:30Z</time>
      </trkpt>
      <trkpt lat="48.13266" lon="-0.58418">
        <ele>152</ele>
        <time>2009-10-25T09:53:34Z</time>
      </trkpt>
      <trkpt lat="48.13277" lon="-0.58415">
        <ele>152</ele>
        <time>2009-10-25T09:53:38Z</time>
      </trkpt>
      <trkpt lat="48.1329" lon="-0.58416">
        <ele>152</ele>
        <time>2009-10-25T09:53:42Z</time>
      </trkpt>
      <trkpt lat="48.13303" lon="-0.58415">
        <ele>152</ele>
        <time>2009-10-25T09:53:46Z</time>
      </trkpt>
      <trkpt lat="48.13313" lon="-0.58413">
        <ele>152</ele>
        <time>2009-10-25T09:53:50Z</time>
      </trkpt>
      <trkpt lat="48.13327" lon="-0.58403">
        <ele>151</ele>
        <time>2009-10-25T09:53:54Z</time>
      </trkpt>
      <trkpt lat="48.13331" lon="-0.58379">
        <ele>151</ele>
        <time>2009-10-25T09:53:58Z</time>
      </trkpt>
      <trkpt lat="48.13334" lon="-0.5835">
        <ele>151</ele>
        <time>2009-10-25T09:54:02Z</time>
      </trkpt>
      <trkpt lat="48.13347" lon="-0.58335">
        <ele>151</ele>
        <time>2009-10-25T09:54:06Z</time>
      </trkpt>
      <trkpt lat="48.13366" lon="-0.58326">
        <ele>150</ele>
        <time>2009-10-25T09:54:10Z</time>
      </trkpt>
      <trkpt lat="48.13385" lon="-0.58316">
        <ele>149</ele>
        <time>2009-10-25T09:54:14Z</time>
      </trkpt>
      <trkpt lat="48.13408" lon="-0.58303">
        <ele>149</ele>
        <time>2009-10-25T09:54:18Z</time>
      </trkpt>
      <trkpt lat="48.13428" lon="-0.58284">
        <ele>149</ele>
        <time>2009-10-25T09:54:22Z</time>
      </trkpt>
      <trkpt lat="48.13446" lon="-0.58275">
        <ele>149</ele>
        <time>2009-10-25T09:54:26Z</time>
      </trkpt>
      <trkpt lat="48.13459" lon="-0.58275">
        <ele>148</ele>
        <time>2009-10-25T09:54:30Z</time>
      </trkpt>
      <trkpt lat="48.1347" lon="-0.58274">
        <ele>149</ele>
        <time>2009-10-25T09:54:34Z</time>
      </trkpt>
      <trkpt lat="48.1348" lon="-0.58275">
        <ele>149</ele>
        <time>2009-10-25T09:54:38Z</time>
      </trkpt>
      <trkpt lat="48.13488" lon="-0.58275">
        <ele>150</ele>
        <time>2009-10-25T09:54:42Z</time>
      </trkpt>
      <trkpt lat="48.13494" lon="-0.58274">
        <ele>151</ele>
        <time>2009-10-25T09:54:46Z</time>
      </trkpt>
      <trkpt lat="48.13499" lon="-0.58273">
        <ele>151</ele>
        <time>2009-10-25T09:54:50Z</time>
      </trkpt>
      <trkpt lat="48.13504" lon="-0.58274">
        <ele>151</ele>
        <time>2009-10-25T09:54:54Z</time>
      </trkpt>
      <trkpt lat="48.13509" lon="-0.58276">
        <ele>151</ele>
        <time>2009-10-25T09:54:58Z</time>
      </trkpt>
      <trkpt lat="48.13515" lon="-0.58281">
        <ele>151</ele>
        <time>2009-10-25T09:55:02Z</time>
      </trkpt>
      <trkpt lat="48.1352" lon="-0.58285">
        <ele>151</ele>
        <time>2009-10-25T09:55:07Z</time>
      </trkpt>
      <trkpt lat="48.13524" lon="-0.58289">
        <ele>151</ele>
        <time>2009-10-25T09:55:10Z</time>
      </trkpt>
      <trkpt lat="48.13528" lon="-0.58288">
        <ele>153</ele>
        <time>2009-10-25T09:55:14Z</time>
      </trkpt>
      <trkpt lat="48.13529" lon="-0.58279">
        <ele>153</ele>
        <time>2009-10-25T09:55:18Z</time>
      </trkpt>
      <trkpt lat="48.13529" lon="-0.58273">
        <ele>154</ele>
        <time>2009-10-25T09:55:22Z</time>
      </trkpt>
      <trkpt lat="48.13528" lon="-0.58262">
        <ele>156</ele>
        <time>2009-10-25T09:55:27Z</time>
      </trkpt>
      <trkpt lat="48.13528" lon="-0.58246">
        <ele>156</ele>
        <time>2009-10-25T09:55:31Z</time>
      </trkpt>
      <trkpt lat="48.13528" lon="-0.58228">
        <ele>156</ele>
        <time>2009-10-25T09:55:35Z</time>
      </trkpt>
      <trkpt lat="48.1353" lon="-0.58211">
        <ele>156</ele>
        <time>2009-10-25T09:55:39Z</time>
      </trkpt>
      <trkpt lat="48.13533" lon="-0.58196">
        <ele>158</ele>
        <time>2009-10-25T09:55:43Z</time>
      </trkpt>
      <trkpt lat="48.13535" lon="-0.58178">
        <ele>159</ele>
        <time>2009-10-25T09:55:47Z</time>
      </trkpt>
      <trkpt lat="48.13539" lon="-0.58163">
        <ele>160</ele>
        <time>2009-10-25T09:55:51Z</time>
      </trkpt>
      <trkpt lat="48.13542" lon="-0.58148">
        <ele>160</ele>
        <time>2009-10-25T09:55:55Z</time>
      </trkpt>
      <trkpt lat="48.13544" lon="-0.58132">
        <ele>161</ele>
        <time>2009-10-25T09:55:59Z</time>
      </trkpt>
      <trkpt lat="48.13546" lon="-0.58117">
        <ele>161</ele>
        <time>2009-10-25T09:56:03Z</time>
      </trkpt>
      <trkpt lat="48.13547" lon="-0.58103">
        <ele>161</ele>
        <time>2009-10-25T09:56:07Z</time>
      </trkpt>
      <trkpt lat="48.13551" lon="-0.58088">
        <ele>162</ele>
        <time>2009-10-25T09:56:11Z</time>
      </trkpt>
      <trkpt lat="48.13557" lon="-0.58078">
        <ele>164</ele>
        <time>2009-10-25T09:56:15Z</time>
      </trkpt>
      <trkpt lat="48.13562" lon="-0.58066">
        <ele>164</ele>
        <time>2009-10-25T09:56:19Z</time>
      </trkpt>
      <trkpt lat="48.13568" lon="-0.58052">
        <ele>165</ele>
        <time>2009-10-25T09:56:23Z</time>
      </trkpt>
      <trkpt lat="48.13573" lon="-0.58041">
        <ele>168</ele>
        <time>2009-10-25T09:56:27Z</time>
      </trkpt>
      <trkpt lat="48.13577" lon="-0.5803">
        <ele>170</ele>
        <time>2009-10-25T09:56:31Z</time>
      </trkpt>
      <trkpt lat="48.13582" lon="-0.58019">
        <ele>171</ele>
        <time>2009-10-25T09:56:35Z</time>
      </trkpt>
      <trkpt lat="48.13587" lon="-0.58009">
        <ele>174</ele>
        <time>2009-10-25T09:56:39Z</time>
      </trkpt>
      <trkpt lat="48.13592" lon="-0.57998">
        <ele>176</ele>
        <time>2009-10-25T09:56:43Z</time>
      </trkpt>
      <trkpt lat="48.136" lon="-0.57987">
        <ele>175</ele>
        <time>2009-10-25T09:56:47Z</time>
      </trkpt>
      <trkpt lat="48.13609" lon="-0.57977">
        <ele>173</ele>
        <time>2009-10-25T09:56:51Z</time>
      </trkpt>
      <trkpt lat="48.13618" lon="-0.5797">
        <ele>171</ele>
        <time>2009-10-25T09:56:55Z</time>
      </trkpt>
      <trkpt lat="48.13626" lon="-0.57964">
        <ele>168</ele>
        <time>2009-10-25T09:56:59Z</time>
      </trkpt>
      <trkpt lat="48.13636" lon="-0.57961">
        <ele>167</ele>
        <time>2009-10-25T09:57:03Z</time>
      </trkpt>
      <trkpt lat="48.13645" lon="-0.57957">
        <ele>167</ele>
        <time>2009-10-25T09:57:07Z</time>
      </trkpt>
      <trkpt lat="48.13655" lon="-0.57952">
        <ele>168</ele>
        <time>2009-10-25T09:57:11Z</time>
      </trkpt>
      <trkpt lat="48.13665" lon="-0.57948">
        <ele>168</ele>
        <time>2009-10-25T09:57:15Z</time>
      </trkpt>
      <trkpt lat="48.13677" lon="-0.57945">
        <ele>168</ele>
        <time>2009-10-25T09:57:19Z</time>
      </trkpt>
      <trkpt lat="48.13686" lon="-0.57945">
        <ele>169</ele>
        <time>2009-10-25T09:57:23Z</time>
      </trkpt>
      <trkpt lat="48.1369" lon="-0.57959">
        <ele>168</ele>
        <time>2009-10-25T09:57:27Z</time>
      </trkpt>
      <trkpt lat="48.13691" lon="-0.57976">
        <ele>167</ele>
        <time>2009-10-25T09:57:31Z</time>
      </trkpt>
      <trkpt lat="48.13693" lon="-0.57994">
        <ele>168</ele>
        <time>2009-10-25T09:57:35Z</time>
      </trkpt>
      <trkpt lat="48.13696" lon="-0.58011">
        <ele>168</ele>
        <time>2009-10-25T09:57:39Z</time>
      </trkpt>
      <trkpt lat="48.13699" lon="-0.58028">
        <ele>169</ele>
        <time>2009-10-25T09:57:43Z</time>
      </trkpt>
      <trkpt lat="48.13701" lon="-0.58046">
        <ele>170</ele>
        <time>2009-10-25T09:57:47Z</time>
      </trkpt>
      <trkpt lat="48.13703" lon="-0.58058">
        <ele>170</ele>
        <time>2009-10-25T09:57:51Z</time>
      </trkpt>
      <trkpt lat="48.13704" lon="-0.58066">
        <ele>170</ele>
        <time>2009-10-25T09:57:55Z</time>
      </trkpt>
      <trkpt lat="48.13706" lon="-0.58075">
        <ele>170</ele>
        <time>2009-10-25T09:57:59Z</time>
      </trkpt>
      <trkpt lat="48.13708" lon="-0.58087">
        <ele>171</ele>
        <time>2009-10-25T09:58:03Z</time>
      </trkpt>
      <trkpt lat="48.13709" lon="-0.58098">
        <ele>171</ele>
        <time>2009-10-25T09:58:07Z</time>
      </trkpt>
      <trkpt lat="48.13711" lon="-0.58108">
        <ele>171</ele>
        <time>2009-10-25T09:58:11Z</time>
      </trkpt>
      <trkpt lat="48.13712" lon="-0.58119">
        <ele>172</ele>
        <time>2009-10-25T09:58:15Z</time>
      </trkpt>
      <trkpt lat="48.13713" lon="-0.58127">
        <ele>172</ele>
        <time>2009-10-25T09:58:19Z</time>
      </trkpt>
      <trkpt lat="48.13715" lon="-0.58138">
        <ele>172</ele>
        <time>2009-10-25T09:58:23Z</time>
      </trkpt>
      <trkpt lat="48.13717" lon="-0.58148">
        <ele>172</ele>
        <time>2009-10-25T09:58:27Z</time>
      </trkpt>
      <trkpt lat="48.1372" lon="-0.5816">
        <ele>173</ele>
        <time>2009-10-25T09:58:31Z</time>
      </trkpt>
      <trkpt lat="48.13721" lon="-0.58167">
        <ele>173</ele>
        <time>2009-10-25T09:58:35Z</time>
      </trkpt>
      <trkpt lat="48.13721" lon="-0.58167">
        <ele>173</ele>
        <time>2009-10-25T09:58:39Z</time>
      </trkpt>
      <trkpt lat="48.13722" lon="-0.58168">
        <ele>173</ele>
        <time>2009-10-25T09:58:43Z</time>
      </trkpt>
      <trkpt lat="48.13722" lon="-0.58168">
        <ele>173</ele>
        <time>2009-10-25T09:58:47Z</time>
      </trkpt>
      <trkpt lat="48.13722" lon="-0.58168">
        <ele>173</ele>
        <time>2009-10-25T09:58:51Z</time>
      </trkpt>
      <trkpt lat="48.13723" lon="-0.58178">
        <ele>173</ele>
        <time>2009-10-25T09:58:55Z</time>
      </trkpt>
      <trkpt lat="48.13725" lon="-0.58195">
        <ele>172</ele>
        <time>2009-10-25T09:58:59Z</time>
      </trkpt>
      <trkpt lat="48.13728" lon="-0.58215">
        <ele>172</ele>
        <time>2009-10-25T09:59:03Z</time>
      </trkpt>
      <trkpt lat="48.1373" lon="-0.58235">
        <ele>172</ele>
        <time>2009-10-25T09:59:07Z</time>
      </trkpt>
      <trkpt lat="48.13733" lon="-0.58254">
        <ele>172</ele>
        <time>2009-10-25T09:59:11Z</time>
      </trkpt>
      <trkpt lat="48.13734" lon="-0.58263">
        <ele>172</ele>
        <time>2009-10-25T09:59:15Z</time>
      </trkpt>
      <trkpt lat="48.13734" lon="-0.58263">
        <ele>172</ele>
        <time>2009-10-25T09:59:19Z</time>
      </trkpt>
      <trkpt lat="48.13735" lon="-0.58266">
        <ele>171</ele>
        <time>2009-10-25T09:59:23Z</time>
      </trkpt>
      <trkpt lat="48.13735" lon="-0.58272">
        <ele>171</ele>
        <time>2009-10-25T09:59:27Z</time>
      </trkpt>
      <trkpt lat="48.13737" lon="-0.5829">
        <ele>171</ele>
        <time>2009-10-25T09:59:31Z</time>
      </trkpt>
      <trkpt lat="48.13742" lon="-0.58315">
        <ele>171</ele>
        <time>2009-10-25T09:59:35Z</time>
      </trkpt>
      <trkpt lat="48.13745" lon="-0.58343">
        <ele>170</ele>
        <time>2009-10-25T09:59:39Z</time>
      </trkpt>
      <trkpt lat="48.13749" lon="-0.58375">
        <ele>170</ele>
        <time>2009-10-25T09:59:43Z</time>
      </trkpt>
      <trkpt lat="48.13754" lon="-0.58411">
        <ele>169</ele>
        <time>2009-10-25T09:59:47Z</time>
      </trkpt>
      <trkpt lat="48.13758" lon="-0.58446">
        <ele>169</ele>
        <time>2009-10-25T09:59:51Z</time>
      </trkpt>
      <trkpt lat="48.13762" lon="-0.58478">
        <ele>168</ele>
        <time>2009-10-25T09:59:55Z</time>
      </trkpt>
      <trkpt lat="48.13765" lon="-0.58509">
        <ele>165</ele>
        <time>2009-10-25T09:59:59Z</time>
      </trkpt>
      <trkpt lat="48.13769" lon="-0.5854">
        <ele>162</ele>
        <time>2009-10-25T10:00:03Z</time>
      </trkpt>
      <trkpt lat="48.13773" lon="-0.5857">
        <ele>160</ele>
        <time>2009-10-25T10:00:07Z</time>
      </trkpt>
      <trkpt lat="48.13777" lon="-0.58604">
        <ele>158</ele>
        <time>2009-10-25T10:00:11Z</time>
      </trkpt>
      <trkpt lat="48.13782" lon="-0.58636">
        <ele>156</ele>
        <time>2009-10-25T10:00:15Z</time>
      </trkpt>
      <trkpt lat="48.13787" lon="-0.58672">
        <ele>156</ele>
        <time>2009-10-25T10:00:19Z</time>
      </trkpt>
      <trkpt lat="48.13794" lon="-0.58709">
        <ele>156</ele>
        <time>2009-10-25T10:00:23Z</time>
      </trkpt>
      <trkpt lat="48.13801" lon="-0.58745">
        <ele>155</ele>
        <time>2009-10-25T10:00:27Z</time>
      </trkpt>
      <trkpt lat="48.13807" lon="-0.5878">
        <ele>155</ele>
        <time>2009-10-25T10:00:31Z</time>
      </trkpt>
      <trkpt lat="48.13813" lon="-0.58813">
        <ele>155</ele>
        <time>2009-10-25T10:00:35Z</time>
      </trkpt>
      <trkpt lat="48.13816" lon="-0.58839">
        <ele>155</ele>
        <time>2009-10-25T10:00:39Z</time>
      </trkpt>
      <trkpt lat="48.13805" lon="-0.5885">
        <ele>156</ele>
        <time>2009-10-25T10:00:43Z</time>
      </trkpt>
      <trkpt lat="48.1379" lon="-0.5886">
        <ele>155</ele>
        <time>2009-10-25T10:00:47Z</time>
      </trkpt>
      <trkpt lat="48.13776" lon="-0.5887">
        <ele>155</ele>
        <time>2009-10-25T10:00:51Z</time>
      </trkpt>
      <trkpt lat="48.13761" lon="-0.5888">
        <ele>154</ele>
        <time>2009-10-25T10:00:55Z</time>
      </trkpt>
      <trkpt lat="48.13745" lon="-0.58892">
        <ele>154</ele>
        <time>2009-10-25T10:00:59Z</time>
      </trkpt>
      <trkpt lat="48.13727" lon="-0.58905">
        <ele>154</ele>
        <time>2009-10-25T10:01:03Z</time>
      </trkpt>
      <trkpt lat="48.13708" lon="-0.58918">
        <ele>153</ele>
        <time>2009-10-25T10:01:07Z</time>
      </trkpt>
      <trkpt lat="48.13691" lon="-0.58931">
        <ele>152</ele>
        <time>2009-10-25T10:01:11Z</time>
      </trkpt>
      <trkpt lat="48.13674" lon="-0.58939">
        <ele>152</ele>
        <time>2009-10-25T10:01:15Z</time>
      </trkpt>
      <trkpt lat="48.13657" lon="-0.58947">
        <ele>152</ele>
        <time>2009-10-25T10:01:19Z</time>
      </trkpt>
      <trkpt lat="48.13637" lon="-0.58955">
        <ele>153</ele>
        <time>2009-10-25T10:01:23Z</time>
      </trkpt>
      <trkpt lat="48.13617" lon="-0.58958">
        <ele>154</ele>
        <time>2009-10-25T10:01:27Z</time>
      </trkpt>
      <trkpt lat="48.13597" lon="-0.58958">
        <ele>156</ele>
        <time>2009-10-25T10:01:31Z</time>
      </trkpt>
      <trkpt lat="48.13574" lon="-0.58958">
        <ele>157</ele>
        <time>2009-10-25T10:01:35Z</time>
      </trkpt>
      <trkpt lat="48.13557" lon="-0.58956">
        <ele>157</ele>
        <time>2009-10-25T10:01:39Z</time>
      </trkpt>
      <trkpt lat="48.1354" lon="-0.58955">
        <ele>158</ele>
        <time>2009-10-25T10:01:43Z</time>
      </trkpt>
      <trkpt lat="48.13521" lon="-0.58956">
        <ele>159</ele>
        <time>2009-10-25T10:01:47Z</time>
      </trkpt>
      <trkpt lat="48.13503" lon="-0.58954">
        <ele>159</ele>
        <time>2009-10-25T10:01:51Z</time>
      </trkpt>
      <trkpt lat="48.13484" lon="-0.5895">
        <ele>160</ele>
        <time>2009-10-25T10:01:55Z</time>
      </trkpt>
      <trkpt lat="48.13468" lon="-0.58948">
        <ele>162</ele>
        <time>2009-10-25T10:01:59Z</time>
      </trkpt>
      <trkpt lat="48.13453" lon="-0.5895">
        <ele>162</ele>
        <time>2009-10-25T10:02:03Z</time>
      </trkpt>
      <trkpt lat="48.13438" lon="-0.58953">
        <ele>162</ele>
        <time>2009-10-25T10:02:07Z</time>
      </trkpt>
      <trkpt lat="48.13421" lon="-0.58954">
        <ele>163</ele>
        <time>2009-10-25T10:02:11Z</time>
      </trkpt>
      <trkpt lat="48.13407" lon="-0.58956">
        <ele>164</ele>
        <time>2009-10-25T10:02:15Z</time>
      </trkpt>
      <trkpt lat="48.1339" lon="-0.58957">
        <ele>165</ele>
        <time>2009-10-25T10:02:19Z</time>
      </trkpt>
      <trkpt lat="48.13374" lon="-0.58957">
        <ele>166</ele>
        <time>2009-10-25T10:02:23Z</time>
      </trkpt>
      <trkpt lat="48.1336" lon="-0.5896">
        <ele>166</ele>
        <time>2009-10-25T10:02:27Z</time>
      </trkpt>
      <trkpt lat="48.13346" lon="-0.58963">
        <ele>166</ele>
        <time>2009-10-25T10:02:31Z</time>
      </trkpt>
      <trkpt lat="48.13328" lon="-0.58965">
        <ele>167</ele>
        <time>2009-10-25T10:02:35Z</time>
      </trkpt>
      <trkpt lat="48.13311" lon="-0.5897">
        <ele>169</ele>
        <time>2009-10-25T10:02:39Z</time>
      </trkpt>
      <trkpt lat="48.13296" lon="-0.58973">
        <ele>169</ele>
        <time>2009-10-25T10:02:43Z</time>
      </trkpt>
      <trkpt lat="48.13284" lon="-0.58968">
        <ele>169</ele>
        <time>2009-10-25T10:02:47Z</time>
      </trkpt>
      <trkpt lat="48.13278" lon="-0.58947">
        <ele>169</ele>
        <time>2009-10-25T10:02:51Z</time>
      </trkpt>
      <trkpt lat="48.13273" lon="-0.58919">
        <ele>168</ele>
        <time>2009-10-25T10:02:55Z</time>
      </trkpt>
      <trkpt lat="48.13261" lon="-0.58894">
        <ele>166</ele>
        <time>2009-10-25T10:02:59Z</time>
      </trkpt>
      <trkpt lat="48.13236" lon="-0.58879">
        <ele>163</ele>
        <time>2009-10-25T10:03:03Z</time>
      </trkpt>
      <trkpt lat="48.13208" lon="-0.58866">
        <ele>162</ele>
        <time>2009-10-25T10:03:07Z</time>
      </trkpt>
      <trkpt lat="48.13187" lon="-0.58853">
        <ele>161</ele>
        <time>2009-10-25T10:03:11Z</time>
      </trkpt>
      <trkpt lat="48.13165" lon="-0.58846">
        <ele>157</ele>
        <time>2009-10-25T10:03:15Z</time>
      </trkpt>
      <trkpt lat="48.13144" lon="-0.58838">
        <ele>155</ele>
        <time>2009-10-25T10:03:19Z</time>
      </trkpt>
      <trkpt lat="48.13129" lon="-0.58828">
        <ele>153</ele>
        <time>2009-10-25T10:03:23Z</time>
      </trkpt>
      <trkpt lat="48.13116" lon="-0.58819">
        <ele>152</ele>
        <time>2009-10-25T10:03:27Z</time>
      </trkpt>
      <trkpt lat="48.13106" lon="-0.58813">
        <ele>150</ele>
        <time>2009-10-25T10:03:31Z</time>
      </trkpt>
      <trkpt lat="48.13097" lon="-0.58811">
        <ele>148</ele>
        <time>2009-10-25T10:03:35Z</time>
      </trkpt>
      <trkpt lat="48.13085" lon="-0.58812">
        <ele>147</ele>
        <time>2009-10-25T10:03:39Z</time>
      </trkpt>
      <trkpt lat="48.13074" lon="-0.58812">
        <ele>146</ele>
        <time>2009-10-25T10:03:43Z</time>
      </trkpt>
      <trkpt lat="48.13063" lon="-0.58797">
        <ele>142</ele>
        <time>2009-10-25T10:03:47Z</time>
      </trkpt>
      <trkpt lat="48.1306" lon="-0.58773">
        <ele>141</ele>
        <time>2009-10-25T10:03:51Z</time>
      </trkpt>
      <trkpt lat="48.13062" lon="-0.58749">
        <ele>140</ele>
        <time>2009-10-25T10:03:55Z</time>
      </trkpt>
      <trkpt lat="48.13063" lon="-0.58725">
        <ele>140</ele>
        <time>2009-10-25T10:03:59Z</time>
      </trkpt>
      <trkpt lat="48.13064" lon="-0.58703">
        <ele>140</ele>
        <time>2009-10-25T10:04:03Z</time>
      </trkpt>
      <trkpt lat="48.13065" lon="-0.58684">
        <ele>140</ele>
        <time>2009-10-25T10:04:07Z</time>
      </trkpt>
      <trkpt lat="48.13066" lon="-0.58665">
        <ele>140</ele>
        <time>2009-10-25T10:04:11Z</time>
      </trkpt>
      <trkpt lat="48.13065" lon="-0.58652">
        <ele>140</ele>
        <time>2009-10-25T10:04:15Z</time>
      </trkpt>
      <trkpt lat="48.1306" lon="-0.5866">
        <ele>139</ele>
        <time>2009-10-25T10:04:19Z</time>
      </trkpt>
      <trkpt lat="48.13055" lon="-0.58683">
        <ele>138</ele>
        <time>2009-10-25T10:04:23Z</time>
      </trkpt>
      <trkpt lat="48.13046" lon="-0.58717">
        <ele>136</ele>
        <time>2009-10-25T10:04:27Z</time>
      </trkpt>
      <trkpt lat="48.13031" lon="-0.58757">
        <ele>134</ele>
        <time>2009-10-25T10:04:31Z</time>
      </trkpt>
      <trkpt lat="48.13009" lon="-0.58796">
        <ele>130</ele>
        <time>2009-10-25T10:04:35Z</time>
      </trkpt>
      <trkpt lat="48.12988" lon="-0.58837">
        <ele>126</ele>
        <time>2009-10-25T10:04:39Z</time>
      </trkpt>
      <trkpt lat="48.12975" lon="-0.5889">
        <ele>125</ele>
        <time>2009-10-25T10:04:43Z</time>
      </trkpt>
      <trkpt lat="48.12971" lon="-0.58945">
        <ele>125</ele>
        <time>2009-10-25T10:04:47Z</time>
      </trkpt>
      <trkpt lat="48.12975" lon="-0.58987">
        <ele>125</ele>
        <time>2009-10-25T10:04:51Z</time>
      </trkpt>
      <trkpt lat="48.12976" lon="-0.59023">
        <ele>125</ele>
        <time>2009-10-25T10:04:55Z</time>
      </trkpt>
      <trkpt lat="48.12976" lon="-0.59055">
        <ele>126</ele>
        <time>2009-10-25T10:04:59Z</time>
      </trkpt>
      <trkpt lat="48.12976" lon="-0.59092">
        <ele>124</ele>
        <time>2009-10-25T10:05:03Z</time>
      </trkpt>
      <trkpt lat="48.12978" lon="-0.59127">
        <ele>122</ele>
        <time>2009-10-25T10:05:07Z</time>
      </trkpt>
      <trkpt lat="48.12984" lon="-0.59157">
        <ele>120</ele>
        <time>2009-10-25T10:05:11Z</time>
      </trkpt>
      <trkpt lat="48.12969" lon="-0.59175">
        <ele>120</ele>
        <time>2009-10-25T10:05:15Z</time>
      </trkpt>
      <trkpt lat="48.12957" lon="-0.59197">
        <ele>120</ele>
        <time>2009-10-25T10:05:19Z</time>
      </trkpt>
      <trkpt lat="48.12953" lon="-0.59226">
        <ele>119</ele>
        <time>2009-10-25T10:05:23Z</time>
      </trkpt>
      <trkpt lat="48.12949" lon="-0.59256">
        <ele>119</ele>
        <time>2009-10-25T10:05:27Z</time>
      </trkpt>
      <trkpt lat="48.12943" lon="-0.59284">
        <ele>119</ele>
        <time>2009-10-25T10:05:31Z</time>
      </trkpt>
      <trkpt lat="48.12936" lon="-0.5931">
        <ele>120</ele>
        <time>2009-10-25T10:05:35Z</time>
      </trkpt>
      <trkpt lat="48.12925" lon="-0.59332">
        <ele>120</ele>
        <time>2009-10-25T10:05:39Z</time>
      </trkpt>
      <trkpt lat="48.12924" lon="-0.59352">
        <ele>119</ele>
        <time>2009-10-25T10:05:43Z</time>
      </trkpt>
      <trkpt lat="48.12906" lon="-0.59368">
        <ele>119</ele>
        <time>2009-10-25T10:05:47Z</time>
      </trkpt>
      <trkpt lat="48.12886" lon="-0.59372">
        <ele>120</ele>
        <time>2009-10-25T10:05:51Z</time>
      </trkpt>
      <trkpt lat="48.12867" lon="-0.59376">
        <ele>121</ele>
        <time>2009-10-25T10:05:55Z</time>
      </trkpt>
      <trkpt lat="48.12849" lon="-0.59385">
        <ele>122</ele>
        <time>2009-10-25T10:05:59Z</time>
      </trkpt>
      <trkpt lat="48.12836" lon="-0.59387">
        <ele>123</ele>
        <time>2009-10-25T10:06:04Z</time>
      </trkpt>
      <trkpt lat="48.12833" lon="-0.59373">
        <ele>122</ele>
        <time>2009-10-25T10:06:08Z</time>
      </trkpt>
      <trkpt lat="48.1283" lon="-0.59359">
        <ele>122</ele>
        <time>2009-10-25T10:06:12Z</time>
      </trkpt>
      <trkpt lat="48.12825" lon="-0.59343">
        <ele>120</ele>
        <time>2009-10-25T10:06:16Z</time>
      </trkpt>
      <trkpt lat="48.12811" lon="-0.59336">
        <ele>120</ele>
        <time>2009-10-25T10:06:20Z</time>
      </trkpt>
      <trkpt lat="48.12795" lon="-0.59341">
        <ele>120</ele>
        <time>2009-10-25T10:06:24Z</time>
      </trkpt>
      <trkpt lat="48.1278" lon="-0.59348">
        <ele>120</ele>
        <time>2009-10-25T10:06:28Z</time>
      </trkpt>
      <trkpt lat="48.12766" lon="-0.59357">
        <ele>120</ele>
        <time>2009-10-25T10:06:32Z</time>
      </trkpt>
      <trkpt lat="48.12749" lon="-0.59366">
        <ele>120</ele>
        <time>2009-10-25T10:06:36Z</time>
      </trkpt>
      <trkpt lat="48.12736" lon="-0.59368">
        <ele>119</ele>
        <time>2009-10-25T10:06:40Z</time>
      </trkpt>
      <trkpt lat="48.12723" lon="-0.59372">
        <ele>119</ele>
        <time>2009-10-25T10:06:44Z</time>
      </trkpt>
      <trkpt lat="48.12705" lon="-0.59383">
        <ele>122</ele>
        <time>2009-10-25T10:06:48Z</time>
      </trkpt>
      <trkpt lat="48.12689" lon="-0.59393">
        <ele>123</ele>
        <time>2009-10-25T10:06:52Z</time>
      </trkpt>
      <trkpt lat="48.12675" lon="-0.59396">
        <ele>124</ele>
        <time>2009-10-25T10:06:56Z</time>
      </trkpt>
      <trkpt lat="48.12662" lon="-0.59395">
        <ele>125</ele>
        <time>2009-10-25T10:07:00Z</time>
      </trkpt>
      <trkpt lat="48.12649" lon="-0.59393">
        <ele>126</ele>
        <time>2009-10-25T10:07:04Z</time>
      </trkpt>
      <trkpt lat="48.12638" lon="-0.59388">
        <ele>126</ele>
        <time>2009-10-25T10:07:08Z</time>
      </trkpt>
      <trkpt lat="48.12629" lon="-0.59382">
        <ele>127</ele>
        <time>2009-10-25T10:07:12Z</time>
      </trkpt>
      <trkpt lat="48.12618" lon="-0.59375">
        <ele>128</ele>
        <time>2009-10-25T10:07:16Z</time>
      </trkpt>
      <trkpt lat="48.12609" lon="-0.59367">
        <ele>128</ele>
        <time>2009-10-25T10:07:20Z</time>
      </trkpt>
      <trkpt lat="48.12598" lon="-0.59358">
        <ele>128</ele>
        <time>2009-10-25T10:07:24Z</time>
      </trkpt>
      <trkpt lat="48.12587" lon="-0.59348">
        <ele>129</ele>
        <time>2009-10-25T10:07:28Z</time>
      </trkpt>
      <trkpt lat="48.12576" lon="-0.59339">
        <ele>130</ele>
        <time>2009-10-25T10:07:32Z</time>
      </trkpt>
      <trkpt lat="48.12566" lon="-0.59329">
        <ele>130</ele>
        <time>2009-10-25T10:07:36Z</time>
      </trkpt>
      <trkpt lat="48.12555" lon="-0.59317">
        <ele>130</ele>
        <time>2009-10-25T10:07:40Z</time>
      </trkpt>
      <trkpt lat="48.12546" lon="-0.59303">
        <ele>130</ele>
        <time>2009-10-25T10:07:44Z</time>
      </trkpt>
      <trkpt lat="48.12535" lon="-0.59286">
        <ele>130</ele>
        <time>2009-10-25T10:07:48Z</time>
      </trkpt>
      <trkpt lat="48.12523" lon="-0.59269">
        <ele>129</ele>
        <time>2009-10-25T10:07:52Z</time>
      </trkpt>
      <trkpt lat="48.12511" lon="-0.59255">
        <ele>130</ele>
        <time>2009-10-25T10:07:56Z</time>
      </trkpt>
      <trkpt lat="48.125" lon="-0.59243">
        <ele>130</ele>
        <time>2009-10-25T10:08:00Z</time>
      </trkpt>
      <trkpt lat="48.12488" lon="-0.59234">
        <ele>131</ele>
        <time>2009-10-25T10:08:04Z</time>
      </trkpt>
      <trkpt lat="48.12477" lon="-0.59227">
        <ele>132</ele>
        <time>2009-10-25T10:08:08Z</time>
      </trkpt>
      <trkpt lat="48.12469" lon="-0.5923">
        <ele>133</ele>
        <time>2009-10-25T10:08:12Z</time>
      </trkpt>
      <trkpt lat="48.12463" lon="-0.59242">
        <ele>133</ele>
        <time>2009-10-25T10:08:16Z</time>
      </trkpt>
      <trkpt lat="48.12456" lon="-0.59255">
        <ele>133</ele>
        <time>2009-10-25T10:08:20Z</time>
      </trkpt>
      <trkpt lat="48.1245" lon="-0.59266">
        <ele>133</ele>
        <time>2009-10-25T10:08:24Z</time>
      </trkpt>
      <trkpt lat="48.12444" lon="-0.59274">
        <ele>133</ele>
        <time>2009-10-25T10:08:28Z</time>
      </trkpt>
      <trkpt lat="48.12439" lon="-0.59282">
        <ele>134</ele>
        <time>2009-10-25T10:08:32Z</time>
      </trkpt>
      <trkpt lat="48.12433" lon="-0.59292">
        <ele>134</ele>
        <time>2009-10-25T10:08:36Z</time>
      </trkpt>
      <trkpt lat="48.12425" lon="-0.593">
        <ele>134</ele>
        <time>2009-10-25T10:08:40Z</time>
      </trkpt>
      <trkpt lat="48.12418" lon="-0.59309">
        <ele>135</ele>
        <time>2009-10-25T10:08:44Z</time>
      </trkpt>
      <trkpt lat="48.12412" lon="-0.59318">
        <ele>135</ele>
        <time>2009-10-25T10:08:48Z</time>
      </trkpt>
      <trkpt lat="48.12404" lon="-0.59327">
        <ele>134</ele>
        <time>2009-10-25T10:08:52Z</time>
      </trkpt>
      <trkpt lat="48.12397" lon="-0.59334">
        <ele>134</ele>
        <time>2009-10-25T10:08:56Z</time>
      </trkpt>
      <trkpt lat="48.12391" lon="-0.59342">
        <ele>134</ele>
        <time>2009-10-25T10:09:00Z</time>
      </trkpt>
      <trkpt lat="48.12384" lon="-0.59349">
        <ele>132</ele>
        <time>2009-10-25T10:09:04Z</time>
      </trkpt>
      <trkpt lat="48.12376" lon="-0.59358">
        <ele>131</ele>
        <time>2009-10-25T10:09:08Z</time>
      </trkpt>
      <trkpt lat="48.12367" lon="-0.59368">
        <ele>132</ele>
        <time>2009-10-25T10:09:12Z</time>
      </trkpt>
      <trkpt lat="48.12358" lon="-0.59377">
        <ele>132</ele>
        <time>2009-10-25T10:09:16Z</time>
      </trkpt>
      <trkpt lat="48.1235" lon="-0.59387">
        <ele>132</ele>
        <time>2009-10-25T10:09:20Z</time>
      </trkpt>
      <trkpt lat="48.12341" lon="-0.59396">
        <ele>133</ele>
        <time>2009-10-25T10:09:24Z</time>
      </trkpt>
      <trkpt lat="48.12333" lon="-0.59405">
        <ele>133</ele>
        <time>2009-10-25T10:09:28Z</time>
      </trkpt>
      <trkpt lat="48.12324" lon="-0.59415">
        <ele>134</ele>
        <time>2009-10-25T10:09:32Z</time>
      </trkpt>
      <trkpt lat="48.12313" lon="-0.59426">
        <ele>135</ele>
        <time>2009-10-25T10:09:36Z</time>
      </trkpt>
      <trkpt lat="48.12303" lon="-0.59439">
        <ele>136</ele>
        <time>2009-10-25T10:09:40Z</time>
      </trkpt>
      <trkpt lat="48.12292" lon="-0.59452">
        <ele>138</ele>
        <time>2009-10-25T10:09:44Z</time>
      </trkpt>
      <trkpt lat="48.12279" lon="-0.59463">
        <ele>138</ele>
        <time>2009-10-25T10:09:48Z</time>
      </trkpt>
      <trkpt lat="48.12264" lon="-0.59473">
        <ele>139</ele>
        <time>2009-10-25T10:09:52Z</time>
      </trkpt>
      <trkpt lat="48.12249" lon="-0.59478">
        <ele>140</ele>
        <time>2009-10-25T10:09:56Z</time>
      </trkpt>
      <trkpt lat="48.12232" lon="-0.59484">
        <ele>140</ele>
        <time>2009-10-25T10:10:00Z</time>
      </trkpt>
      <trkpt lat="48.12216" lon="-0.59489">
        <ele>140</ele>
        <time>2009-10-25T10:10:04Z</time>
      </trkpt>
      <trkpt lat="48.12198" lon="-0.595">
        <ele>141</ele>
        <time>2009-10-25T10:10:08Z</time>
      </trkpt>
      <trkpt lat="48.12181" lon="-0.59513">
        <ele>142</ele>
        <time>2009-10-25T10:10:12Z</time>
      </trkpt>
      <trkpt lat="48.12171" lon="-0.59522">
        <ele>143</ele>
        <time>2009-10-25T10:10:16Z</time>
      </trkpt>
      <trkpt lat="48.12166" lon="-0.59526">
        <ele>142</ele>
        <time>2009-10-25T10:10:20Z</time>
      </trkpt>
      <trkpt lat="48.12165" lon="-0.59525">
        <ele>143</ele>
        <time>2009-10-25T10:10:24Z</time>
      </trkpt>
      <trkpt lat="48.12165" lon="-0.59526">
        <ele>143</ele>
        <time>2009-10-25T10:10:28Z</time>
      </trkpt>
      <trkpt lat="48.12164" lon="-0.59526">
        <ele>143</ele>
        <time>2009-10-25T10:10:32Z</time>
      </trkpt>
      <trkpt lat="48.12164" lon="-0.59526">
        <ele>144</ele>
        <time>2009-10-25T10:10:36Z</time>
      </trkpt>
      <trkpt lat="48.12164" lon="-0.59526">
        <ele>144</ele>
        <time>2009-10-25T10:10:40Z</time>
      </trkpt>
      <trkpt lat="48.12164" lon="-0.59526">
        <ele>143</ele>
        <time>2009-10-25T10:10:44Z</time>
      </trkpt>
      <trkpt lat="48.12164" lon="-0.59526">
        <ele>141</ele>
        <time>2009-10-25T10:10:48Z</time>
      </trkpt>
      <trkpt lat="48.12164" lon="-0.59526">
        <ele>139</ele>
        <time>2009-10-25T10:10:52Z</time>
      </trkpt>
      <trkpt lat="48.12164" lon="-0.59528">
        <ele>137</ele>
        <time>2009-10-25T10:10:56Z</time>
      </trkpt>
      <trkpt lat="48.12164" lon="-0.59527">
        <ele>137</ele>
        <time>2009-10-25T10:11:00Z</time>
      </trkpt>
      <trkpt lat="48.12164" lon="-0.59529">
        <ele>136</ele>
        <time>2009-10-25T10:11:04Z</time>
      </trkpt>
      <trkpt lat="48.12167" lon="-0.59529">
        <ele>134</ele>
        <time>2009-10-25T10:11:08Z</time>
      </trkpt>
      <trkpt lat="48.12166" lon="-0.59527">
        <ele>134</ele>
        <time>2009-10-25T10:11:12Z</time>
      </trkpt>
      <trkpt lat="48.12167" lon="-0.59526">
        <ele>132</ele>
        <time>2009-10-25T10:11:16Z</time>
      </trkpt>
      <trkpt lat="48.12167" lon="-0.59526">
        <ele>132</ele>
        <time>2009-10-25T10:11:20Z</time>
      </trkpt>
      <trkpt lat="48.12167" lon="-0.59526">
        <ele>131</ele>
        <time>2009-10-25T10:11:24Z</time>
      </trkpt>
      <trkpt lat="48.12166" lon="-0.59526">
        <ele>133</ele>
        <time>2009-10-25T10:11:28Z</time>
      </trkpt>
      <trkpt lat="48.12158" lon="-0.59536">
        <ele>135</ele>
        <time>2009-10-25T10:11:32Z</time>
      </trkpt>
      <trkpt lat="48.12145" lon="-0.59551">
        <ele>137</ele>
        <time>2009-10-25T10:11:36Z</time>
      </trkpt>
      <trkpt lat="48.1213" lon="-0.59568">
        <ele>137</ele>
        <time>2009-10-25T10:11:40Z</time>
      </trkpt>
      <trkpt lat="48.12111" lon="-0.59584">
        <ele>137</ele>
        <time>2009-10-25T10:11:44Z</time>
      </trkpt>
      <trkpt lat="48.12092" lon="-0.59603">
        <ele>136</ele>
        <time>2009-10-25T10:11:48Z</time>
      </trkpt>
      <trkpt lat="48.12074" lon="-0.59626">
        <ele>136</ele>
        <time>2009-10-25T10:11:52Z</time>
      </trkpt>
      <trkpt lat="48.12057" lon="-0.59648">
        <ele>136</ele>
        <time>2009-10-25T10:11:56Z</time>
      </trkpt>
      <trkpt lat="48.12041" lon="-0.59664">
        <ele>136</ele>
        <time>2009-10-25T10:12:00Z</time>
      </trkpt>
      <trkpt lat="48.12022" lon="-0.59677">
        <ele>135</ele>
        <time>2009-10-25T10:12:04Z</time>
      </trkpt>
      <trkpt lat="48.12003" lon="-0.59686">
        <ele>134</ele>
        <time>2009-10-25T10:12:08Z</time>
      </trkpt>
      <trkpt lat="48.11982" lon="-0.59691">
        <ele>132</ele>
        <time>2009-10-25T10:12:12Z</time>
      </trkpt>
      <trkpt lat="48.11971" lon="-0.59691">
        <ele>132</ele>
        <time>2009-10-25T10:12:16Z</time>
      </trkpt>
      <trkpt lat="48.11972" lon="-0.59696">
        <ele>129</ele>
        <time>2009-10-25T10:12:20Z</time>
      </trkpt>
      <trkpt lat="48.11983" lon="-0.59708">
        <ele>127</ele>
        <time>2009-10-25T10:12:24Z</time>
      </trkpt>
      <trkpt lat="48.11998" lon="-0.59729">
        <ele>127</ele>
        <time>2009-10-25T10:12:28Z</time>
      </trkpt>
      <trkpt lat="48.12014" lon="-0.59756">
        <ele>128</ele>
        <time>2009-10-25T10:12:32Z</time>
      </trkpt>
      <trkpt lat="48.12029" lon="-0.59786">
        <ele>127</ele>
        <time>2009-10-25T10:12:36Z</time>
      </trkpt>
      <trkpt lat="48.12043" lon="-0.59814">
        <ele>126</ele>
        <time>2009-10-25T10:12:40Z</time>
      </trkpt>
      <trkpt lat="48.12054" lon="-0.5984">
        <ele>123</ele>
        <time>2009-10-25T10:12:44Z</time>
      </trkpt>
      <trkpt lat="48.12053" lon="-0.5985">
        <ele>123</ele>
        <time>2009-10-25T10:12:48Z</time>
      </trkpt>
      <trkpt lat="48.12051" lon="-0.59862">
        <ele>123</ele>
        <time>2009-10-25T10:12:52Z</time>
      </trkpt>
      <trkpt lat="48.12048" lon="-0.59878">
        <ele>123</ele>
        <time>2009-10-25T10:12:56Z</time>
      </trkpt>
      <trkpt lat="48.12043" lon="-0.59896">
        <ele>122</ele>
        <time>2009-10-25T10:13:00Z</time>
      </trkpt>
      <trkpt lat="48.12045" lon="-0.59912">
        <ele>122</ele>
        <time>2009-10-25T10:13:04Z</time>
      </trkpt>
      <trkpt lat="48.12052" lon="-0.59924">
        <ele>122</ele>
        <time>2009-10-25T10:13:08Z</time>
      </trkpt>
      <trkpt lat="48.12058" lon="-0.59936">
        <ele>122</ele>
        <time>2009-10-25T10:13:12Z</time>
      </trkpt>
      <trkpt lat="48.12062" lon="-0.59945">
        <ele>121</ele>
        <time>2009-10-25T10:13:16Z</time>
      </trkpt>
      <trkpt lat="48.12064" lon="-0.5995">
        <ele>120</ele>
        <time>2009-10-25T10:13:20Z</time>
      </trkpt>
      <trkpt lat="48.12064" lon="-0.59953">
        <ele>120</ele>
        <time>2009-10-25T10:13:24Z</time>
      </trkpt>
      <trkpt lat="48.12064" lon="-0.59956">
        <ele>119</ele>
        <time>2009-10-25T10:13:28Z</time>
      </trkpt>
      <trkpt lat="48.12063" lon="-0.5996">
        <ele>120</ele>
        <time>2009-10-25T10:13:32Z</time>
      </trkpt>
      <trkpt lat="48.12063" lon="-0.59964">
        <ele>119</ele>
        <time>2009-10-25T10:13:36Z</time>
      </trkpt>
      <trkpt lat="48.12062" lon="-0.59964">
        <ele>119</ele>
        <time>2009-10-25T10:13:40Z</time>
      </trkpt>
      <trkpt lat="48.12061" lon="-0.59964">
        <ele>119</ele>
        <time>2009-10-25T10:13:44Z</time>
      </trkpt>
      <trkpt lat="48.12061" lon="-0.59965">
        <ele>119</ele>
        <time>2009-10-25T10:13:48Z</time>
      </trkpt>
      <trkpt lat="48.12062" lon="-0.59965">
        <ele>118</ele>
        <time>2009-10-25T10:13:52Z</time>
      </trkpt>
      <trkpt lat="48.12062" lon="-0.59966">
        <ele>117</ele>
        <time>2009-10-25T10:13:56Z</time>
      </trkpt>
      <trkpt lat="48.12062" lon="-0.59966">
        <ele>116</ele>
        <time>2009-10-25T10:14:00Z</time>
      </trkpt>
      <trkpt lat="48.12063" lon="-0.59968">
        <ele>115</ele>
        <time>2009-10-25T10:14:04Z</time>
      </trkpt>
      <trkpt lat="48.12063" lon="-0.59969">
        <ele>115</ele>
        <time>2009-10-25T10:14:08Z</time>
      </trkpt>
      <trkpt lat="48.12065" lon="-0.59974">
        <ele>115</ele>
        <time>2009-10-25T10:14:12Z</time>
      </trkpt>
      <trkpt lat="48.12066" lon="-0.59984">
        <ele>114</ele>
        <time>2009-10-25T10:14:16Z</time>
      </trkpt>
      <trkpt lat="48.12067" lon="-0.59992">
        <ele>112</ele>
        <time>2009-10-25T10:14:20Z</time>
      </trkpt>
      <trkpt lat="48.12069" lon="-0.60002">
        <ele>109</ele>
        <time>2009-10-25T10:14:24Z</time>
      </trkpt>
      <trkpt lat="48.12072" lon="-0.60014">
        <ele>107</ele>
        <time>2009-10-25T10:14:28Z</time>
      </trkpt>
      <trkpt lat="48.12072" lon="-0.60026">
        <ele>106</ele>
        <time>2009-10-25T10:14:32Z</time>
      </trkpt>
      <trkpt lat="48.12072" lon="-0.60036">
        <ele>104</ele>
        <time>2009-10-25T10:14:36Z</time>
      </trkpt>
      <trkpt lat="48.12069" lon="-0.60047">
        <ele>105</ele>
        <time>2009-10-25T10:14:40Z</time>
      </trkpt>
      <trkpt lat="48.12067" lon="-0.60059">
        <ele>105</ele>
        <time>2009-10-25T10:14:44Z</time>
      </trkpt>
      <trkpt lat="48.12065" lon="-0.60071">
        <ele>105</ele>
        <time>2009-10-25T10:14:48Z</time>
      </trkpt>
      <trkpt lat="48.12066" lon="-0.6008">
        <ele>105</ele>
        <time>2009-10-25T10:14:52Z</time>
      </trkpt>
      <trkpt lat="48.12066" lon="-0.60091">
        <ele>104</ele>
        <time>2009-10-25T10:14:56Z</time>
      </trkpt>
      <trkpt lat="48.12067" lon="-0.601">
        <ele>101</ele>
        <time>2009-10-25T10:15:00Z</time>
      </trkpt>
      <trkpt lat="48.1207" lon="-0.60108">
        <ele>100</ele>
        <time>2009-10-25T10:15:04Z</time>
      </trkpt>
      <trkpt lat="48.12072" lon="-0.60116">
        <ele>97</ele>
        <time>2009-10-25T10:15:08Z</time>
      </trkpt>
      <trkpt lat="48.12072" lon="-0.60123">
        <ele>97</ele>
        <time>2009-10-25T10:15:12Z</time>
      </trkpt>
      <trkpt lat="48.12073" lon="-0.60131">
        <ele>95</ele>
        <time>2009-10-25T10:15:16Z</time>
      </trkpt>
      <trkpt lat="48.12073" lon="-0.60138">
        <ele>97</ele>
        <time>2009-10-25T10:15:20Z</time>
      </trkpt>
      <trkpt lat="48.1207" lon="-0.60146">
        <ele>98</ele>
        <time>2009-10-25T10:15:24Z</time>
      </trkpt>
      <trkpt lat="48.12069" lon="-0.60154">
        <ele>99</ele>
        <time>2009-10-25T10:15:28Z</time>
      </trkpt>
      <trkpt lat="48.12068" lon="-0.60161">
        <ele>100</ele>
        <time>2009-10-25T10:15:32Z</time>
      </trkpt>
      <trkpt lat="48.12066" lon="-0.60169">
        <ele>100</ele>
        <time>2009-10-25T10:15:36Z</time>
      </trkpt>
      <trkpt lat="48.12066" lon="-0.60177">
        <ele>102</ele>
        <time>2009-10-25T10:15:40Z</time>
      </trkpt>
      <trkpt lat="48.12066" lon="-0.60185">
        <ele>100</ele>
        <time>2009-10-25T10:15:44Z</time>
      </trkpt>
      <trkpt lat="48.12067" lon="-0.60189">
        <ele>102</ele>
        <time>2009-10-25T10:15:48Z</time>
      </trkpt>
      <trkpt lat="48.12069" lon="-0.60193">
        <ele>105</ele>
        <time>2009-10-25T10:15:52Z</time>
      </trkpt>
      <trkpt lat="48.12069" lon="-0.602">
        <ele>106</ele>
        <time>2009-10-25T10:15:56Z</time>
      </trkpt>
      <trkpt lat="48.12069" lon="-0.60209">
        <ele>107</ele>
        <time>2009-10-25T10:16:01Z</time>
      </trkpt>
      <trkpt lat="48.12068" lon="-0.6022">
        <ele>107</ele>
        <time>2009-10-25T10:16:05Z</time>
      </trkpt>
      <trkpt lat="48.12067" lon="-0.60227">
        <ele>111</ele>
        <time>2009-10-25T10:16:09Z</time>
      </trkpt>
      <trkpt lat="48.12067" lon="-0.60232">
        <ele>113</ele>
        <time>2009-10-25T10:16:13Z</time>
      </trkpt>
      <trkpt lat="48.12066" lon="-0.6024">
        <ele>113</ele>
        <time>2009-10-25T10:16:17Z</time>
      </trkpt>
      <trkpt lat="48.12065" lon="-0.60247">
        <ele>116</ele>
        <time>2009-10-25T10:16:21Z</time>
      </trkpt>
      <trkpt lat="48.12064" lon="-0.60252">
        <ele>119</ele>
        <time>2009-10-25T10:16:25Z</time>
      </trkpt>
      <trkpt lat="48.12063" lon="-0.60258">
        <ele>120</ele>
        <time>2009-10-25T10:16:29Z</time>
      </trkpt>
      <trkpt lat="48.12061" lon="-0.60266">
        <ele>119</ele>
        <time>2009-10-25T10:16:33Z</time>
      </trkpt>
      <trkpt lat="48.1206" lon="-0.60269">
        <ele>119</ele>
        <time>2009-10-25T10:16:37Z</time>
      </trkpt>
      <trkpt lat="48.12059" lon="-0.60274">
        <ele>120</ele>
        <time>2009-10-25T10:16:41Z</time>
      </trkpt>
      <trkpt lat="48.12059" lon="-0.60278">
        <ele>121</ele>
        <time>2009-10-25T10:16:45Z</time>
      </trkpt>
      <trkpt lat="48.12059" lon="-0.60284">
        <ele>121</ele>
        <time>2009-10-25T10:16:49Z</time>
      </trkpt>
      <trkpt lat="48.12056" lon="-0.60289">
        <ele>122</ele>
        <time>2009-10-25T10:16:53Z</time>
      </trkpt>
      <trkpt lat="48.12055" lon="-0.60293">
        <ele>123</ele>
        <time>2009-10-25T10:16:57Z</time>
      </trkpt>
      <trkpt lat="48.12054" lon="-0.603">
        <ele>124</ele>
        <time>2009-10-25T10:17:01Z</time>
      </trkpt>
      <trkpt lat="48.12053" lon="-0.60305">
        <ele>125</ele>
        <time>2009-10-25T10:17:05Z</time>
      </trkpt>
      <trkpt lat="48.12052" lon="-0.60309">
        <ele>124</ele>
        <time>2009-10-25T10:17:09Z</time>
      </trkpt>
      <trkpt lat="48.12051" lon="-0.60315">
        <ele>125</ele>
        <time>2009-10-25T10:17:13Z</time>
      </trkpt>
      <trkpt lat="48.12049" lon="-0.6032">
        <ele>127</ele>
        <time>2009-10-25T10:17:17Z</time>
      </trkpt>
      <trkpt lat="48.1205" lon="-0.60324">
        <ele>131</ele>
        <time>2009-10-25T10:17:21Z</time>
      </trkpt>
      <trkpt lat="48.12049" lon="-0.60327">
        <ele>131</ele>
        <time>2009-10-25T10:17:25Z</time>
      </trkpt>
      <trkpt lat="48.12045" lon="-0.6033">
        <ele>133</ele>
        <time>2009-10-25T10:17:29Z</time>
      </trkpt>
      <trkpt lat="48.12045" lon="-0.60333">
        <ele>134</ele>
        <time>2009-10-25T10:17:33Z</time>
      </trkpt>
      <trkpt lat="48.12042" lon="-0.60339">
        <ele>134</ele>
        <time>2009-10-25T10:17:37Z</time>
      </trkpt>
      <trkpt lat="48.12038" lon="-0.60349">
        <ele>136</ele>
        <time>2009-10-25T10:17:41Z</time>
      </trkpt>
      <trkpt lat="48.12039" lon="-0.60356">
        <ele>136</ele>
        <time>2009-10-25T10:17:45Z</time>
      </trkpt>
      <trkpt lat="48.12039" lon="-0.60362">
        <ele>135</ele>
        <time>2009-10-25T10:17:49Z</time>
      </trkpt>
      <trkpt lat="48.12036" lon="-0.60371">
        <ele>136</ele>
        <time>2009-10-25T10:17:53Z</time>
      </trkpt>
      <trkpt lat="48.12035" lon="-0.60379">
        <ele>137</ele>
        <time>2009-10-25T10:17:57Z</time>
      </trkpt>
      <trkpt lat="48.12035" lon="-0.60387">
        <ele>137</ele>
        <time>2009-10-25T10:18:01Z</time>
      </trkpt>
      <trkpt lat="48.12038" lon="-0.60395">
        <ele>136</ele>
        <time>2009-10-25T10:18:05Z</time>
      </trkpt>
      <trkpt lat="48.12038" lon="-0.60406">
        <ele>136</ele>
        <time>2009-10-25T10:18:09Z</time>
      </trkpt>
      <trkpt lat="48.12038" lon="-0.60418">
        <ele>136</ele>
        <time>2009-10-25T10:18:13Z</time>
      </trkpt>
      <trkpt lat="48.12038" lon="-0.6043">
        <ele>137</ele>
        <time>2009-10-25T10:18:17Z</time>
      </trkpt>
      <trkpt lat="48.12035" lon="-0.60443">
        <ele>140</ele>
        <time>2009-10-25T10:18:21Z</time>
      </trkpt>
      <trkpt lat="48.12033" lon="-0.6045">
        <ele>144</ele>
        <time>2009-10-25T10:18:25Z</time>
      </trkpt>
      <trkpt lat="48.12033" lon="-0.60453">
        <ele>147</ele>
        <time>2009-10-25T10:18:29Z</time>
      </trkpt>
      <trkpt lat="48.12033" lon="-0.60454">
        <ele>149</ele>
        <time>2009-10-25T10:18:33Z</time>
      </trkpt>
      <trkpt lat="48.12033" lon="-0.60456">
        <ele>149</ele>
        <time>2009-10-25T10:18:37Z</time>
      </trkpt>
      <trkpt lat="48.12032" lon="-0.60457">
        <ele>149</ele>
        <time>2009-10-25T10:18:41Z</time>
      </trkpt>
      <trkpt lat="48.12032" lon="-0.60458">
        <ele>150</ele>
        <time>2009-10-25T10:18:45Z</time>
      </trkpt>
      <trkpt lat="48.12031" lon="-0.60458">
        <ele>150</ele>
        <time>2009-10-25T10:18:49Z</time>
      </trkpt>
      <trkpt lat="48.1203" lon="-0.6046">
        <ele>151</ele>
        <time>2009-10-25T10:18:53Z</time>
      </trkpt>
      <trkpt lat="48.12028" lon="-0.60461">
        <ele>155</ele>
        <time>2009-10-25T10:18:57Z</time>
      </trkpt>
      <trkpt lat="48.12027" lon="-0.60461">
        <ele>157</ele>
        <time>2009-10-25T10:19:01Z</time>
      </trkpt>
      <trkpt lat="48.12025" lon="-0.60461">
        <ele>158</ele>
        <time>2009-10-25T10:19:05Z</time>
      </trkpt>
      <trkpt lat="48.12023" lon="-0.60461">
        <ele>160</ele>
        <time>2009-10-25T10:19:09Z</time>
      </trkpt>
      <trkpt lat="48.12022" lon="-0.60461">
        <ele>160</ele>
        <time>2009-10-25T10:19:13Z</time>
      </trkpt>
      <trkpt lat="48.12022" lon="-0.60461">
        <ele>161</ele>
        <time>2009-10-25T10:19:17Z</time>
      </trkpt>
      <trkpt lat="48.1202" lon="-0.60461">
        <ele>161</ele>
        <time>2009-10-25T10:19:21Z</time>
      </trkpt>
      <trkpt lat="48.1202" lon="-0.60461">
        <ele>161</ele>
        <time>2009-10-25T10:19:25Z</time>
      </trkpt>
      <trkpt lat="48.12019" lon="-0.60461">
        <ele>160</ele>
        <time>2009-10-25T10:19:29Z</time>
      </trkpt>
      <trkpt lat="48.12019" lon="-0.60461">
        <ele>160</ele>
        <time>2009-10-25T10:19:33Z</time>
      </trkpt>
      <trkpt lat="48.12019" lon="-0.60461">
        <ele>160</ele>
        <time>2009-10-25T10:19:37Z</time>
      </trkpt>
      <trkpt lat="48.12019" lon="-0.60462">
        <ele>160</ele>
        <time>2009-10-25T10:19:41Z</time>
      </trkpt>
      <trkpt lat="48.12019" lon="-0.60462">
        <ele>160</ele>
        <time>2009-10-25T10:19:45Z</time>
      </trkpt>
      <trkpt lat="48.12019" lon="-0.60462">
        <ele>160</ele>
        <time>2009-10-25T10:19:49Z</time>
      </trkpt>
      <trkpt lat="48.12019" lon="-0.60461">
        <ele>160</ele>
        <time>2009-10-25T10:19:53Z</time>
      </trkpt>
      <trkpt lat="48.12019" lon="-0.60461">
        <ele>160</ele>
        <time>2009-10-25T10:19:57Z</time>
      </trkpt>
      <trkpt lat="48.12019" lon="-0.60462">
        <ele>160</ele>
        <time>2009-10-25T10:20:01Z</time>
      </trkpt>
      <trkpt lat="48.12019" lon="-0.60462">
        <ele>161</ele>
        <time>2009-10-25T10:20:05Z</time>
      </trkpt>
      <trkpt lat="48.12019" lon="-0.60462">
        <ele>161</ele>
        <time>2009-10-25T10:20:09Z</time>
      </trkpt>
      <trkpt lat="48.12019" lon="-0.60462">
        <ele>161</ele>
        <time>2009-10-25T10:20:13Z</time>
      </trkpt>
      <trkpt lat="48.12019" lon="-0.60462">
        <ele>162</ele>
        <time>2009-10-25T10:20:17Z</time>
      </trkpt>
      <trkpt lat="48.12019" lon="-0.60461">
        <ele>162</ele>
        <time>2009-10-25T10:20:21Z</time>
      </trkpt>
      <trkpt lat="48.12019" lon="-0.60462">
        <ele>163</ele>
        <time>2009-10-25T10:20:25Z</time>
      </trkpt>
      <trkpt lat="48.12019" lon="-0.60462">
        <ele>163</ele>
        <time>2009-10-25T10:20:29Z</time>
      </trkpt>
      <trkpt lat="48.12019" lon="-0.60462">
        <ele>163</ele>
        <time>2009-10-25T10:20:33Z</time>
      </trkpt>
      <trkpt lat="48.12019" lon="-0.60462">
        <ele>163</ele>
        <time>2009-10-25T10:20:37Z</time>
      </trkpt>
      <trkpt lat="48.12017" lon="-0.60462">
        <ele>163</ele>
        <time>2009-10-25T10:20:41Z</time>
      </trkpt>
      <trkpt lat="48.12019" lon="-0.60462">
        <ele>163</ele>
        <time>2009-10-25T10:20:45Z</time>
      </trkpt>
      <trkpt lat="48.12019" lon="-0.60462">
        <ele>163</ele>
        <time>2009-10-25T10:20:49Z</time>
      </trkpt>
      <trkpt lat="48.12019" lon="-0.60462">
        <ele>163</ele>
        <time>2009-10-25T10:20:53Z</time>
      </trkpt>
      <trkpt lat="48.12023" lon="-0.60471">
        <ele>164</ele>
        <time>2009-10-25T10:20:57Z</time>
      </trkpt>
      <trkpt lat="48.12026" lon="-0.60477">
        <ele>162</ele>
        <time>2009-10-25T10:21:01Z</time>
      </trkpt>
      <trkpt lat="48.1203" lon="-0.60487">
        <ele>163</ele>
        <time>2009-10-25T10:21:05Z</time>
      </trkpt>
      <trkpt lat="48.12033" lon="-0.60496">
        <ele>164</ele>
        <time>2009-10-25T10:21:09Z</time>
      </trkpt>
      <trkpt lat="48.12035" lon="-0.60506">
        <ele>163</ele>
        <time>2009-10-25T10:21:13Z</time>
      </trkpt>
      <trkpt lat="48.12038" lon="-0.60518">
        <ele>163</ele>
        <time>2009-10-25T10:21:17Z</time>
      </trkpt>
      <trkpt lat="48.1204" lon="-0.6053">
        <ele>161</ele>
        <time>2009-10-25T10:21:21Z</time>
      </trkpt>
      <trkpt lat="48.12042" lon="-0.60542">
        <ele>161</ele>
        <time>2009-10-25T10:21:25Z</time>
      </trkpt>
      <trkpt lat="48.12042" lon="-0.60553">
        <ele>160</ele>
        <time>2009-10-25T10:21:29Z</time>
      </trkpt>
      <trkpt lat="48.12043" lon="-0.60565">
        <ele>160</ele>
        <time>2009-10-25T10:21:33Z</time>
      </trkpt>
      <trkpt lat="48.12043" lon="-0.60577">
        <ele>160</ele>
        <time>2009-10-25T10:21:37Z</time>
      </trkpt>
      <trkpt lat="48.12044" lon="-0.60591">
        <ele>160</ele>
        <time>2009-10-25T10:21:41Z</time>
      </trkpt>
      <trkpt lat="48.12045" lon="-0.60604">
        <ele>159</ele>
        <time>2009-10-25T10:21:45Z</time>
      </trkpt>
      <trkpt lat="48.12045" lon="-0.60619">
        <ele>157</ele>
        <time>2009-10-25T10:21:49Z</time>
      </trkpt>
      <trkpt lat="48.12045" lon="-0.60634">
        <ele>157</ele>
        <time>2009-10-25T10:21:53Z</time>
      </trkpt>
      <trkpt lat="48.12044" lon="-0.60646">
        <ele>158</ele>
        <time>2009-10-25T10:21:57Z</time>
      </trkpt>
      <trkpt lat="48.12045" lon="-0.60659">
        <ele>157</ele>
        <time>2009-10-25T10:22:01Z</time>
      </trkpt>
      <trkpt lat="48.12045" lon="-0.60674">
        <ele>158</ele>
        <time>2009-10-25T10:22:05Z</time>
      </trkpt>
      <trkpt lat="48.12046" lon="-0.60689">
        <ele>158</ele>
        <time>2009-10-25T10:22:09Z</time>
      </trkpt>
      <trkpt lat="48.12048" lon="-0.60705">
        <ele>160</ele>
        <time>2009-10-25T10:22:13Z</time>
      </trkpt>
      <trkpt lat="48.12049" lon="-0.60722">
        <ele>164</ele>
        <time>2009-10-25T10:22:17Z</time>
      </trkpt>
      <trkpt lat="48.12052" lon="-0.60739">
        <ele>165</ele>
        <time>2009-10-25T10:22:21Z</time>
      </trkpt>
      <trkpt lat="48.12056" lon="-0.60755">
        <ele>166</ele>
        <time>2009-10-25T10:22:25Z</time>
      </trkpt>
      <trkpt lat="48.12062" lon="-0.60771">
        <ele>165</ele>
        <time>2009-10-25T10:22:29Z</time>
      </trkpt>
      <trkpt lat="48.12067" lon="-0.60787">
        <ele>166</ele>
        <time>2009-10-25T10:22:33Z</time>
      </trkpt>
      <trkpt lat="48.1207" lon="-0.60804">
        <ele>166</ele>
        <time>2009-10-25T10:22:37Z</time>
      </trkpt>
      <trkpt lat="48.12075" lon="-0.60823">
        <ele>166</ele>
        <time>2009-10-25T10:22:41Z</time>
      </trkpt>
      <trkpt lat="48.12076" lon="-0.60842">
        <ele>167</ele>
        <time>2009-10-25T10:22:45Z</time>
      </trkpt>
      <trkpt lat="48.12067" lon="-0.60852">
        <ele>167</ele>
        <time>2009-10-25T10:22:49Z</time>
      </trkpt>
      <trkpt lat="48.12053" lon="-0.60852">
        <ele>167</ele>
        <time>2009-10-25T10:22:53Z</time>
      </trkpt>
      <trkpt lat="48.12037" lon="-0.60853">
        <ele>166</ele>
        <time>2009-10-25T10:22:57Z</time>
      </trkpt>
      <trkpt lat="48.12019" lon="-0.60855">
        <ele>165</ele>
        <time>2009-10-25T10:23:01Z</time>
      </trkpt>
      <trkpt lat="48.11998" lon="-0.60856">
        <ele>165</ele>
        <time>2009-10-25T10:23:06Z</time>
      </trkpt>
      <trkpt lat="48.11974" lon="-0.60856">
        <ele>164</ele>
        <time>2009-10-25T10:23:10Z</time>
      </trkpt>
      <trkpt lat="48.1195" lon="-0.60858">
        <ele>162</ele>
        <time>2009-10-25T10:23:14Z</time>
      </trkpt>
      <trkpt lat="48.11926" lon="-0.60861">
        <ele>161</ele>
        <time>2009-10-25T10:23:18Z</time>
      </trkpt>
      <trkpt lat="48.11908" lon="-0.60887">
        <ele>158</ele>
        <time>2009-10-25T10:23:22Z</time>
      </trkpt>
      <trkpt lat="48.1189" lon="-0.60932">
        <ele>155</ele>
        <time>2009-10-25T10:23:26Z</time>
      </trkpt>
      <trkpt lat="48.11873" lon="-0.60971">
        <ele>153</ele>
        <time>2009-10-25T10:23:30Z</time>
      </trkpt>
      <trkpt lat="48.11855" lon="-0.61013">
        <ele>151</ele>
        <time>2009-10-25T10:23:34Z</time>
      </trkpt>
      <trkpt lat="48.11835" lon="-0.6106">
        <ele>149</ele>
        <time>2009-10-25T10:23:38Z</time>
      </trkpt>
      <trkpt lat="48.11816" lon="-0.61107">
        <ele>147</ele>
        <time>2009-10-25T10:23:42Z</time>
      </trkpt>
      <trkpt lat="48.11791" lon="-0.61151">
        <ele>145</ele>
        <time>2009-10-25T10:23:46Z</time>
      </trkpt>
      <trkpt lat="48.11756" lon="-0.61179">
        <ele>143</ele>
        <time>2009-10-25T10:23:50Z</time>
      </trkpt>
      <trkpt lat="48.11716" lon="-0.61193">
        <ele>141</ele>
        <time>2009-10-25T10:23:54Z</time>
      </trkpt>
      <trkpt lat="48.11676" lon="-0.61199">
        <ele>139</ele>
        <time>2009-10-25T10:23:58Z</time>
      </trkpt>
      <trkpt lat="48.11639" lon="-0.61212">
        <ele>138</ele>
        <time>2009-10-25T10:24:02Z</time>
      </trkpt>
      <trkpt lat="48.11617" lon="-0.61254">
        <ele>139</ele>
        <time>2009-10-25T10:24:06Z</time>
      </trkpt>
      <trkpt lat="48.11605" lon="-0.6129">
        <ele>140</ele>
        <time>2009-10-25T10:24:10Z</time>
      </trkpt>
      <trkpt lat="48.11592" lon="-0.61317">
        <ele>141</ele>
        <time>2009-10-25T10:24:14Z</time>
      </trkpt>
      <trkpt lat="48.11579" lon="-0.61341">
        <ele>142</ele>
        <time>2009-10-25T10:24:18Z</time>
      </trkpt>
      <trkpt lat="48.11565" lon="-0.61361">
        <ele>143</ele>
        <time>2009-10-25T10:24:22Z</time>
      </trkpt>
      <trkpt lat="48.11551" lon="-0.61382">
        <ele>143</ele>
        <time>2009-10-25T10:24:26Z</time>
      </trkpt>
      <trkpt lat="48.11538" lon="-0.61403">
        <ele>144</ele>
        <time>2009-10-25T10:24:30Z</time>
      </trkpt>
      <trkpt lat="48.11525" lon="-0.61424">
        <ele>145</ele>
        <time>2009-10-25T10:24:34Z</time>
      </trkpt>
      <trkpt lat="48.11512" lon="-0.61444">
        <ele>146</ele>
        <time>2009-10-25T10:24:38Z</time>
      </trkpt>
      <trkpt lat="48.11501" lon="-0.61466">
        <ele>147</ele>
        <time>2009-10-25T10:24:42Z</time>
      </trkpt>
      <trkpt lat="48.11491" lon="-0.61487">
        <ele>147</ele>
        <time>2009-10-25T10:24:46Z</time>
      </trkpt>
      <trkpt lat="48.11483" lon="-0.6151">
        <ele>148</ele>
        <time>2009-10-25T10:24:50Z</time>
      </trkpt>
      <trkpt lat="48.11475" lon="-0.61534">
        <ele>149</ele>
        <time>2009-10-25T10:24:54Z</time>
      </trkpt>
      <trkpt lat="48.11467" lon="-0.61557">
        <ele>150</ele>
        <time>2009-10-25T10:24:58Z</time>
      </trkpt>
      <trkpt lat="48.11459" lon="-0.6158">
        <ele>150</ele>
        <time>2009-10-25T10:25:02Z</time>
      </trkpt>
      <trkpt lat="48.11453" lon="-0.61604">
        <ele>149</ele>
        <time>2009-10-25T10:25:06Z</time>
      </trkpt>
      <trkpt lat="48.11445" lon="-0.61632">
        <ele>149</ele>
        <time>2009-10-25T10:25:10Z</time>
      </trkpt>
      <trkpt lat="48.11438" lon="-0.61662">
        <ele>148</ele>
        <time>2009-10-25T10:25:14Z</time>
      </trkpt>
      <trkpt lat="48.11426" lon="-0.61689">
        <ele>148</ele>
        <time>2009-10-25T10:25:18Z</time>
      </trkpt>
      <trkpt lat="48.1141" lon="-0.617">
        <ele>148</ele>
        <time>2009-10-25T10:25:22Z</time>
      </trkpt>
      <trkpt lat="48.11396" lon="-0.61708">
        <ele>148</ele>
        <time>2009-10-25T10:25:26Z</time>
      </trkpt>
      <trkpt lat="48.11385" lon="-0.61723">
        <ele>147</ele>
        <time>2009-10-25T10:25:30Z</time>
      </trkpt>
      <trkpt lat="48.11377" lon="-0.6174">
        <ele>148</ele>
        <time>2009-10-25T10:25:34Z</time>
      </trkpt>
      <trkpt lat="48.11369" lon="-0.61759">
        <ele>148</ele>
        <time>2009-10-25T10:25:38Z</time>
      </trkpt>
      <trkpt lat="48.1136" lon="-0.61778">
        <ele>149</ele>
        <time>2009-10-25T10:25:42Z</time>
      </trkpt>
      <trkpt lat="48.11351" lon="-0.618">
        <ele>149</ele>
        <time>2009-10-25T10:25:46Z</time>
      </trkpt>
      <trkpt lat="48.11341" lon="-0.61822">
        <ele>148</ele>
        <time>2009-10-25T10:25:50Z</time>
      </trkpt>
      <trkpt lat="48.1133" lon="-0.61843">
        <ele>148</ele>
        <time>2009-10-25T10:25:54Z</time>
      </trkpt>
      <trkpt lat="48.11317" lon="-0.61861">
        <ele>148</ele>
        <time>2009-10-25T10:25:58Z</time>
      </trkpt>
      <trkpt lat="48.11302" lon="-0.61875">
        <ele>149</ele>
        <time>2009-10-25T10:26:02Z</time>
      </trkpt>
      <trkpt lat="48.11286" lon="-0.61884">
        <ele>149</ele>
        <time>2009-10-25T10:26:06Z</time>
      </trkpt>
      <trkpt lat="48.1127" lon="-0.61892">
        <ele>148</ele>
        <time>2009-10-25T10:26:10Z</time>
      </trkpt>
      <trkpt lat="48.11256" lon="-0.61902">
        <ele>147</ele>
        <time>2009-10-25T10:26:14Z</time>
      </trkpt>
      <trkpt lat="48.11242" lon="-0.61896">
        <ele>148</ele>
        <time>2009-10-25T10:26:18Z</time>
      </trkpt>
      <trkpt lat="48.11231" lon="-0.61873">
        <ele>148</ele>
        <time>2009-10-25T10:26:22Z</time>
      </trkpt>
      <trkpt lat="48.11228" lon="-0.61838">
        <ele>146</ele>
        <time>2009-10-25T10:26:26Z</time>
      </trkpt>
      <trkpt lat="48.11225" lon="-0.61799">
        <ele>145</ele>
        <time>2009-10-25T10:26:30Z</time>
      </trkpt>
      <trkpt lat="48.11217" lon="-0.61759">
        <ele>144</ele>
        <time>2009-10-25T10:26:34Z</time>
      </trkpt>
      <trkpt lat="48.11209" lon="-0.61718">
        <ele>143</ele>
        <time>2009-10-25T10:26:38Z</time>
      </trkpt>
      <trkpt lat="48.11195" lon="-0.61675">
        <ele>141</ele>
        <time>2009-10-25T10:26:42Z</time>
      </trkpt>
      <trkpt lat="48.11182" lon="-0.61638">
        <ele>141</ele>
        <time>2009-10-25T10:26:46Z</time>
      </trkpt>
      <trkpt lat="48.11161" lon="-0.61617">
        <ele>141</ele>
        <time>2009-10-25T10:26:50Z</time>
      </trkpt>
      <trkpt lat="48.11138" lon="-0.61599">
        <ele>140</ele>
        <time>2009-10-25T10:26:54Z</time>
      </trkpt>
      <trkpt lat="48.11114" lon="-0.61578">
        <ele>140</ele>
        <time>2009-10-25T10:26:58Z</time>
      </trkpt>
      <trkpt lat="48.11092" lon="-0.61561">
        <ele>139</ele>
        <time>2009-10-25T10:27:02Z</time>
      </trkpt>
      <trkpt lat="48.11073" lon="-0.61543">
        <ele>138</ele>
        <time>2009-10-25T10:27:06Z</time>
      </trkpt>
      <trkpt lat="48.11053" lon="-0.61522">
        <ele>138</ele>
        <time>2009-10-25T10:27:10Z</time>
      </trkpt>
      <trkpt lat="48.11033" lon="-0.61506">
        <ele>138</ele>
        <time>2009-10-25T10:27:14Z</time>
      </trkpt>
      <trkpt lat="48.11017" lon="-0.6151">
        <ele>137</ele>
        <time>2009-10-25T10:27:18Z</time>
      </trkpt>
      <trkpt lat="48.11001" lon="-0.61523">
        <ele>133</ele>
        <time>2009-10-25T10:27:22Z</time>
      </trkpt>
      <trkpt lat="48.10985" lon="-0.61532">
        <ele>130</ele>
        <time>2009-10-25T10:27:26Z</time>
      </trkpt>
      <trkpt lat="48.10966" lon="-0.61541">
        <ele>128</ele>
        <time>2009-10-25T10:27:30Z</time>
      </trkpt>
      <trkpt lat="48.10948" lon="-0.6154">
        <ele>127</ele>
        <time>2009-10-25T10:27:34Z</time>
      </trkpt>
      <trkpt lat="48.10928" lon="-0.61528">
        <ele>130</ele>
        <time>2009-10-25T10:27:38Z</time>
      </trkpt>
      <trkpt lat="48.10913" lon="-0.61504">
        <ele>131</ele>
        <time>2009-10-25T10:27:42Z</time>
      </trkpt>
      <trkpt lat="48.10902" lon="-0.61477">
        <ele>135</ele>
        <time>2009-10-25T10:27:46Z</time>
      </trkpt>
      <trkpt lat="48.10891" lon="-0.61469">
        <ele>136</ele>
        <time>2009-10-25T10:27:50Z</time>
      </trkpt>
      <trkpt lat="48.10888" lon="-0.61481">
        <ele>135</ele>
        <time>2009-10-25T10:27:54Z</time>
      </trkpt>
      <trkpt lat="48.10884" lon="-0.61495">
        <ele>138</ele>
        <time>2009-10-25T10:27:58Z</time>
      </trkpt>
      <trkpt lat="48.10878" lon="-0.6151">
        <ele>138</ele>
        <time>2009-10-25T10:28:02Z</time>
      </trkpt>
      <trkpt lat="48.10872" lon="-0.61524">
        <ele>138</ele>
        <time>2009-10-25T10:28:06Z</time>
      </trkpt>
      <trkpt lat="48.10864" lon="-0.61536">
        <ele>140</ele>
        <time>2009-10-25T10:28:10Z</time>
      </trkpt>
      <trkpt lat="48.10857" lon="-0.61547">
        <ele>141</ele>
        <time>2009-10-25T10:28:14Z</time>
      </trkpt>
      <trkpt lat="48.1085" lon="-0.61556">
        <ele>141</ele>
        <time>2009-10-25T10:28:18Z</time>
      </trkpt>
      <trkpt lat="48.10841" lon="-0.61566">
        <ele>142</ele>
        <time>2009-10-25T10:28:22Z</time>
      </trkpt>
      <trkpt lat="48.10832" lon="-0.61575">
        <ele>141</ele>
        <time>2009-10-25T10:28:26Z</time>
      </trkpt>
      <trkpt lat="48.10825" lon="-0.61588">
        <ele>142</ele>
        <time>2009-10-25T10:28:30Z</time>
      </trkpt>
      <trkpt lat="48.10817" lon="-0.61599">
        <ele>145</ele>
        <time>2009-10-25T10:28:34Z</time>
      </trkpt>
      <trkpt lat="48.10813" lon="-0.61607">
        <ele>145</ele>
        <time>2009-10-25T10:28:38Z</time>
      </trkpt>
      <trkpt lat="48.10808" lon="-0.61615">
        <ele>146</ele>
        <time>2009-10-25T10:28:42Z</time>
      </trkpt>
      <trkpt lat="48.10803" lon="-0.61625">
        <ele>146</ele>
        <time>2009-10-25T10:28:46Z</time>
      </trkpt>
      <trkpt lat="48.10795" lon="-0.61638">
        <ele>146</ele>
        <time>2009-10-25T10:28:50Z</time>
      </trkpt>
      <trkpt lat="48.10787" lon="-0.6165">
        <ele>147</ele>
        <time>2009-10-25T10:28:54Z</time>
      </trkpt>
      <trkpt lat="48.10779" lon="-0.61661">
        <ele>145</ele>
        <time>2009-10-25T10:28:58Z</time>
      </trkpt>
      <trkpt lat="48.10771" lon="-0.61671">
        <ele>144</ele>
        <time>2009-10-25T10:29:02Z</time>
      </trkpt>
      <trkpt lat="48.10763" lon="-0.61679">
        <ele>141</ele>
        <time>2009-10-25T10:29:06Z</time>
      </trkpt>
      <trkpt lat="48.10759" lon="-0.61684">
        <ele>138</ele>
        <time>2009-10-25T10:29:10Z</time>
      </trkpt>
      <trkpt lat="48.10752" lon="-0.61689">
        <ele>138</ele>
        <time>2009-10-25T10:29:14Z</time>
      </trkpt>
      <trkpt lat="48.10746" lon="-0.61692">
        <ele>136</ele>
        <time>2009-10-25T10:29:18Z</time>
      </trkpt>
      <trkpt lat="48.10738" lon="-0.61695">
        <ele>137</ele>
        <time>2009-10-25T10:29:22Z</time>
      </trkpt>
      <trkpt lat="48.10728" lon="-0.61697">
        <ele>139</ele>
        <time>2009-10-25T10:29:26Z</time>
      </trkpt>
      <trkpt lat="48.10719" lon="-0.61698">
        <ele>138</ele>
        <time>2009-10-25T10:29:30Z</time>
      </trkpt>
      <trkpt lat="48.10711" lon="-0.61698">
        <ele>139</ele>
        <time>2009-10-25T10:29:34Z</time>
      </trkpt>
      <trkpt lat="48.10703" lon="-0.617">
        <ele>140</ele>
        <time>2009-10-25T10:29:38Z</time>
      </trkpt>
      <trkpt lat="48.10695" lon="-0.617">
        <ele>142</ele>
        <time>2009-10-25T10:29:42Z</time>
      </trkpt>
      <trkpt lat="48.10686" lon="-0.617">
        <ele>143</ele>
        <time>2009-10-25T10:29:46Z</time>
      </trkpt>
      <trkpt lat="48.10684" lon="-0.617">
        <ele>145</ele>
        <time>2009-10-25T10:29:50Z</time>
      </trkpt>
      <trkpt lat="48.10682" lon="-0.61699">
        <ele>145</ele>
        <time>2009-10-25T10:29:54Z</time>
      </trkpt>
      <trkpt lat="48.10681" lon="-0.61701">
        <ele>147</ele>
        <time>2009-10-25T10:29:58Z</time>
      </trkpt>
      <trkpt lat="48.10678" lon="-0.61701">
        <ele>150</ele>
        <time>2009-10-25T10:30:02Z</time>
      </trkpt>
      <trkpt lat="48.10677" lon="-0.61701">
        <ele>151</ele>
        <time>2009-10-25T10:30:06Z</time>
      </trkpt>
      <trkpt lat="48.10675" lon="-0.617">
        <ele>152</ele>
        <time>2009-10-25T10:30:10Z</time>
      </trkpt>
      <trkpt lat="48.10675" lon="-0.617">
        <ele>151</ele>
        <time>2009-10-25T10:30:14Z</time>
      </trkpt>
      <trkpt lat="48.10675" lon="-0.617">
        <ele>152</ele>
        <time>2009-10-25T10:30:18Z</time>
      </trkpt>
      <trkpt lat="48.10675" lon="-0.617">
        <ele>152</ele>
        <time>2009-10-25T10:30:22Z</time>
      </trkpt>
      <trkpt lat="48.10675" lon="-0.617">
        <ele>152</ele>
        <time>2009-10-25T10:30:26Z</time>
      </trkpt>
      <trkpt lat="48.10672" lon="-0.617">
        <ele>152</ele>
        <time>2009-10-25T10:30:30Z</time>
      </trkpt>
      <trkpt lat="48.10669" lon="-0.617">
        <ele>153</ele>
        <time>2009-10-25T10:30:34Z</time>
      </trkpt>
      <trkpt lat="48.10663" lon="-0.61697">
        <ele>153</ele>
        <time>2009-10-25T10:30:38Z</time>
      </trkpt>
      <trkpt lat="48.10656" lon="-0.61692">
        <ele>153</ele>
        <time>2009-10-25T10:30:42Z</time>
      </trkpt>
      <trkpt lat="48.10649" lon="-0.61689">
        <ele>154</ele>
        <time>2009-10-25T10:30:46Z</time>
      </trkpt>
      <trkpt lat="48.10644" lon="-0.61688">
        <ele>154</ele>
        <time>2009-10-25T10:30:50Z</time>
      </trkpt>
      <trkpt lat="48.10634" lon="-0.61685">
        <ele>155</ele>
        <time>2009-10-25T10:30:54Z</time>
      </trkpt>
      <trkpt lat="48.10624" lon="-0.61684">
        <ele>156</ele>
        <time>2009-10-25T10:30:58Z</time>
      </trkpt>
      <trkpt lat="48.10615" lon="-0.61681">
        <ele>158</ele>
        <time>2009-10-25T10:31:02Z</time>
      </trkpt>
      <trkpt lat="48.10607" lon="-0.61674">
        <ele>159</ele>
        <time>2009-10-25T10:31:06Z</time>
      </trkpt>
      <trkpt lat="48.10598" lon="-0.61664">
        <ele>159</ele>
        <time>2009-10-25T10:31:10Z</time>
      </trkpt>
      <trkpt lat="48.10595" lon="-0.6165">
        <ele>158</ele>
        <time>2009-10-25T10:31:14Z</time>
      </trkpt>
      <trkpt lat="48.10595" lon="-0.61635">
        <ele>157</ele>
        <time>2009-10-25T10:31:18Z</time>
      </trkpt>
      <trkpt lat="48.10594" lon="-0.61616">
        <ele>155</ele>
        <time>2009-10-25T10:31:22Z</time>
      </trkpt>
      <trkpt lat="48.10593" lon="-0.61592">
        <ele>154</ele>
        <time>2009-10-25T10:31:26Z</time>
      </trkpt>
      <trkpt lat="48.10593" lon="-0.61564">
        <ele>153</ele>
        <time>2009-10-25T10:31:30Z</time>
      </trkpt>
      <trkpt lat="48.10579" lon="-0.61549">
        <ele>152</ele>
        <time>2009-10-25T10:31:34Z</time>
      </trkpt>
      <trkpt lat="48.10564" lon="-0.61543">
        <ele>153</ele>
        <time>2009-10-25T10:31:38Z</time>
      </trkpt>
      <trkpt lat="48.10549" lon="-0.61533">
        <ele>153</ele>
        <time>2009-10-25T10:31:42Z</time>
      </trkpt>
      <trkpt lat="48.10532" lon="-0.61525">
        <ele>153</ele>
        <time>2009-10-25T10:31:46Z</time>
      </trkpt>
      <trkpt lat="48.10517" lon="-0.61519">
        <ele>153</ele>
        <time>2009-10-25T10:31:50Z</time>
      </trkpt>
      <trkpt lat="48.10501" lon="-0.61507">
        <ele>152</ele>
        <time>2009-10-25T10:31:54Z</time>
      </trkpt>
      <trkpt lat="48.10487" lon="-0.61487">
        <ele>150</ele>
        <time>2009-10-25T10:31:58Z</time>
      </trkpt>
      <trkpt lat="48.1048" lon="-0.61468">
        <ele>148</ele>
        <time>2009-10-25T10:32:02Z</time>
      </trkpt>
      <trkpt lat="48.10488" lon="-0.61456">
        <ele>147</ele>
        <time>2009-10-25T10:32:06Z</time>
      </trkpt>
      <trkpt lat="48.10503" lon="-0.61447">
        <ele>146</ele>
        <time>2009-10-25T10:32:10Z</time>
      </trkpt>
      <trkpt lat="48.1052" lon="-0.61435">
        <ele>145</ele>
        <time>2009-10-25T10:32:14Z</time>
      </trkpt>
      <trkpt lat="48.10538" lon="-0.61416">
        <ele>144</ele>
        <time>2009-10-25T10:32:18Z</time>
      </trkpt>
      <trkpt lat="48.10556" lon="-0.61387">
        <ele>143</ele>
        <time>2009-10-25T10:32:22Z</time>
      </trkpt>
      <trkpt lat="48.10572" lon="-0.61351">
        <ele>142</ele>
        <time>2009-10-25T10:32:26Z</time>
      </trkpt>
      <trkpt lat="48.10587" lon="-0.61309">
        <ele>140</ele>
        <time>2009-10-25T10:32:31Z</time>
      </trkpt>
      <trkpt lat="48.10593" lon="-0.61261">
        <ele>138</ele>
        <time>2009-10-25T10:32:35Z</time>
      </trkpt>
      <trkpt lat="48.10587" lon="-0.61194">
        <ele>135</ele>
        <time>2009-10-25T10:32:39Z</time>
      </trkpt>
      <trkpt lat="48.10573" lon="-0.61143">
        <ele>134</ele>
        <time>2009-10-25T10:32:43Z</time>
      </trkpt>
      <trkpt lat="48.10555" lon="-0.61092">
        <ele>132</ele>
        <time>2009-10-25T10:32:47Z</time>
      </trkpt>
      <trkpt lat="48.10538" lon="-0.61041">
        <ele>131</ele>
        <time>2009-10-25T10:32:51Z</time>
      </trkpt>
      <trkpt lat="48.10533" lon="-0.60982">
        <ele>129</ele>
        <time>2009-10-25T10:32:55Z</time>
      </trkpt>
      <trkpt lat="48.10532" lon="-0.60922">
        <ele>127</ele>
        <time>2009-10-25T10:32:59Z</time>
      </trkpt>
      <trkpt lat="48.10532" lon="-0.60861">
        <ele>124</ele>
        <time>2009-10-25T10:33:03Z</time>
      </trkpt>
      <trkpt lat="48.10532" lon="-0.60801">
        <ele>123</ele>
        <time>2009-10-25T10:33:07Z</time>
      </trkpt>
      <trkpt lat="48.1053" lon="-0.60742">
        <ele>121</ele>
        <time>2009-10-25T10:33:11Z</time>
      </trkpt>
      <trkpt lat="48.10535" lon="-0.60685">
        <ele>119</ele>
        <time>2009-10-25T10:33:15Z</time>
      </trkpt>
      <trkpt lat="48.10545" lon="-0.6064">
        <ele>117</ele>
        <time>2009-10-25T10:33:19Z</time>
      </trkpt>
      <trkpt lat="48.10555" lon="-0.60606">
        <ele>116</ele>
        <time>2009-10-25T10:33:23Z</time>
      </trkpt>
      <trkpt lat="48.10552" lon="-0.60588">
        <ele>115</ele>
        <time>2009-10-25T10:33:27Z</time>
      </trkpt>
      <trkpt lat="48.10539" lon="-0.60588">
        <ele>115</ele>
        <time>2009-10-25T10:33:31Z</time>
      </trkpt>
      <trkpt lat="48.10525" lon="-0.60589">
        <ele>115</ele>
        <time>2009-10-25T10:33:35Z</time>
      </trkpt>
      <trkpt lat="48.10512" lon="-0.60585">
        <ele>116</ele>
        <time>2009-10-25T10:33:39Z</time>
      </trkpt>
      <trkpt lat="48.10501" lon="-0.6058">
        <ele>118</ele>
        <time>2009-10-25T10:33:43Z</time>
      </trkpt>
      <trkpt lat="48.10492" lon="-0.60575">
        <ele>119</ele>
        <time>2009-10-25T10:33:47Z</time>
      </trkpt>
      <trkpt lat="48.10481" lon="-0.60572">
        <ele>120</ele>
        <time>2009-10-25T10:33:51Z</time>
      </trkpt>
      <trkpt lat="48.10466" lon="-0.60573">
        <ele>120</ele>
        <time>2009-10-25T10:33:55Z</time>
      </trkpt>
      <trkpt lat="48.10451" lon="-0.60579">
        <ele>117</ele>
        <time>2009-10-25T10:33:59Z</time>
      </trkpt>
      <trkpt lat="48.10435" lon="-0.60586">
        <ele>115</ele>
        <time>2009-10-25T10:34:03Z</time>
      </trkpt>
      <trkpt lat="48.10418" lon="-0.60591">
        <ele>113</ele>
        <time>2009-10-25T10:34:07Z</time>
      </trkpt>
      <trkpt lat="48.10397" lon="-0.60588">
        <ele>114</ele>
        <time>2009-10-25T10:34:11Z</time>
      </trkpt>
      <trkpt lat="48.10379" lon="-0.60577">
        <ele>114</ele>
        <time>2009-10-25T10:34:15Z</time>
      </trkpt>
      <trkpt lat="48.10358" lon="-0.60559">
        <ele>116</ele>
        <time>2009-10-25T10:34:19Z</time>
      </trkpt>
      <trkpt lat="48.10333" lon="-0.60532">
        <ele>116</ele>
        <time>2009-10-25T10:34:23Z</time>
      </trkpt>
      <trkpt lat="48.10308" lon="-0.6051">
        <ele>116</ele>
        <time>2009-10-25T10:34:27Z</time>
      </trkpt>
      <trkpt lat="48.10295" lon="-0.60483">
        <ele>112</ele>
        <time>2009-10-25T10:34:31Z</time>
      </trkpt>
      <trkpt lat="48.10282" lon="-0.60468">
        <ele>112</ele>
        <time>2009-10-25T10:34:35Z</time>
      </trkpt>
      <trkpt lat="48.10285" lon="-0.60455">
        <ele>112</ele>
        <time>2009-10-25T10:34:39Z</time>
      </trkpt>
      <trkpt lat="48.10296" lon="-0.60445">
        <ele>112</ele>
        <time>2009-10-25T10:34:43Z</time>
      </trkpt>
      <trkpt lat="48.10307" lon="-0.60435">
        <ele>113</ele>
        <time>2009-10-25T10:34:47Z</time>
      </trkpt>
      <trkpt lat="48.10316" lon="-0.60422">
        <ele>114</ele>
        <time>2009-10-25T10:34:51Z</time>
      </trkpt>
      <trkpt lat="48.10325" lon="-0.6041">
        <ele>116</ele>
        <time>2009-10-25T10:34:55Z</time>
      </trkpt>
      <trkpt lat="48.10334" lon="-0.60396">
        <ele>118</ele>
        <time>2009-10-25T10:34:59Z</time>
      </trkpt>
      <trkpt lat="48.10343" lon="-0.60382">
        <ele>118</ele>
        <time>2009-10-25T10:35:03Z</time>
      </trkpt>
      <trkpt lat="48.10352" lon="-0.60368">
        <ele>119</ele>
        <time>2009-10-25T10:35:07Z</time>
      </trkpt>
      <trkpt lat="48.1036" lon="-0.60355">
        <ele>120</ele>
        <time>2009-10-25T10:35:11Z</time>
      </trkpt>
      <trkpt lat="48.10368" lon="-0.60339">
        <ele>120</ele>
        <time>2009-10-25T10:35:15Z</time>
      </trkpt>
      <trkpt lat="48.10374" lon="-0.60323">
        <ele>120</ele>
        <time>2009-10-25T10:35:19Z</time>
      </trkpt>
      <trkpt lat="48.1038" lon="-0.60307">
        <ele>121</ele>
        <time>2009-10-25T10:35:23Z</time>
      </trkpt>
      <trkpt lat="48.10386" lon="-0.6029">
        <ele>121</ele>
        <time>2009-10-25T10:35:27Z</time>
      </trkpt>
      <trkpt lat="48.10389" lon="-0.60271">
        <ele>121</ele>
        <time>2009-10-25T10:35:31Z</time>
      </trkpt>
      <trkpt lat="48.10394" lon="-0.60254">
        <ele>122</ele>
        <time>2009-10-25T10:35:35Z</time>
      </trkpt>
      <trkpt lat="48.10398" lon="-0.60235">
        <ele>123</ele>
        <time>2009-10-25T10:35:39Z</time>
      </trkpt>
      <trkpt lat="48.10405" lon="-0.60214">
        <ele>123</ele>
        <time>2009-10-25T10:35:43Z</time>
      </trkpt>
      <trkpt lat="48.1041" lon="-0.60194">
        <ele>125</ele>
        <time>2009-10-25T10:35:47Z</time>
      </trkpt>
      <trkpt lat="48.10415" lon="-0.60173">
        <ele>125</ele>
        <time>2009-10-25T10:35:51Z</time>
      </trkpt>
      <trkpt lat="48.1042" lon="-0.60152">
        <ele>126</ele>
        <time>2009-10-25T10:35:55Z</time>
      </trkpt>
      <trkpt lat="48.10424" lon="-0.6013">
        <ele>126</ele>
        <time>2009-10-25T10:35:59Z</time>
      </trkpt>
      <trkpt lat="48.10427" lon="-0.60107">
        <ele>127</ele>
        <time>2009-10-25T10:36:03Z</time>
      </trkpt>
      <trkpt lat="48.10427" lon="-0.6008">
        <ele>127</ele>
        <time>2009-10-25T10:36:07Z</time>
      </trkpt>
      <trkpt lat="48.10426" lon="-0.60055">
        <ele>128</ele>
        <time>2009-10-25T10:36:11Z</time>
      </trkpt>
      <trkpt lat="48.10431" lon="-0.60025">
        <ele>128</ele>
        <time>2009-10-25T10:36:15Z</time>
      </trkpt>
      <trkpt lat="48.10434" lon="-0.59992">
        <ele>128</ele>
        <time>2009-10-25T10:36:19Z</time>
      </trkpt>
      <trkpt lat="48.10435" lon="-0.59964">
        <ele>129</ele>
        <time>2009-10-25T10:36:23Z</time>
      </trkpt>
      <trkpt lat="48.10437" lon="-0.59937">
        <ele>128</ele>
        <time>2009-10-25T10:36:27Z</time>
      </trkpt>
      <trkpt lat="48.10437" lon="-0.59912">
        <ele>128</ele>
        <time>2009-10-25T10:36:31Z</time>
      </trkpt>
      <trkpt lat="48.10437" lon="-0.5989">
        <ele>127</ele>
        <time>2009-10-25T10:36:35Z</time>
      </trkpt>
      <trkpt lat="48.10435" lon="-0.59863">
        <ele>128</ele>
        <time>2009-10-25T10:36:39Z</time>
      </trkpt>
      <trkpt lat="48.10431" lon="-0.59837">
        <ele>129</ele>
        <time>2009-10-25T10:36:43Z</time>
      </trkpt>
      <trkpt lat="48.10427" lon="-0.5981">
        <ele>130</ele>
        <time>2009-10-25T10:36:47Z</time>
      </trkpt>
      <trkpt lat="48.10421" lon="-0.59782">
        <ele>129</ele>
        <time>2009-10-25T10:36:51Z</time>
      </trkpt>
      <trkpt lat="48.10416" lon="-0.59751">
        <ele>127</ele>
        <time>2009-10-25T10:36:56Z</time>
      </trkpt>
      <trkpt lat="48.10407" lon="-0.59709">
        <ele>126</ele>
        <time>2009-10-25T10:37:00Z</time>
      </trkpt>
      <trkpt lat="48.10399" lon="-0.59681">
        <ele>125</ele>
        <time>2009-10-25T10:37:04Z</time>
      </trkpt>
      <trkpt lat="48.10389" lon="-0.59652">
        <ele>126</ele>
        <time>2009-10-25T10:37:08Z</time>
      </trkpt>
      <trkpt lat="48.10387" lon="-0.59618">
        <ele>126</ele>
        <time>2009-10-25T10:37:12Z</time>
      </trkpt>
      <trkpt lat="48.10394" lon="-0.59585">
        <ele>125</ele>
        <time>2009-10-25T10:37:16Z</time>
      </trkpt>
      <trkpt lat="48.10404" lon="-0.59552">
        <ele>123</ele>
        <time>2009-10-25T10:37:20Z</time>
      </trkpt>
      <trkpt lat="48.1041" lon="-0.59519">
        <ele>122</ele>
        <time>2009-10-25T10:37:24Z</time>
      </trkpt>
      <trkpt lat="48.1041" lon="-0.59495">
        <ele>122</ele>
        <time>2009-10-25T10:37:28Z</time>
      </trkpt>
      <trkpt lat="48.10411" lon="-0.59474">
        <ele>123</ele>
        <time>2009-10-25T10:37:32Z</time>
      </trkpt>
      <trkpt lat="48.10415" lon="-0.59452">
        <ele>124</ele>
        <time>2009-10-25T10:37:36Z</time>
      </trkpt>
      <trkpt lat="48.10413" lon="-0.59433">
        <ele>125</ele>
        <time>2009-10-25T10:37:40Z</time>
      </trkpt>
      <trkpt lat="48.10415" lon="-0.59414">
        <ele>129</ele>
        <time>2009-10-25T10:37:44Z</time>
      </trkpt>
      <trkpt lat="48.10414" lon="-0.59394">
        <ele>133</ele>
        <time>2009-10-25T10:37:48Z</time>
      </trkpt>
      <trkpt lat="48.10414" lon="-0.59371">
        <ele>136</ele>
        <time>2009-10-25T10:37:52Z</time>
      </trkpt>
      <trkpt lat="48.10413" lon="-0.5935">
        <ele>135</ele>
        <time>2009-10-25T10:37:56Z</time>
      </trkpt>
      <trkpt lat="48.10413" lon="-0.5933">
        <ele>136</ele>
        <time>2009-10-25T10:38:00Z</time>
      </trkpt>
      <trkpt lat="48.10411" lon="-0.59311">
        <ele>133</ele>
        <time>2009-10-25T10:38:04Z</time>
      </trkpt>
      <trkpt lat="48.10411" lon="-0.59291">
        <ele>131</ele>
        <time>2009-10-25T10:38:08Z</time>
      </trkpt>
      <trkpt lat="48.10406" lon="-0.5927">
        <ele>134</ele>
        <time>2009-10-25T10:38:12Z</time>
      </trkpt>
      <trkpt lat="48.10404" lon="-0.59244">
        <ele>135</ele>
        <time>2009-10-25T10:38:16Z</time>
      </trkpt>
      <trkpt lat="48.10404" lon="-0.59221">
        <ele>134</ele>
        <time>2009-10-25T10:38:20Z</time>
      </trkpt>
      <trkpt lat="48.10404" lon="-0.59204">
        <ele>132</ele>
        <time>2009-10-25T10:38:24Z</time>
      </trkpt>
      <trkpt lat="48.10403" lon="-0.59185">
        <ele>130</ele>
        <time>2009-10-25T10:38:28Z</time>
      </trkpt>
      <trkpt lat="48.10403" lon="-0.59165">
        <ele>129</ele>
        <time>2009-10-25T10:38:32Z</time>
      </trkpt>
      <trkpt lat="48.10404" lon="-0.59146">
        <ele>128</ele>
        <time>2009-10-25T10:38:36Z</time>
      </trkpt>
      <trkpt lat="48.10403" lon="-0.5913">
        <ele>126</ele>
        <time>2009-10-25T10:38:40Z</time>
      </trkpt>
      <trkpt lat="48.10404" lon="-0.59111">
        <ele>124</ele>
        <time>2009-10-25T10:38:44Z</time>
      </trkpt>
      <trkpt lat="48.10403" lon="-0.59094">
        <ele>123</ele>
        <time>2009-10-25T10:38:48Z</time>
      </trkpt>
      <trkpt lat="48.10403" lon="-0.59076">
        <ele>120</ele>
        <time>2009-10-25T10:38:52Z</time>
      </trkpt>
      <trkpt lat="48.10403" lon="-0.59056">
        <ele>116</ele>
        <time>2009-10-25T10:38:56Z</time>
      </trkpt>
      <trkpt lat="48.10398" lon="-0.59032">
        <ele>115</ele>
        <time>2009-10-25T10:39:00Z</time>
      </trkpt>
      <trkpt lat="48.10395" lon="-0.5901">
        <ele>118</ele>
        <time>2009-10-25T10:39:04Z</time>
      </trkpt>
      <trkpt lat="48.1039" lon="-0.58996">
        <ele>121</ele>
        <time>2009-10-25T10:39:08Z</time>
      </trkpt>
      <trkpt lat="48.1039" lon="-0.58994">
        <ele>123</ele>
        <time>2009-10-25T10:39:12Z</time>
      </trkpt>
      <trkpt lat="48.10389" lon="-0.58991">
        <ele>124</ele>
        <time>2009-10-25T10:39:16Z</time>
      </trkpt>
      <trkpt lat="48.10388" lon="-0.5899">
        <ele>124</ele>
        <time>2009-10-25T10:39:20Z</time>
      </trkpt>
      <trkpt lat="48.10388" lon="-0.58986">
        <ele>125</ele>
        <time>2009-10-25T10:39:24Z</time>
      </trkpt>
      <trkpt lat="48.10388" lon="-0.58984">
        <ele>126</ele>
        <time>2009-10-25T10:39:28Z</time>
      </trkpt>
      <trkpt lat="48.10387" lon="-0.5898">
        <ele>127</ele>
        <time>2009-10-25T10:39:32Z</time>
      </trkpt>
      <trkpt lat="48.10387" lon="-0.58979">
        <ele>127</ele>
        <time>2009-10-25T10:39:36Z</time>
      </trkpt>
      <trkpt lat="48.10387" lon="-0.58971">
        <ele>126</ele>
        <time>2009-10-25T10:39:40Z</time>
      </trkpt>
      <trkpt lat="48.10386" lon="-0.58971">
        <ele>127</ele>
        <time>2009-10-25T10:39:44Z</time>
      </trkpt>
      <trkpt lat="48.10386" lon="-0.5897">
        <ele>130</ele>
        <time>2009-10-25T10:39:48Z</time>
      </trkpt>
      <trkpt lat="48.10386" lon="-0.58968">
        <ele>132</ele>
        <time>2009-10-25T10:39:52Z</time>
      </trkpt>
      <trkpt lat="48.10384" lon="-0.58968">
        <ele>131</ele>
        <time>2009-10-25T10:39:56Z</time>
      </trkpt>
      <trkpt lat="48.10384" lon="-0.58968">
        <ele>132</ele>
        <time>2009-10-25T10:40:00Z</time>
      </trkpt>
      <trkpt lat="48.10384" lon="-0.58967">
        <ele>131</ele>
        <time>2009-10-25T10:40:04Z</time>
      </trkpt>
      <trkpt lat="48.10384" lon="-0.58967">
        <ele>130</ele>
        <time>2009-10-25T10:40:08Z</time>
      </trkpt>
      <trkpt lat="48.10384" lon="-0.58966">
        <ele>130</ele>
        <time>2009-10-25T10:40:12Z</time>
      </trkpt>
      <trkpt lat="48.10384" lon="-0.58966">
        <ele>129</ele>
        <time>2009-10-25T10:40:16Z</time>
      </trkpt>
      <trkpt lat="48.10384" lon="-0.58966">
        <ele>131</ele>
        <time>2009-10-25T10:40:20Z</time>
      </trkpt>
      <trkpt lat="48.10384" lon="-0.58966">
        <ele>130</ele>
        <time>2009-10-25T10:40:24Z</time>
      </trkpt>
      <trkpt lat="48.10384" lon="-0.58966">
        <ele>130</ele>
        <time>2009-10-25T10:40:28Z</time>
      </trkpt>
      <trkpt lat="48.10385" lon="-0.58966">
        <ele>130</ele>
        <time>2009-10-25T10:40:32Z</time>
      </trkpt>
      <trkpt lat="48.10385" lon="-0.58966">
        <ele>129</ele>
        <time>2009-10-25T10:40:36Z</time>
      </trkpt>
      <trkpt lat="48.10384" lon="-0.58966">
        <ele>129</ele>
        <time>2009-10-25T10:40:40Z</time>
      </trkpt>
      <trkpt lat="48.10384" lon="-0.5896">
        <ele>128</ele>
        <time>2009-10-25T10:40:44Z</time>
      </trkpt>
      <trkpt lat="48.10385" lon="-0.5895">
        <ele>128</ele>
        <time>2009-10-25T10:40:48Z</time>
      </trkpt>
      <trkpt lat="48.10384" lon="-0.58938">
        <ele>127</ele>
        <time>2009-10-25T10:40:52Z</time>
      </trkpt>
      <trkpt lat="48.10384" lon="-0.5893">
        <ele>126</ele>
        <time>2009-10-25T10:40:56Z</time>
      </trkpt>
      <trkpt lat="48.10384" lon="-0.5893">
        <ele>126</ele>
        <time>2009-10-25T10:41:00Z</time>
      </trkpt>
      <trkpt lat="48.10384" lon="-0.58928">
        <ele>126</ele>
        <time>2009-10-25T10:41:04Z</time>
      </trkpt>
      <trkpt lat="48.10385" lon="-0.58924">
        <ele>126</ele>
        <time>2009-10-25T10:41:08Z</time>
      </trkpt>
      <trkpt lat="48.10385" lon="-0.58911">
        <ele>126</ele>
        <time>2009-10-25T10:41:12Z</time>
      </trkpt>
      <trkpt lat="48.10383" lon="-0.58891">
        <ele>127</ele>
        <time>2009-10-25T10:41:16Z</time>
      </trkpt>
      <trkpt lat="48.1038" lon="-0.58872">
        <ele>125</ele>
        <time>2009-10-25T10:41:20Z</time>
      </trkpt>
      <trkpt lat="48.10375" lon="-0.58851">
        <ele>124</ele>
        <time>2009-10-25T10:41:24Z</time>
      </trkpt>
      <trkpt lat="48.10374" lon="-0.58831">
        <ele>123</ele>
        <time>2009-10-25T10:41:28Z</time>
      </trkpt>
      <trkpt lat="48.10379" lon="-0.58809">
        <ele>123</ele>
        <time>2009-10-25T10:41:32Z</time>
      </trkpt>
      <trkpt lat="48.10384" lon="-0.58784">
        <ele>122</ele>
        <time>2009-10-25T10:41:36Z</time>
      </trkpt>
      <trkpt lat="48.10379" lon="-0.58765">
        <ele>123</ele>
        <time>2009-10-25T10:41:40Z</time>
      </trkpt>
      <trkpt lat="48.10363" lon="-0.58764">
        <ele>124</ele>
        <time>2009-10-25T10:41:44Z</time>
      </trkpt>
      <trkpt lat="48.1035" lon="-0.58765">
        <ele>125</ele>
        <time>2009-10-25T10:41:48Z</time>
      </trkpt>
      <trkpt lat="48.10334" lon="-0.58764">
        <ele>126</ele>
        <time>2009-10-25T10:41:52Z</time>
      </trkpt>
      <trkpt lat="48.1032" lon="-0.58762">
        <ele>127</ele>
        <time>2009-10-25T10:41:56Z</time>
      </trkpt>
      <trkpt lat="48.10305" lon="-0.58761">
        <ele>128</ele>
        <time>2009-10-25T10:42:00Z</time>
      </trkpt>
      <trkpt lat="48.10289" lon="-0.58761">
        <ele>129</ele>
        <time>2009-10-25T10:42:04Z</time>
      </trkpt>
      <trkpt lat="48.10274" lon="-0.5876">
        <ele>130</ele>
        <time>2009-10-25T10:42:08Z</time>
      </trkpt>
      <trkpt lat="48.10258" lon="-0.58759">
        <ele>130</ele>
        <time>2009-10-25T10:42:12Z</time>
      </trkpt>
      <trkpt lat="48.10242" lon="-0.58757">
        <ele>131</ele>
        <time>2009-10-25T10:42:16Z</time>
      </trkpt>
      <trkpt lat="48.10224" lon="-0.58757">
        <ele>132</ele>
        <time>2009-10-25T10:42:20Z</time>
      </trkpt>
      <trkpt lat="48.10205" lon="-0.58755">
        <ele>133</ele>
        <time>2009-10-25T10:42:24Z</time>
      </trkpt>
      <trkpt lat="48.10189" lon="-0.58755">
        <ele>134</ele>
        <time>2009-10-25T10:42:28Z</time>
      </trkpt>
      <trkpt lat="48.10173" lon="-0.58755">
        <ele>134</ele>
        <time>2009-10-25T10:42:32Z</time>
      </trkpt>
      <trkpt lat="48.10158" lon="-0.58753">
        <ele>135</ele>
        <time>2009-10-25T10:42:36Z</time>
      </trkpt>
      <trkpt lat="48.10143" lon="-0.58751">
        <ele>136</ele>
        <time>2009-10-25T10:42:40Z</time>
      </trkpt>
      <trkpt lat="48.10128" lon="-0.58747">
        <ele>137</ele>
        <time>2009-10-25T10:42:44Z</time>
      </trkpt>
      <trkpt lat="48.10114" lon="-0.58749">
        <ele>137</ele>
        <time>2009-10-25T10:42:48Z</time>
      </trkpt>
      <trkpt lat="48.101" lon="-0.58753">
        <ele>139</ele>
        <time>2009-10-25T10:42:52Z</time>
      </trkpt>
      <trkpt lat="48.10088" lon="-0.58754">
        <ele>140</ele>
        <time>2009-10-25T10:42:56Z</time>
      </trkpt>
      <trkpt lat="48.10075" lon="-0.58753">
        <ele>139</ele>
        <time>2009-10-25T10:43:00Z</time>
      </trkpt>
      <trkpt lat="48.10062" lon="-0.58752">
        <ele>139</ele>
        <time>2009-10-25T10:43:04Z</time>
      </trkpt>
      <trkpt lat="48.10051" lon="-0.58752">
        <ele>140</ele>
        <time>2009-10-25T10:43:08Z</time>
      </trkpt>
      <trkpt lat="48.10039" lon="-0.58754">
        <ele>142</ele>
        <time>2009-10-25T10:43:12Z</time>
      </trkpt>
      <trkpt lat="48.10028" lon="-0.58758">
        <ele>143</ele>
        <time>2009-10-25T10:43:16Z</time>
      </trkpt>
      <trkpt lat="48.10019" lon="-0.58761">
        <ele>144</ele>
        <time>2009-10-25T10:43:20Z</time>
      </trkpt>
      <trkpt lat="48.10008" lon="-0.58764">
        <ele>145</ele>
        <time>2009-10-25T10:43:25Z</time>
      </trkpt>
      <trkpt lat="48.09999" lon="-0.58769">
        <ele>144</ele>
        <time>2009-10-25T10:43:29Z</time>
      </trkpt>
      <trkpt lat="48.09988" lon="-0.58771">
        <ele>144</ele>
        <time>2009-10-25T10:43:33Z</time>
      </trkpt>
      <trkpt lat="48.09977" lon="-0.58774">
        <ele>145</ele>
        <time>2009-10-25T10:43:37Z</time>
      </trkpt>
      <trkpt lat="48.09966" lon="-0.58777">
        <ele>145</ele>
        <time>2009-10-25T10:43:41Z</time>
      </trkpt>
      <trkpt lat="48.09956" lon="-0.58778">
        <ele>147</ele>
        <time>2009-10-25T10:43:45Z</time>
      </trkpt>
      <trkpt lat="48.09946" lon="-0.58779">
        <ele>147</ele>
        <time>2009-10-25T10:43:49Z</time>
      </trkpt>
      <trkpt lat="48.09936" lon="-0.58781">
        <ele>147</ele>
        <time>2009-10-25T10:43:53Z</time>
      </trkpt>
      <trkpt lat="48.09925" lon="-0.5878">
        <ele>151</ele>
        <time>2009-10-25T10:43:57Z</time>
      </trkpt>
      <trkpt lat="48.09916" lon="-0.58779">
        <ele>151</ele>
        <time>2009-10-25T10:44:01Z</time>
      </trkpt>
      <trkpt lat="48.09908" lon="-0.58783">
        <ele>150</ele>
        <time>2009-10-25T10:44:05Z</time>
      </trkpt>
      <trkpt lat="48.09901" lon="-0.58788">
        <ele>150</ele>
        <time>2009-10-25T10:44:09Z</time>
      </trkpt>
      <trkpt lat="48.09897" lon="-0.58798">
        <ele>151</ele>
        <time>2009-10-25T10:44:13Z</time>
      </trkpt>
      <trkpt lat="48.09895" lon="-0.58807">
        <ele>152</ele>
        <time>2009-10-25T10:44:17Z</time>
      </trkpt>
      <trkpt lat="48.09892" lon="-0.58817">
        <ele>154</ele>
        <time>2009-10-25T10:44:21Z</time>
      </trkpt>
      <trkpt lat="48.09888" lon="-0.58828">
        <ele>156</ele>
        <time>2009-10-25T10:44:25Z</time>
      </trkpt>
      <trkpt lat="48.09884" lon="-0.58839">
        <ele>157</ele>
        <time>2009-10-25T10:44:29Z</time>
      </trkpt>
      <trkpt lat="48.09881" lon="-0.58848">
        <ele>159</ele>
        <time>2009-10-25T10:44:33Z</time>
      </trkpt>
      <trkpt lat="48.09879" lon="-0.58856">
        <ele>160</ele>
        <time>2009-10-25T10:44:37Z</time>
      </trkpt>
      <trkpt lat="48.09876" lon="-0.58866">
        <ele>162</ele>
        <time>2009-10-25T10:44:41Z</time>
      </trkpt>
      <trkpt lat="48.09872" lon="-0.58873">
        <ele>163</ele>
        <time>2009-10-25T10:44:45Z</time>
      </trkpt>
      <trkpt lat="48.0987" lon="-0.58869">
        <ele>165</ele>
        <time>2009-10-25T10:44:49Z</time>
      </trkpt>
      <trkpt lat="48.09866" lon="-0.5886">
        <ele>164</ele>
        <time>2009-10-25T10:44:53Z</time>
      </trkpt>
      <trkpt lat="48.09862" lon="-0.58852">
        <ele>163</ele>
        <time>2009-10-25T10:44:57Z</time>
      </trkpt>
      <trkpt lat="48.09861" lon="-0.58841">
        <ele>161</ele>
        <time>2009-10-25T10:45:01Z</time>
      </trkpt>
      <trkpt lat="48.09859" lon="-0.58826">
        <ele>158</ele>
        <time>2009-10-25T10:45:05Z</time>
      </trkpt>
      <trkpt lat="48.09856" lon="-0.58809">
        <ele>157</ele>
        <time>2009-10-25T10:45:09Z</time>
      </trkpt>
      <trkpt lat="48.09852" lon="-0.58793">
        <ele>157</ele>
        <time>2009-10-25T10:45:13Z</time>
      </trkpt>
      <trkpt lat="48.09846" lon="-0.58779">
        <ele>158</ele>
        <time>2009-10-25T10:45:17Z</time>
      </trkpt>
      <trkpt lat="48.09838" lon="-0.58763">
        <ele>157</ele>
        <time>2009-10-25T10:45:21Z</time>
      </trkpt>
      <trkpt lat="48.09829" lon="-0.58754">
        <ele>158</ele>
        <time>2009-10-25T10:45:25Z</time>
      </trkpt>
      <trkpt lat="48.09818" lon="-0.58742">
        <ele>159</ele>
        <time>2009-10-25T10:45:30Z</time>
      </trkpt>
      <trkpt lat="48.09809" lon="-0.58735">
        <ele>161</ele>
        <time>2009-10-25T10:45:34Z</time>
      </trkpt>
      <trkpt lat="48.09801" lon="-0.58728">
        <ele>162</ele>
        <time>2009-10-25T10:45:38Z</time>
      </trkpt>
      <trkpt lat="48.09792" lon="-0.58721">
        <ele>162</ele>
        <time>2009-10-25T10:45:42Z</time>
      </trkpt>
      <trkpt lat="48.09782" lon="-0.58713">
        <ele>162</ele>
        <time>2009-10-25T10:45:46Z</time>
      </trkpt>
      <trkpt lat="48.09771" lon="-0.58704">
        <ele>162</ele>
        <time>2009-10-25T10:45:50Z</time>
      </trkpt>
      <trkpt lat="48.09759" lon="-0.58695">
        <ele>162</ele>
        <time>2009-10-25T10:45:54Z</time>
      </trkpt>
      <trkpt lat="48.09748" lon="-0.58688">
        <ele>161</ele>
        <time>2009-10-25T10:45:58Z</time>
      </trkpt>
      <trkpt lat="48.09736" lon="-0.58682">
        <ele>162</ele>
        <time>2009-10-25T10:46:02Z</time>
      </trkpt>
      <trkpt lat="48.09723" lon="-0.58674">
        <ele>162</ele>
        <time>2009-10-25T10:46:06Z</time>
      </trkpt>
      <trkpt lat="48.09711" lon="-0.58667">
        <ele>161</ele>
        <time>2009-10-25T10:46:10Z</time>
      </trkpt>
      <trkpt lat="48.097" lon="-0.58657">
        <ele>161</ele>
        <time>2009-10-25T10:46:14Z</time>
      </trkpt>
      <trkpt lat="48.09692" lon="-0.58648">
        <ele>160</ele>
        <time>2009-10-25T10:46:18Z</time>
      </trkpt>
      <trkpt lat="48.09684" lon="-0.58633">
        <ele>160</ele>
        <time>2009-10-25T10:46:22Z</time>
      </trkpt>
      <trkpt lat="48.09676" lon="-0.58616">
        <ele>160</ele>
        <time>2009-10-25T10:46:26Z</time>
      </trkpt>
      <trkpt lat="48.09668" lon="-0.58599">
        <ele>160</ele>
        <time>2009-10-25T10:46:30Z</time>
      </trkpt>
      <trkpt lat="48.09661" lon="-0.58585">
        <ele>162</ele>
        <time>2009-10-25T10:46:34Z</time>
      </trkpt>
      <trkpt lat="48.09654" lon="-0.58569">
        <ele>162</ele>
        <time>2009-10-25T10:46:38Z</time>
      </trkpt>
      <trkpt lat="48.09646" lon="-0.5855">
        <ele>163</ele>
        <time>2009-10-25T10:46:42Z</time>
      </trkpt>
      <trkpt lat="48.09639" lon="-0.58533">
        <ele>164</ele>
        <time>2009-10-25T10:46:46Z</time>
      </trkpt>
      <trkpt lat="48.09633" lon="-0.58517">
        <ele>165</ele>
        <time>2009-10-25T10:46:50Z</time>
      </trkpt>
      <trkpt lat="48.09625" lon="-0.58502">
        <ele>166</ele>
        <time>2009-10-25T10:46:54Z</time>
      </trkpt>
      <trkpt lat="48.09616" lon="-0.58489">
        <ele>166</ele>
        <time>2009-10-25T10:46:58Z</time>
      </trkpt>
      <trkpt lat="48.09608" lon="-0.58481">
        <ele>165</ele>
        <time>2009-10-25T10:47:02Z</time>
      </trkpt>
      <trkpt lat="48.096" lon="-0.58473">
        <ele>164</ele>
        <time>2009-10-25T10:47:06Z</time>
      </trkpt>
      <trkpt lat="48.09591" lon="-0.5847">
        <ele>164</ele>
        <time>2009-10-25T10:47:10Z</time>
      </trkpt>
      <trkpt lat="48.09583" lon="-0.58466">
        <ele>164</ele>
        <time>2009-10-25T10:47:14Z</time>
      </trkpt>
      <trkpt lat="48.09573" lon="-0.58461">
        <ele>165</ele>
        <time>2009-10-25T10:47:18Z</time>
      </trkpt>
      <trkpt lat="48.09565" lon="-0.58456">
        <ele>165</ele>
        <time>2009-10-25T10:47:22Z</time>
      </trkpt>
      <trkpt lat="48.09557" lon="-0.5845">
        <ele>167</ele>
        <time>2009-10-25T10:47:26Z</time>
      </trkpt>
      <trkpt lat="48.09547" lon="-0.58448">
        <ele>168</ele>
        <time>2009-10-25T10:47:30Z</time>
      </trkpt>
      <trkpt lat="48.09537" lon="-0.58444">
        <ele>171</ele>
        <time>2009-10-25T10:47:34Z</time>
      </trkpt>
      <trkpt lat="48.09528" lon="-0.5844">
        <ele>173</ele>
        <time>2009-10-25T10:47:38Z</time>
      </trkpt>
      <trkpt lat="48.0952" lon="-0.58438">
        <ele>174</ele>
        <time>2009-10-25T10:47:42Z</time>
      </trkpt>
      <trkpt lat="48.0951" lon="-0.58436">
        <ele>178</ele>
        <time>2009-10-25T10:47:46Z</time>
      </trkpt>
      <trkpt lat="48.09501" lon="-0.5843">
        <ele>178</ele>
        <time>2009-10-25T10:47:50Z</time>
      </trkpt>
      <trkpt lat="48.09495" lon="-0.58416">
        <ele>171</ele>
        <time>2009-10-25T10:47:54Z</time>
      </trkpt>
      <trkpt lat="48.09496" lon="-0.58407">
        <ele>165</ele>
        <time>2009-10-25T10:47:58Z</time>
      </trkpt>
      <trkpt lat="48.095" lon="-0.58397">
        <ele>163</ele>
        <time>2009-10-25T10:48:02Z</time>
      </trkpt>
      <trkpt lat="48.09506" lon="-0.58388">
        <ele>162</ele>
        <time>2009-10-25T10:48:06Z</time>
      </trkpt>
      <trkpt lat="48.09513" lon="-0.58378">
        <ele>161</ele>
        <time>2009-10-25T10:48:10Z</time>
      </trkpt>
      <trkpt lat="48.09522" lon="-0.58367">
        <ele>161</ele>
        <time>2009-10-25T10:48:14Z</time>
      </trkpt>
      <trkpt lat="48.09529" lon="-0.58357">
        <ele>160</ele>
        <time>2009-10-25T10:48:18Z</time>
      </trkpt>
      <trkpt lat="48.09539" lon="-0.58346">
        <ele>160</ele>
        <time>2009-10-25T10:48:22Z</time>
      </trkpt>
      <trkpt lat="48.09549" lon="-0.58336">
        <ele>160</ele>
        <time>2009-10-25T10:48:26Z</time>
      </trkpt>
      <trkpt lat="48.09558" lon="-0.58326">
        <ele>161</ele>
        <time>2009-10-25T10:48:30Z</time>
      </trkpt>
      <trkpt lat="48.09567" lon="-0.58316">
        <ele>161</ele>
        <time>2009-10-25T10:48:34Z</time>
      </trkpt>
      <trkpt lat="48.09578" lon="-0.58304">
        <ele>161</ele>
        <time>2009-10-25T10:48:38Z</time>
      </trkpt>
      <trkpt lat="48.09589" lon="-0.58291">
        <ele>161</ele>
        <time>2009-10-25T10:48:42Z</time>
      </trkpt>
      <trkpt lat="48.096" lon="-0.5828">
        <ele>161</ele>
        <time>2009-10-25T10:48:46Z</time>
      </trkpt>
      <trkpt lat="48.09609" lon="-0.58271">
        <ele>161</ele>
        <time>2009-10-25T10:48:50Z</time>
      </trkpt>
      <trkpt lat="48.09617" lon="-0.58262">
        <ele>161</ele>
        <time>2009-10-25T10:48:54Z</time>
      </trkpt>
      <trkpt lat="48.09623" lon="-0.58255">
        <ele>160</ele>
        <time>2009-10-25T10:48:58Z</time>
      </trkpt>
      <trkpt lat="48.0963" lon="-0.58248">
        <ele>161</ele>
        <time>2009-10-25T10:49:02Z</time>
      </trkpt>
      <trkpt lat="48.09638" lon="-0.58239">
        <ele>160</ele>
        <time>2009-10-25T10:49:06Z</time>
      </trkpt>
      <trkpt lat="48.09647" lon="-0.58228">
        <ele>160</ele>
        <time>2009-10-25T10:49:10Z</time>
      </trkpt>
      <trkpt lat="48.09657" lon="-0.58217">
        <ele>159</ele>
        <time>2009-10-25T10:49:14Z</time>
      </trkpt>
      <trkpt lat="48.09669" lon="-0.58203">
        <ele>158</ele>
        <time>2009-10-25T10:49:18Z</time>
      </trkpt>
      <trkpt lat="48.09684" lon="-0.58189">
        <ele>157</ele>
        <time>2009-10-25T10:49:22Z</time>
      </trkpt>
      <trkpt lat="48.09701" lon="-0.5817">
        <ele>155</ele>
        <time>2009-10-25T10:49:26Z</time>
      </trkpt>
      <trkpt lat="48.09725" lon="-0.58145">
        <ele>153</ele>
        <time>2009-10-25T10:49:30Z</time>
      </trkpt>
      <trkpt lat="48.0975" lon="-0.58117">
        <ele>151</ele>
        <time>2009-10-25T10:49:34Z</time>
      </trkpt>
      <trkpt lat="48.09772" lon="-0.58093">
        <ele>149</ele>
        <time>2009-10-25T10:49:38Z</time>
      </trkpt>
      <trkpt lat="48.09785" lon="-0.58075">
        <ele>147</ele>
        <time>2009-10-25T10:49:42Z</time>
      </trkpt>
      <trkpt lat="48.09803" lon="-0.58059">
        <ele>145</ele>
        <time>2009-10-25T10:49:46Z</time>
      </trkpt>
      <trkpt lat="48.09826" lon="-0.58041">
        <ele>143</ele>
        <time>2009-10-25T10:49:50Z</time>
      </trkpt>
      <trkpt lat="48.09849" lon="-0.58013">
        <ele>141</ele>
        <time>2009-10-25T10:49:54Z</time>
      </trkpt>
      <trkpt lat="48.09874" lon="-0.57985">
        <ele>140</ele>
        <time>2009-10-25T10:49:58Z</time>
      </trkpt>
      <trkpt lat="48.09897" lon="-0.57957">
        <ele>139</ele>
        <time>2009-10-25T10:50:02Z</time>
      </trkpt>
      <trkpt lat="48.09919" lon="-0.57934">
        <ele>138</ele>
        <time>2009-10-25T10:50:06Z</time>
      </trkpt>
      <trkpt lat="48.0994" lon="-0.57917">
        <ele>138</ele>
        <time>2009-10-25T10:50:10Z</time>
      </trkpt>
      <trkpt lat="48.09956" lon="-0.57904">
        <ele>138</ele>
        <time>2009-10-25T10:50:14Z</time>
      </trkpt>
      <trkpt lat="48.09969" lon="-0.5789">
        <ele>139</ele>
        <time>2009-10-25T10:50:18Z</time>
      </trkpt>
      <trkpt lat="48.0998" lon="-0.57878">
        <ele>141</ele>
        <time>2009-10-25T10:50:22Z</time>
      </trkpt>
      <trkpt lat="48.09992" lon="-0.57867">
        <ele>143</ele>
        <time>2009-10-25T10:50:26Z</time>
      </trkpt>
      <trkpt lat="48.10003" lon="-0.57855">
        <ele>145</ele>
        <time>2009-10-25T10:50:30Z</time>
      </trkpt>
      <trkpt lat="48.10013" lon="-0.57845">
        <ele>145</ele>
        <time>2009-10-25T10:50:34Z</time>
      </trkpt>
      <trkpt lat="48.10022" lon="-0.57834">
        <ele>149</ele>
        <time>2009-10-25T10:50:38Z</time>
      </trkpt>
      <trkpt lat="48.10031" lon="-0.57822">
        <ele>151</ele>
        <time>2009-10-25T10:50:42Z</time>
      </trkpt>
      <trkpt lat="48.1004" lon="-0.57811">
        <ele>151</ele>
        <time>2009-10-25T10:50:46Z</time>
      </trkpt>
      <trkpt lat="48.10051" lon="-0.57797">
        <ele>150</ele>
        <time>2009-10-25T10:50:50Z</time>
      </trkpt>
      <trkpt lat="48.10061" lon="-0.57783">
        <ele>151</ele>
        <time>2009-10-25T10:50:54Z</time>
      </trkpt>
      <trkpt lat="48.10072" lon="-0.5777">
        <ele>153</ele>
        <time>2009-10-25T10:50:58Z</time>
      </trkpt>
      <trkpt lat="48.10084" lon="-0.57755">
        <ele>155</ele>
        <time>2009-10-25T10:51:02Z</time>
      </trkpt>
      <trkpt lat="48.10095" lon="-0.57741">
        <ele>154</ele>
        <time>2009-10-25T10:51:06Z</time>
      </trkpt>
      <trkpt lat="48.10107" lon="-0.57727">
        <ele>154</ele>
        <time>2009-10-25T10:51:10Z</time>
      </trkpt>
      <trkpt lat="48.10117" lon="-0.57712">
        <ele>154</ele>
        <time>2009-10-25T10:51:14Z</time>
      </trkpt>
      <trkpt lat="48.1013" lon="-0.57696">
        <ele>155</ele>
        <time>2009-10-25T10:51:18Z</time>
      </trkpt>
      <trkpt lat="48.10142" lon="-0.57682">
        <ele>157</ele>
        <time>2009-10-25T10:51:22Z</time>
      </trkpt>
      <trkpt lat="48.10153" lon="-0.57668">
        <ele>157</ele>
        <time>2009-10-25T10:51:26Z</time>
      </trkpt>
      <trkpt lat="48.10165" lon="-0.57658">
        <ele>155</ele>
        <time>2009-10-25T10:51:30Z</time>
      </trkpt>
      <trkpt lat="48.1017" lon="-0.57653">
        <ele>155</ele>
        <time>2009-10-25T10:51:34Z</time>
      </trkpt>
      <trkpt lat="48.1017" lon="-0.57654">
        <ele>153</ele>
        <time>2009-10-25T10:51:38Z</time>
      </trkpt>
      <trkpt lat="48.1017" lon="-0.57654">
        <ele>152</ele>
        <time>2009-10-25T10:51:42Z</time>
      </trkpt>
      <trkpt lat="48.1017" lon="-0.57654">
        <ele>152</ele>
        <time>2009-10-25T10:51:46Z</time>
      </trkpt>
      <trkpt lat="48.1017" lon="-0.57653">
        <ele>152</ele>
        <time>2009-10-25T10:51:50Z</time>
      </trkpt>
      <trkpt lat="48.1017" lon="-0.57653">
        <ele>153</ele>
        <time>2009-10-25T10:51:54Z</time>
      </trkpt>
      <trkpt lat="48.1017" lon="-0.57651">
        <ele>154</ele>
        <time>2009-10-25T10:51:58Z</time>
      </trkpt>
      <trkpt lat="48.10171" lon="-0.57651">
        <ele>153</ele>
        <time>2009-10-25T10:52:02Z</time>
      </trkpt>
      <trkpt lat="48.10171" lon="-0.57651">
        <ele>153</ele>
        <time>2009-10-25T10:52:06Z</time>
      </trkpt>
      <trkpt lat="48.10172" lon="-0.57651">
        <ele>153</ele>
        <time>2009-10-25T10:52:10Z</time>
      </trkpt>
      <trkpt lat="48.10171" lon="-0.5765">
        <ele>153</ele>
        <time>2009-10-25T10:52:14Z</time>
      </trkpt>
      <trkpt lat="48.10171" lon="-0.5765">
        <ele>152</ele>
        <time>2009-10-25T10:52:18Z</time>
      </trkpt>
      <trkpt lat="48.10171" lon="-0.5765">
        <ele>150</ele>
        <time>2009-10-25T10:52:22Z</time>
      </trkpt>
      <trkpt lat="48.10172" lon="-0.57651">
        <ele>147</ele>
        <time>2009-10-25T10:52:26Z</time>
      </trkpt>
      <trkpt lat="48.10173" lon="-0.57651">
        <ele>147</ele>
        <time>2009-10-25T10:52:30Z</time>
      </trkpt>
      <trkpt lat="48.10173" lon="-0.57651">
        <ele>145</ele>
        <time>2009-10-25T10:52:34Z</time>
      </trkpt>
      <trkpt lat="48.10172" lon="-0.57653">
        <ele>144</ele>
        <time>2009-10-25T10:52:38Z</time>
      </trkpt>
      <trkpt lat="48.10172" lon="-0.57653">
        <ele>143</ele>
        <time>2009-10-25T10:52:42Z</time>
      </trkpt>
      <trkpt lat="48.10173" lon="-0.57654">
        <ele>142</ele>
        <time>2009-10-25T10:52:46Z</time>
      </trkpt>
      <trkpt lat="48.10173" lon="-0.57654">
        <ele>141</ele>
        <time>2009-10-25T10:52:50Z</time>
      </trkpt>
      <trkpt lat="48.10172" lon="-0.57654">
        <ele>142</ele>
        <time>2009-10-25T10:52:54Z</time>
      </trkpt>
      <trkpt lat="48.10172" lon="-0.57654">
        <ele>143</ele>
        <time>2009-10-25T10:52:58Z</time>
      </trkpt>
      <trkpt lat="48.10171" lon="-0.57653">
        <ele>144</ele>
        <time>2009-10-25T10:53:02Z</time>
      </trkpt>
      <trkpt lat="48.1017" lon="-0.57651">
        <ele>145</ele>
        <time>2009-10-25T10:53:06Z</time>
      </trkpt>
      <trkpt lat="48.10171" lon="-0.57651">
        <ele>145</ele>
        <time>2009-10-25T10:53:10Z</time>
      </trkpt>
      <trkpt lat="48.10171" lon="-0.57653">
        <ele>145</ele>
        <time>2009-10-25T10:53:15Z</time>
      </trkpt>
      <trkpt lat="48.10172" lon="-0.57654">
        <ele>143</ele>
        <time>2009-10-25T10:53:19Z</time>
      </trkpt>
      <trkpt lat="48.10172" lon="-0.57654">
        <ele>143</ele>
        <time>2009-10-25T10:53:23Z</time>
      </trkpt>
      <trkpt lat="48.10172" lon="-0.57654">
        <ele>143</ele>
        <time>2009-10-25T10:53:27Z</time>
      </trkpt>
      <trkpt lat="48.10172" lon="-0.57655">
        <ele>142</ele>
        <time>2009-10-25T10:53:31Z</time>
      </trkpt>
      <trkpt lat="48.10172" lon="-0.57655">
        <ele>143</ele>
        <time>2009-10-25T10:53:35Z</time>
      </trkpt>
      <trkpt lat="48.10172" lon="-0.57655">
        <ele>143</ele>
        <time>2009-10-25T10:53:39Z</time>
      </trkpt>
      <trkpt lat="48.10172" lon="-0.57655">
        <ele>143</ele>
        <time>2009-10-25T10:53:43Z</time>
      </trkpt>
      <trkpt lat="48.10171" lon="-0.57655">
        <ele>144</ele>
        <time>2009-10-25T10:53:47Z</time>
      </trkpt>
      <trkpt lat="48.10171" lon="-0.57654">
        <ele>144</ele>
        <time>2009-10-25T10:53:51Z</time>
      </trkpt>
      <trkpt lat="48.10171" lon="-0.57654">
        <ele>144</ele>
        <time>2009-10-25T10:53:55Z</time>
      </trkpt>
      <trkpt lat="48.10171" lon="-0.57655">
        <ele>143</ele>
        <time>2009-10-25T10:53:59Z</time>
      </trkpt>
      <trkpt lat="48.10171" lon="-0.57655">
        <ele>143</ele>
        <time>2009-10-25T10:54:03Z</time>
      </trkpt>
      <trkpt lat="48.10171" lon="-0.57655">
        <ele>142</ele>
        <time>2009-10-25T10:54:07Z</time>
      </trkpt>
      <trkpt lat="48.10171" lon="-0.57655">
        <ele>142</ele>
        <time>2009-10-25T10:54:11Z</time>
      </trkpt>
      <trkpt lat="48.10171" lon="-0.57655">
        <ele>142</ele>
        <time>2009-10-25T10:54:15Z</time>
      </trkpt>
      <trkpt lat="48.10171" lon="-0.57657">
        <ele>142</ele>
        <time>2009-10-25T10:54:19Z</time>
      </trkpt>
      <trkpt lat="48.10172" lon="-0.57657">
        <ele>142</ele>
        <time>2009-10-25T10:54:23Z</time>
      </trkpt>
      <trkpt lat="48.10172" lon="-0.57657">
        <ele>143</ele>
        <time>2009-10-25T10:54:27Z</time>
      </trkpt>
      <trkpt lat="48.10172" lon="-0.57657">
        <ele>143</ele>
        <time>2009-10-25T10:54:31Z</time>
      </trkpt>
      <trkpt lat="48.10173" lon="-0.57657">
        <ele>142</ele>
        <time>2009-10-25T10:54:35Z</time>
      </trkpt>
      <trkpt lat="48.10173" lon="-0.57658">
        <ele>142</ele>
        <time>2009-10-25T10:54:39Z</time>
      </trkpt>
      <trkpt lat="48.10173" lon="-0.57658">
        <ele>141</ele>
        <time>2009-10-25T10:54:43Z</time>
      </trkpt>
      <trkpt lat="48.10173" lon="-0.57658">
        <ele>141</ele>
        <time>2009-10-25T10:54:47Z</time>
      </trkpt>
      <trkpt lat="48.10173" lon="-0.57658">
        <ele>140</ele>
        <time>2009-10-25T10:54:51Z</time>
      </trkpt>
      <trkpt lat="48.10173" lon="-0.57658">
        <ele>140</ele>
        <time>2009-10-25T10:54:55Z</time>
      </trkpt>
      <trkpt lat="48.10173" lon="-0.57658">
        <ele>140</ele>
        <time>2009-10-25T10:54:59Z</time>
      </trkpt>
      <trkpt lat="48.10173" lon="-0.57659">
        <ele>140</ele>
        <time>2009-10-25T10:55:03Z</time>
      </trkpt>
      <trkpt lat="48.10173" lon="-0.57659">
        <ele>140</ele>
        <time>2009-10-25T10:55:07Z</time>
      </trkpt>
      <trkpt lat="48.10173" lon="-0.57659">
        <ele>140</ele>
        <time>2009-10-25T10:55:11Z</time>
      </trkpt>
      <trkpt lat="48.10173" lon="-0.57658">
        <ele>139</ele>
        <time>2009-10-25T10:55:15Z</time>
      </trkpt>
      <trkpt lat="48.10173" lon="-0.57658">
        <ele>139</ele>
        <time>2009-10-25T10:55:19Z</time>
      </trkpt>
      <trkpt lat="48.10173" lon="-0.57658">
        <ele>139</ele>
        <time>2009-10-25T10:55:23Z</time>
      </trkpt>
      <trkpt lat="48.10173" lon="-0.57658">
        <ele>140</ele>
        <time>2009-10-25T10:55:27Z</time>
      </trkpt>
      <trkpt lat="48.10172" lon="-0.57659">
        <ele>140</ele>
        <time>2009-10-25T10:55:31Z</time>
      </trkpt>
      <trkpt lat="48.10173" lon="-0.57659">
        <ele>140</ele>
        <time>2009-10-25T10:55:35Z</time>
      </trkpt>
      <trkpt lat="48.10182" lon="-0.57659">
        <ele>146</ele>
        <time>2009-10-25T10:55:39Z</time>
      </trkpt>
      <trkpt lat="48.10193" lon="-0.57653">
        <ele>148</ele>
        <time>2009-10-25T10:55:43Z</time>
      </trkpt>
      <trkpt lat="48.1021" lon="-0.57652">
        <ele>149</ele>
        <time>2009-10-25T10:55:47Z</time>
      </trkpt>
      <trkpt lat="48.10231" lon="-0.57656">
        <ele>149</ele>
        <time>2009-10-25T10:55:51Z</time>
      </trkpt>
      <trkpt lat="48.10253" lon="-0.5767">
        <ele>147</ele>
        <time>2009-10-25T10:55:55Z</time>
      </trkpt>
      <trkpt lat="48.10279" lon="-0.57692">
        <ele>145</ele>
        <time>2009-10-25T10:55:59Z</time>
      </trkpt>
      <trkpt lat="48.10311" lon="-0.57717">
        <ele>143</ele>
        <time>2009-10-25T10:56:03Z</time>
      </trkpt>
      <trkpt lat="48.10338" lon="-0.57736">
        <ele>142</ele>
        <time>2009-10-25T10:56:07Z</time>
      </trkpt>
      <trkpt lat="48.10361" lon="-0.57747">
        <ele>141</ele>
        <time>2009-10-25T10:56:11Z</time>
      </trkpt>
      <trkpt lat="48.10382" lon="-0.57758">
        <ele>141</ele>
        <time>2009-10-25T10:56:15Z</time>
      </trkpt>
      <trkpt lat="48.10406" lon="-0.57766">
        <ele>139</ele>
        <time>2009-10-25T10:56:19Z</time>
      </trkpt>
      <trkpt lat="48.10432" lon="-0.57777">
        <ele>138</ele>
        <time>2009-10-25T10:56:23Z</time>
      </trkpt>
      <trkpt lat="48.10463" lon="-0.57789">
        <ele>136</ele>
        <time>2009-10-25T10:56:27Z</time>
      </trkpt>
      <trkpt lat="48.10493" lon="-0.57801">
        <ele>135</ele>
        <time>2009-10-25T10:56:31Z</time>
      </trkpt>
      <trkpt lat="48.10519" lon="-0.57811">
        <ele>134</ele>
        <time>2009-10-25T10:56:35Z</time>
      </trkpt>
      <trkpt lat="48.10542" lon="-0.57825">
        <ele>134</ele>
        <time>2009-10-25T10:56:39Z</time>
      </trkpt>
      <trkpt lat="48.1056" lon="-0.57844">
        <ele>134</ele>
        <time>2009-10-25T10:56:43Z</time>
      </trkpt>
      <trkpt lat="48.10571" lon="-0.57867">
        <ele>135</ele>
        <time>2009-10-25T10:56:47Z</time>
      </trkpt>
      <trkpt lat="48.10577" lon="-0.5789">
        <ele>135</ele>
        <time>2009-10-25T10:56:51Z</time>
      </trkpt>
      <trkpt lat="48.10585" lon="-0.57911">
        <ele>134</ele>
        <time>2009-10-25T10:56:55Z</time>
      </trkpt>
      <trkpt lat="48.10593" lon="-0.5793">
        <ele>134</ele>
        <time>2009-10-25T10:56:59Z</time>
      </trkpt>
      <trkpt lat="48.10605" lon="-0.57946">
        <ele>134</ele>
        <time>2009-10-25T10:57:03Z</time>
      </trkpt>
      <trkpt lat="48.10617" lon="-0.57958">
        <ele>135</ele>
        <time>2009-10-25T10:57:07Z</time>
      </trkpt>
      <trkpt lat="48.10629" lon="-0.57966">
        <ele>136</ele>
        <time>2009-10-25T10:57:11Z</time>
      </trkpt>
      <trkpt lat="48.10642" lon="-0.57973">
        <ele>136</ele>
        <time>2009-10-25T10:57:15Z</time>
      </trkpt>
      <trkpt lat="48.10654" lon="-0.57982">
        <ele>137</ele>
        <time>2009-10-25T10:57:19Z</time>
      </trkpt>
      <trkpt lat="48.10667" lon="-0.57997">
        <ele>137</ele>
        <time>2009-10-25T10:57:23Z</time>
      </trkpt>
      <trkpt lat="48.10674" lon="-0.58016">
        <ele>137</ele>
        <time>2009-10-25T10:57:27Z</time>
      </trkpt>
      <trkpt lat="48.1068" lon="-0.58029">
        <ele>137</ele>
        <time>2009-10-25T10:57:31Z</time>
      </trkpt>
      <trkpt lat="48.10683" lon="-0.5804">
        <ele>138</ele>
        <time>2009-10-25T10:57:35Z</time>
      </trkpt>
      <trkpt lat="48.10688" lon="-0.58051">
        <ele>138</ele>
        <time>2009-10-25T10:57:39Z</time>
      </trkpt>
      <trkpt lat="48.10696" lon="-0.58066">
        <ele>138</ele>
        <time>2009-10-25T10:57:43Z</time>
      </trkpt>
      <trkpt lat="48.10703" lon="-0.58083">
        <ele>139</ele>
        <time>2009-10-25T10:57:47Z</time>
      </trkpt>
      <trkpt lat="48.1071" lon="-0.581">
        <ele>139</ele>
        <time>2009-10-25T10:57:51Z</time>
      </trkpt>
      <trkpt lat="48.10716" lon="-0.58119">
        <ele>141</ele>
        <time>2009-10-25T10:57:55Z</time>
      </trkpt>
      <trkpt lat="48.10722" lon="-0.58137">
        <ele>141</ele>
        <time>2009-10-25T10:57:59Z</time>
      </trkpt>
      <trkpt lat="48.10728" lon="-0.58157">
        <ele>142</ele>
        <time>2009-10-25T10:58:03Z</time>
      </trkpt>
      <trkpt lat="48.10739" lon="-0.58174">
        <ele>143</ele>
        <time>2009-10-25T10:58:07Z</time>
      </trkpt>
      <trkpt lat="48.10752" lon="-0.58184">
        <ele>143</ele>
        <time>2009-10-25T10:58:11Z</time>
      </trkpt>
      <trkpt lat="48.10767" lon="-0.58185">
        <ele>143</ele>
        <time>2009-10-25T10:58:15Z</time>
      </trkpt>
      <trkpt lat="48.1078" lon="-0.5818">
        <ele>144</ele>
        <time>2009-10-25T10:58:19Z</time>
      </trkpt>
      <trkpt lat="48.10793" lon="-0.58174">
        <ele>145</ele>
        <time>2009-10-25T10:58:23Z</time>
      </trkpt>
      <trkpt lat="48.10805" lon="-0.58165">
        <ele>145</ele>
        <time>2009-10-25T10:58:27Z</time>
      </trkpt>
      <trkpt lat="48.10817" lon="-0.58154">
        <ele>145</ele>
        <time>2009-10-25T10:58:31Z</time>
      </trkpt>
      <trkpt lat="48.10829" lon="-0.58143">
        <ele>145</ele>
        <time>2009-10-25T10:58:35Z</time>
      </trkpt>
      <trkpt lat="48.10839" lon="-0.5813">
        <ele>146</ele>
        <time>2009-10-25T10:58:39Z</time>
      </trkpt>
      <trkpt lat="48.10848" lon="-0.58116">
        <ele>146</ele>
        <time>2009-10-25T10:58:43Z</time>
      </trkpt>
      <trkpt lat="48.10856" lon="-0.58101">
        <ele>147</ele>
        <time>2009-10-25T10:58:47Z</time>
      </trkpt>
      <trkpt lat="48.10864" lon="-0.58088">
        <ele>147</ele>
        <time>2009-10-25T10:58:51Z</time>
      </trkpt>
      <trkpt lat="48.10873" lon="-0.58075">
        <ele>148</ele>
        <time>2009-10-25T10:58:55Z</time>
      </trkpt>
      <trkpt lat="48.10884" lon="-0.58064">
        <ele>148</ele>
        <time>2009-10-25T10:58:59Z</time>
      </trkpt>
      <trkpt lat="48.10894" lon="-0.58054">
        <ele>148</ele>
        <time>2009-10-25T10:59:03Z</time>
      </trkpt>
      <trkpt lat="48.10906" lon="-0.58047">
        <ele>148</ele>
        <time>2009-10-25T10:59:07Z</time>
      </trkpt>
      <trkpt lat="48.10918" lon="-0.58039">
        <ele>149</ele>
        <time>2009-10-25T10:59:11Z</time>
      </trkpt>
      <trkpt lat="48.10931" lon="-0.58033">
        <ele>149</ele>
        <time>2009-10-25T10:59:15Z</time>
      </trkpt>
      <trkpt lat="48.10944" lon="-0.58026">
        <ele>149</ele>
        <time>2009-10-25T10:59:19Z</time>
      </trkpt>
      <trkpt lat="48.10958" lon="-0.5802">
        <ele>149</ele>
        <time>2009-10-25T10:59:23Z</time>
      </trkpt>
      <trkpt lat="48.10971" lon="-0.58011">
        <ele>149</ele>
        <time>2009-10-25T10:59:27Z</time>
      </trkpt>
      <trkpt lat="48.10981" lon="-0.57999">
        <ele>149</ele>
        <time>2009-10-25T10:59:31Z</time>
      </trkpt>
      <trkpt lat="48.10993" lon="-0.57985">
        <ele>149</ele>
        <time>2009-10-25T10:59:35Z</time>
      </trkpt>
      <trkpt lat="48.11004" lon="-0.57972">
        <ele>149</ele>
        <time>2009-10-25T10:59:39Z</time>
      </trkpt>
      <trkpt lat="48.11018" lon="-0.57957">
        <ele>149</ele>
        <time>2009-10-25T10:59:43Z</time>
      </trkpt>
      <trkpt lat="48.11031" lon="-0.57945">
        <ele>149</ele>
        <time>2009-10-25T10:59:47Z</time>
      </trkpt>
      <trkpt lat="48.11041" lon="-0.57934">
        <ele>149</ele>
        <time>2009-10-25T10:59:51Z</time>
      </trkpt>
      <trkpt lat="48.11053" lon="-0.57923">
        <ele>149</ele>
        <time>2009-10-25T10:59:55Z</time>
      </trkpt>
      <trkpt lat="48.11063" lon="-0.5791">
        <ele>150</ele>
        <time>2009-10-25T11:00:00Z</time>
      </trkpt>
      <trkpt lat="48.11077" lon="-0.57901">
        <ele>150</ele>
        <time>2009-10-25T11:00:04Z</time>
      </trkpt>
      <trkpt lat="48.1109" lon="-0.57895">
        <ele>151</ele>
        <time>2009-10-25T11:00:08Z</time>
      </trkpt>
      <trkpt lat="48.11103" lon="-0.57891">
        <ele>151</ele>
        <time>2009-10-25T11:00:12Z</time>
      </trkpt>
      <trkpt lat="48.11115" lon="-0.57885">
        <ele>152</ele>
        <time>2009-10-25T11:00:16Z</time>
      </trkpt>
      <trkpt lat="48.11125" lon="-0.57879">
        <ele>153</ele>
        <time>2009-10-25T11:00:20Z</time>
      </trkpt>
      <trkpt lat="48.11135" lon="-0.57872">
        <ele>155</ele>
        <time>2009-10-25T11:00:24Z</time>
      </trkpt>
      <trkpt lat="48.11146" lon="-0.57865">
        <ele>159</ele>
        <time>2009-10-25T11:00:28Z</time>
      </trkpt>
      <trkpt lat="48.11157" lon="-0.57859">
        <ele>162</ele>
        <time>2009-10-25T11:00:32Z</time>
      </trkpt>
      <trkpt lat="48.11166" lon="-0.57852">
        <ele>166</ele>
        <time>2009-10-25T11:00:36Z</time>
      </trkpt>
      <trkpt lat="48.11177" lon="-0.57842">
        <ele>169</ele>
        <time>2009-10-25T11:00:40Z</time>
      </trkpt>
      <trkpt lat="48.11187" lon="-0.57837">
        <ele>170</ele>
        <time>2009-10-25T11:00:44Z</time>
      </trkpt>
      <trkpt lat="48.11196" lon="-0.5783">
        <ele>169</ele>
        <time>2009-10-25T11:00:48Z</time>
      </trkpt>
      <trkpt lat="48.11205" lon="-0.57822">
        <ele>169</ele>
        <time>2009-10-25T11:00:52Z</time>
      </trkpt>
      <trkpt lat="48.11215" lon="-0.57814">
        <ele>169</ele>
        <time>2009-10-25T11:00:56Z</time>
      </trkpt>
      <trkpt lat="48.11226" lon="-0.57815">
        <ele>168</ele>
        <time>2009-10-25T11:01:00Z</time>
      </trkpt>
      <trkpt lat="48.1123" lon="-0.5782">
        <ele>167</ele>
        <time>2009-10-25T11:01:04Z</time>
      </trkpt>
      <trkpt lat="48.11233" lon="-0.5783">
        <ele>169</ele>
        <time>2009-10-25T11:01:08Z</time>
      </trkpt>
      <trkpt lat="48.11238" lon="-0.57842">
        <ele>166</ele>
        <time>2009-10-25T11:01:12Z</time>
      </trkpt>
      <trkpt lat="48.11243" lon="-0.57855">
        <ele>163</ele>
        <time>2009-10-25T11:01:16Z</time>
      </trkpt>
      <trkpt lat="48.11247" lon="-0.57869">
        <ele>162</ele>
        <time>2009-10-25T11:01:20Z</time>
      </trkpt>
      <trkpt lat="48.11255" lon="-0.57892">
        <ele>160</ele>
        <time>2009-10-25T11:01:24Z</time>
      </trkpt>
      <trkpt lat="48.11263" lon="-0.57922">
        <ele>158</ele>
        <time>2009-10-25T11:01:28Z</time>
      </trkpt>
      <trkpt lat="48.11273" lon="-0.57955">
        <ele>156</ele>
        <time>2009-10-25T11:01:32Z</time>
      </trkpt>
      <trkpt lat="48.11283" lon="-0.57986">
        <ele>154</ele>
        <time>2009-10-25T11:01:36Z</time>
      </trkpt>
      <trkpt lat="48.11288" lon="-0.58011">
        <ele>151</ele>
        <time>2009-10-25T11:01:40Z</time>
      </trkpt>
      <trkpt lat="48.113" lon="-0.58036">
        <ele>148</ele>
        <time>2009-10-25T11:01:44Z</time>
      </trkpt>
      <trkpt lat="48.11311" lon="-0.58064">
        <ele>146</ele>
        <time>2009-10-25T11:01:48Z</time>
      </trkpt>
      <trkpt lat="48.11317" lon="-0.58077">
        <ele>145</ele>
        <time>2009-10-25T11:01:52Z</time>
      </trkpt>
      <trkpt lat="48.11319" lon="-0.58084">
        <ele>143</ele>
        <time>2009-10-25T11:01:56Z</time>
      </trkpt>
      <trkpt lat="48.11322" lon="-0.58089">
        <ele>141</ele>
        <time>2009-10-25T11:02:00Z</time>
      </trkpt>
      <trkpt lat="48.11322" lon="-0.5809">
        <ele>140</ele>
        <time>2009-10-25T11:02:04Z</time>
      </trkpt>
      <trkpt lat="48.11322" lon="-0.58093">
        <ele>140</ele>
        <time>2009-10-25T11:02:08Z</time>
      </trkpt>
      <trkpt lat="48.11322" lon="-0.58094">
        <ele>140</ele>
        <time>2009-10-25T11:02:12Z</time>
      </trkpt>
      <trkpt lat="48.11324" lon="-0.58095">
        <ele>139</ele>
        <time>2009-10-25T11:02:16Z</time>
      </trkpt>
      <trkpt lat="48.11325" lon="-0.58098">
        <ele>139</ele>
        <time>2009-10-25T11:02:20Z</time>
      </trkpt>
      <trkpt lat="48.11327" lon="-0.58101">
        <ele>139</ele>
        <time>2009-10-25T11:02:24Z</time>
      </trkpt>
      <trkpt lat="48.11329" lon="-0.58102">
        <ele>138</ele>
        <time>2009-10-25T11:02:28Z</time>
      </trkpt>
      <trkpt lat="48.1133" lon="-0.58105">
        <ele>137</ele>
        <time>2009-10-25T11:02:32Z</time>
      </trkpt>
      <trkpt lat="48.11331" lon="-0.58106">
        <ele>137</ele>
        <time>2009-10-25T11:02:36Z</time>
      </trkpt>
      <trkpt lat="48.11333" lon="-0.58107">
        <ele>136</ele>
        <time>2009-10-25T11:02:40Z</time>
      </trkpt>
      <trkpt lat="48.11333" lon="-0.58108">
        <ele>135</ele>
        <time>2009-10-25T11:02:44Z</time>
      </trkpt>
      <trkpt lat="48.11334" lon="-0.58108">
        <ele>135</ele>
        <time>2009-10-25T11:02:48Z</time>
      </trkpt>
      <trkpt lat="48.11334" lon="-0.5811">
        <ele>135</ele>
        <time>2009-10-25T11:02:52Z</time>
      </trkpt>
      <trkpt lat="48.11334" lon="-0.5811">
        <ele>135</ele>
        <time>2009-10-25T11:02:56Z</time>
      </trkpt>
      <trkpt lat="48.11335" lon="-0.58111">
        <ele>135</ele>
        <time>2009-10-25T11:03:00Z</time>
      </trkpt>
      <trkpt lat="48.11335" lon="-0.58111">
        <ele>135</ele>
        <time>2009-10-25T11:03:04Z</time>
      </trkpt>
      <trkpt lat="48.11336" lon="-0.58112">
        <ele>135</ele>
        <time>2009-10-25T11:03:08Z</time>
      </trkpt>
      <trkpt lat="48.11336" lon="-0.58112">
        <ele>135</ele>
        <time>2009-10-25T11:03:12Z</time>
      </trkpt>
      <trkpt lat="48.11336" lon="-0.58114">
        <ele>135</ele>
        <time>2009-10-25T11:03:16Z</time>
      </trkpt>
      <trkpt lat="48.11337" lon="-0.58114">
        <ele>135</ele>
        <time>2009-10-25T11:03:20Z</time>
      </trkpt>
      <trkpt lat="48.11338" lon="-0.58115">
        <ele>135</ele>
        <time>2009-10-25T11:03:24Z</time>
      </trkpt>
      <trkpt lat="48.1134" lon="-0.58124">
        <ele>132</ele>
        <time>2009-10-25T11:03:28Z</time>
      </trkpt>
      <trkpt lat="48.11341" lon="-0.58126">
        <ele>131</ele>
        <time>2009-10-25T11:03:32Z</time>
      </trkpt>
      <trkpt lat="48.11342" lon="-0.58125">
        <ele>131</ele>
        <time>2009-10-25T11:03:36Z</time>
      </trkpt>
      <trkpt lat="48.11342" lon="-0.58125">
        <ele>131</ele>
        <time>2009-10-25T11:03:40Z</time>
      </trkpt>
      <trkpt lat="48.11343" lon="-0.58127">
        <ele>131</ele>
        <time>2009-10-25T11:03:44Z</time>
      </trkpt>
      <trkpt lat="48.11345" lon="-0.58132">
        <ele>130</ele>
        <time>2009-10-25T11:03:48Z</time>
      </trkpt>
      <trkpt lat="48.11349" lon="-0.58139">
        <ele>130</ele>
        <time>2009-10-25T11:03:52Z</time>
      </trkpt>
      <trkpt lat="48.11354" lon="-0.58148">
        <ele>130</ele>
        <time>2009-10-25T11:03:56Z</time>
      </trkpt>
      <trkpt lat="48.11356" lon="-0.58154">
        <ele>130</ele>
        <time>2009-10-25T11:04:00Z</time>
      </trkpt>
      <trkpt lat="48.11357" lon="-0.58161">
        <ele>130</ele>
        <time>2009-10-25T11:04:04Z</time>
      </trkpt>
      <trkpt lat="48.1136" lon="-0.58166">
        <ele>129</ele>
        <time>2009-10-25T11:04:08Z</time>
      </trkpt>
      <trkpt lat="48.11363" lon="-0.58178">
        <ele>129</ele>
        <time>2009-10-25T11:04:12Z</time>
      </trkpt>
      <trkpt lat="48.11371" lon="-0.58198">
        <ele>125</ele>
        <time>2009-10-25T11:04:16Z</time>
      </trkpt>
      <trkpt lat="48.11379" lon="-0.58219">
        <ele>121</ele>
        <time>2009-10-25T11:04:20Z</time>
      </trkpt>
      <trkpt lat="48.11385" lon="-0.58242">
        <ele>120</ele>
        <time>2009-10-25T11:04:24Z</time>
      </trkpt>
      <trkpt lat="48.11392" lon="-0.58258">
        <ele>122</ele>
        <time>2009-10-25T11:04:28Z</time>
      </trkpt>
      <trkpt lat="48.11395" lon="-0.58268">
        <ele>124</ele>
        <time>2009-10-25T11:04:32Z</time>
      </trkpt>
      <trkpt lat="48.11397" lon="-0.58272">
        <ele>125</ele>
        <time>2009-10-25T11:04:36Z</time>
      </trkpt>
      <trkpt lat="48.11396" lon="-0.58273">
        <ele>126</ele>
        <time>2009-10-25T11:04:40Z</time>
      </trkpt>
      <trkpt lat="48.11397" lon="-0.58273">
        <ele>128</ele>
        <time>2009-10-25T11:04:44Z</time>
      </trkpt>
      <trkpt lat="48.11396" lon="-0.58273">
        <ele>130</ele>
        <time>2009-10-25T11:04:48Z</time>
      </trkpt>
      <trkpt lat="48.11395" lon="-0.58274">
        <ele>130</ele>
        <time>2009-10-25T11:04:52Z</time>
      </trkpt>
      <trkpt lat="48.11394" lon="-0.58275">
        <ele>128</ele>
        <time>2009-10-25T11:04:56Z</time>
      </trkpt>
      <trkpt lat="48.11393" lon="-0.58276">
        <ele>128</ele>
        <time>2009-10-25T11:05:00Z</time>
      </trkpt>
      <trkpt lat="48.11394" lon="-0.58276">
        <ele>129</ele>
        <time>2009-10-25T11:05:04Z</time>
      </trkpt>
      <trkpt lat="48.11395" lon="-0.58276">
        <ele>131</ele>
        <time>2009-10-25T11:05:08Z</time>
      </trkpt>
      <trkpt lat="48.11394" lon="-0.58278">
        <ele>130</ele>
        <time>2009-10-25T11:05:12Z</time>
      </trkpt>
      <trkpt lat="48.11393" lon="-0.58276">
        <ele>133</ele>
        <time>2009-10-25T11:05:16Z</time>
      </trkpt>
      <trkpt lat="48.11392" lon="-0.58275">
        <ele>136</ele>
        <time>2009-10-25T11:05:20Z</time>
      </trkpt>
      <trkpt lat="48.11393" lon="-0.58275">
        <ele>135</ele>
        <time>2009-10-25T11:05:24Z</time>
      </trkpt>
      <trkpt lat="48.11393" lon="-0.58275">
        <ele>135</ele>
        <time>2009-10-25T11:05:28Z</time>
      </trkpt>
      <trkpt lat="48.11392" lon="-0.58275">
        <ele>137</ele>
        <time>2009-10-25T11:05:32Z</time>
      </trkpt>
      <trkpt lat="48.11391" lon="-0.58274">
        <ele>138</ele>
        <time>2009-10-25T11:05:36Z</time>
      </trkpt>
      <trkpt lat="48.11391" lon="-0.58274">
        <ele>138</ele>
        <time>2009-10-25T11:05:40Z</time>
      </trkpt>
      <trkpt lat="48.11391" lon="-0.58274">
        <ele>138</ele>
        <time>2009-10-25T11:05:44Z</time>
      </trkpt>
      <trkpt lat="48.11391" lon="-0.58274">
        <ele>138</ele>
        <time>2009-10-25T11:05:48Z</time>
      </trkpt>
      <trkpt lat="48.11391" lon="-0.58275">
        <ele>138</ele>
        <time>2009-10-25T11:05:52Z</time>
      </trkpt>
      <trkpt lat="48.11391" lon="-0.58275">
        <ele>138</ele>
        <time>2009-10-25T11:05:56Z</time>
      </trkpt>
      <trkpt lat="48.1139" lon="-0.58275">
        <ele>139</ele>
        <time>2009-10-25T11:06:00Z</time>
      </trkpt>
      <trkpt lat="48.1139" lon="-0.58275">
        <ele>139</ele>
        <time>2009-10-25T11:06:04Z</time>
      </trkpt>
      <trkpt lat="48.1139" lon="-0.58275">
        <ele>138</ele>
        <time>2009-10-25T11:06:08Z</time>
      </trkpt>
      <trkpt lat="48.1139" lon="-0.58276">
        <ele>138</ele>
        <time>2009-10-25T11:06:12Z</time>
      </trkpt>
      <trkpt lat="48.1139" lon="-0.58276">
        <ele>138</ele>
        <time>2009-10-25T11:06:16Z</time>
      </trkpt>
      <trkpt lat="48.1139" lon="-0.58275">
        <ele>139</ele>
        <time>2009-10-25T11:06:20Z</time>
      </trkpt>
      <trkpt lat="48.1139" lon="-0.58275">
        <ele>139</ele>
        <time>2009-10-25T11:06:24Z</time>
      </trkpt>
      <trkpt lat="48.1139" lon="-0.58275">
        <ele>139</ele>
        <time>2009-10-25T11:06:28Z</time>
      </trkpt>
      <trkpt lat="48.1139" lon="-0.58276">
        <ele>138</ele>
        <time>2009-10-25T11:06:32Z</time>
      </trkpt>
      <trkpt lat="48.1139" lon="-0.58276">
        <ele>138</ele>
        <time>2009-10-25T11:06:36Z</time>
      </trkpt>
      <trkpt lat="48.11391" lon="-0.58278">
        <ele>139</ele>
        <time>2009-10-25T11:06:40Z</time>
      </trkpt>
      <trkpt lat="48.1139" lon="-0.58276">
        <ele>138</ele>
        <time>2009-10-25T11:06:44Z</time>
      </trkpt>
      <trkpt lat="48.1139" lon="-0.58276">
        <ele>139</ele>
        <time>2009-10-25T11:06:48Z</time>
      </trkpt>
      <trkpt lat="48.1139" lon="-0.58276">
        <ele>139</ele>
        <time>2009-10-25T11:06:52Z</time>
      </trkpt>
      <trkpt lat="48.1139" lon="-0.58276">
        <ele>140</ele>
        <time>2009-10-25T11:06:56Z</time>
      </trkpt>
      <trkpt lat="48.11391" lon="-0.58278">
        <ele>140</ele>
        <time>2009-10-25T11:07:00Z</time>
      </trkpt>
      <trkpt lat="48.11391" lon="-0.58278">
        <ele>140</ele>
        <time>2009-10-25T11:07:04Z</time>
      </trkpt>
      <trkpt lat="48.1139" lon="-0.58278">
        <ele>140</ele>
        <time>2009-10-25T11:07:08Z</time>
      </trkpt>
      <trkpt lat="48.1139" lon="-0.58278">
        <ele>141</ele>
        <time>2009-10-25T11:07:12Z</time>
      </trkpt>
      <trkpt lat="48.11391" lon="-0.58278">
        <ele>140</ele>
        <time>2009-10-25T11:07:16Z</time>
      </trkpt>
      <trkpt lat="48.11391" lon="-0.58278">
        <ele>140</ele>
        <time>2009-10-25T11:07:20Z</time>
      </trkpt>
      <trkpt lat="48.1139" lon="-0.58276">
        <ele>140</ele>
        <time>2009-10-25T11:07:24Z</time>
      </trkpt>
      <trkpt lat="48.1139" lon="-0.58276">
        <ele>139</ele>
        <time>2009-10-25T11:07:28Z</time>
      </trkpt>
      <trkpt lat="48.11391" lon="-0.58276">
        <ele>139</ele>
        <time>2009-10-25T11:07:32Z</time>
      </trkpt>
      <trkpt lat="48.11391" lon="-0.58276">
        <ele>139</ele>
        <time>2009-10-25T11:07:36Z</time>
      </trkpt>
      <trkpt lat="48.1139" lon="-0.58276">
        <ele>140</ele>
        <time>2009-10-25T11:07:40Z</time>
      </trkpt>
      <trkpt lat="48.1139" lon="-0.58276">
        <ele>140</ele>
        <time>2009-10-25T11:07:44Z</time>
      </trkpt>
      <trkpt lat="48.11395" lon="-0.58284">
        <ele>138</ele>
        <time>2009-10-25T11:07:48Z</time>
      </trkpt>
      <trkpt lat="48.11398" lon="-0.58287">
        <ele>138</ele>
        <time>2009-10-25T11:07:52Z</time>
      </trkpt>
      <trkpt lat="48.11399" lon="-0.58288">
        <ele>138</ele>
        <time>2009-10-25T11:07:56Z</time>
      </trkpt>
      <trkpt lat="48.11401" lon="-0.58292">
        <ele>138</ele>
        <time>2009-10-25T11:08:00Z</time>
      </trkpt>
      <trkpt lat="48.11403" lon="-0.58295">
        <ele>136</ele>
        <time>2009-10-25T11:08:04Z</time>
      </trkpt>
      <trkpt lat="48.11404" lon="-0.58296">
        <ele>136</ele>
        <time>2009-10-25T11:08:08Z</time>
      </trkpt>
      <trkpt lat="48.11407" lon="-0.583">
        <ele>134</ele>
        <time>2009-10-25T11:08:12Z</time>
      </trkpt>
      <trkpt lat="48.11413" lon="-0.58308">
        <ele>134</ele>
        <time>2009-10-25T11:08:16Z</time>
      </trkpt>
      <trkpt lat="48.11419" lon="-0.58314">
        <ele>133</ele>
        <time>2009-10-25T11:08:20Z</time>
      </trkpt>
      <trkpt lat="48.11424" lon="-0.58321">
        <ele>133</ele>
        <time>2009-10-25T11:08:24Z</time>
      </trkpt>
      <trkpt lat="48.11427" lon="-0.58327">
        <ele>134</ele>
        <time>2009-10-25T11:08:28Z</time>
      </trkpt>
      <trkpt lat="48.11428" lon="-0.58335">
        <ele>133</ele>
        <time>2009-10-25T11:08:32Z</time>
      </trkpt>
      <trkpt lat="48.1143" lon="-0.58342">
        <ele>134</ele>
        <time>2009-10-25T11:08:36Z</time>
      </trkpt>
      <trkpt lat="48.1143" lon="-0.58352">
        <ele>135</ele>
        <time>2009-10-25T11:08:40Z</time>
      </trkpt>
      <trkpt lat="48.11432" lon="-0.58362">
        <ele>135</ele>
        <time>2009-10-25T11:08:44Z</time>
      </trkpt>
      <trkpt lat="48.11431" lon="-0.5837">
        <ele>135</ele>
        <time>2009-10-25T11:08:48Z</time>
      </trkpt>
      <trkpt lat="48.1143" lon="-0.58378">
        <ele>134</ele>
        <time>2009-10-25T11:08:52Z</time>
      </trkpt>
      <trkpt lat="48.11431" lon="-0.58386">
        <ele>135</ele>
        <time>2009-10-25T11:08:56Z</time>
      </trkpt>
      <trkpt lat="48.11431" lon="-0.58394">
        <ele>134</ele>
        <time>2009-10-25T11:09:00Z</time>
      </trkpt>
      <trkpt lat="48.11431" lon="-0.58402">
        <ele>135</ele>
        <time>2009-10-25T11:09:04Z</time>
      </trkpt>
      <trkpt lat="48.11431" lon="-0.5841">
        <ele>136</ele>
        <time>2009-10-25T11:09:08Z</time>
      </trkpt>
      <trkpt lat="48.11431" lon="-0.58418">
        <ele>138</ele>
        <time>2009-10-25T11:09:12Z</time>
      </trkpt>
      <trkpt lat="48.11432" lon="-0.58425">
        <ele>138</ele>
        <time>2009-10-25T11:09:16Z</time>
      </trkpt>
      <trkpt lat="48.11432" lon="-0.58433">
        <ele>139</ele>
        <time>2009-10-25T11:09:20Z</time>
      </trkpt>
      <trkpt lat="48.11435" lon="-0.5844">
        <ele>139</ele>
        <time>2009-10-25T11:09:24Z</time>
      </trkpt>
      <trkpt lat="48.11435" lon="-0.58446">
        <ele>139</ele>
        <time>2009-10-25T11:09:28Z</time>
      </trkpt>
      <trkpt lat="48.11438" lon="-0.58456">
        <ele>139</ele>
        <time>2009-10-25T11:09:33Z</time>
      </trkpt>
      <trkpt lat="48.1144" lon="-0.58464">
        <ele>140</ele>
        <time>2009-10-25T11:09:37Z</time>
      </trkpt>
      <trkpt lat="48.11441" lon="-0.5847">
        <ele>141</ele>
        <time>2009-10-25T11:09:41Z</time>
      </trkpt>
      <trkpt lat="48.11444" lon="-0.58479">
        <ele>143</ele>
        <time>2009-10-25T11:09:45Z</time>
      </trkpt>
      <trkpt lat="48.11447" lon="-0.58487">
        <ele>144</ele>
        <time>2009-10-25T11:09:49Z</time>
      </trkpt>
      <trkpt lat="48.11451" lon="-0.58495">
        <ele>145</ele>
        <time>2009-10-25T11:09:53Z</time>
      </trkpt>
      <trkpt lat="48.11454" lon="-0.58501">
        <ele>146</ele>
        <time>2009-10-25T11:09:57Z</time>
      </trkpt>
      <trkpt lat="48.11456" lon="-0.58506">
        <ele>146</ele>
        <time>2009-10-25T11:10:01Z</time>
      </trkpt>
      <trkpt lat="48.11459" lon="-0.58512">
        <ele>145</ele>
        <time>2009-10-25T11:10:05Z</time>
      </trkpt>
      <trkpt lat="48.1146" lon="-0.58519">
        <ele>145</ele>
        <time>2009-10-25T11:10:09Z</time>
      </trkpt>
      <trkpt lat="48.11462" lon="-0.58528">
        <ele>144</ele>
        <time>2009-10-25T11:10:13Z</time>
      </trkpt>
      <trkpt lat="48.11464" lon="-0.58534">
        <ele>144</ele>
        <time>2009-10-25T11:10:17Z</time>
      </trkpt>
      <trkpt lat="48.11466" lon="-0.58539">
        <ele>145</ele>
        <time>2009-10-25T11:10:21Z</time>
      </trkpt>
      <trkpt lat="48.11467" lon="-0.58544">
        <ele>148</ele>
        <time>2009-10-25T11:10:25Z</time>
      </trkpt>
      <trkpt lat="48.11467" lon="-0.58548">
        <ele>152</ele>
        <time>2009-10-25T11:10:29Z</time>
      </trkpt>
      <trkpt lat="48.11468" lon="-0.58551">
        <ele>152</ele>
        <time>2009-10-25T11:10:33Z</time>
      </trkpt>
      <trkpt lat="48.1147" lon="-0.58555">
        <ele>152</ele>
        <time>2009-10-25T11:10:37Z</time>
      </trkpt>
      <trkpt lat="48.11471" lon="-0.58556">
        <ele>152</ele>
        <time>2009-10-25T11:10:41Z</time>
      </trkpt>
      <trkpt lat="48.11472" lon="-0.58559">
        <ele>151</ele>
        <time>2009-10-25T11:10:45Z</time>
      </trkpt>
      <trkpt lat="48.11476" lon="-0.58564">
        <ele>151</ele>
        <time>2009-10-25T11:10:49Z</time>
      </trkpt>
      <trkpt lat="48.1148" lon="-0.58569">
        <ele>153</ele>
        <time>2009-10-25T11:10:53Z</time>
      </trkpt>
      <trkpt lat="48.11482" lon="-0.58573">
        <ele>154</ele>
        <time>2009-10-25T11:10:57Z</time>
      </trkpt>
      <trkpt lat="48.11486" lon="-0.5858">
        <ele>154</ele>
        <time>2009-10-25T11:11:01Z</time>
      </trkpt>
      <trkpt lat="48.11489" lon="-0.58585">
        <ele>156</ele>
        <time>2009-10-25T11:11:05Z</time>
      </trkpt>
      <trkpt lat="48.11494" lon="-0.58591">
        <ele>157</ele>
        <time>2009-10-25T11:11:09Z</time>
      </trkpt>
      <trkpt lat="48.11498" lon="-0.58597">
        <ele>156</ele>
        <time>2009-10-25T11:11:13Z</time>
      </trkpt>
      <trkpt lat="48.11502" lon="-0.58603">
        <ele>155</ele>
        <time>2009-10-25T11:11:17Z</time>
      </trkpt>
      <trkpt lat="48.11506" lon="-0.58607">
        <ele>154</ele>
        <time>2009-10-25T11:11:21Z</time>
      </trkpt>
      <trkpt lat="48.11508" lon="-0.58611">
        <ele>153</ele>
        <time>2009-10-25T11:11:25Z</time>
      </trkpt>
      <trkpt lat="48.11512" lon="-0.58615">
        <ele>153</ele>
        <time>2009-10-25T11:11:29Z</time>
      </trkpt>
      <trkpt lat="48.11515" lon="-0.58619">
        <ele>156</ele>
        <time>2009-10-25T11:11:33Z</time>
      </trkpt>
      <trkpt lat="48.11518" lon="-0.58622">
        <ele>157</ele>
        <time>2009-10-25T11:11:37Z</time>
      </trkpt>
      <trkpt lat="48.11523" lon="-0.58628">
        <ele>157</ele>
        <time>2009-10-25T11:11:41Z</time>
      </trkpt>
      <trkpt lat="48.11526" lon="-0.58631">
        <ele>157</ele>
        <time>2009-10-25T11:11:45Z</time>
      </trkpt>
      <trkpt lat="48.1153" lon="-0.58635">
        <ele>157</ele>
        <time>2009-10-25T11:11:49Z</time>
      </trkpt>
      <trkpt lat="48.11533" lon="-0.58639">
        <ele>160</ele>
        <time>2009-10-25T11:11:53Z</time>
      </trkpt>
      <trkpt lat="48.11538" lon="-0.58646">
        <ele>160</ele>
        <time>2009-10-25T11:11:57Z</time>
      </trkpt>
      <trkpt lat="48.11542" lon="-0.58651">
        <ele>162</ele>
        <time>2009-10-25T11:12:01Z</time>
      </trkpt>
      <trkpt lat="48.11547" lon="-0.58657">
        <ele>165</ele>
        <time>2009-10-25T11:12:05Z</time>
      </trkpt>
      <trkpt lat="48.11552" lon="-0.58665">
        <ele>166</ele>
        <time>2009-10-25T11:12:09Z</time>
      </trkpt>
      <trkpt lat="48.11557" lon="-0.58672">
        <ele>166</ele>
        <time>2009-10-25T11:12:13Z</time>
      </trkpt>
      <trkpt lat="48.11561" lon="-0.58676">
        <ele>166</ele>
        <time>2009-10-25T11:12:17Z</time>
      </trkpt>
      <trkpt lat="48.11565" lon="-0.58683">
        <ele>166</ele>
        <time>2009-10-25T11:12:21Z</time>
      </trkpt>
      <trkpt lat="48.11569" lon="-0.5869">
        <ele>166</ele>
        <time>2009-10-25T11:12:25Z</time>
      </trkpt>
      <trkpt lat="48.11574" lon="-0.58698">
        <ele>167</ele>
        <time>2009-10-25T11:12:29Z</time>
      </trkpt>
      <trkpt lat="48.11578" lon="-0.58704">
        <ele>167</ele>
        <time>2009-10-25T11:12:33Z</time>
      </trkpt>
      <trkpt lat="48.11582" lon="-0.58712">
        <ele>166</ele>
        <time>2009-10-25T11:12:37Z</time>
      </trkpt>
      <trkpt lat="48.11585" lon="-0.58719">
        <ele>166</ele>
        <time>2009-10-25T11:12:41Z</time>
      </trkpt>
      <trkpt lat="48.11588" lon="-0.58724">
        <ele>166</ele>
        <time>2009-10-25T11:12:45Z</time>
      </trkpt>
      <trkpt lat="48.1159" lon="-0.58729">
        <ele>166</ele>
        <time>2009-10-25T11:12:49Z</time>
      </trkpt>
      <trkpt lat="48.11591" lon="-0.58736">
        <ele>167</ele>
        <time>2009-10-25T11:12:53Z</time>
      </trkpt>
      <trkpt lat="48.11595" lon="-0.58742">
        <ele>167</ele>
        <time>2009-10-25T11:12:57Z</time>
      </trkpt>
      <trkpt lat="48.11597" lon="-0.58753">
        <ele>166</ele>
        <time>2009-10-25T11:13:01Z</time>
      </trkpt>
      <trkpt lat="48.11601" lon="-0.58764">
        <ele>166</ele>
        <time>2009-10-25T11:13:05Z</time>
      </trkpt>
      <trkpt lat="48.11604" lon="-0.58772">
        <ele>166</ele>
        <time>2009-10-25T11:13:09Z</time>
      </trkpt>
      <trkpt lat="48.11607" lon="-0.58782">
        <ele>167</ele>
        <time>2009-10-25T11:13:13Z</time>
      </trkpt>
      <trkpt lat="48.11611" lon="-0.58793">
        <ele>167</ele>
        <time>2009-10-25T11:13:17Z</time>
      </trkpt>
      <trkpt lat="48.11617" lon="-0.58806">
        <ele>165</ele>
        <time>2009-10-25T11:13:21Z</time>
      </trkpt>
      <trkpt lat="48.1162" lon="-0.58814">
        <ele>167</ele>
        <time>2009-10-25T11:13:25Z</time>
      </trkpt>
      <trkpt lat="48.11623" lon="-0.5882">
        <ele>167</ele>
        <time>2009-10-25T11:13:29Z</time>
      </trkpt>
      <trkpt lat="48.11623" lon="-0.58826">
        <ele>166</ele>
        <time>2009-10-25T11:13:33Z</time>
      </trkpt>
      <trkpt lat="48.11623" lon="-0.58831">
        <ele>167</ele>
        <time>2009-10-25T11:13:37Z</time>
      </trkpt>
      <trkpt lat="48.11625" lon="-0.58837">
        <ele>166</ele>
        <time>2009-10-25T11:13:41Z</time>
      </trkpt>
      <trkpt lat="48.11627" lon="-0.58842">
        <ele>164</ele>
        <time>2009-10-25T11:13:45Z</time>
      </trkpt>
      <trkpt lat="48.11627" lon="-0.58843">
        <ele>164</ele>
        <time>2009-10-25T11:13:49Z</time>
      </trkpt>
      <trkpt lat="48.11627" lon="-0.58844">
        <ele>165</ele>
        <time>2009-10-25T11:13:53Z</time>
      </trkpt>
      <trkpt lat="48.11628" lon="-0.58846">
        <ele>165</ele>
        <time>2009-10-25T11:13:57Z</time>
      </trkpt>
      <trkpt lat="48.11628" lon="-0.58846">
        <ele>166</ele>
        <time>2009-10-25T11:14:01Z</time>
      </trkpt>
      <trkpt lat="48.11629" lon="-0.58846">
        <ele>166</ele>
        <time>2009-10-25T11:14:05Z</time>
      </trkpt>
      <trkpt lat="48.11629" lon="-0.58847">
        <ele>166</ele>
        <time>2009-10-25T11:14:09Z</time>
      </trkpt>
      <trkpt lat="48.11629" lon="-0.58848">
        <ele>167</ele>
        <time>2009-10-25T11:14:13Z</time>
      </trkpt>
      <trkpt lat="48.1163" lon="-0.58848">
        <ele>166</ele>
        <time>2009-10-25T11:14:17Z</time>
      </trkpt>
      <trkpt lat="48.1163" lon="-0.58848">
        <ele>166</ele>
        <time>2009-10-25T11:14:21Z</time>
      </trkpt>
      <trkpt lat="48.1163" lon="-0.5885">
        <ele>167</ele>
        <time>2009-10-25T11:14:25Z</time>
      </trkpt>
      <trkpt lat="48.11631" lon="-0.5885">
        <ele>167</ele>
        <time>2009-10-25T11:14:29Z</time>
      </trkpt>
      <trkpt lat="48.11631" lon="-0.58851">
        <ele>167</ele>
        <time>2009-10-25T11:14:33Z</time>
      </trkpt>
      <trkpt lat="48.11632" lon="-0.58851">
        <ele>167</ele>
        <time>2009-10-25T11:14:37Z</time>
      </trkpt>
      <trkpt lat="48.11632" lon="-0.58851">
        <ele>168</ele>
        <time>2009-10-25T11:14:41Z</time>
      </trkpt>
      <trkpt lat="48.11632" lon="-0.58851">
        <ele>168</ele>
        <time>2009-10-25T11:14:45Z</time>
      </trkpt>
      <trkpt lat="48.11632" lon="-0.58852">
        <ele>168</ele>
        <time>2009-10-25T11:14:49Z</time>
      </trkpt>
      <trkpt lat="48.11632" lon="-0.58852">
        <ele>168</ele>
        <time>2009-10-25T11:14:53Z</time>
      </trkpt>
      <trkpt lat="48.11632" lon="-0.58852">
        <ele>168</ele>
        <time>2009-10-25T11:14:57Z</time>
      </trkpt>
      <trkpt lat="48.11632" lon="-0.58852">
        <ele>168</ele>
        <time>2009-10-25T11:15:01Z</time>
      </trkpt>
      <trkpt lat="48.11632" lon="-0.58852">
        <ele>168</ele>
        <time>2009-10-25T11:15:05Z</time>
      </trkpt>
      <trkpt lat="48.11632" lon="-0.58852">
        <ele>168</ele>
        <time>2009-10-25T11:15:10Z</time>
      </trkpt>
      <trkpt lat="48.11632" lon="-0.58852">
        <ele>168</ele>
        <time>2009-10-25T11:15:14Z</time>
      </trkpt>
      <trkpt lat="48.11633" lon="-0.58854">
        <ele>169</ele>
        <time>2009-10-25T11:15:18Z</time>
      </trkpt>
      <trkpt lat="48.11633" lon="-0.58854">
        <ele>169</ele>
        <time>2009-10-25T11:15:22Z</time>
      </trkpt>
      <trkpt lat="48.11633" lon="-0.58854">
        <ele>168</ele>
        <time>2009-10-25T11:15:26Z</time>
      </trkpt>
      <trkpt lat="48.11633" lon="-0.58854">
        <ele>168</ele>
        <time>2009-10-25T11:15:30Z</time>
      </trkpt>
      <trkpt lat="48.11633" lon="-0.58854">
        <ele>169</ele>
        <time>2009-10-25T11:15:34Z</time>
      </trkpt>
      <trkpt lat="48.11633" lon="-0.58854">
        <ele>169</ele>
        <time>2009-10-25T11:15:38Z</time>
      </trkpt>
      <trkpt lat="48.11633" lon="-0.58854">
        <ele>169</ele>
        <time>2009-10-25T11:15:42Z</time>
      </trkpt>
      <trkpt lat="48.11633" lon="-0.58855">
        <ele>169</ele>
        <time>2009-10-25T11:15:46Z</time>
      </trkpt>
      <trkpt lat="48.11633" lon="-0.58854">
        <ele>169</ele>
        <time>2009-10-25T11:15:50Z</time>
      </trkpt>
      <trkpt lat="48.11633" lon="-0.58855">
        <ele>169</ele>
        <time>2009-10-25T11:15:54Z</time>
      </trkpt>
      <trkpt lat="48.11633" lon="-0.58855">
        <ele>169</ele>
        <time>2009-10-25T11:15:58Z</time>
      </trkpt>
      <trkpt lat="48.11633" lon="-0.58855">
        <ele>169</ele>
        <time>2009-10-25T11:16:02Z</time>
      </trkpt>
      <trkpt lat="48.11632" lon="-0.58855">
        <ele>169</ele>
        <time>2009-10-25T11:16:06Z</time>
      </trkpt>
      <trkpt lat="48.11632" lon="-0.58855">
        <ele>169</ele>
        <time>2009-10-25T11:16:10Z</time>
      </trkpt>
      <trkpt lat="48.11632" lon="-0.58855">
        <ele>169</ele>
        <time>2009-10-25T11:16:14Z</time>
      </trkpt>
      <trkpt lat="48.11632" lon="-0.58855">
        <ele>169</ele>
        <time>2009-10-25T11:16:18Z</time>
      </trkpt>
      <trkpt lat="48.11632" lon="-0.58855">
        <ele>169</ele>
        <time>2009-10-25T11:16:22Z</time>
      </trkpt>
      <trkpt lat="48.11632" lon="-0.58855">
        <ele>169</ele>
        <time>2009-10-25T11:16:26Z</time>
      </trkpt>
      <trkpt lat="48.11632" lon="-0.58855">
        <ele>169</ele>
        <time>2009-10-25T11:16:30Z</time>
      </trkpt>
      <trkpt lat="48.11632" lon="-0.58855">
        <ele>168</ele>
        <time>2009-10-25T11:16:34Z</time>
      </trkpt>
      <trkpt lat="48.11632" lon="-0.58855">
        <ele>168</ele>
        <time>2009-10-25T11:16:38Z</time>
      </trkpt>
      <trkpt lat="48.11632" lon="-0.58855">
        <ele>168</ele>
        <time>2009-10-25T11:16:42Z</time>
      </trkpt>
      <trkpt lat="48.11632" lon="-0.58855">
        <ele>168</ele>
        <time>2009-10-25T11:16:46Z</time>
      </trkpt>
      <trkpt lat="48.11632" lon="-0.58855">
        <ele>168</ele>
        <time>2009-10-25T11:16:50Z</time>
      </trkpt>
      <trkpt lat="48.11632" lon="-0.58855">
        <ele>168</ele>
        <time>2009-10-25T11:16:54Z</time>
      </trkpt>
      <trkpt lat="48.11632" lon="-0.58855">
        <ele>168</ele>
        <time>2009-10-25T11:16:58Z</time>
      </trkpt>
      <trkpt lat="48.11632" lon="-0.58855">
        <ele>168</ele>
        <time>2009-10-25T11:17:02Z</time>
      </trkpt>
      <trkpt lat="48.11632" lon="-0.58855">
        <ele>168</ele>
        <time>2009-10-25T11:17:06Z</time>
      </trkpt>
      <trkpt lat="48.11632" lon="-0.58855">
        <ele>168</ele>
        <time>2009-10-25T11:17:10Z</time>
      </trkpt>
      <trkpt lat="48.11632" lon="-0.58855">
        <ele>168</ele>
        <time>2009-10-25T11:17:14Z</time>
      </trkpt>
      <trkpt lat="48.11632" lon="-0.58854">
        <ele>168</ele>
        <time>2009-10-25T11:17:18Z</time>
      </trkpt>
      <trkpt lat="48.11632" lon="-0.58854">
        <ele>168</ele>
        <time>2009-10-25T11:17:22Z</time>
      </trkpt>
      <trkpt lat="48.11632" lon="-0.58854">
        <ele>168</ele>
        <time>2009-10-25T11:17:26Z</time>
      </trkpt>
      <trkpt lat="48.11632" lon="-0.58854">
        <ele>168</ele>
        <time>2009-10-25T11:17:30Z</time>
      </trkpt>
      <trkpt lat="48.11632" lon="-0.58854">
        <ele>168</ele>
        <time>2009-10-25T11:17:34Z</time>
      </trkpt>
      <trkpt lat="48.11632" lon="-0.58854">
        <ele>169</ele>
        <time>2009-10-25T11:17:38Z</time>
      </trkpt>
      <trkpt lat="48.11632" lon="-0.58854">
        <ele>169</ele>
        <time>2009-10-25T11:17:42Z</time>
      </trkpt>
      <trkpt lat="48.11632" lon="-0.58854">
        <ele>169</ele>
        <time>2009-10-25T11:17:46Z</time>
      </trkpt>
      <trkpt lat="48.11631" lon="-0.58854">
        <ele>169</ele>
        <time>2009-10-25T11:17:50Z</time>
      </trkpt>
      <trkpt lat="48.11631" lon="-0.58854">
        <ele>169</ele>
        <time>2009-10-25T11:17:54Z</time>
      </trkpt>
      <trkpt lat="48.11631" lon="-0.58854">
        <ele>169</ele>
        <time>2009-10-25T11:17:58Z</time>
      </trkpt>
      <trkpt lat="48.11631" lon="-0.58854">
        <ele>169</ele>
        <time>2009-10-25T11:18:02Z</time>
      </trkpt>
      <trkpt lat="48.11631" lon="-0.58852">
        <ele>169</ele>
        <time>2009-10-25T11:18:06Z</time>
      </trkpt>
      <trkpt lat="48.11631" lon="-0.58852">
        <ele>169</ele>
        <time>2009-10-25T11:18:10Z</time>
      </trkpt>
      <trkpt lat="48.11631" lon="-0.58854">
        <ele>169</ele>
        <time>2009-10-25T11:18:14Z</time>
      </trkpt>
      <trkpt lat="48.11631" lon="-0.58854">
        <ele>169</ele>
        <time>2009-10-25T11:18:18Z</time>
      </trkpt>
      <trkpt lat="48.11631" lon="-0.58854">
        <ele>169</ele>
        <time>2009-10-25T11:18:22Z</time>
      </trkpt>
      <trkpt lat="48.11631" lon="-0.58854">
        <ele>169</ele>
        <time>2009-10-25T11:18:26Z</time>
      </trkpt>
      <trkpt lat="48.11631" lon="-0.58854">
        <ele>169</ele>
        <time>2009-10-25T11:18:30Z</time>
      </trkpt>
      <trkpt lat="48.11631" lon="-0.58854">
        <ele>169</ele>
        <time>2009-10-25T11:18:34Z</time>
      </trkpt>
      <trkpt lat="48.11631" lon="-0.58854">
        <ele>169</ele>
        <time>2009-10-25T11:18:38Z</time>
      </trkpt>
      <trkpt lat="48.11631" lon="-0.58854">
        <ele>169</ele>
        <time>2009-10-25T11:18:42Z</time>
      </trkpt>
      <trkpt lat="48.11631" lon="-0.58854">
        <ele>170</ele>
        <time>2009-10-25T11:18:46Z</time>
      </trkpt>
      <trkpt lat="48.11631" lon="-0.58852">
        <ele>170</ele>
        <time>2009-10-25T11:18:50Z</time>
      </trkpt>
      <trkpt lat="48.11631" lon="-0.58852">
        <ele>170</ele>
        <time>2009-10-25T11:18:54Z</time>
      </trkpt>
      <trkpt lat="48.11631" lon="-0.58852">
        <ele>170</ele>
        <time>2009-10-25T11:18:58Z</time>
      </trkpt>
      <trkpt lat="48.11631" lon="-0.58852">
        <ele>170</ele>
        <time>2009-10-25T11:19:02Z</time>
      </trkpt>
      <trkpt lat="48.11631" lon="-0.58852">
        <ele>170</ele>
        <time>2009-10-25T11:19:06Z</time>
      </trkpt>
      <trkpt lat="48.11631" lon="-0.58852">
        <ele>170</ele>
        <time>2009-10-25T11:19:10Z</time>
      </trkpt>
      <trkpt lat="48.11631" lon="-0.58852">
        <ele>170</ele>
        <time>2009-10-25T11:19:14Z</time>
      </trkpt>
      <trkpt lat="48.11631" lon="-0.58852">
        <ele>171</ele>
        <time>2009-10-25T11:19:18Z</time>
      </trkpt>
      <trkpt lat="48.11631" lon="-0.58852">
        <ele>170</ele>
        <time>2009-10-25T11:19:22Z</time>
      </trkpt>
      <trkpt lat="48.11631" lon="-0.58852">
        <ele>171</ele>
        <time>2009-10-25T11:19:26Z</time>
      </trkpt>
      <trkpt lat="48.11631" lon="-0.58852">
        <ele>171</ele>
        <time>2009-10-25T11:19:30Z</time>
      </trkpt>
      <trkpt lat="48.1163" lon="-0.58852">
        <ele>171</ele>
        <time>2009-10-25T11:19:34Z</time>
      </trkpt>
      <trkpt lat="48.1163" lon="-0.58852">
        <ele>171</ele>
        <time>2009-10-25T11:19:38Z</time>
      </trkpt>
      <trkpt lat="48.1163" lon="-0.58851">
        <ele>171</ele>
        <time>2009-10-25T11:19:42Z</time>
      </trkpt>
      <trkpt lat="48.1163" lon="-0.58851">
        <ele>171</ele>
        <time>2009-10-25T11:19:46Z</time>
      </trkpt>
      <trkpt lat="48.1163" lon="-0.58851">
        <ele>171</ele>
        <time>2009-10-25T11:19:50Z</time>
      </trkpt>
      <trkpt lat="48.1163" lon="-0.58851">
        <ele>171</ele>
        <time>2009-10-25T11:19:54Z</time>
      </trkpt>
      <trkpt lat="48.1163" lon="-0.58851">
        <ele>171</ele>
        <time>2009-10-25T11:19:58Z</time>
      </trkpt>
      <trkpt lat="48.1163" lon="-0.58851">
        <ele>171</ele>
        <time>2009-10-25T11:20:02Z</time>
      </trkpt>
      <trkpt lat="48.1163" lon="-0.58851">
        <ele>171</ele>
        <time>2009-10-25T11:20:06Z</time>
      </trkpt>
      <trkpt lat="48.1163" lon="-0.58851">
        <ele>171</ele>
        <time>2009-10-25T11:20:10Z</time>
      </trkpt>
      <trkpt lat="48.1163" lon="-0.58851">
        <ele>171</ele>
        <time>2009-10-25T11:20:14Z</time>
      </trkpt>
      <trkpt lat="48.1163" lon="-0.58851">
        <ele>171</ele>
        <time>2009-10-25T11:20:18Z</time>
      </trkpt>
      <trkpt lat="48.1163" lon="-0.58851">
        <ele>171</ele>
        <time>2009-10-25T11:20:22Z</time>
      </trkpt>
      <trkpt lat="48.1163" lon="-0.58851">
        <ele>171</ele>
        <time>2009-10-25T11:20:26Z</time>
      </trkpt>
      <trkpt lat="48.1163" lon="-0.58851">
        <ele>171</ele>
        <time>2009-10-25T11:20:30Z</time>
      </trkpt>
      <trkpt lat="48.1163" lon="-0.58851">
        <ele>171</ele>
        <time>2009-10-25T11:20:34Z</time>
      </trkpt>
      <trkpt lat="48.1163" lon="-0.58851">
        <ele>171</ele>
        <time>2009-10-25T11:20:38Z</time>
      </trkpt>
      <trkpt lat="48.1163" lon="-0.5885">
        <ele>171</ele>
        <time>2009-10-25T11:20:42Z</time>
      </trkpt>
      <trkpt lat="48.1163" lon="-0.58851">
        <ele>171</ele>
        <time>2009-10-25T11:20:46Z</time>
      </trkpt>
      <trkpt lat="48.1163" lon="-0.5885">
        <ele>171</ele>
        <time>2009-10-25T11:20:50Z</time>
      </trkpt>
      <trkpt lat="48.11629" lon="-0.5885">
        <ele>171</ele>
        <time>2009-10-25T11:20:54Z</time>
      </trkpt>
      <trkpt lat="48.1163" lon="-0.5885">
        <ele>171</ele>
        <time>2009-10-25T11:20:58Z</time>
      </trkpt>
      <trkpt lat="48.1163" lon="-0.58846">
        <ele>174</ele>
        <time>2009-10-25T11:21:02Z</time>
      </trkpt>
      <trkpt lat="48.11631" lon="-0.58846">
        <ele>174</ele>
        <time>2009-10-25T11:21:06Z</time>
      </trkpt>
      <trkpt lat="48.11631" lon="-0.58844">
        <ele>174</ele>
        <time>2009-10-25T11:21:10Z</time>
      </trkpt>
      <trkpt lat="48.1163" lon="-0.58844">
        <ele>175</ele>
        <time>2009-10-25T11:21:14Z</time>
      </trkpt>
      <trkpt lat="48.11629" lon="-0.58844">
        <ele>175</ele>
        <time>2009-10-25T11:21:18Z</time>
      </trkpt>
      <trkpt lat="48.11629" lon="-0.58846">
        <ele>175</ele>
        <time>2009-10-25T11:21:22Z</time>
      </trkpt>
      <trkpt lat="48.11629" lon="-0.58847">
        <ele>176</ele>
        <time>2009-10-25T11:21:26Z</time>
      </trkpt>
      <trkpt lat="48.11629" lon="-0.58844">
        <ele>176</ele>
        <time>2009-10-25T11:21:30Z</time>
      </trkpt>
      <trkpt lat="48.11629" lon="-0.58844">
        <ele>176</ele>
        <time>2009-10-25T11:21:34Z</time>
      </trkpt>
      <trkpt lat="48.11629" lon="-0.58844">
        <ele>176</ele>
        <time>2009-10-25T11:21:38Z</time>
      </trkpt>
      <trkpt lat="48.11629" lon="-0.58843">
        <ele>176</ele>
        <time>2009-10-25T11:21:42Z</time>
      </trkpt>
      <trkpt lat="48.11629" lon="-0.58843">
        <ele>176</ele>
        <time>2009-10-25T11:21:46Z</time>
      </trkpt>
      <trkpt lat="48.11629" lon="-0.58843">
        <ele>176</ele>
        <time>2009-10-25T11:21:50Z</time>
      </trkpt>
      <trkpt lat="48.1163" lon="-0.58843">
        <ele>175</ele>
        <time>2009-10-25T11:21:54Z</time>
      </trkpt>
      <trkpt lat="48.1163" lon="-0.58843">
        <ele>174</ele>
        <time>2009-10-25T11:21:58Z</time>
      </trkpt>
      <trkpt lat="48.1163" lon="-0.58843">
        <ele>174</ele>
        <time>2009-10-25T11:22:02Z</time>
      </trkpt>
      <trkpt lat="48.11629" lon="-0.58842">
        <ele>174</ele>
        <time>2009-10-25T11:22:06Z</time>
      </trkpt>
      <trkpt lat="48.11629" lon="-0.58842">
        <ele>174</ele>
        <time>2009-10-25T11:22:10Z</time>
      </trkpt>
      <trkpt lat="48.1163" lon="-0.58842">
        <ele>174</ele>
        <time>2009-10-25T11:22:14Z</time>
      </trkpt>
      <trkpt lat="48.1163" lon="-0.58842">
        <ele>175</ele>
        <time>2009-10-25T11:22:18Z</time>
      </trkpt>
      <trkpt lat="48.1163" lon="-0.58842">
        <ele>174</ele>
        <time>2009-10-25T11:22:22Z</time>
      </trkpt>
      <trkpt lat="48.1163" lon="-0.58842">
        <ele>174</ele>
        <time>2009-10-25T11:22:26Z</time>
      </trkpt>
      <trkpt lat="48.11637" lon="-0.5884">
        <ele>174</ele>
        <time>2009-10-25T11:22:30Z</time>
      </trkpt>
      <trkpt lat="48.11644" lon="-0.5884">
        <ele>174</ele>
        <time>2009-10-25T11:22:34Z</time>
      </trkpt>
      <trkpt lat="48.1165" lon="-0.58839">
        <ele>175</ele>
        <time>2009-10-25T11:22:38Z</time>
      </trkpt>
      <trkpt lat="48.11657" lon="-0.58839">
        <ele>176</ele>
        <time>2009-10-25T11:22:42Z</time>
      </trkpt>
      <trkpt lat="48.11667" lon="-0.58837">
        <ele>176</ele>
        <time>2009-10-25T11:22:46Z</time>
      </trkpt>
      <trkpt lat="48.11678" lon="-0.58835">
        <ele>175</ele>
        <time>2009-10-25T11:22:50Z</time>
      </trkpt>
      <trkpt lat="48.11694" lon="-0.58833">
        <ele>175</ele>
        <time>2009-10-25T11:22:54Z</time>
      </trkpt>
      <trkpt lat="48.11713" lon="-0.5883">
        <ele>174</ele>
        <time>2009-10-25T11:22:58Z</time>
      </trkpt>
      <trkpt lat="48.11737" lon="-0.58826">
        <ele>173</ele>
        <time>2009-10-25T11:23:02Z</time>
      </trkpt>
      <trkpt lat="48.11765" lon="-0.5882">
        <ele>172</ele>
        <time>2009-10-25T11:23:06Z</time>
      </trkpt>
      <trkpt lat="48.118" lon="-0.58815">
        <ele>170</ele>
        <time>2009-10-25T11:23:10Z</time>
      </trkpt>
      <trkpt lat="48.11838" lon="-0.58809">
        <ele>167</ele>
        <time>2009-10-25T11:23:14Z</time>
      </trkpt>
      <trkpt lat="48.11879" lon="-0.58802">
        <ele>165</ele>
        <time>2009-10-25T11:23:18Z</time>
      </trkpt>
      <trkpt lat="48.11922" lon="-0.58793">
        <ele>163</ele>
        <time>2009-10-25T11:23:22Z</time>
      </trkpt>
      <trkpt lat="48.11958" lon="-0.58787">
        <ele>160</ele>
        <time>2009-10-25T11:23:26Z</time>
      </trkpt>
      <trkpt lat="48.11983" lon="-0.5879">
        <ele>160</ele>
        <time>2009-10-25T11:23:30Z</time>
      </trkpt>
      <trkpt lat="48.11992" lon="-0.58814">
        <ele>159</ele>
        <time>2009-10-25T11:23:34Z</time>
      </trkpt>
      <trkpt lat="48.11998" lon="-0.58836">
        <ele>160</ele>
        <time>2009-10-25T11:23:38Z</time>
      </trkpt>
      <trkpt lat="48.12002" lon="-0.58851">
        <ele>160</ele>
        <time>2009-10-25T11:23:42Z</time>
      </trkpt>
      <trkpt lat="48.12009" lon="-0.58871">
        <ele>160</ele>
        <time>2009-10-25T11:23:46Z</time>
      </trkpt>
      <trkpt lat="48.12014" lon="-0.58893">
        <ele>160</ele>
        <time>2009-10-25T11:23:50Z</time>
      </trkpt>
      <trkpt lat="48.1202" lon="-0.58916">
        <ele>161</ele>
        <time>2009-10-25T11:23:54Z</time>
      </trkpt>
      <trkpt lat="48.12026" lon="-0.58937">
        <ele>161</ele>
        <time>2009-10-25T11:23:58Z</time>
      </trkpt>
      <trkpt lat="48.12033" lon="-0.58963">
        <ele>163</ele>
        <time>2009-10-25T11:24:02Z</time>
      </trkpt>
      <trkpt lat="48.1204" lon="-0.58982">
        <ele>163</ele>
        <time>2009-10-25T11:24:06Z</time>
      </trkpt>
      <trkpt lat="48.12045" lon="-0.59002">
        <ele>163</ele>
        <time>2009-10-25T11:24:10Z</time>
      </trkpt>
      <trkpt lat="48.12053" lon="-0.59022">
        <ele>163</ele>
        <time>2009-10-25T11:24:15Z</time>
      </trkpt>
      <trkpt lat="48.12059" lon="-0.59045">
        <ele>163</ele>
        <time>2009-10-25T11:24:19Z</time>
      </trkpt>
      <trkpt lat="48.1207" lon="-0.59059">
        <ele>162</ele>
        <time>2009-10-25T11:24:23Z</time>
      </trkpt>
      <trkpt lat="48.1208" lon="-0.59054">
        <ele>162</ele>
        <time>2009-10-25T11:24:27Z</time>
      </trkpt>
      <trkpt lat="48.1209" lon="-0.59046">
        <ele>161</ele>
        <time>2009-10-25T11:24:31Z</time>
      </trkpt>
      <trkpt lat="48.12102" lon="-0.59033">
        <ele>161</ele>
        <time>2009-10-25T11:24:35Z</time>
      </trkpt>
      <trkpt lat="48.12116" lon="-0.59016">
        <ele>162</ele>
        <time>2009-10-25T11:24:39Z</time>
      </trkpt>
      <trkpt lat="48.12127" lon="-0.59001">
        <ele>162</ele>
        <time>2009-10-25T11:24:43Z</time>
      </trkpt>
      <trkpt lat="48.12139" lon="-0.58998">
        <ele>162</ele>
        <time>2009-10-25T11:24:47Z</time>
      </trkpt>
      <trkpt lat="48.1215" lon="-0.59008">
        <ele>162</ele>
        <time>2009-10-25T11:24:51Z</time>
      </trkpt>
      <trkpt lat="48.1216" lon="-0.59026">
        <ele>162</ele>
        <time>2009-10-25T11:24:55Z</time>
      </trkpt>
      <trkpt lat="48.12172" lon="-0.59047">
        <ele>160</ele>
        <time>2009-10-25T11:24:59Z</time>
      </trkpt>
      <trkpt lat="48.12179" lon="-0.5906">
        <ele>160</ele>
        <time>2009-10-25T11:25:03Z</time>
      </trkpt>
      <trkpt lat="48.12182" lon="-0.5907">
        <ele>159</ele>
        <time>2009-10-25T11:25:07Z</time>
      </trkpt>
      <trkpt lat="48.12174" lon="-0.59081">
        <ele>159</ele>
        <time>2009-10-25T11:25:11Z</time>
      </trkpt>
      <trkpt lat="48.12165" lon="-0.59099">
        <ele>158</ele>
        <time>2009-10-25T11:25:15Z</time>
      </trkpt>
      <trkpt lat="48.12162" lon="-0.59128">
        <ele>156</ele>
        <time>2009-10-25T11:25:19Z</time>
      </trkpt>
      <trkpt lat="48.1215" lon="-0.59155">
        <ele>156</ele>
        <time>2009-10-25T11:25:23Z</time>
      </trkpt>
      <trkpt lat="48.12137" lon="-0.59171">
        <ele>156</ele>
        <time>2009-10-25T11:25:27Z</time>
      </trkpt>
      <trkpt lat="48.12136" lon="-0.59193">
        <ele>155</ele>
        <time>2009-10-25T11:25:31Z</time>
      </trkpt>
      <trkpt lat="48.12148" lon="-0.59215">
        <ele>154</ele>
        <time>2009-10-25T11:25:35Z</time>
      </trkpt>
      <trkpt lat="48.12164" lon="-0.59241">
        <ele>153</ele>
        <time>2009-10-25T11:25:39Z</time>
      </trkpt>
      <trkpt lat="48.12179" lon="-0.59273">
        <ele>151</ele>
        <time>2009-10-25T11:25:43Z</time>
      </trkpt>
      <trkpt lat="48.12187" lon="-0.59315">
        <ele>149</ele>
        <time>2009-10-25T11:25:47Z</time>
      </trkpt>
      <trkpt lat="48.12183" lon="-0.59361">
        <ele>148</ele>
        <time>2009-10-25T11:25:51Z</time>
      </trkpt>
      <trkpt lat="48.12165" lon="-0.59402">
        <ele>146</ele>
        <time>2009-10-25T11:25:55Z</time>
      </trkpt>
      <trkpt lat="48.12153" lon="-0.59446">
        <ele>145</ele>
        <time>2009-10-25T11:25:59Z</time>
      </trkpt>
      <trkpt lat="48.12156" lon="-0.5949">
        <ele>143</ele>
        <time>2009-10-25T11:26:03Z</time>
      </trkpt>
      <trkpt lat="48.12169" lon="-0.59515">
        <ele>141</ele>
        <time>2009-10-25T11:26:07Z</time>
      </trkpt>
      <trkpt lat="48.12189" lon="-0.59502">
        <ele>142</ele>
        <time>2009-10-25T11:26:11Z</time>
      </trkpt>
      <trkpt lat="48.12206" lon="-0.59488">
        <ele>142</ele>
        <time>2009-10-25T11:26:15Z</time>
      </trkpt>
      <trkpt lat="48.12221" lon="-0.59479">
        <ele>145</ele>
        <time>2009-10-25T11:26:19Z</time>
      </trkpt>
      <trkpt lat="48.1224" lon="-0.59476">
        <ele>148</ele>
        <time>2009-10-25T11:26:23Z</time>
      </trkpt>
      <trkpt lat="48.12261" lon="-0.59468">
        <ele>150</ele>
        <time>2009-10-25T11:26:27Z</time>
      </trkpt>
      <trkpt lat="48.12281" lon="-0.59449">
        <ele>150</ele>
        <time>2009-10-25T11:26:31Z</time>
      </trkpt>
      <trkpt lat="48.12304" lon="-0.59424">
        <ele>148</ele>
        <time>2009-10-25T11:26:35Z</time>
      </trkpt>
      <trkpt lat="48.1233" lon="-0.59393">
        <ele>146</ele>
        <time>2009-10-25T11:26:39Z</time>
      </trkpt>
      <trkpt lat="48.1236" lon="-0.59361">
        <ele>143</ele>
        <time>2009-10-25T11:26:43Z</time>
      </trkpt>
      <trkpt lat="48.12392" lon="-0.59327">
        <ele>141</ele>
        <time>2009-10-25T11:26:47Z</time>
      </trkpt>
      <trkpt lat="48.12421" lon="-0.59291">
        <ele>139</ele>
        <time>2009-10-25T11:26:51Z</time>
      </trkpt>
      <trkpt lat="48.12447" lon="-0.59252">
        <ele>138</ele>
        <time>2009-10-25T11:26:55Z</time>
      </trkpt>
      <trkpt lat="48.12466" lon="-0.59212">
        <ele>137</ele>
        <time>2009-10-25T11:26:59Z</time>
      </trkpt>
      <trkpt lat="48.12481" lon="-0.59173">
        <ele>137</ele>
        <time>2009-10-25T11:27:03Z</time>
      </trkpt>
      <trkpt lat="48.12493" lon="-0.59135">
        <ele>137</ele>
        <time>2009-10-25T11:27:07Z</time>
      </trkpt>
      <trkpt lat="48.12505" lon="-0.59096">
        <ele>137</ele>
        <time>2009-10-25T11:27:11Z</time>
      </trkpt>
      <trkpt lat="48.12517" lon="-0.59058">
        <ele>136</ele>
        <time>2009-10-25T11:27:15Z</time>
      </trkpt>
      <trkpt lat="48.1253" lon="-0.59017">
        <ele>136</ele>
        <time>2009-10-25T11:27:19Z</time>
      </trkpt>
      <trkpt lat="48.12544" lon="-0.58971">
        <ele>135</ele>
        <time>2009-10-25T11:27:23Z</time>
      </trkpt>
      <trkpt lat="48.1256" lon="-0.5892">
        <ele>136</ele>
        <time>2009-10-25T11:27:27Z</time>
      </trkpt>
      <trkpt lat="48.12576" lon="-0.58873">
        <ele>137</ele>
        <time>2009-10-25T11:27:31Z</time>
      </trkpt>
      <trkpt lat="48.12589" lon="-0.58826">
        <ele>138</ele>
        <time>2009-10-25T11:27:35Z</time>
      </trkpt>
      <trkpt lat="48.12601" lon="-0.58788">
        <ele>138</ele>
        <time>2009-10-25T11:27:39Z</time>
      </trkpt>
      <trkpt lat="48.12611" lon="-0.58755">
        <ele>138</ele>
        <time>2009-10-25T11:27:43Z</time>
      </trkpt>
      <trkpt lat="48.12604" lon="-0.58729">
        <ele>140</ele>
        <time>2009-10-25T11:27:47Z</time>
      </trkpt>
      <trkpt lat="48.12593" lon="-0.58705">
        <ele>140</ele>
        <time>2009-10-25T11:27:51Z</time>
      </trkpt>
      <trkpt lat="48.12582" lon="-0.58683">
        <ele>140</ele>
        <time>2009-10-25T11:27:55Z</time>
      </trkpt>
      <trkpt lat="48.12573" lon="-0.58659">
        <ele>139</ele>
        <time>2009-10-25T11:27:59Z</time>
      </trkpt>
      <trkpt lat="48.12564" lon="-0.58637">
        <ele>139</ele>
        <time>2009-10-25T11:28:03Z</time>
      </trkpt>
      <trkpt lat="48.12555" lon="-0.58618">
        <ele>140</ele>
        <time>2009-10-25T11:28:07Z</time>
      </trkpt>
      <trkpt lat="48.12546" lon="-0.58598">
        <ele>139</ele>
        <time>2009-10-25T11:28:11Z</time>
      </trkpt>
      <trkpt lat="48.12539" lon="-0.5858">
        <ele>139</ele>
        <time>2009-10-25T11:28:15Z</time>
      </trkpt>
      <trkpt lat="48.12532" lon="-0.58561">
        <ele>141</ele>
        <time>2009-10-25T11:28:19Z</time>
      </trkpt>
      <trkpt lat="48.12525" lon="-0.58543">
        <ele>141</ele>
        <time>2009-10-25T11:28:23Z</time>
      </trkpt>
      <trkpt lat="48.12519" lon="-0.58526">
        <ele>142</ele>
        <time>2009-10-25T11:28:27Z</time>
      </trkpt>
      <trkpt lat="48.12514" lon="-0.58507">
        <ele>143</ele>
        <time>2009-10-25T11:28:31Z</time>
      </trkpt>
      <trkpt lat="48.12507" lon="-0.58487">
        <ele>145</ele>
        <time>2009-10-25T11:28:35Z</time>
      </trkpt>
      <trkpt lat="48.12502" lon="-0.58467">
        <ele>147</ele>
        <time>2009-10-25T11:28:39Z</time>
      </trkpt>
      <trkpt lat="48.12498" lon="-0.58446">
        <ele>148</ele>
        <time>2009-10-25T11:28:43Z</time>
      </trkpt>
      <trkpt lat="48.12494" lon="-0.58429">
        <ele>150</ele>
        <time>2009-10-25T11:28:47Z</time>
      </trkpt>
      <trkpt lat="48.1249" lon="-0.58413">
        <ele>149</ele>
        <time>2009-10-25T11:28:51Z</time>
      </trkpt>
      <trkpt lat="48.12486" lon="-0.58397">
        <ele>149</ele>
        <time>2009-10-25T11:28:55Z</time>
      </trkpt>
      <trkpt lat="48.12483" lon="-0.58381">
        <ele>149</ele>
        <time>2009-10-25T11:28:59Z</time>
      </trkpt>
      <trkpt lat="48.1248" lon="-0.58366">
        <ele>151</ele>
        <time>2009-10-25T11:29:03Z</time>
      </trkpt>
      <trkpt lat="48.12477" lon="-0.5835">
        <ele>151</ele>
        <time>2009-10-25T11:29:07Z</time>
      </trkpt>
      <trkpt lat="48.12474" lon="-0.58336">
        <ele>152</ele>
        <time>2009-10-25T11:29:11Z</time>
      </trkpt>
      <trkpt lat="48.12471" lon="-0.5832">
        <ele>153</ele>
        <time>2009-10-25T11:29:15Z</time>
      </trkpt>
      <trkpt lat="48.12469" lon="-0.58301">
        <ele>151</ele>
        <time>2009-10-25T11:29:19Z</time>
      </trkpt>
      <trkpt lat="48.12471" lon="-0.58282">
        <ele>148</ele>
        <time>2009-10-25T11:29:23Z</time>
      </trkpt>
      <trkpt lat="48.1248" lon="-0.58264">
        <ele>146</ele>
        <time>2009-10-25T11:29:27Z</time>
      </trkpt>
      <trkpt lat="48.12487" lon="-0.58246">
        <ele>146</ele>
        <time>2009-10-25T11:29:31Z</time>
      </trkpt>
      <trkpt lat="48.12491" lon="-0.58222">
        <ele>149</ele>
        <time>2009-10-25T11:29:35Z</time>
      </trkpt>
      <trkpt lat="48.12491" lon="-0.58202">
        <ele>150</ele>
        <time>2009-10-25T11:29:39Z</time>
      </trkpt>
      <trkpt lat="48.1249" lon="-0.58178">
        <ele>152</ele>
        <time>2009-10-25T11:29:43Z</time>
      </trkpt>
      <trkpt lat="48.1249" lon="-0.58156">
        <ele>152</ele>
        <time>2009-10-25T11:29:47Z</time>
      </trkpt>
      <trkpt lat="48.12489" lon="-0.58135">
        <ele>154</ele>
        <time>2009-10-25T11:29:51Z</time>
      </trkpt>
      <trkpt lat="48.12481" lon="-0.5812">
        <ele>154</ele>
        <time>2009-10-25T11:29:55Z</time>
      </trkpt>
      <trkpt lat="48.12465" lon="-0.58113">
        <ele>156</ele>
        <time>2009-10-25T11:29:59Z</time>
      </trkpt>
      <trkpt lat="48.12457" lon="-0.58096">
        <ele>158</ele>
        <time>2009-10-25T11:30:03Z</time>
      </trkpt>
      <trkpt lat="48.12456" lon="-0.58075">
        <ele>158</ele>
        <time>2009-10-25T11:30:07Z</time>
      </trkpt>
      <trkpt lat="48.12456" lon="-0.58054">
        <ele>159</ele>
        <time>2009-10-25T11:30:11Z</time>
      </trkpt>
      <trkpt lat="48.12456" lon="-0.58034">
        <ele>159</ele>
        <time>2009-10-25T11:30:15Z</time>
      </trkpt>
      <trkpt lat="48.12456" lon="-0.58018">
        <ele>160</ele>
        <time>2009-10-25T11:30:19Z</time>
      </trkpt>
      <trkpt lat="48.12455" lon="-0.57999">
        <ele>160</ele>
        <time>2009-10-25T11:30:23Z</time>
      </trkpt>
      <trkpt lat="48.12455" lon="-0.57982">
        <ele>160</ele>
        <time>2009-10-25T11:30:27Z</time>
      </trkpt>
      <trkpt lat="48.12453" lon="-0.57966">
        <ele>160</ele>
        <time>2009-10-25T11:30:31Z</time>
      </trkpt>
      <trkpt lat="48.12451" lon="-0.57948">
        <ele>161</ele>
        <time>2009-10-25T11:30:35Z</time>
      </trkpt>
      <trkpt lat="48.12451" lon="-0.57931">
        <ele>163</ele>
        <time>2009-10-25T11:30:39Z</time>
      </trkpt>
      <trkpt lat="48.1245" lon="-0.57911">
        <ele>165</ele>
        <time>2009-10-25T11:30:43Z</time>
      </trkpt>
      <trkpt lat="48.1245" lon="-0.57893">
        <ele>168</ele>
        <time>2009-10-25T11:30:47Z</time>
      </trkpt>
      <trkpt lat="48.12451" lon="-0.57873">
        <ele>169</ele>
        <time>2009-10-25T11:30:51Z</time>
      </trkpt>
      <trkpt lat="48.1245" lon="-0.57852">
        <ele>171</ele>
        <time>2009-10-25T11:30:55Z</time>
      </trkpt>
      <trkpt lat="48.12446" lon="-0.57828">
        <ele>170</ele>
        <time>2009-10-25T11:30:59Z</time>
      </trkpt>
      <trkpt lat="48.12446" lon="-0.57806">
        <ele>170</ele>
        <time>2009-10-25T11:31:03Z</time>
      </trkpt>
      <trkpt lat="48.12447" lon="-0.57783">
        <ele>169</ele>
        <time>2009-10-25T11:31:07Z</time>
      </trkpt>
      <trkpt lat="48.12451" lon="-0.57758">
        <ele>169</ele>
        <time>2009-10-25T11:31:11Z</time>
      </trkpt>
      <trkpt lat="48.12457" lon="-0.57736">
        <ele>167</ele>
        <time>2009-10-25T11:31:15Z</time>
      </trkpt>
      <trkpt lat="48.12465" lon="-0.57711">
        <ele>165</ele>
        <time>2009-10-25T11:31:19Z</time>
      </trkpt>
      <trkpt lat="48.12468" lon="-0.57679">
        <ele>164</ele>
        <time>2009-10-25T11:31:23Z</time>
      </trkpt>
      <trkpt lat="48.12469" lon="-0.57641">
        <ele>164</ele>
        <time>2009-10-25T11:31:27Z</time>
      </trkpt>
      <trkpt lat="48.1247" lon="-0.57603">
        <ele>162</ele>
        <time>2009-10-25T11:31:31Z</time>
      </trkpt>
      <trkpt lat="48.12474" lon="-0.57562">
        <ele>163</ele>
        <time>2009-10-25T11:31:35Z</time>
      </trkpt>
      <trkpt lat="48.12482" lon="-0.57526">
        <ele>163</ele>
        <time>2009-10-25T11:31:39Z</time>
      </trkpt>
      <trkpt lat="48.12489" lon="-0.57492">
        <ele>163</ele>
        <time>2009-10-25T11:31:43Z</time>
      </trkpt>
      <trkpt lat="48.12486" lon="-0.57475">
        <ele>165</ele>
        <time>2009-10-25T11:31:47Z</time>
      </trkpt>
      <trkpt lat="48.12481" lon="-0.57462">
        <ele>166</ele>
        <time>2009-10-25T11:31:51Z</time>
      </trkpt>
      <trkpt lat="48.12475" lon="-0.57447">
        <ele>166</ele>
        <time>2009-10-25T11:31:55Z</time>
      </trkpt>
      <trkpt lat="48.12469" lon="-0.57433">
        <ele>166</ele>
        <time>2009-10-25T11:31:59Z</time>
      </trkpt>
      <trkpt lat="48.12463" lon="-0.57418">
        <ele>167</ele>
        <time>2009-10-25T11:32:03Z</time>
      </trkpt>
      <trkpt lat="48.12457" lon="-0.57401">
        <ele>168</ele>
        <time>2009-10-25T11:32:08Z</time>
      </trkpt>
      <trkpt lat="48.12452" lon="-0.57388">
        <ele>169</ele>
        <time>2009-10-25T11:32:12Z</time>
      </trkpt>
      <trkpt lat="48.12449" lon="-0.57377">
        <ele>170</ele>
        <time>2009-10-25T11:32:16Z</time>
      </trkpt>
      <trkpt lat="48.12445" lon="-0.57364">
        <ele>170</ele>
        <time>2009-10-25T11:32:20Z</time>
      </trkpt>
      <trkpt lat="48.12441" lon="-0.57345">
        <ele>171</ele>
        <time>2009-10-25T11:32:24Z</time>
      </trkpt>
      <trkpt lat="48.12436" lon="-0.57332">
        <ele>171</ele>
        <time>2009-10-25T11:32:28Z</time>
      </trkpt>
      <trkpt lat="48.12427" lon="-0.57325">
        <ele>171</ele>
        <time>2009-10-25T11:32:33Z</time>
      </trkpt>
      <trkpt lat="48.12416" lon="-0.57316">
        <ele>171</ele>
        <time>2009-10-25T11:32:37Z</time>
      </trkpt>
      <trkpt lat="48.12405" lon="-0.57306">
        <ele>172</ele>
        <time>2009-10-25T11:32:41Z</time>
      </trkpt>
      <trkpt lat="48.12392" lon="-0.57293">
        <ele>172</ele>
        <time>2009-10-25T11:32:45Z</time>
      </trkpt>
      <trkpt lat="48.12379" lon="-0.57279">
        <ele>172</ele>
        <time>2009-10-25T11:32:49Z</time>
      </trkpt>
      <trkpt lat="48.1237" lon="-0.57267">
        <ele>171</ele>
        <time>2009-10-25T11:32:53Z</time>
      </trkpt>
      <trkpt lat="48.1237" lon="-0.57253">
        <ele>171</ele>
        <time>2009-10-25T11:32:57Z</time>
      </trkpt>
      <trkpt lat="48.12377" lon="-0.57236">
        <ele>169</ele>
        <time>2009-10-25T11:33:01Z</time>
      </trkpt>
      <trkpt lat="48.12383" lon="-0.57212">
        <ele>170</ele>
        <time>2009-10-25T11:33:05Z</time>
      </trkpt>
      <trkpt lat="48.12388" lon="-0.57187">
        <ele>168</ele>
        <time>2009-10-25T11:33:09Z</time>
      </trkpt>
      <trkpt lat="48.12391" lon="-0.57161">
        <ele>168</ele>
        <time>2009-10-25T11:33:13Z</time>
      </trkpt>
      <trkpt lat="48.12394" lon="-0.57133">
        <ele>168</ele>
        <time>2009-10-25T11:33:17Z</time>
      </trkpt>
      <trkpt lat="48.124" lon="-0.57105">
        <ele>168</ele>
        <time>2009-10-25T11:33:21Z</time>
      </trkpt>
      <trkpt lat="48.12405" lon="-0.5708">
        <ele>168</ele>
        <time>2009-10-25T11:33:25Z</time>
      </trkpt>
      <trkpt lat="48.12409" lon="-0.57055">
        <ele>167</ele>
        <time>2009-10-25T11:33:29Z</time>
      </trkpt>
      <trkpt lat="48.12414" lon="-0.57032">
        <ele>165</ele>
        <time>2009-10-25T11:33:33Z</time>
      </trkpt>
      <trkpt lat="48.12419" lon="-0.57009">
        <ele>166</ele>
        <time>2009-10-25T11:33:37Z</time>
      </trkpt>
      <trkpt lat="48.12424" lon="-0.56991">
        <ele>167</ele>
        <time>2009-10-25T11:33:41Z</time>
      </trkpt>
      <trkpt lat="48.12425" lon="-0.56985">
        <ele>169</ele>
        <time>2009-10-25T11:33:45Z</time>
      </trkpt>
      <trkpt lat="48.12424" lon="-0.56983">
        <ele>170</ele>
        <time>2009-10-25T11:33:49Z</time>
      </trkpt>
      <trkpt lat="48.12424" lon="-0.56981">
        <ele>171</ele>
        <time>2009-10-25T11:33:53Z</time>
      </trkpt>
      <trkpt lat="48.12424" lon="-0.56979">
        <ele>171</ele>
        <time>2009-10-25T11:33:57Z</time>
      </trkpt>
      <trkpt lat="48.12424" lon="-0.56979">
        <ele>171</ele>
        <time>2009-10-25T11:34:01Z</time>
      </trkpt>
      <trkpt lat="48.12423" lon="-0.56978">
        <ele>171</ele>
        <time>2009-10-25T11:34:05Z</time>
      </trkpt>
      <trkpt lat="48.12423" lon="-0.56977">
        <ele>172</ele>
        <time>2009-10-25T11:34:09Z</time>
      </trkpt>
      <trkpt lat="48.12423" lon="-0.56977">
        <ele>172</ele>
        <time>2009-10-25T11:34:13Z</time>
      </trkpt>
      <trkpt lat="48.12422" lon="-0.56975">
        <ele>172</ele>
        <time>2009-10-25T11:34:17Z</time>
      </trkpt>
      <trkpt lat="48.12422" lon="-0.56974">
        <ele>171</ele>
        <time>2009-10-25T11:34:21Z</time>
      </trkpt>
      <trkpt lat="48.12422" lon="-0.56974">
        <ele>172</ele>
        <time>2009-10-25T11:34:25Z</time>
      </trkpt>
      <trkpt lat="48.12422" lon="-0.56973">
        <ele>172</ele>
        <time>2009-10-25T11:34:29Z</time>
      </trkpt>
      <trkpt lat="48.12422" lon="-0.56973">
        <ele>172</ele>
        <time>2009-10-25T11:34:33Z</time>
      </trkpt>
      <trkpt lat="48.12422" lon="-0.56971">
        <ele>172</ele>
        <time>2009-10-25T11:34:37Z</time>
      </trkpt>
      <trkpt lat="48.12422" lon="-0.56971">
        <ele>172</ele>
        <time>2009-10-25T11:34:41Z</time>
      </trkpt>
      <trkpt lat="48.12423" lon="-0.5697">
        <ele>172</ele>
        <time>2009-10-25T11:34:45Z</time>
      </trkpt>
      <trkpt lat="48.12423" lon="-0.5697">
        <ele>172</ele>
        <time>2009-10-25T11:34:49Z</time>
      </trkpt>
      <trkpt lat="48.12424" lon="-0.5697">
        <ele>171</ele>
        <time>2009-10-25T11:34:53Z</time>
      </trkpt>
      <trkpt lat="48.12424" lon="-0.5697">
        <ele>171</ele>
        <time>2009-10-25T11:34:57Z</time>
      </trkpt>
      <trkpt lat="48.12424" lon="-0.5697">
        <ele>171</ele>
        <time>2009-10-25T11:35:01Z</time>
      </trkpt>
      <trkpt lat="48.12424" lon="-0.5697">
        <ele>170</ele>
        <time>2009-10-25T11:35:05Z</time>
      </trkpt>
      <trkpt lat="48.12424" lon="-0.56969">
        <ele>170</ele>
        <time>2009-10-25T11:35:09Z</time>
      </trkpt>
      <trkpt lat="48.12424" lon="-0.5697">
        <ele>170</ele>
        <time>2009-10-25T11:35:13Z</time>
      </trkpt>
      <trkpt lat="48.12424" lon="-0.56969">
        <ele>170</ele>
        <time>2009-10-25T11:35:17Z</time>
      </trkpt>
      <trkpt lat="48.12424" lon="-0.56969">
        <ele>169</ele>
        <time>2009-10-25T11:35:21Z</time>
      </trkpt>
      <trkpt lat="48.12428" lon="-0.56958">
        <ele>172</ele>
        <time>2009-10-25T11:35:25Z</time>
      </trkpt>
      <trkpt lat="48.12432" lon="-0.56943">
        <ele>173</ele>
        <time>2009-10-25T11:35:29Z</time>
      </trkpt>
      <trkpt lat="48.12438" lon="-0.56921">
        <ele>172</ele>
        <time>2009-10-25T11:35:33Z</time>
      </trkpt>
      <trkpt lat="48.12445" lon="-0.569">
        <ele>172</ele>
        <time>2009-10-25T11:35:37Z</time>
      </trkpt>
      <trkpt lat="48.12454" lon="-0.5688">
        <ele>172</ele>
        <time>2009-10-25T11:35:41Z</time>
      </trkpt>
      <trkpt lat="48.12464" lon="-0.56863">
        <ele>168</ele>
        <time>2009-10-25T11:35:45Z</time>
      </trkpt>
      <trkpt lat="48.12473" lon="-0.56845">
        <ele>167</ele>
        <time>2009-10-25T11:35:49Z</time>
      </trkpt>
      <trkpt lat="48.12487" lon="-0.56833">
        <ele>168</ele>
        <time>2009-10-25T11:35:53Z</time>
      </trkpt>
      <trkpt lat="48.12496" lon="-0.56821">
        <ele>169</ele>
        <time>2009-10-25T11:35:57Z</time>
      </trkpt>
      <trkpt lat="48.12505" lon="-0.56801">
        <ele>168</ele>
        <time>2009-10-25T11:36:01Z</time>
      </trkpt>
      <trkpt lat="48.12513" lon="-0.56784">
        <ele>169</ele>
        <time>2009-10-25T11:36:05Z</time>
      </trkpt>
      <trkpt lat="48.12523" lon="-0.56769">
        <ele>168</ele>
        <time>2009-10-25T11:36:09Z</time>
      </trkpt>
      <trkpt lat="48.12532" lon="-0.56751">
        <ele>167</ele>
        <time>2009-10-25T11:36:13Z</time>
      </trkpt>
      <trkpt lat="48.12542" lon="-0.56735">
        <ele>165</ele>
        <time>2009-10-25T11:36:17Z</time>
      </trkpt>
      <trkpt lat="48.12553" lon="-0.56713">
        <ele>165</ele>
        <time>2009-10-25T11:36:21Z</time>
      </trkpt>
      <trkpt lat="48.12564" lon="-0.56691">
        <ele>163</ele>
        <time>2009-10-25T11:36:25Z</time>
      </trkpt>
      <trkpt lat="48.12579" lon="-0.56667">
        <ele>163</ele>
        <time>2009-10-25T11:36:29Z</time>
      </trkpt>
      <trkpt lat="48.1259" lon="-0.56648">
        <ele>162</ele>
        <time>2009-10-25T11:36:33Z</time>
      </trkpt>
      <trkpt lat="48.12602" lon="-0.56627">
        <ele>162</ele>
        <time>2009-10-25T11:36:37Z</time>
      </trkpt>
      <trkpt lat="48.12615" lon="-0.56609">
        <ele>162</ele>
        <time>2009-10-25T11:36:41Z</time>
      </trkpt>
      <trkpt lat="48.12632" lon="-0.56585">
        <ele>161</ele>
        <time>2009-10-25T11:36:45Z</time>
      </trkpt>
      <trkpt lat="48.12648" lon="-0.56564">
        <ele>159</ele>
        <time>2009-10-25T11:36:49Z</time>
      </trkpt>
      <trkpt lat="48.12661" lon="-0.56548">
        <ele>156</ele>
        <time>2009-10-25T11:36:53Z</time>
      </trkpt>
      <trkpt lat="48.1267" lon="-0.56535">
        <ele>152</ele>
        <time>2009-10-25T11:36:57Z</time>
      </trkpt>
      <trkpt lat="48.12678" lon="-0.56525">
        <ele>152</ele>
        <time>2009-10-25T11:37:01Z</time>
      </trkpt>
      <trkpt lat="48.12694" lon="-0.565">
        <ele>146</ele>
        <time>2009-10-25T11:37:05Z</time>
      </trkpt>
      <trkpt lat="48.12716" lon="-0.5647">
        <ele>137</ele>
        <time>2009-10-25T11:37:09Z</time>
      </trkpt>
      <trkpt lat="48.12738" lon="-0.56446">
        <ele>141</ele>
        <time>2009-10-25T11:37:13Z</time>
      </trkpt>
      <trkpt lat="48.1276" lon="-0.56431">
        <ele>146</ele>
        <time>2009-10-25T11:37:17Z</time>
      </trkpt>
      <trkpt lat="48.12782" lon="-0.56418">
        <ele>149</ele>
        <time>2009-10-25T11:37:21Z</time>
      </trkpt>
      <trkpt lat="48.12801" lon="-0.56401">
        <ele>152</ele>
        <time>2009-10-25T11:37:25Z</time>
      </trkpt>
      <trkpt lat="48.12817" lon="-0.56384">
        <ele>152</ele>
        <time>2009-10-25T11:37:29Z</time>
      </trkpt>
      <trkpt lat="48.12828" lon="-0.56366">
        <ele>153</ele>
        <time>2009-10-25T11:37:33Z</time>
      </trkpt>
      <trkpt lat="48.12843" lon="-0.56345">
        <ele>153</ele>
        <time>2009-10-25T11:37:37Z</time>
      </trkpt>
      <trkpt lat="48.12852" lon="-0.56334">
        <ele>154</ele>
        <time>2009-10-25T11:37:41Z</time>
      </trkpt>
      <trkpt lat="48.12861" lon="-0.56323">
        <ele>156</ele>
        <time>2009-10-25T11:37:46Z</time>
      </trkpt>
      <trkpt lat="48.12864" lon="-0.56326">
        <ele>154</ele>
        <time>2009-10-25T11:37:50Z</time>
      </trkpt>
      <trkpt lat="48.12868" lon="-0.56329">
        <ele>150</ele>
        <time>2009-10-25T11:37:54Z</time>
      </trkpt>
      <trkpt lat="48.1287" lon="-0.56331">
        <ele>149</ele>
        <time>2009-10-25T11:37:58Z</time>
      </trkpt>
      <trkpt lat="48.12871" lon="-0.56331">
        <ele>149</ele>
        <time>2009-10-25T11:38:02Z</time>
      </trkpt>
      <trkpt lat="48.12871" lon="-0.56332">
        <ele>148</ele>
        <time>2009-10-25T11:38:06Z</time>
      </trkpt>
      <trkpt lat="48.12872" lon="-0.56332">
        <ele>148</ele>
        <time>2009-10-25T11:38:10Z</time>
      </trkpt>
      <trkpt lat="48.12872" lon="-0.56332">
        <ele>148</ele>
        <time>2009-10-25T11:38:14Z</time>
      </trkpt>
      <trkpt lat="48.12873" lon="-0.56332">
        <ele>148</ele>
        <time>2009-10-25T11:38:18Z</time>
      </trkpt>
      <trkpt lat="48.12875" lon="-0.56329">
        <ele>148</ele>
        <time>2009-10-25T11:38:22Z</time>
      </trkpt>
      <trkpt lat="48.1288" lon="-0.56322">
        <ele>148</ele>
        <time>2009-10-25T11:38:26Z</time>
      </trkpt>
      <trkpt lat="48.12887" lon="-0.56312">
        <ele>149</ele>
        <time>2009-10-25T11:38:30Z</time>
      </trkpt>
      <trkpt lat="48.12896" lon="-0.563">
        <ele>150</ele>
        <time>2009-10-25T11:38:34Z</time>
      </trkpt>
      <trkpt lat="48.12905" lon="-0.56287">
        <ele>150</ele>
        <time>2009-10-25T11:38:38Z</time>
      </trkpt>
      <trkpt lat="48.12914" lon="-0.56276">
        <ele>151</ele>
        <time>2009-10-25T11:38:42Z</time>
      </trkpt>
      <trkpt lat="48.12923" lon="-0.56266">
        <ele>152</ele>
        <time>2009-10-25T11:38:46Z</time>
      </trkpt>
      <trkpt lat="48.12931" lon="-0.56255">
        <ele>154</ele>
        <time>2009-10-25T11:38:50Z</time>
      </trkpt>
      <trkpt lat="48.12942" lon="-0.56243">
        <ele>155</ele>
        <time>2009-10-25T11:38:54Z</time>
      </trkpt>
      <trkpt lat="48.12951" lon="-0.56233">
        <ele>156</ele>
        <time>2009-10-25T11:38:58Z</time>
      </trkpt>
      <trkpt lat="48.12959" lon="-0.56222">
        <ele>158</ele>
        <time>2009-10-25T11:39:02Z</time>
      </trkpt>
      <trkpt lat="48.12968" lon="-0.56209">
        <ele>158</ele>
        <time>2009-10-25T11:39:06Z</time>
      </trkpt>
      <trkpt lat="48.12975" lon="-0.56195">
        <ele>159</ele>
        <time>2009-10-25T11:39:10Z</time>
      </trkpt>
      <trkpt lat="48.12981" lon="-0.5618">
        <ele>160</ele>
        <time>2009-10-25T11:39:14Z</time>
      </trkpt>
      <trkpt lat="48.12989" lon="-0.56169">
        <ele>161</ele>
        <time>2009-10-25T11:39:18Z</time>
      </trkpt>
      <trkpt lat="48.12996" lon="-0.56159">
        <ele>162</ele>
        <time>2009-10-25T11:39:22Z</time>
      </trkpt>
      <trkpt lat="48.13002" lon="-0.5615">
        <ele>163</ele>
        <time>2009-10-25T11:39:26Z</time>
      </trkpt>
      <trkpt lat="48.13008" lon="-0.56139">
        <ele>164</ele>
        <time>2009-10-25T11:39:30Z</time>
      </trkpt>
      <trkpt lat="48.13014" lon="-0.56129">
        <ele>164</ele>
        <time>2009-10-25T11:39:34Z</time>
      </trkpt>
      <trkpt lat="48.1302" lon="-0.56118">
        <ele>166</ele>
        <time>2009-10-25T11:39:38Z</time>
      </trkpt>
      <trkpt lat="48.13024" lon="-0.56108">
        <ele>168</ele>
        <time>2009-10-25T11:39:42Z</time>
      </trkpt>
      <trkpt lat="48.13027" lon="-0.56101">
        <ele>167</ele>
        <time>2009-10-25T11:39:46Z</time>
      </trkpt>
      <trkpt lat="48.13031" lon="-0.5609">
        <ele>165</ele>
        <time>2009-10-25T11:39:50Z</time>
      </trkpt>
      <trkpt lat="48.13036" lon="-0.56077">
        <ele>166</ele>
        <time>2009-10-25T11:39:54Z</time>
      </trkpt>
      <trkpt lat="48.13042" lon="-0.56063">
        <ele>167</ele>
        <time>2009-10-25T11:39:58Z</time>
      </trkpt>
      <trkpt lat="48.13049" lon="-0.56048">
        <ele>168</ele>
        <time>2009-10-25T11:40:02Z</time>
      </trkpt>
      <trkpt lat="48.13053" lon="-0.56033">
        <ele>169</ele>
        <time>2009-10-25T11:40:06Z</time>
      </trkpt>
      <trkpt lat="48.13058" lon="-0.56015">
        <ele>168</ele>
        <time>2009-10-25T11:40:10Z</time>
      </trkpt>
      <trkpt lat="48.13062" lon="-0.55998">
        <ele>169</ele>
        <time>2009-10-25T11:40:14Z</time>
      </trkpt>
      <trkpt lat="48.13065" lon="-0.55984">
        <ele>170</ele>
        <time>2009-10-25T11:40:18Z</time>
      </trkpt>
      <trkpt lat="48.13068" lon="-0.55971">
        <ele>170</ele>
        <time>2009-10-25T11:40:22Z</time>
      </trkpt>
      <trkpt lat="48.13069" lon="-0.55957">
        <ele>170</ele>
        <time>2009-10-25T11:40:26Z</time>
      </trkpt>
      <trkpt lat="48.13072" lon="-0.55945">
        <ele>172</ele>
        <time>2009-10-25T11:40:30Z</time>
      </trkpt>
      <trkpt lat="48.13076" lon="-0.55932">
        <ele>172</ele>
        <time>2009-10-25T11:40:34Z</time>
      </trkpt>
      <trkpt lat="48.13077" lon="-0.55923">
        <ele>172</ele>
        <time>2009-10-25T11:40:38Z</time>
      </trkpt>
      <trkpt lat="48.13077" lon="-0.55922">
        <ele>171</ele>
        <time>2009-10-25T11:40:42Z</time>
      </trkpt>
      <trkpt lat="48.13078" lon="-0.55922">
        <ele>171</ele>
        <time>2009-10-25T11:40:46Z</time>
      </trkpt>
      <trkpt lat="48.13077" lon="-0.55922">
        <ele>170</ele>
        <time>2009-10-25T11:40:50Z</time>
      </trkpt>
      <trkpt lat="48.13076" lon="-0.5592">
        <ele>170</ele>
        <time>2009-10-25T11:40:54Z</time>
      </trkpt>
      <trkpt lat="48.13077" lon="-0.5592">
        <ele>169</ele>
        <time>2009-10-25T11:40:58Z</time>
      </trkpt>
      <trkpt lat="48.13077" lon="-0.5592">
        <ele>168</ele>
        <time>2009-10-25T11:41:02Z</time>
      </trkpt>
      <trkpt lat="48.13077" lon="-0.5592">
        <ele>168</ele>
        <time>2009-10-25T11:41:06Z</time>
      </trkpt>
      <trkpt lat="48.13077" lon="-0.55919">
        <ele>168</ele>
        <time>2009-10-25T11:41:10Z</time>
      </trkpt>
      <trkpt lat="48.13081" lon="-0.55912">
        <ele>169</ele>
        <time>2009-10-25T11:41:14Z</time>
      </trkpt>
      <trkpt lat="48.13079" lon="-0.55903">
        <ele>169</ele>
        <time>2009-10-25T11:41:18Z</time>
      </trkpt>
      <trkpt lat="48.13078" lon="-0.55895">
        <ele>170</ele>
        <time>2009-10-25T11:41:22Z</time>
      </trkpt>
      <trkpt lat="48.13083" lon="-0.55897">
        <ele>170</ele>
        <time>2009-10-25T11:41:26Z</time>
      </trkpt>
      <trkpt lat="48.13085" lon="-0.55905">
        <ele>169</ele>
        <time>2009-10-25T11:41:30Z</time>
      </trkpt>
      <trkpt lat="48.13081" lon="-0.55907">
        <ele>170</ele>
        <time>2009-10-25T11:41:34Z</time>
      </trkpt>
      <trkpt lat="48.13079" lon="-0.55899">
        <ele>170</ele>
        <time>2009-10-25T11:41:38Z</time>
      </trkpt>
      <trkpt lat="48.13076" lon="-0.55895">
        <ele>171</ele>
        <time>2009-10-25T11:41:42Z</time>
      </trkpt>
      <trkpt lat="48.13071" lon="-0.55895">
        <ele>172</ele>
        <time>2009-10-25T11:41:46Z</time>
      </trkpt>
      <trkpt lat="48.13066" lon="-0.55891">
        <ele>172</ele>
        <time>2009-10-25T11:41:50Z</time>
      </trkpt>
      <trkpt lat="48.13061" lon="-0.55885">
        <ele>172</ele>
        <time>2009-10-25T11:41:54Z</time>
      </trkpt>
      <trkpt lat="48.1306" lon="-0.55877">
        <ele>171</ele>
        <time>2009-10-25T11:41:58Z</time>
      </trkpt>
      <trkpt lat="48.13059" lon="-0.55867">
        <ele>171</ele>
        <time>2009-10-25T11:42:03Z</time>
      </trkpt>
      <trkpt lat="48.13058" lon="-0.55858">
        <ele>171</ele>
        <time>2009-10-25T11:42:07Z</time>
      </trkpt>
      <trkpt lat="48.1306" lon="-0.55846">
        <ele>171</ele>
        <time>2009-10-25T11:42:11Z</time>
      </trkpt>
      <trkpt lat="48.13067" lon="-0.55836">
        <ele>171</ele>
        <time>2009-10-25T11:42:15Z</time>
      </trkpt>
      <trkpt lat="48.13077" lon="-0.55833">
        <ele>170</ele>
        <time>2009-10-25T11:42:19Z</time>
      </trkpt>
      <trkpt lat="48.13087" lon="-0.5583">
        <ele>169</ele>
        <time>2009-10-25T11:42:23Z</time>
      </trkpt>
      <trkpt lat="48.13096" lon="-0.55824">
        <ele>169</ele>
        <time>2009-10-25T11:42:27Z</time>
      </trkpt>
      <trkpt lat="48.13097" lon="-0.55809">
        <ele>169</ele>
        <time>2009-10-25T11:42:31Z</time>
      </trkpt>
      <trkpt lat="48.13094" lon="-0.55792">
        <ele>169</ele>
        <time>2009-10-25T11:42:35Z</time>
      </trkpt>
      <trkpt lat="48.13091" lon="-0.55772">
        <ele>170</ele>
        <time>2009-10-25T11:42:39Z</time>
      </trkpt>
      <trkpt lat="48.13087" lon="-0.5575">
        <ele>170</ele>
        <time>2009-10-25T11:42:43Z</time>
      </trkpt>
      <trkpt lat="48.13084" lon="-0.55725">
        <ele>170</ele>
        <time>2009-10-25T11:42:47Z</time>
      </trkpt>
      <trkpt lat="48.13083" lon="-0.557">
        <ele>171</ele>
        <time>2009-10-25T11:42:51Z</time>
      </trkpt>
      <trkpt lat="48.13079" lon="-0.5567">
        <ele>170</ele>
        <time>2009-10-25T11:42:55Z</time>
      </trkpt>
      <trkpt lat="48.13079" lon="-0.55642">
        <ele>170</ele>
        <time>2009-10-25T11:42:59Z</time>
      </trkpt>
      <trkpt lat="48.13077" lon="-0.55614">
        <ele>169</ele>
        <time>2009-10-25T11:43:03Z</time>
      </trkpt>
      <trkpt lat="48.13074" lon="-0.55587">
        <ele>170</ele>
        <time>2009-10-25T11:43:07Z</time>
      </trkpt>
      <trkpt lat="48.13074" lon="-0.5556">
        <ele>169</ele>
        <time>2009-10-25T11:43:11Z</time>
      </trkpt>
      <trkpt lat="48.13072" lon="-0.55536">
        <ele>170</ele>
        <time>2009-10-25T11:43:15Z</time>
      </trkpt>
      <trkpt lat="48.1307" lon="-0.55512">
        <ele>169</ele>
        <time>2009-10-25T11:43:19Z</time>
      </trkpt>
      <trkpt lat="48.1307" lon="-0.55488">
        <ele>169</ele>
        <time>2009-10-25T11:43:23Z</time>
      </trkpt>
      <trkpt lat="48.13068" lon="-0.55462">
        <ele>169</ele>
        <time>2009-10-25T11:43:27Z</time>
      </trkpt>
      <trkpt lat="48.13064" lon="-0.55433">
        <ele>168</ele>
        <time>2009-10-25T11:43:31Z</time>
      </trkpt>
      <trkpt lat="48.1306" lon="-0.55396">
        <ele>167</ele>
        <time>2009-10-25T11:43:35Z</time>
      </trkpt>
      <trkpt lat="48.13054" lon="-0.55354">
        <ele>166</ele>
        <time>2009-10-25T11:43:39Z</time>
      </trkpt>
      <trkpt lat="48.13046" lon="-0.5532">
        <ele>165</ele>
        <time>2009-10-25T11:43:43Z</time>
      </trkpt>
      <trkpt lat="48.13039" lon="-0.55286">
        <ele>163</ele>
        <time>2009-10-25T11:43:47Z</time>
      </trkpt>
      <trkpt lat="48.13026" lon="-0.55279">
        <ele>165</ele>
        <time>2009-10-25T11:43:51Z</time>
      </trkpt>
      <trkpt lat="48.1301" lon="-0.55288">
        <ele>167</ele>
        <time>2009-10-25T11:43:55Z</time>
      </trkpt>
      <trkpt lat="48.12993" lon="-0.55297">
        <ele>167</ele>
        <time>2009-10-25T11:43:59Z</time>
      </trkpt>
      <trkpt lat="48.12973" lon="-0.55306">
        <ele>167</ele>
        <time>2009-10-25T11:44:03Z</time>
      </trkpt>
      <trkpt lat="48.12954" lon="-0.55312">
        <ele>168</ele>
        <time>2009-10-25T11:44:07Z</time>
      </trkpt>
      <trkpt lat="48.12933" lon="-0.55316">
        <ele>169</ele>
        <time>2009-10-25T11:44:11Z</time>
      </trkpt>
      <trkpt lat="48.12914" lon="-0.55318">
        <ele>171</ele>
        <time>2009-10-25T11:44:15Z</time>
      </trkpt>
      <trkpt lat="48.12895" lon="-0.5532">
        <ele>173</ele>
        <time>2009-10-25T11:44:19Z</time>
      </trkpt>
      <trkpt lat="48.12875" lon="-0.55322">
        <ele>173</ele>
        <time>2009-10-25T11:44:23Z</time>
      </trkpt>
      <trkpt lat="48.12856" lon="-0.55325">
        <ele>172</ele>
        <time>2009-10-25T11:44:27Z</time>
      </trkpt>
      <trkpt lat="48.12835" lon="-0.55326">
        <ele>172</ele>
        <time>2009-10-25T11:44:31Z</time>
      </trkpt>
      <trkpt lat="48.12814" lon="-0.55328">
        <ele>172</ele>
        <time>2009-10-25T11:44:35Z</time>
      </trkpt>
      <trkpt lat="48.12794" lon="-0.5533">
        <ele>172</ele>
        <time>2009-10-25T11:44:39Z</time>
      </trkpt>
      <trkpt lat="48.12774" lon="-0.55331">
        <ele>171</ele>
        <time>2009-10-25T11:44:43Z</time>
      </trkpt>
      <trkpt lat="48.12755" lon="-0.55335">
        <ele>171</ele>
        <time>2009-10-25T11:44:47Z</time>
      </trkpt>
      <trkpt lat="48.12747" lon="-0.55326">
        <ele>170</ele>
        <time>2009-10-25T11:44:51Z</time>
      </trkpt>
      <trkpt lat="48.12752" lon="-0.55313">
        <ele>170</ele>
        <time>2009-10-25T11:44:55Z</time>
      </trkpt>
      <trkpt lat="48.1276" lon="-0.55298">
        <ele>169</ele>
        <time>2009-10-25T11:44:59Z</time>
      </trkpt>
      <trkpt lat="48.12767" lon="-0.55283">
        <ele>169</ele>
        <time>2009-10-25T11:45:03Z</time>
      </trkpt>
      <trkpt lat="48.12774" lon="-0.55268">
        <ele>169</ele>
        <time>2009-10-25T11:45:07Z</time>
      </trkpt>
      <trkpt lat="48.1278" lon="-0.55254">
        <ele>169</ele>
        <time>2009-10-25T11:45:11Z</time>
      </trkpt>
      <trkpt lat="48.12786" lon="-0.55241">
        <ele>169</ele>
        <time>2009-10-25T11:45:15Z</time>
      </trkpt>
      <trkpt lat="48.12793" lon="-0.55225">
        <ele>169</ele>
        <time>2009-10-25T11:45:19Z</time>
      </trkpt>
      <trkpt lat="48.12801" lon="-0.55212">
        <ele>169</ele>
        <time>2009-10-25T11:45:23Z</time>
      </trkpt>
      <trkpt lat="48.12808" lon="-0.55198">
        <ele>170</ele>
        <time>2009-10-25T11:45:27Z</time>
      </trkpt>
      <trkpt lat="48.12815" lon="-0.55181">
        <ele>171</ele>
        <time>2009-10-25T11:45:31Z</time>
      </trkpt>
      <trkpt lat="48.12819" lon="-0.55164">
        <ele>172</ele>
        <time>2009-10-25T11:45:35Z</time>
      </trkpt>
      <trkpt lat="48.12821" lon="-0.55143">
        <ele>173</ele>
        <time>2009-10-25T11:45:39Z</time>
      </trkpt>
      <trkpt lat="48.1282" lon="-0.55123">
        <ele>174</ele>
        <time>2009-10-25T11:45:43Z</time>
      </trkpt>
      <trkpt lat="48.12819" lon="-0.55101">
        <ele>174</ele>
        <time>2009-10-25T11:45:47Z</time>
      </trkpt>
      <trkpt lat="48.12823" lon="-0.55079">
        <ele>175</ele>
        <time>2009-10-25T11:45:51Z</time>
      </trkpt>
      <trkpt lat="48.12828" lon="-0.55061">
        <ele>175</ele>
        <time>2009-10-25T11:45:55Z</time>
      </trkpt>
      <trkpt lat="48.12833" lon="-0.55042">
        <ele>176</ele>
        <time>2009-10-25T11:45:59Z</time>
      </trkpt>
      <trkpt lat="48.12833" lon="-0.55021">
        <ele>176</ele>
        <time>2009-10-25T11:46:03Z</time>
      </trkpt>
      <trkpt lat="48.12832" lon="-0.55001">
        <ele>177</ele>
        <time>2009-10-25T11:46:07Z</time>
      </trkpt>
      <trkpt lat="48.12828" lon="-0.54981">
        <ele>179</ele>
        <time>2009-10-25T11:46:11Z</time>
      </trkpt>
      <trkpt lat="48.12822" lon="-0.54962">
        <ele>181</ele>
        <time>2009-10-25T11:46:15Z</time>
      </trkpt>
      <trkpt lat="48.12816" lon="-0.54941">
        <ele>181</ele>
        <time>2009-10-25T11:46:19Z</time>
      </trkpt>
      <trkpt lat="48.1281" lon="-0.54921">
        <ele>182</ele>
        <time>2009-10-25T11:46:23Z</time>
      </trkpt>
      <trkpt lat="48.12804" lon="-0.54902">
        <ele>181</ele>
        <time>2009-10-25T11:46:27Z</time>
      </trkpt>
      <trkpt lat="48.12796" lon="-0.54881">
        <ele>182</ele>
        <time>2009-10-25T11:46:31Z</time>
      </trkpt>
      <trkpt lat="48.12788" lon="-0.54861">
        <ele>182</ele>
        <time>2009-10-25T11:46:35Z</time>
      </trkpt>
      <trkpt lat="48.12785" lon="-0.54843">
        <ele>182</ele>
        <time>2009-10-25T11:46:39Z</time>
      </trkpt>
      <trkpt lat="48.12791" lon="-0.54822">
        <ele>181</ele>
        <time>2009-10-25T11:46:43Z</time>
      </trkpt>
      <trkpt lat="48.12804" lon="-0.54811">
        <ele>181</ele>
        <time>2009-10-25T11:46:47Z</time>
      </trkpt>
      <trkpt lat="48.12816" lon="-0.54801">
        <ele>181</ele>
        <time>2009-10-25T11:46:51Z</time>
      </trkpt>
      <trkpt lat="48.12826" lon="-0.54794">
        <ele>181</ele>
        <time>2009-10-25T11:46:55Z</time>
      </trkpt>
      <trkpt lat="48.12838" lon="-0.54785">
        <ele>180</ele>
        <time>2009-10-25T11:46:59Z</time>
      </trkpt>
      <trkpt lat="48.12852" lon="-0.54771">
        <ele>179</ele>
        <time>2009-10-25T11:47:03Z</time>
      </trkpt>
      <trkpt lat="48.12858" lon="-0.54748">
        <ele>179</ele>
        <time>2009-10-25T11:47:07Z</time>
      </trkpt>
      <trkpt lat="48.12849" lon="-0.54727">
        <ele>180</ele>
        <time>2009-10-25T11:47:11Z</time>
      </trkpt>
      <trkpt lat="48.12838" lon="-0.54707">
        <ele>180</ele>
        <time>2009-10-25T11:47:15Z</time>
      </trkpt>
      <trkpt lat="48.12829" lon="-0.54685">
        <ele>181</ele>
        <time>2009-10-25T11:47:19Z</time>
      </trkpt>
      <trkpt lat="48.12819" lon="-0.5466">
        <ele>182</ele>
        <time>2009-10-25T11:47:23Z</time>
      </trkpt>
      <trkpt lat="48.12808" lon="-0.54635">
        <ele>181</ele>
        <time>2009-10-25T11:47:27Z</time>
      </trkpt>
      <trkpt lat="48.12807" lon="-0.54608">
        <ele>180</ele>
        <time>2009-10-25T11:47:31Z</time>
      </trkpt>
      <trkpt lat="48.12817" lon="-0.54583">
        <ele>178</ele>
        <time>2009-10-25T11:47:35Z</time>
      </trkpt>
      <trkpt lat="48.12826" lon="-0.54559">
        <ele>177</ele>
        <time>2009-10-25T11:47:39Z</time>
      </trkpt>
      <trkpt lat="48.12835" lon="-0.54533">
        <ele>174</ele>
        <time>2009-10-25T11:47:43Z</time>
      </trkpt>
      <trkpt lat="48.12848" lon="-0.54502">
        <ele>172</ele>
        <time>2009-10-25T11:47:47Z</time>
      </trkpt>
      <trkpt lat="48.12865" lon="-0.54475">
        <ele>171</ele>
        <time>2009-10-25T11:47:51Z</time>
      </trkpt>
      <trkpt lat="48.12886" lon="-0.54442">
        <ele>171</ele>
        <time>2009-10-25T11:47:55Z</time>
      </trkpt>
      <trkpt lat="48.12906" lon="-0.54403">
        <ele>170</ele>
        <time>2009-10-25T11:47:59Z</time>
      </trkpt>
      <trkpt lat="48.12923" lon="-0.54364">
        <ele>169</ele>
        <time>2009-10-25T11:48:03Z</time>
      </trkpt>
      <trkpt lat="48.1294" lon="-0.54327">
        <ele>167</ele>
        <time>2009-10-25T11:48:07Z</time>
      </trkpt>
      <trkpt lat="48.12955" lon="-0.54286">
        <ele>165</ele>
        <time>2009-10-25T11:48:11Z</time>
      </trkpt>
      <trkpt lat="48.12965" lon="-0.54256">
        <ele>165</ele>
        <time>2009-10-25T11:48:15Z</time>
      </trkpt>
      <trkpt lat="48.12977" lon="-0.54253">
        <ele>161</ele>
        <time>2009-10-25T11:48:19Z</time>
      </trkpt>
      <trkpt lat="48.12981" lon="-0.54274">
        <ele>160</ele>
        <time>2009-10-25T11:48:23Z</time>
      </trkpt>
      <trkpt lat="48.12987" lon="-0.54296">
        <ele>159</ele>
        <time>2009-10-25T11:48:27Z</time>
      </trkpt>
      <trkpt lat="48.12996" lon="-0.54315">
        <ele>158</ele>
        <time>2009-10-25T11:48:31Z</time>
      </trkpt>
      <trkpt lat="48.13005" lon="-0.54331">
        <ele>158</ele>
        <time>2009-10-25T11:48:35Z</time>
      </trkpt>
      <trkpt lat="48.13018" lon="-0.54345">
        <ele>159</ele>
        <time>2009-10-25T11:48:39Z</time>
      </trkpt>
      <trkpt lat="48.13028" lon="-0.54362">
        <ele>159</ele>
        <time>2009-10-25T11:48:43Z</time>
      </trkpt>
      <trkpt lat="48.13037" lon="-0.54382">
        <ele>159</ele>
        <time>2009-10-25T11:48:47Z</time>
      </trkpt>
      <trkpt lat="48.13047" lon="-0.54402">
        <ele>159</ele>
        <time>2009-10-25T11:48:51Z</time>
      </trkpt>
      <trkpt lat="48.13057" lon="-0.54421">
        <ele>159</ele>
        <time>2009-10-25T11:48:55Z</time>
      </trkpt>
      <trkpt lat="48.13067" lon="-0.54438">
        <ele>160</ele>
        <time>2009-10-25T11:48:59Z</time>
      </trkpt>
      <trkpt lat="48.13073" lon="-0.54443">
        <ele>160</ele>
        <time>2009-10-25T11:49:03Z</time>
      </trkpt>
      <trkpt lat="48.13072" lon="-0.54443">
        <ele>159</ele>
        <time>2009-10-25T11:49:07Z</time>
      </trkpt>
      <trkpt lat="48.13072" lon="-0.54443">
        <ele>159</ele>
        <time>2009-10-25T11:49:11Z</time>
      </trkpt>
      <trkpt lat="48.13071" lon="-0.54443">
        <ele>158</ele>
        <time>2009-10-25T11:49:15Z</time>
      </trkpt>
      <trkpt lat="48.13071" lon="-0.54443">
        <ele>157</ele>
        <time>2009-10-25T11:49:19Z</time>
      </trkpt>
      <trkpt lat="48.13071" lon="-0.54443">
        <ele>157</ele>
        <time>2009-10-25T11:49:23Z</time>
      </trkpt>
      <trkpt lat="48.13071" lon="-0.54443">
        <ele>157</ele>
        <time>2009-10-25T11:49:27Z</time>
      </trkpt>
      <trkpt lat="48.13071" lon="-0.54442">
        <ele>158</ele>
        <time>2009-10-25T11:49:31Z</time>
      </trkpt>
      <trkpt lat="48.13071" lon="-0.54442">
        <ele>159</ele>
        <time>2009-10-25T11:49:35Z</time>
      </trkpt>
      <trkpt lat="48.13071" lon="-0.54442">
        <ele>158</ele>
        <time>2009-10-25T11:49:39Z</time>
      </trkpt>
      <trkpt lat="48.13071" lon="-0.54442">
        <ele>158</ele>
        <time>2009-10-25T11:49:43Z</time>
      </trkpt>
      <trkpt lat="48.13071" lon="-0.54442">
        <ele>158</ele>
        <time>2009-10-25T11:49:47Z</time>
      </trkpt>
      <trkpt lat="48.13071" lon="-0.54442">
        <ele>158</ele>
        <time>2009-10-25T11:49:51Z</time>
      </trkpt>
      <trkpt lat="48.1307" lon="-0.54443">
        <ele>158</ele>
        <time>2009-10-25T11:49:55Z</time>
      </trkpt>
      <trkpt lat="48.1307" lon="-0.54443">
        <ele>158</ele>
        <time>2009-10-25T11:49:59Z</time>
      </trkpt>
      <trkpt lat="48.1307" lon="-0.54442">
        <ele>158</ele>
        <time>2009-10-25T11:50:03Z</time>
      </trkpt>
      <trkpt lat="48.1307" lon="-0.54443">
        <ele>158</ele>
        <time>2009-10-25T11:50:07Z</time>
      </trkpt>
      <trkpt lat="48.1307" lon="-0.54443">
        <ele>158</ele>
        <time>2009-10-25T11:50:11Z</time>
      </trkpt>
      <trkpt lat="48.1307" lon="-0.54443">
        <ele>157</ele>
        <time>2009-10-25T11:50:15Z</time>
      </trkpt>
      <trkpt lat="48.1307" lon="-0.54443">
        <ele>157</ele>
        <time>2009-10-25T11:50:19Z</time>
      </trkpt>
      <trkpt lat="48.1307" lon="-0.54443">
        <ele>157</ele>
        <time>2009-10-25T11:50:23Z</time>
      </trkpt>
      <trkpt lat="48.13072" lon="-0.5445">
        <ele>157</ele>
        <time>2009-10-25T11:50:27Z</time>
      </trkpt>
      <trkpt lat="48.13076" lon="-0.54467">
        <ele>157</ele>
        <time>2009-10-25T11:50:31Z</time>
      </trkpt>
      <trkpt lat="48.13083" lon="-0.54491">
        <ele>157</ele>
        <time>2009-10-25T11:50:35Z</time>
      </trkpt>
      <trkpt lat="48.1309" lon="-0.54515">
        <ele>159</ele>
        <time>2009-10-25T11:50:39Z</time>
      </trkpt>
      <trkpt lat="48.13095" lon="-0.54538">
        <ele>159</ele>
        <time>2009-10-25T11:50:43Z</time>
      </trkpt>
      <trkpt lat="48.13103" lon="-0.54559">
        <ele>163</ele>
        <time>2009-10-25T11:50:47Z</time>
      </trkpt>
      <trkpt lat="48.13112" lon="-0.54584">
        <ele>168</ele>
        <time>2009-10-25T11:50:51Z</time>
      </trkpt>
      <trkpt lat="48.13115" lon="-0.54604">
        <ele>171</ele>
        <time>2009-10-25T11:50:55Z</time>
      </trkpt>
      <trkpt lat="48.13119" lon="-0.54628">
        <ele>173</ele>
        <time>2009-10-25T11:50:59Z</time>
      </trkpt>
      <trkpt lat="48.1312" lon="-0.54654">
        <ele>173</ele>
        <time>2009-10-25T11:51:03Z</time>
      </trkpt>
      <trkpt lat="48.13124" lon="-0.54676">
        <ele>175</ele>
        <time>2009-10-25T11:51:07Z</time>
      </trkpt>
      <trkpt lat="48.13127" lon="-0.54695">
        <ele>177</ele>
        <time>2009-10-25T11:51:11Z</time>
      </trkpt>
      <trkpt lat="48.13131" lon="-0.54712">
        <ele>177</ele>
        <time>2009-10-25T11:51:15Z</time>
      </trkpt>
      <trkpt lat="48.13138" lon="-0.54729">
        <ele>179</ele>
        <time>2009-10-25T11:51:19Z</time>
      </trkpt>
      <trkpt lat="48.13141" lon="-0.54749">
        <ele>177</ele>
        <time>2009-10-25T11:51:23Z</time>
      </trkpt>
      <trkpt lat="48.13144" lon="-0.54768">
        <ele>176</ele>
        <time>2009-10-25T11:51:27Z</time>
      </trkpt>
      <trkpt lat="48.13147" lon="-0.54789">
        <ele>175</ele>
        <time>2009-10-25T11:51:31Z</time>
      </trkpt>
      <trkpt lat="48.13149" lon="-0.54807">
        <ele>173</ele>
        <time>2009-10-25T11:51:36Z</time>
      </trkpt>
      <trkpt lat="48.13152" lon="-0.54803">
        <ele>167</ele>
        <time>2009-10-25T11:51:40Z</time>
      </trkpt>
      <trkpt lat="48.13163" lon="-0.54799">
        <ele>166</ele>
        <time>2009-10-25T11:51:44Z</time>
      </trkpt>
      <trkpt lat="48.13177" lon="-0.54799">
        <ele>165</ele>
        <time>2009-10-25T11:51:48Z</time>
      </trkpt>
      <trkpt lat="48.1319" lon="-0.54801">
        <ele>164</ele>
        <time>2009-10-25T11:51:52Z</time>
      </trkpt>
      <trkpt lat="48.13204" lon="-0.54804">
        <ele>163</ele>
        <time>2009-10-25T11:51:56Z</time>
      </trkpt>
      <trkpt lat="48.13214" lon="-0.5481">
        <ele>162</ele>
        <time>2009-10-25T11:52:00Z</time>
      </trkpt>
      <trkpt lat="48.13223" lon="-0.54819">
        <ele>161</ele>
        <time>2009-10-25T11:52:04Z</time>
      </trkpt>
      <trkpt lat="48.13234" lon="-0.54828">
        <ele>160</ele>
        <time>2009-10-25T11:52:08Z</time>
      </trkpt>
      <trkpt lat="48.13248" lon="-0.54838">
        <ele>159</ele>
        <time>2009-10-25T11:52:12Z</time>
      </trkpt>
      <trkpt lat="48.13263" lon="-0.54842">
        <ele>156</ele>
        <time>2009-10-25T11:52:16Z</time>
      </trkpt>
      <trkpt lat="48.1328" lon="-0.54846">
        <ele>153</ele>
        <time>2009-10-25T11:52:20Z</time>
      </trkpt>
      <trkpt lat="48.13291" lon="-0.54856">
        <ele>150</ele>
        <time>2009-10-25T11:52:24Z</time>
      </trkpt>
      <trkpt lat="48.13304" lon="-0.54876">
        <ele>147</ele>
        <time>2009-10-25T11:52:28Z</time>
      </trkpt>
      <trkpt lat="48.13309" lon="-0.54905">
        <ele>147</ele>
        <time>2009-10-25T11:52:32Z</time>
      </trkpt>
      <trkpt lat="48.13317" lon="-0.54947">
        <ele>148</ele>
        <time>2009-10-25T11:52:36Z</time>
      </trkpt>
      <trkpt lat="48.13329" lon="-0.54993">
        <ele>148</ele>
        <time>2009-10-25T11:52:40Z</time>
      </trkpt>
      <trkpt lat="48.1334" lon="-0.55029">
        <ele>150</ele>
        <time>2009-10-25T11:52:44Z</time>
      </trkpt>
      <trkpt lat="48.13354" lon="-0.55047">
        <ele>152</ele>
        <time>2009-10-25T11:52:48Z</time>
      </trkpt>
      <trkpt lat="48.13368" lon="-0.55074">
        <ele>154</ele>
        <time>2009-10-25T11:52:52Z</time>
      </trkpt>
      <trkpt lat="48.13375" lon="-0.55101">
        <ele>156</ele>
        <time>2009-10-25T11:52:56Z</time>
      </trkpt>
      <trkpt lat="48.13382" lon="-0.5513">
        <ele>152</ele>
        <time>2009-10-25T11:53:00Z</time>
      </trkpt>
      <trkpt lat="48.13388" lon="-0.55145">
        <ele>152</ele>
        <time>2009-10-25T11:53:04Z</time>
      </trkpt>
      <trkpt lat="48.13387" lon="-0.55157">
        <ele>152</ele>
        <time>2009-10-25T11:53:08Z</time>
      </trkpt>
      <trkpt lat="48.13382" lon="-0.55173">
        <ele>151</ele>
        <time>2009-10-25T11:53:12Z</time>
      </trkpt>
      <trkpt lat="48.13378" lon="-0.55196">
        <ele>151</ele>
        <time>2009-10-25T11:53:16Z</time>
      </trkpt>
      <trkpt lat="48.13379" lon="-0.55207">
        <ele>151</ele>
        <time>2009-10-25T11:53:20Z</time>
      </trkpt>
      <trkpt lat="48.13383" lon="-0.552">
        <ele>149</ele>
        <time>2009-10-25T11:53:24Z</time>
      </trkpt>
      <trkpt lat="48.13388" lon="-0.55194">
        <ele>149</ele>
        <time>2009-10-25T11:53:28Z</time>
      </trkpt>
      <trkpt lat="48.13395" lon="-0.55189">
        <ele>151</ele>
        <time>2009-10-25T11:53:32Z</time>
      </trkpt>
      <trkpt lat="48.13402" lon="-0.55186">
        <ele>152</ele>
        <time>2009-10-25T11:53:36Z</time>
      </trkpt>
      <trkpt lat="48.13411" lon="-0.55196">
        <ele>151</ele>
        <time>2009-10-25T11:53:40Z</time>
      </trkpt>
      <trkpt lat="48.13417" lon="-0.55208">
        <ele>151</ele>
        <time>2009-10-25T11:53:44Z</time>
      </trkpt>
      <trkpt lat="48.13424" lon="-0.55221">
        <ele>152</ele>
        <time>2009-10-25T11:53:48Z</time>
      </trkpt>
      <trkpt lat="48.1343" lon="-0.55233">
        <ele>153</ele>
        <time>2009-10-25T11:53:52Z</time>
      </trkpt>
      <trkpt lat="48.13435" lon="-0.5525">
        <ele>151</ele>
        <time>2009-10-25T11:53:58Z</time>
      </trkpt>
      <trkpt lat="48.13444" lon="-0.55271">
        <ele>150</ele>
        <time>2009-10-25T11:54:02Z</time>
      </trkpt>
      <trkpt lat="48.13455" lon="-0.55289">
        <ele>146</ele>
        <time>2009-10-25T11:54:06Z</time>
      </trkpt>
      <trkpt lat="48.13475" lon="-0.55294">
        <ele>147</ele>
        <time>2009-10-25T11:54:10Z</time>
      </trkpt>
      <trkpt lat="48.13502" lon="-0.55293">
        <ele>146</ele>
        <time>2009-10-25T11:54:14Z</time>
      </trkpt>
      <trkpt lat="48.13528" lon="-0.5529">
        <ele>144</ele>
        <time>2009-10-25T11:54:18Z</time>
      </trkpt>
      <trkpt lat="48.13548" lon="-0.55296">
        <ele>144</ele>
        <time>2009-10-25T11:54:22Z</time>
      </trkpt>
      <trkpt lat="48.13556" lon="-0.55303">
        <ele>144</ele>
        <time>2009-10-25T11:54:26Z</time>
      </trkpt>
      <trkpt lat="48.1356" lon="-0.55303">
        <ele>142</ele>
        <time>2009-10-25T11:54:30Z</time>
      </trkpt>
      <trkpt lat="48.13566" lon="-0.55296">
        <ele>139</ele>
        <time>2009-10-25T11:54:34Z</time>
      </trkpt>
      <trkpt lat="48.13573" lon="-0.55287">
        <ele>136</ele>
        <time>2009-10-25T11:54:38Z</time>
      </trkpt>
      <trkpt lat="48.13578" lon="-0.55274">
        <ele>134</ele>
        <time>2009-10-25T11:54:42Z</time>
      </trkpt>
      <trkpt lat="48.13584" lon="-0.55263">
        <ele>135</ele>
        <time>2009-10-25T11:54:46Z</time>
      </trkpt>
      <trkpt lat="48.13589" lon="-0.55256">
        <ele>138</ele>
        <time>2009-10-25T11:54:50Z</time>
      </trkpt>
      <trkpt lat="48.13592" lon="-0.55251">
        <ele>139</ele>
        <time>2009-10-25T11:54:54Z</time>
      </trkpt>
      <trkpt lat="48.13594" lon="-0.55242">
        <ele>139</ele>
        <time>2009-10-25T11:54:58Z</time>
      </trkpt>
      <trkpt lat="48.13596" lon="-0.55242">
        <ele>139</ele>
        <time>2009-10-25T11:55:02Z</time>
      </trkpt>
      <trkpt lat="48.13596" lon="-0.55242">
        <ele>138</ele>
        <time>2009-10-25T11:55:06Z</time>
      </trkpt>
      <trkpt lat="48.13601" lon="-0.55233">
        <ele>137</ele>
        <time>2009-10-25T11:55:10Z</time>
      </trkpt>
      <trkpt lat="48.13609" lon="-0.55215">
        <ele>136</ele>
        <time>2009-10-25T11:55:14Z</time>
      </trkpt>
      <trkpt lat="48.13618" lon="-0.55196">
        <ele>135</ele>
        <time>2009-10-25T11:55:18Z</time>
      </trkpt>
      <trkpt lat="48.13627" lon="-0.55178">
        <ele>135</ele>
        <time>2009-10-25T11:55:22Z</time>
      </trkpt>
      <trkpt lat="48.13639" lon="-0.55161">
        <ele>135</ele>
        <time>2009-10-25T11:55:26Z</time>
      </trkpt>
      <trkpt lat="48.1365" lon="-0.55146">
        <ele>138</ele>
        <time>2009-10-25T11:55:30Z</time>
      </trkpt>
      <trkpt lat="48.13663" lon="-0.55132">
        <ele>139</ele>
        <time>2009-10-25T11:55:34Z</time>
      </trkpt>
      <trkpt lat="48.13676" lon="-0.55118">
        <ele>136</ele>
        <time>2009-10-25T11:55:38Z</time>
      </trkpt>
      <trkpt lat="48.13688" lon="-0.55101">
        <ele>134</ele>
        <time>2009-10-25T11:55:42Z</time>
      </trkpt>
      <trkpt lat="48.13699" lon="-0.55087">
        <ele>133</ele>
        <time>2009-10-25T11:55:46Z</time>
      </trkpt>
      <trkpt lat="48.13711" lon="-0.55072">
        <ele>131</ele>
        <time>2009-10-25T11:55:50Z</time>
      </trkpt>
      <trkpt lat="48.13721" lon="-0.55059">
        <ele>129</ele>
        <time>2009-10-25T11:55:54Z</time>
      </trkpt>
      <trkpt lat="48.13733" lon="-0.55045">
        <ele>127</ele>
        <time>2009-10-25T11:55:58Z</time>
      </trkpt>
      <trkpt lat="48.13743" lon="-0.5503">
        <ele>129</ele>
        <time>2009-10-25T11:56:02Z</time>
      </trkpt>
      <trkpt lat="48.13756" lon="-0.55014">
        <ele>133</ele>
        <time>2009-10-25T11:56:06Z</time>
      </trkpt>
      <trkpt lat="48.13768" lon="-0.54998">
        <ele>135</ele>
        <time>2009-10-25T11:56:10Z</time>
      </trkpt>
      <trkpt lat="48.13781" lon="-0.5498">
        <ele>137</ele>
        <time>2009-10-25T11:56:14Z</time>
      </trkpt>
      <trkpt lat="48.13793" lon="-0.54962">
        <ele>136</ele>
        <time>2009-10-25T11:56:18Z</time>
      </trkpt>
      <trkpt lat="48.13808" lon="-0.54943">
        <ele>133</ele>
        <time>2009-10-25T11:56:22Z</time>
      </trkpt>
      <trkpt lat="48.13824" lon="-0.54929">
        <ele>130</ele>
        <time>2009-10-25T11:56:26Z</time>
      </trkpt>
      <trkpt lat="48.13841" lon="-0.54919">
        <ele>128</ele>
        <time>2009-10-25T11:56:30Z</time>
      </trkpt>
      <trkpt lat="48.1386" lon="-0.54918">
        <ele>127</ele>
        <time>2009-10-25T11:56:34Z</time>
      </trkpt>
      <trkpt lat="48.13881" lon="-0.5492">
        <ele>126</ele>
        <time>2009-10-25T11:56:38Z</time>
      </trkpt>
      <trkpt lat="48.139" lon="-0.54919">
        <ele>129</ele>
        <time>2009-10-25T11:56:42Z</time>
      </trkpt>
      <trkpt lat="48.13917" lon="-0.54917">
        <ele>131</ele>
        <time>2009-10-25T11:56:46Z</time>
      </trkpt>
      <trkpt lat="48.13933" lon="-0.5491">
        <ele>132</ele>
        <time>2009-10-25T11:56:50Z</time>
      </trkpt>
      <trkpt lat="48.13948" lon="-0.54907">
        <ele>136</ele>
        <time>2009-10-25T11:56:54Z</time>
      </trkpt>
      <trkpt lat="48.13959" lon="-0.54901">
        <ele>139</ele>
        <time>2009-10-25T11:56:58Z</time>
      </trkpt>
      <trkpt lat="48.13967" lon="-0.54897">
        <ele>140</ele>
        <time>2009-10-25T11:57:02Z</time>
      </trkpt>
      <trkpt lat="48.13973" lon="-0.5489">
        <ele>143</ele>
        <time>2009-10-25T11:57:06Z</time>
      </trkpt>
      <trkpt lat="48.13976" lon="-0.54891">
        <ele>143</ele>
        <time>2009-10-25T11:57:10Z</time>
      </trkpt>
      <trkpt lat="48.13979" lon="-0.54891">
        <ele>142</ele>
        <time>2009-10-25T11:57:14Z</time>
      </trkpt>
      <trkpt lat="48.13983" lon="-0.54887">
        <ele>142</ele>
        <time>2009-10-25T11:57:18Z</time>
      </trkpt>
      <trkpt lat="48.1399" lon="-0.54882">
        <ele>144</ele>
        <time>2009-10-25T11:57:22Z</time>
      </trkpt>
      <trkpt lat="48.13997" lon="-0.54875">
        <ele>147</ele>
        <time>2009-10-25T11:57:26Z</time>
      </trkpt>
      <trkpt lat="48.14006" lon="-0.54871">
        <ele>149</ele>
        <time>2009-10-25T11:57:30Z</time>
      </trkpt>
      <trkpt lat="48.14015" lon="-0.54864">
        <ele>150</ele>
        <time>2009-10-25T11:57:34Z</time>
      </trkpt>
      <trkpt lat="48.14025" lon="-0.54858">
        <ele>148</ele>
        <time>2009-10-25T11:57:38Z</time>
      </trkpt>
      <trkpt lat="48.14036" lon="-0.54848">
        <ele>149</ele>
        <time>2009-10-25T11:57:42Z</time>
      </trkpt>
      <trkpt lat="48.14046" lon="-0.54839">
        <ele>152</ele>
        <time>2009-10-25T11:57:46Z</time>
      </trkpt>
      <trkpt lat="48.14054" lon="-0.54825">
        <ele>150</ele>
        <time>2009-10-25T11:57:50Z</time>
      </trkpt>
      <trkpt lat="48.14063" lon="-0.54807">
        <ele>151</ele>
        <time>2009-10-25T11:57:54Z</time>
      </trkpt>
      <trkpt lat="48.14074" lon="-0.54785">
        <ele>153</ele>
        <time>2009-10-25T11:57:58Z</time>
      </trkpt>
      <trkpt lat="48.14088" lon="-0.54763">
        <ele>152</ele>
        <time>2009-10-25T11:58:02Z</time>
      </trkpt>
      <trkpt lat="48.141" lon="-0.54743">
        <ele>155</ele>
        <time>2009-10-25T11:58:06Z</time>
      </trkpt>
      <trkpt lat="48.14109" lon="-0.54721">
        <ele>155</ele>
        <time>2009-10-25T11:58:10Z</time>
      </trkpt>
      <trkpt lat="48.14115" lon="-0.54697">
        <ele>154</ele>
        <time>2009-10-25T11:58:14Z</time>
      </trkpt>
      <trkpt lat="48.14115" lon="-0.54679">
        <ele>159</ele>
        <time>2009-10-25T11:58:18Z</time>
      </trkpt>
      <trkpt lat="48.14113" lon="-0.54664">
        <ele>165</ele>
        <time>2009-10-25T11:58:22Z</time>
      </trkpt>
      <trkpt lat="48.14119" lon="-0.54642">
        <ele>173</ele>
        <time>2009-10-25T11:58:26Z</time>
      </trkpt>
      <trkpt lat="48.14132" lon="-0.54631">
        <ele>153</ele>
        <time>2009-10-25T11:58:30Z</time>
      </trkpt>
      <trkpt lat="48.14141" lon="-0.54642">
        <ele>141</ele>
        <time>2009-10-25T11:58:34Z</time>
      </trkpt>
      <trkpt lat="48.14148" lon="-0.54653">
        <ele>133</ele>
        <time>2009-10-25T11:58:38Z</time>
      </trkpt>
      <trkpt lat="48.14158" lon="-0.54656">
        <ele>130</ele>
        <time>2009-10-25T11:58:42Z</time>
      </trkpt>
      <trkpt lat="48.14168" lon="-0.54647">
        <ele>131</ele>
        <time>2009-10-25T11:58:46Z</time>
      </trkpt>
      <trkpt lat="48.14175" lon="-0.54633">
        <ele>135</ele>
        <time>2009-10-25T11:58:50Z</time>
      </trkpt>
      <trkpt lat="48.14182" lon="-0.54619">
        <ele>136</ele>
        <time>2009-10-25T11:58:54Z</time>
      </trkpt>
      <trkpt lat="48.14186" lon="-0.54603">
        <ele>135</ele>
        <time>2009-10-25T11:58:58Z</time>
      </trkpt>
      <trkpt lat="48.1419" lon="-0.54585">
        <ele>135</ele>
        <time>2009-10-25T11:59:02Z</time>
      </trkpt>
      <trkpt lat="48.14192" lon="-0.54563">
        <ele>134</ele>
        <time>2009-10-25T11:59:06Z</time>
      </trkpt>
      <trkpt lat="48.14191" lon="-0.54542">
        <ele>134</ele>
        <time>2009-10-25T11:59:10Z</time>
      </trkpt>
      <trkpt lat="48.14188" lon="-0.54521">
        <ele>134</ele>
        <time>2009-10-25T11:59:14Z</time>
      </trkpt>
      <trkpt lat="48.14184" lon="-0.54497">
        <ele>135</ele>
        <time>2009-10-25T11:59:18Z</time>
      </trkpt>
      <trkpt lat="48.14177" lon="-0.54467">
        <ele>135</ele>
        <time>2009-10-25T11:59:22Z</time>
      </trkpt>
      <trkpt lat="48.14171" lon="-0.54435">
        <ele>135</ele>
        <time>2009-10-25T11:59:26Z</time>
      </trkpt>
      <trkpt lat="48.14163" lon="-0.54401">
        <ele>135</ele>
        <time>2009-10-25T11:59:30Z</time>
      </trkpt>
      <trkpt lat="48.14155" lon="-0.54365">
        <ele>136</ele>
        <time>2009-10-25T11:59:34Z</time>
      </trkpt>
      <trkpt lat="48.14147" lon="-0.5433">
        <ele>136</ele>
        <time>2009-10-25T11:59:39Z</time>
      </trkpt>
      <trkpt lat="48.1414" lon="-0.54296">
        <ele>136</ele>
        <time>2009-10-25T11:59:43Z</time>
      </trkpt>
      <trkpt lat="48.14133" lon="-0.54261">
        <ele>135</ele>
        <time>2009-10-25T11:59:47Z</time>
      </trkpt>
      <trkpt lat="48.14126" lon="-0.54226">
        <ele>136</ele>
        <time>2009-10-25T11:59:51Z</time>
      </trkpt>
      <trkpt lat="48.14119" lon="-0.54194">
        <ele>136</ele>
        <time>2009-10-25T11:59:55Z</time>
      </trkpt>
      <trkpt lat="48.14112" lon="-0.54164">
        <ele>136</ele>
        <time>2009-10-25T11:59:59Z</time>
      </trkpt>
      <trkpt lat="48.141" lon="-0.54138">
        <ele>136</ele>
        <time>2009-10-25T12:00:03Z</time>
      </trkpt>
      <trkpt lat="48.14085" lon="-0.54125">
        <ele>136</ele>
        <time>2009-10-25T12:00:07Z</time>
      </trkpt>
      <trkpt lat="48.14071" lon="-0.54116">
        <ele>137</ele>
        <time>2009-10-25T12:00:11Z</time>
      </trkpt>
      <trkpt lat="48.14058" lon="-0.5411">
        <ele>138</ele>
        <time>2009-10-25T12:00:15Z</time>
      </trkpt>
      <trkpt lat="48.14047" lon="-0.54102">
        <ele>139</ele>
        <time>2009-10-25T12:00:19Z</time>
      </trkpt>
      <trkpt lat="48.14037" lon="-0.54095">
        <ele>140</ele>
        <time>2009-10-25T12:00:23Z</time>
      </trkpt>
      <trkpt lat="48.14025" lon="-0.54087">
        <ele>141</ele>
        <time>2009-10-25T12:00:27Z</time>
      </trkpt>
      <trkpt lat="48.14014" lon="-0.5408">
        <ele>141</ele>
        <time>2009-10-25T12:00:31Z</time>
      </trkpt>
      <trkpt lat="48.14003" lon="-0.54072">
        <ele>143</ele>
        <time>2009-10-25T12:00:35Z</time>
      </trkpt>
      <trkpt lat="48.13993" lon="-0.54066">
        <ele>143</ele>
        <time>2009-10-25T12:00:39Z</time>
      </trkpt>
      <trkpt lat="48.13984" lon="-0.54061">
        <ele>144</ele>
        <time>2009-10-25T12:00:43Z</time>
      </trkpt>
      <trkpt lat="48.13976" lon="-0.54053">
        <ele>145</ele>
        <time>2009-10-25T12:00:47Z</time>
      </trkpt>
      <trkpt lat="48.13976" lon="-0.5404">
        <ele>146</ele>
        <time>2009-10-25T12:00:51Z</time>
      </trkpt>
      <trkpt lat="48.13977" lon="-0.54029">
        <ele>146</ele>
        <time>2009-10-25T12:00:55Z</time>
      </trkpt>
      <trkpt lat="48.13979" lon="-0.54021">
        <ele>146</ele>
        <time>2009-10-25T12:00:59Z</time>
      </trkpt>
      <trkpt lat="48.1398" lon="-0.54012">
        <ele>147</ele>
        <time>2009-10-25T12:01:03Z</time>
      </trkpt>
      <trkpt lat="48.13983" lon="-0.54003">
        <ele>147</ele>
        <time>2009-10-25T12:01:07Z</time>
      </trkpt>
      <trkpt lat="48.13984" lon="-0.53993">
        <ele>147</ele>
        <time>2009-10-25T12:01:11Z</time>
      </trkpt>
      <trkpt lat="48.13987" lon="-0.5398">
        <ele>146</ele>
        <time>2009-10-25T12:01:15Z</time>
      </trkpt>
      <trkpt lat="48.13989" lon="-0.53967">
        <ele>146</ele>
        <time>2009-10-25T12:01:19Z</time>
      </trkpt>
      <trkpt lat="48.13992" lon="-0.53957">
        <ele>145</ele>
        <time>2009-10-25T12:01:23Z</time>
      </trkpt>
      <trkpt lat="48.13994" lon="-0.53948">
        <ele>146</ele>
        <time>2009-10-25T12:01:27Z</time>
      </trkpt>
      <trkpt lat="48.13998" lon="-0.53938">
        <ele>146</ele>
        <time>2009-10-25T12:01:31Z</time>
      </trkpt>
      <trkpt lat="48.13998" lon="-0.53934">
        <ele>146</ele>
        <time>2009-10-25T12:01:35Z</time>
      </trkpt>
      <trkpt lat="48.13998" lon="-0.53935">
        <ele>146</ele>
        <time>2009-10-25T12:01:39Z</time>
      </trkpt>
      <trkpt lat="48.14" lon="-0.53934">
        <ele>145</ele>
        <time>2009-10-25T12:01:43Z</time>
      </trkpt>
      <trkpt lat="48.14005" lon="-0.53923">
        <ele>145</ele>
        <time>2009-10-25T12:01:47Z</time>
      </trkpt>
      <trkpt lat="48.14011" lon="-0.53909">
        <ele>145</ele>
        <time>2009-10-25T12:01:51Z</time>
      </trkpt>
      <trkpt lat="48.14017" lon="-0.53893">
        <ele>146</ele>
        <time>2009-10-25T12:01:55Z</time>
      </trkpt>
      <trkpt lat="48.14021" lon="-0.5387">
        <ele>145</ele>
        <time>2009-10-25T12:01:59Z</time>
      </trkpt>
      <trkpt lat="48.14025" lon="-0.53848">
        <ele>146</ele>
        <time>2009-10-25T12:02:03Z</time>
      </trkpt>
      <trkpt lat="48.14028" lon="-0.53832">
        <ele>149</ele>
        <time>2009-10-25T12:02:07Z</time>
      </trkpt>
      <trkpt lat="48.1403" lon="-0.53816">
        <ele>149</ele>
        <time>2009-10-25T12:02:11Z</time>
      </trkpt>
      <trkpt lat="48.14033" lon="-0.53794">
        <ele>150</ele>
        <time>2009-10-25T12:02:15Z</time>
      </trkpt>
      <trkpt lat="48.14036" lon="-0.53768">
        <ele>150</ele>
        <time>2009-10-25T12:02:19Z</time>
      </trkpt>
      <trkpt lat="48.1404" lon="-0.5374">
        <ele>151</ele>
        <time>2009-10-25T12:02:23Z</time>
      </trkpt>
      <trkpt lat="48.14044" lon="-0.5371">
        <ele>150</ele>
        <time>2009-10-25T12:02:27Z</time>
      </trkpt>
      <trkpt lat="48.14048" lon="-0.5368">
        <ele>148</ele>
        <time>2009-10-25T12:02:31Z</time>
      </trkpt>
      <trkpt lat="48.1405" lon="-0.53649">
        <ele>146</ele>
        <time>2009-10-25T12:02:35Z</time>
      </trkpt>
      <trkpt lat="48.14049" lon="-0.53614">
        <ele>144</ele>
        <time>2009-10-25T12:02:39Z</time>
      </trkpt>
      <trkpt lat="48.1405" lon="-0.53581">
        <ele>143</ele>
        <time>2009-10-25T12:02:43Z</time>
      </trkpt>
      <trkpt lat="48.14056" lon="-0.53547">
        <ele>141</ele>
        <time>2009-10-25T12:02:47Z</time>
      </trkpt>
      <trkpt lat="48.14066" lon="-0.53515">
        <ele>140</ele>
        <time>2009-10-25T12:02:51Z</time>
      </trkpt>
      <trkpt lat="48.14076" lon="-0.53483">
        <ele>139</ele>
        <time>2009-10-25T12:02:55Z</time>
      </trkpt>
      <trkpt lat="48.14086" lon="-0.5345">
        <ele>138</ele>
        <time>2009-10-25T12:02:59Z</time>
      </trkpt>
      <trkpt lat="48.14097" lon="-0.53417">
        <ele>137</ele>
        <time>2009-10-25T12:03:03Z</time>
      </trkpt>
      <trkpt lat="48.14107" lon="-0.53384">
        <ele>137</ele>
        <time>2009-10-25T12:03:07Z</time>
      </trkpt>
      <trkpt lat="48.14117" lon="-0.5335">
        <ele>136</ele>
        <time>2009-10-25T12:03:11Z</time>
      </trkpt>
      <trkpt lat="48.14128" lon="-0.53317">
        <ele>135</ele>
        <time>2009-10-25T12:03:15Z</time>
      </trkpt>
      <trkpt lat="48.14145" lon="-0.53284">
        <ele>134</ele>
        <time>2009-10-25T12:03:19Z</time>
      </trkpt>
      <trkpt lat="48.14169" lon="-0.53256">
        <ele>132</ele>
        <time>2009-10-25T12:03:23Z</time>
      </trkpt>
      <trkpt lat="48.14198" lon="-0.53239">
        <ele>131</ele>
        <time>2009-10-25T12:03:27Z</time>
      </trkpt>
      <trkpt lat="48.1423" lon="-0.53224">
        <ele>130</ele>
        <time>2009-10-25T12:03:31Z</time>
      </trkpt>
      <trkpt lat="48.14261" lon="-0.5321">
        <ele>129</ele>
        <time>2009-10-25T12:03:35Z</time>
      </trkpt>
      <trkpt lat="48.14292" lon="-0.53197">
        <ele>128</ele>
        <time>2009-10-25T12:03:39Z</time>
      </trkpt>
      <trkpt lat="48.14323" lon="-0.53182">
        <ele>128</ele>
        <time>2009-10-25T12:03:43Z</time>
      </trkpt>
      <trkpt lat="48.14354" lon="-0.53168">
        <ele>128</ele>
        <time>2009-10-25T12:03:47Z</time>
      </trkpt>
      <trkpt lat="48.14383" lon="-0.53155">
        <ele>128</ele>
        <time>2009-10-25T12:03:51Z</time>
      </trkpt>
      <trkpt lat="48.14411" lon="-0.53145">
        <ele>128</ele>
        <time>2009-10-25T12:03:55Z</time>
      </trkpt>
      <trkpt lat="48.14438" lon="-0.53151">
        <ele>128</ele>
        <time>2009-10-25T12:03:59Z</time>
      </trkpt>
      <trkpt lat="48.14463" lon="-0.53164">
        <ele>128</ele>
        <time>2009-10-25T12:04:03Z</time>
      </trkpt>
      <trkpt lat="48.14485" lon="-0.53177">
        <ele>128</ele>
        <time>2009-10-25T12:04:07Z</time>
      </trkpt>
      <trkpt lat="48.14501" lon="-0.53184">
        <ele>129</ele>
        <time>2009-10-25T12:04:11Z</time>
      </trkpt>
      <trkpt lat="48.14503" lon="-0.53195">
        <ele>129</ele>
        <time>2009-10-25T12:04:15Z</time>
      </trkpt>
      <trkpt lat="48.145" lon="-0.53216">
        <ele>129</ele>
        <time>2009-10-25T12:04:19Z</time>
      </trkpt>
      <trkpt lat="48.14495" lon="-0.53241">
        <ele>129</ele>
        <time>2009-10-25T12:04:23Z</time>
      </trkpt>
      <trkpt lat="48.14491" lon="-0.53268">
        <ele>130</ele>
        <time>2009-10-25T12:04:27Z</time>
      </trkpt>
      <trkpt lat="48.14489" lon="-0.53296">
        <ele>130</ele>
        <time>2009-10-25T12:04:31Z</time>
      </trkpt>
      <trkpt lat="48.14487" lon="-0.53329">
        <ele>130</ele>
        <time>2009-10-25T12:04:35Z</time>
      </trkpt>
      <trkpt lat="48.14487" lon="-0.53361">
        <ele>130</ele>
        <time>2009-10-25T12:04:39Z</time>
      </trkpt>
      <trkpt lat="48.14486" lon="-0.53396">
        <ele>130</ele>
        <time>2009-10-25T12:04:43Z</time>
      </trkpt>
      <trkpt lat="48.14484" lon="-0.53431">
        <ele>130</ele>
        <time>2009-10-25T12:04:47Z</time>
      </trkpt>
      <trkpt lat="48.14484" lon="-0.5347">
        <ele>129</ele>
        <time>2009-10-25T12:04:51Z</time>
      </trkpt>
      <trkpt lat="48.14484" lon="-0.53509">
        <ele>129</ele>
        <time>2009-10-25T12:04:55Z</time>
      </trkpt>
      <trkpt lat="48.14484" lon="-0.53549">
        <ele>128</ele>
        <time>2009-10-25T12:04:59Z</time>
      </trkpt>
      <trkpt lat="48.14485" lon="-0.53589">
        <ele>128</ele>
        <time>2009-10-25T12:05:03Z</time>
      </trkpt>
      <trkpt lat="48.14484" lon="-0.53631">
        <ele>128</ele>
        <time>2009-10-25T12:05:07Z</time>
      </trkpt>
      <trkpt lat="48.14484" lon="-0.53672">
        <ele>128</ele>
        <time>2009-10-25T12:05:11Z</time>
      </trkpt>
      <trkpt lat="48.14483" lon="-0.53712">
        <ele>129</ele>
        <time>2009-10-25T12:05:15Z</time>
      </trkpt>
      <trkpt lat="48.14483" lon="-0.53752">
        <ele>129</ele>
        <time>2009-10-25T12:05:19Z</time>
      </trkpt>
      <trkpt lat="48.14482" lon="-0.5379">
        <ele>129</ele>
        <time>2009-10-25T12:05:23Z</time>
      </trkpt>
      <trkpt lat="48.14483" lon="-0.53823">
        <ele>128</ele>
        <time>2009-10-25T12:05:27Z</time>
      </trkpt>
      <trkpt lat="48.145" lon="-0.53836">
        <ele>129</ele>
        <time>2009-10-25T12:05:31Z</time>
      </trkpt>
      <trkpt lat="48.14516" lon="-0.53841">
        <ele>130</ele>
        <time>2009-10-25T12:05:35Z</time>
      </trkpt>
      <trkpt lat="48.14528" lon="-0.53843">
        <ele>129</ele>
        <time>2009-10-25T12:05:39Z</time>
      </trkpt>
      <trkpt lat="48.1453" lon="-0.53825">
        <ele>132</ele>
        <time>2009-10-25T12:05:43Z</time>
      </trkpt>
      <trkpt lat="48.14533" lon="-0.5381">
        <ele>132</ele>
        <time>2009-10-25T12:05:47Z</time>
      </trkpt>
      <trkpt lat="48.14537" lon="-0.53791">
        <ele>132</ele>
        <time>2009-10-25T12:05:51Z</time>
      </trkpt>
      <trkpt lat="48.14541" lon="-0.53771">
        <ele>132</ele>
        <time>2009-10-25T12:05:55Z</time>
      </trkpt>
      <trkpt lat="48.14544" lon="-0.53751">
        <ele>132</ele>
        <time>2009-10-25T12:05:59Z</time>
      </trkpt>
      <trkpt lat="48.14548" lon="-0.53733">
        <ele>132</ele>
        <time>2009-10-25T12:06:03Z</time>
      </trkpt>
      <trkpt lat="48.14552" lon="-0.53713">
        <ele>132</ele>
        <time>2009-10-25T12:06:07Z</time>
      </trkpt>
      <trkpt lat="48.14555" lon="-0.53695">
        <ele>133</ele>
        <time>2009-10-25T12:06:11Z</time>
      </trkpt>
      <trkpt lat="48.14555" lon="-0.53688">
        <ele>133</ele>
        <time>2009-10-25T12:06:15Z</time>
      </trkpt>
      <trkpt lat="48.14555" lon="-0.53688">
        <ele>133</ele>
        <time>2009-10-25T12:06:19Z</time>
      </trkpt>
      <trkpt lat="48.14556" lon="-0.53688">
        <ele>133</ele>
        <time>2009-10-25T12:06:23Z</time>
      </trkpt>
      <trkpt lat="48.14556" lon="-0.53688">
        <ele>133</ele>
        <time>2009-10-25T12:06:27Z</time>
      </trkpt>
      <trkpt lat="48.14556" lon="-0.53688">
        <ele>133</ele>
        <time>2009-10-25T12:06:31Z</time>
      </trkpt>
      <trkpt lat="48.14556" lon="-0.53688">
        <ele>134</ele>
        <time>2009-10-25T12:06:35Z</time>
      </trkpt>
      <trkpt lat="48.14557" lon="-0.53688">
        <ele>133</ele>
        <time>2009-10-25T12:06:39Z</time>
      </trkpt>
      <trkpt lat="48.14557" lon="-0.53688">
        <ele>133</ele>
        <time>2009-10-25T12:06:43Z</time>
      </trkpt>
      <trkpt lat="48.14557" lon="-0.53688">
        <ele>132</ele>
        <time>2009-10-25T12:06:47Z</time>
      </trkpt>
      <trkpt lat="48.14557" lon="-0.53688">
        <ele>133</ele>
        <time>2009-10-25T12:06:51Z</time>
      </trkpt>
      <trkpt lat="48.14556" lon="-0.5369">
        <ele>133</ele>
        <time>2009-10-25T12:06:55Z</time>
      </trkpt>
      <trkpt lat="48.14556" lon="-0.5369">
        <ele>133</ele>
        <time>2009-10-25T12:06:59Z</time>
      </trkpt>
      <trkpt lat="48.14556" lon="-0.53691">
        <ele>133</ele>
        <time>2009-10-25T12:07:03Z</time>
      </trkpt>
      <trkpt lat="48.14556" lon="-0.5369">
        <ele>133</ele>
        <time>2009-10-25T12:07:07Z</time>
      </trkpt>
      <trkpt lat="48.14556" lon="-0.5369">
        <ele>132</ele>
        <time>2009-10-25T12:07:11Z</time>
      </trkpt>
      <trkpt lat="48.14556" lon="-0.5369">
        <ele>132</ele>
        <time>2009-10-25T12:07:15Z</time>
      </trkpt>
      <trkpt lat="48.14556" lon="-0.5369">
        <ele>133</ele>
        <time>2009-10-25T12:07:19Z</time>
      </trkpt>
      <trkpt lat="48.14556" lon="-0.5369">
        <ele>132</ele>
        <time>2009-10-25T12:07:23Z</time>
      </trkpt>
      <trkpt lat="48.14556" lon="-0.53688">
        <ele>132</ele>
        <time>2009-10-25T12:07:27Z</time>
      </trkpt>
      <trkpt lat="48.14558" lon="-0.53673">
        <ele>133</ele>
        <time>2009-10-25T12:07:31Z</time>
      </trkpt>
      <trkpt lat="48.1456" lon="-0.53661">
        <ele>133</ele>
        <time>2009-10-25T12:07:35Z</time>
      </trkpt>
      <trkpt lat="48.14564" lon="-0.53648">
        <ele>133</ele>
        <time>2009-10-25T12:07:39Z</time>
      </trkpt>
      <trkpt lat="48.14567" lon="-0.5363">
        <ele>132</ele>
        <time>2009-10-25T12:07:43Z</time>
      </trkpt>
      <trkpt lat="48.14572" lon="-0.53605">
        <ele>132</ele>
        <time>2009-10-25T12:07:47Z</time>
      </trkpt>
      <trkpt lat="48.14576" lon="-0.53585">
        <ele>133</ele>
        <time>2009-10-25T12:07:51Z</time>
      </trkpt>
      <trkpt lat="48.1458" lon="-0.53565">
        <ele>133</ele>
        <time>2009-10-25T12:07:55Z</time>
      </trkpt>
      <trkpt lat="48.14584" lon="-0.53543">
        <ele>133</ele>
        <time>2009-10-25T12:07:59Z</time>
      </trkpt>
      <trkpt lat="48.14588" lon="-0.5352">
        <ele>133</ele>
        <time>2009-10-25T12:08:03Z</time>
      </trkpt>
      <trkpt lat="48.14593" lon="-0.53494">
        <ele>133</ele>
        <time>2009-10-25T12:08:07Z</time>
      </trkpt>
      <trkpt lat="48.14598" lon="-0.53468">
        <ele>134</ele>
        <time>2009-10-25T12:08:11Z</time>
      </trkpt>
      <trkpt lat="48.14602" lon="-0.53443">
        <ele>136</ele>
        <time>2009-10-25T12:08:15Z</time>
      </trkpt>
      <trkpt lat="48.14606" lon="-0.53417">
        <ele>137</ele>
        <time>2009-10-25T12:08:19Z</time>
      </trkpt>
      <trkpt lat="48.1461" lon="-0.53394">
        <ele>137</ele>
        <time>2009-10-25T12:08:23Z</time>
      </trkpt>
      <trkpt lat="48.14614" lon="-0.53371">
        <ele>137</ele>
        <time>2009-10-25T12:08:27Z</time>
      </trkpt>
      <trkpt lat="48.14618" lon="-0.53346">
        <ele>138</ele>
        <time>2009-10-25T12:08:31Z</time>
      </trkpt>
      <trkpt lat="48.14622" lon="-0.53321">
        <ele>137</ele>
        <time>2009-10-25T12:08:35Z</time>
      </trkpt>
      <trkpt lat="48.14627" lon="-0.53294">
        <ele>137</ele>
        <time>2009-10-25T12:08:39Z</time>
      </trkpt>
      <trkpt lat="48.14633" lon="-0.53265">
        <ele>138</ele>
        <time>2009-10-25T12:08:43Z</time>
      </trkpt>
      <trkpt lat="48.14639" lon="-0.53235">
        <ele>139</ele>
        <time>2009-10-25T12:08:47Z</time>
      </trkpt>
      <trkpt lat="48.14643" lon="-0.53204">
        <ele>141</ele>
        <time>2009-10-25T12:08:52Z</time>
      </trkpt>
      <trkpt lat="48.14649" lon="-0.53174">
        <ele>141</ele>
        <time>2009-10-25T12:08:56Z</time>
      </trkpt>
      <trkpt lat="48.14655" lon="-0.53146">
        <ele>141</ele>
        <time>2009-10-25T12:09:00Z</time>
      </trkpt>
      <trkpt lat="48.14661" lon="-0.53117">
        <ele>140</ele>
        <time>2009-10-25T12:09:04Z</time>
      </trkpt>
      <trkpt lat="48.14667" lon="-0.53089">
        <ele>139</ele>
        <time>2009-10-25T12:09:08Z</time>
      </trkpt>
      <trkpt lat="48.14674" lon="-0.53063">
        <ele>139</ele>
        <time>2009-10-25T12:09:12Z</time>
      </trkpt>
      <trkpt lat="48.14679" lon="-0.53037">
        <ele>138</ele>
        <time>2009-10-25T12:09:16Z</time>
      </trkpt>
      <trkpt lat="48.14685" lon="-0.53011">
        <ele>137</ele>
        <time>2009-10-25T12:09:20Z</time>
      </trkpt>
      <trkpt lat="48.1469" lon="-0.52988">
        <ele>137</ele>
        <time>2009-10-25T12:09:24Z</time>
      </trkpt>
      <trkpt lat="48.14695" lon="-0.52964">
        <ele>136</ele>
        <time>2009-10-25T12:09:28Z</time>
      </trkpt>
      <trkpt lat="48.14699" lon="-0.52937">
        <ele>136</ele>
        <time>2009-10-25T12:09:32Z</time>
      </trkpt>
      <trkpt lat="48.14703" lon="-0.52909">
        <ele>137</ele>
        <time>2009-10-25T12:09:36Z</time>
      </trkpt>
      <trkpt lat="48.14708" lon="-0.52882">
        <ele>137</ele>
        <time>2009-10-25T12:09:40Z</time>
      </trkpt>
      <trkpt lat="48.14712" lon="-0.52857">
        <ele>136</ele>
        <time>2009-10-25T12:09:44Z</time>
      </trkpt>
      <trkpt lat="48.14717" lon="-0.52832">
        <ele>135</ele>
        <time>2009-10-25T12:09:48Z</time>
      </trkpt>
      <trkpt lat="48.14722" lon="-0.52809">
        <ele>135</ele>
        <time>2009-10-25T12:09:52Z</time>
      </trkpt>
      <trkpt lat="48.14727" lon="-0.52783">
        <ele>135</ele>
        <time>2009-10-25T12:09:56Z</time>
      </trkpt>
      <trkpt lat="48.14733" lon="-0.52757">
        <ele>134</ele>
        <time>2009-10-25T12:10:00Z</time>
      </trkpt>
      <trkpt lat="48.14738" lon="-0.52733">
        <ele>134</ele>
        <time>2009-10-25T12:10:04Z</time>
      </trkpt>
      <trkpt lat="48.14742" lon="-0.52707">
        <ele>134</ele>
        <time>2009-10-25T12:10:08Z</time>
      </trkpt>
      <trkpt lat="48.14747" lon="-0.52683">
        <ele>133</ele>
        <time>2009-10-25T12:10:12Z</time>
      </trkpt>
      <trkpt lat="48.14753" lon="-0.52657">
        <ele>133</ele>
        <time>2009-10-25T12:10:16Z</time>
      </trkpt>
      <trkpt lat="48.14758" lon="-0.52631">
        <ele>133</ele>
        <time>2009-10-25T12:10:20Z</time>
      </trkpt>
      <trkpt lat="48.14764" lon="-0.52601">
        <ele>132</ele>
        <time>2009-10-25T12:10:24Z</time>
      </trkpt>
      <trkpt lat="48.1477" lon="-0.52567">
        <ele>131</ele>
        <time>2009-10-25T12:10:28Z</time>
      </trkpt>
      <trkpt lat="48.14778" lon="-0.52527">
        <ele>131</ele>
        <time>2009-10-25T12:10:32Z</time>
      </trkpt>
      <trkpt lat="48.14786" lon="-0.52489">
        <ele>131</ele>
        <time>2009-10-25T12:10:36Z</time>
      </trkpt>
      <trkpt lat="48.14795" lon="-0.52455">
        <ele>131</ele>
        <time>2009-10-25T12:10:40Z</time>
      </trkpt>
      <trkpt lat="48.14808" lon="-0.52424">
        <ele>131</ele>
        <time>2009-10-25T12:10:44Z</time>
      </trkpt>
      <trkpt lat="48.14822" lon="-0.52393">
        <ele>132</ele>
        <time>2009-10-25T12:10:48Z</time>
      </trkpt>
      <trkpt lat="48.14837" lon="-0.52364">
        <ele>132</ele>
        <time>2009-10-25T12:10:52Z</time>
      </trkpt>
      <trkpt lat="48.1485" lon="-0.52334">
        <ele>132</ele>
        <time>2009-10-25T12:10:56Z</time>
      </trkpt>
      <trkpt lat="48.1486" lon="-0.52326">
        <ele>133</ele>
        <time>2009-10-25T12:11:00Z</time>
      </trkpt>
      <trkpt lat="48.1486" lon="-0.52347">
        <ele>134</ele>
        <time>2009-10-25T12:11:04Z</time>
      </trkpt>
      <trkpt lat="48.14857" lon="-0.52371">
        <ele>135</ele>
        <time>2009-10-25T12:11:08Z</time>
      </trkpt>
      <trkpt lat="48.14854" lon="-0.52401">
        <ele>135</ele>
        <time>2009-10-25T12:11:12Z</time>
      </trkpt>
      <trkpt lat="48.1485" lon="-0.52433">
        <ele>136</ele>
        <time>2009-10-25T12:11:16Z</time>
      </trkpt>
      <trkpt lat="48.14846" lon="-0.52464">
        <ele>136</ele>
        <time>2009-10-25T12:11:20Z</time>
      </trkpt>
      <trkpt lat="48.14842" lon="-0.52497">
        <ele>136</ele>
        <time>2009-10-25T12:11:24Z</time>
      </trkpt>
      <trkpt lat="48.14837" lon="-0.52527">
        <ele>136</ele>
        <time>2009-10-25T12:11:28Z</time>
      </trkpt>
      <trkpt lat="48.14828" lon="-0.52558">
        <ele>136</ele>
        <time>2009-10-25T12:11:32Z</time>
      </trkpt>
      <trkpt lat="48.14819" lon="-0.52588">
        <ele>136</ele>
        <time>2009-10-25T12:11:36Z</time>
      </trkpt>
      <trkpt lat="48.1481" lon="-0.52615">
        <ele>136</ele>
        <time>2009-10-25T12:11:40Z</time>
      </trkpt>
      <trkpt lat="48.14801" lon="-0.52645">
        <ele>135</ele>
        <time>2009-10-25T12:11:44Z</time>
      </trkpt>
      <trkpt lat="48.14792" lon="-0.52683">
        <ele>133</ele>
        <time>2009-10-25T12:11:48Z</time>
      </trkpt>
      <trkpt lat="48.14797" lon="-0.52713">
        <ele>133</ele>
        <time>2009-10-25T12:11:52Z</time>
      </trkpt>
      <trkpt lat="48.1481" lon="-0.52728">
        <ele>133</ele>
        <time>2009-10-25T12:11:56Z</time>
      </trkpt>
      <trkpt lat="48.14825" lon="-0.52737">
        <ele>133</ele>
        <time>2009-10-25T12:12:00Z</time>
      </trkpt>
      <trkpt lat="48.1484" lon="-0.52732">
        <ele>134</ele>
        <time>2009-10-25T12:12:04Z</time>
      </trkpt>
      <trkpt lat="48.14854" lon="-0.52723">
        <ele>134</ele>
        <time>2009-10-25T12:12:08Z</time>
      </trkpt>
      <trkpt lat="48.14867" lon="-0.52717">
        <ele>136</ele>
        <time>2009-10-25T12:12:12Z</time>
      </trkpt>
      <trkpt lat="48.14876" lon="-0.52717">
        <ele>137</ele>
        <time>2009-10-25T12:12:16Z</time>
      </trkpt>
      <trkpt lat="48.14884" lon="-0.52718">
        <ele>135</ele>
        <time>2009-10-25T12:12:20Z</time>
      </trkpt>
      <trkpt lat="48.14892" lon="-0.52718">
        <ele>135</ele>
        <time>2009-10-25T12:12:24Z</time>
      </trkpt>
      <trkpt lat="48.14899" lon="-0.52714">
        <ele>137</ele>
        <time>2009-10-25T12:12:28Z</time>
      </trkpt>
      <trkpt lat="48.14907" lon="-0.52705">
        <ele>138</ele>
        <time>2009-10-25T12:12:32Z</time>
      </trkpt>
      <trkpt lat="48.14914" lon="-0.52695">
        <ele>137</ele>
        <time>2009-10-25T12:12:36Z</time>
      </trkpt>
      <trkpt lat="48.1492" lon="-0.52688">
        <ele>134</ele>
        <time>2009-10-25T12:12:40Z</time>
      </trkpt>
      <trkpt lat="48.14926" lon="-0.52681">
        <ele>132</ele>
        <time>2009-10-25T12:12:44Z</time>
      </trkpt>
      <trkpt lat="48.14931" lon="-0.52678">
        <ele>130</ele>
        <time>2009-10-25T12:12:48Z</time>
      </trkpt>
      <trkpt lat="48.14941" lon="-0.52672">
        <ele>129</ele>
        <time>2009-10-25T12:12:52Z</time>
      </trkpt>
      <trkpt lat="48.14952" lon="-0.52668">
        <ele>127</ele>
        <time>2009-10-25T12:12:56Z</time>
      </trkpt>
      <trkpt lat="48.14965" lon="-0.52668">
        <ele>125</ele>
        <time>2009-10-25T12:13:00Z</time>
      </trkpt>
      <trkpt lat="48.14974" lon="-0.52671">
        <ele>125</ele>
        <time>2009-10-25T12:13:04Z</time>
      </trkpt>
      <trkpt lat="48.14983" lon="-0.52673">
        <ele>126</ele>
        <time>2009-10-25T12:13:08Z</time>
      </trkpt>
      <trkpt lat="48.1499" lon="-0.52675">
        <ele>126</ele>
        <time>2009-10-25T12:13:12Z</time>
      </trkpt>
      <trkpt lat="48.14997" lon="-0.52677">
        <ele>125</ele>
        <time>2009-10-25T12:13:16Z</time>
      </trkpt>
      <trkpt lat="48.15004" lon="-0.52679">
        <ele>126</ele>
        <time>2009-10-25T12:13:20Z</time>
      </trkpt>
      <trkpt lat="48.1501" lon="-0.5268">
        <ele>126</ele>
        <time>2009-10-25T12:13:24Z</time>
      </trkpt>
      <trkpt lat="48.15017" lon="-0.52681">
        <ele>126</ele>
        <time>2009-10-25T12:13:28Z</time>
      </trkpt>
      <trkpt lat="48.15023" lon="-0.5268">
        <ele>126</ele>
        <time>2009-10-25T12:13:32Z</time>
      </trkpt>
      <trkpt lat="48.1503" lon="-0.52673">
        <ele>133</ele>
        <time>2009-10-25T12:13:36Z</time>
      </trkpt>
      <trkpt lat="48.15035" lon="-0.52672">
        <ele>137</ele>
        <time>2009-10-25T12:13:40Z</time>
      </trkpt>
      <trkpt lat="48.15039" lon="-0.52671">
        <ele>142</ele>
        <time>2009-10-25T12:13:44Z</time>
      </trkpt>
      <trkpt lat="48.15039" lon="-0.52673">
        <ele>142</ele>
        <time>2009-10-25T12:13:48Z</time>
      </trkpt>
      <trkpt lat="48.15041" lon="-0.52674">
        <ele>143</ele>
        <time>2009-10-25T12:13:52Z</time>
      </trkpt>
      <trkpt lat="48.15042" lon="-0.52675">
        <ele>143</ele>
        <time>2009-10-25T12:13:56Z</time>
      </trkpt>
      <trkpt lat="48.15043" lon="-0.52677">
        <ele>144</ele>
        <time>2009-10-25T12:14:00Z</time>
      </trkpt>
      <trkpt lat="48.15045" lon="-0.52678">
        <ele>143</ele>
        <time>2009-10-25T12:14:04Z</time>
      </trkpt>
      <trkpt lat="48.15045" lon="-0.52678">
        <ele>144</ele>
        <time>2009-10-25T12:14:08Z</time>
      </trkpt>
      <trkpt lat="48.15045" lon="-0.52677">
        <ele>144</ele>
        <time>2009-10-25T12:14:12Z</time>
      </trkpt>
      <trkpt lat="48.15045" lon="-0.52677">
        <ele>145</ele>
        <time>2009-10-25T12:14:16Z</time>
      </trkpt>
      <trkpt lat="48.15045" lon="-0.52677">
        <ele>145</ele>
        <time>2009-10-25T12:14:20Z</time>
      </trkpt>
      <trkpt lat="48.15045" lon="-0.52677">
        <ele>145</ele>
        <time>2009-10-25T12:14:24Z</time>
      </trkpt>
      <trkpt lat="48.15045" lon="-0.52678">
        <ele>146</ele>
        <time>2009-10-25T12:14:28Z</time>
      </trkpt>
      <trkpt lat="48.15045" lon="-0.52677">
        <ele>146</ele>
        <time>2009-10-25T12:14:32Z</time>
      </trkpt>
      <trkpt lat="48.15045" lon="-0.52677">
        <ele>146</ele>
        <time>2009-10-25T12:14:36Z</time>
      </trkpt>
      <trkpt lat="48.15046" lon="-0.52676">
        <ele>146</ele>
        <time>2009-10-25T12:14:40Z</time>
      </trkpt>
      <trkpt lat="48.15042" lon="-0.5269">
        <ele>147</ele>
        <time>2009-10-25T12:14:44Z</time>
      </trkpt>
      <trkpt lat="48.15038" lon="-0.52697">
        <ele>147</ele>
        <time>2009-10-25T12:14:48Z</time>
      </trkpt>
      <trkpt lat="48.15032" lon="-0.52705">
        <ele>149</ele>
        <time>2009-10-25T12:14:52Z</time>
      </trkpt>
      <trkpt lat="48.15028" lon="-0.52715">
        <ele>151</ele>
        <time>2009-10-25T12:14:56Z</time>
      </trkpt>
      <trkpt lat="48.15025" lon="-0.52726">
        <ele>152</ele>
        <time>2009-10-25T12:15:00Z</time>
      </trkpt>
      <trkpt lat="48.15024" lon="-0.52739">
        <ele>153</ele>
        <time>2009-10-25T12:15:04Z</time>
      </trkpt>
      <trkpt lat="48.15024" lon="-0.5276">
        <ele>157</ele>
        <time>2009-10-25T12:15:08Z</time>
      </trkpt>
      <trkpt lat="48.15024" lon="-0.52776">
        <ele>159</ele>
        <time>2009-10-25T12:15:12Z</time>
      </trkpt>
      <trkpt lat="48.15023" lon="-0.52793">
        <ele>160</ele>
        <time>2009-10-25T12:15:16Z</time>
      </trkpt>
      <trkpt lat="48.15023" lon="-0.52812">
        <ele>161</ele>
        <time>2009-10-25T12:15:20Z</time>
      </trkpt>
      <trkpt lat="48.15022" lon="-0.52831">
        <ele>162</ele>
        <time>2009-10-25T12:15:24Z</time>
      </trkpt>
      <trkpt lat="48.15021" lon="-0.52847">
        <ele>164</ele>
        <time>2009-10-25T12:15:28Z</time>
      </trkpt>
      <trkpt lat="48.15024" lon="-0.52864">
        <ele>170</ele>
        <time>2009-10-25T12:15:32Z</time>
      </trkpt>
      <trkpt lat="48.15023" lon="-0.52883">
        <ele>172</ele>
        <time>2009-10-25T12:15:36Z</time>
      </trkpt>
      <trkpt lat="48.15022" lon="-0.52898">
        <ele>174</ele>
        <time>2009-10-25T12:15:40Z</time>
      </trkpt>
      <trkpt lat="48.1502" lon="-0.52917">
        <ele>177</ele>
        <time>2009-10-25T12:15:44Z</time>
      </trkpt>
      <trkpt lat="48.15018" lon="-0.52937">
        <ele>179</ele>
        <time>2009-10-25T12:15:48Z</time>
      </trkpt>
      <trkpt lat="48.15015" lon="-0.52958">
        <ele>179</ele>
        <time>2009-10-25T12:15:52Z</time>
      </trkpt>
      <trkpt lat="48.15007" lon="-0.52978">
        <ele>178</ele>
        <time>2009-10-25T12:15:56Z</time>
      </trkpt>
      <trkpt lat="48.14999" lon="-0.53001">
        <ele>180</ele>
        <time>2009-10-25T12:16:00Z</time>
      </trkpt>
      <trkpt lat="48.1499" lon="-0.53023">
        <ele>181</ele>
        <time>2009-10-25T12:16:04Z</time>
      </trkpt>
      <trkpt lat="48.1498" lon="-0.53045">
        <ele>180</ele>
        <time>2009-10-25T12:16:08Z</time>
      </trkpt>
      <trkpt lat="48.14969" lon="-0.53075">
        <ele>177</ele>
        <time>2009-10-25T12:16:12Z</time>
      </trkpt>
      <trkpt lat="48.14964" lon="-0.531">
        <ele>178</ele>
        <time>2009-10-25T12:16:16Z</time>
      </trkpt>
      <trkpt lat="48.14964" lon="-0.53124">
        <ele>180</ele>
        <time>2009-10-25T12:16:20Z</time>
      </trkpt>
      <trkpt lat="48.14964" lon="-0.53142">
        <ele>182</ele>
        <time>2009-10-25T12:16:24Z</time>
      </trkpt>
      <trkpt lat="48.14964" lon="-0.53152">
        <ele>182</ele>
        <time>2009-10-25T12:16:28Z</time>
      </trkpt>
      <trkpt lat="48.14963" lon="-0.53166">
        <ele>181</ele>
        <time>2009-10-25T12:16:32Z</time>
      </trkpt>
      <trkpt lat="48.14963" lon="-0.53175">
        <ele>180</ele>
        <time>2009-10-25T12:16:36Z</time>
      </trkpt>
      <trkpt lat="48.14967" lon="-0.53186">
        <ele>178</ele>
        <time>2009-10-25T12:16:40Z</time>
      </trkpt>
      <trkpt lat="48.14973" lon="-0.532">
        <ele>176</ele>
        <time>2009-10-25T12:16:44Z</time>
      </trkpt>
      <trkpt lat="48.14981" lon="-0.53217">
        <ele>175</ele>
        <time>2009-10-25T12:16:48Z</time>
      </trkpt>
      <trkpt lat="48.14987" lon="-0.53231">
        <ele>173</ele>
        <time>2009-10-25T12:16:52Z</time>
      </trkpt>
      <trkpt lat="48.14992" lon="-0.53241">
        <ele>172</ele>
        <time>2009-10-25T12:16:56Z</time>
      </trkpt>
      <trkpt lat="48.14997" lon="-0.5325">
        <ele>171</ele>
        <time>2009-10-25T12:17:00Z</time>
      </trkpt>
      <trkpt lat="48.15002" lon="-0.53259">
        <ele>170</ele>
        <time>2009-10-25T12:17:04Z</time>
      </trkpt>
      <trkpt lat="48.15005" lon="-0.53267">
        <ele>168</ele>
        <time>2009-10-25T12:17:08Z</time>
      </trkpt>
      <trkpt lat="48.15009" lon="-0.53275">
        <ele>167</ele>
        <time>2009-10-25T12:17:12Z</time>
      </trkpt>
      <trkpt lat="48.15016" lon="-0.53282">
        <ele>166</ele>
        <time>2009-10-25T12:17:16Z</time>
      </trkpt>
      <trkpt lat="48.1502" lon="-0.53281">
        <ele>165</ele>
        <time>2009-10-25T12:17:20Z</time>
      </trkpt>
      <trkpt lat="48.15024" lon="-0.53281">
        <ele>164</ele>
        <time>2009-10-25T12:17:24Z</time>
      </trkpt>
      <trkpt lat="48.15028" lon="-0.53281">
        <ele>165</ele>
        <time>2009-10-25T12:17:28Z</time>
      </trkpt>
      <trkpt lat="48.15032" lon="-0.53282">
        <ele>164</ele>
        <time>2009-10-25T12:17:32Z</time>
      </trkpt>
      <trkpt lat="48.15038" lon="-0.53286">
        <ele>162</ele>
        <time>2009-10-25T12:17:36Z</time>
      </trkpt>
      <trkpt lat="48.15044" lon="-0.5329">
        <ele>161</ele>
        <time>2009-10-25T12:17:40Z</time>
      </trkpt>
      <trkpt lat="48.15048" lon="-0.53292">
        <ele>161</ele>
        <time>2009-10-25T12:17:44Z</time>
      </trkpt>
      <trkpt lat="48.15056" lon="-0.533">
        <ele>161</ele>
        <time>2009-10-25T12:17:48Z</time>
      </trkpt>
      <trkpt lat="48.1506" lon="-0.53304">
        <ele>161</ele>
        <time>2009-10-25T12:17:52Z</time>
      </trkpt>
      <trkpt lat="48.15066" lon="-0.53313">
        <ele>160</ele>
        <time>2009-10-25T12:17:56Z</time>
      </trkpt>
      <trkpt lat="48.15071" lon="-0.53323">
        <ele>160</ele>
        <time>2009-10-25T12:18:00Z</time>
      </trkpt>
      <trkpt lat="48.15073" lon="-0.53331">
        <ele>160</ele>
        <time>2009-10-25T12:18:04Z</time>
      </trkpt>
      <trkpt lat="48.15077" lon="-0.53343">
        <ele>160</ele>
        <time>2009-10-25T12:18:08Z</time>
      </trkpt>
      <trkpt lat="48.15081" lon="-0.53354">
        <ele>159</ele>
        <time>2009-10-25T12:18:12Z</time>
      </trkpt>
      <trkpt lat="48.15085" lon="-0.53366">
        <ele>159</ele>
        <time>2009-10-25T12:18:16Z</time>
      </trkpt>
      <trkpt lat="48.1509" lon="-0.5338">
        <ele>159</ele>
        <time>2009-10-25T12:18:20Z</time>
      </trkpt>
      <trkpt lat="48.15095" lon="-0.53395">
        <ele>159</ele>
        <time>2009-10-25T12:18:24Z</time>
      </trkpt>
      <trkpt lat="48.15099" lon="-0.53408">
        <ele>159</ele>
        <time>2009-10-25T12:18:28Z</time>
      </trkpt>
      <trkpt lat="48.15102" lon="-0.53423">
        <ele>160</ele>
        <time>2009-10-25T12:18:32Z</time>
      </trkpt>
      <trkpt lat="48.15105" lon="-0.53436">
        <ele>161</ele>
        <time>2009-10-25T12:18:36Z</time>
      </trkpt>
      <trkpt lat="48.15109" lon="-0.53453">
        <ele>161</ele>
        <time>2009-10-25T12:18:40Z</time>
      </trkpt>
      <trkpt lat="48.15108" lon="-0.5347">
        <ele>160</ele>
        <time>2009-10-25T12:18:44Z</time>
      </trkpt>
      <trkpt lat="48.15093" lon="-0.53474">
        <ele>157</ele>
        <time>2009-10-25T12:18:49Z</time>
      </trkpt>
      <trkpt lat="48.15074" lon="-0.53481">
        <ele>155</ele>
        <time>2009-10-25T12:18:53Z</time>
      </trkpt>
      <trkpt lat="48.15053" lon="-0.53496">
        <ele>154</ele>
        <time>2009-10-25T12:18:57Z</time>
      </trkpt>
      <trkpt lat="48.15033" lon="-0.53526">
        <ele>153</ele>
        <time>2009-10-25T12:19:01Z</time>
      </trkpt>
      <trkpt lat="48.15015" lon="-0.53561">
        <ele>152</ele>
        <time>2009-10-25T12:19:05Z</time>
      </trkpt>
      <trkpt lat="48.14996" lon="-0.53599">
        <ele>151</ele>
        <time>2009-10-25T12:19:09Z</time>
      </trkpt>
      <trkpt lat="48.1497" lon="-0.53629">
        <ele>150</ele>
        <time>2009-10-25T12:19:13Z</time>
      </trkpt>
      <trkpt lat="48.14936" lon="-0.53642">
        <ele>149</ele>
        <time>2009-10-25T12:19:17Z</time>
      </trkpt>
      <trkpt lat="48.14904" lon="-0.53661">
        <ele>149</ele>
        <time>2009-10-25T12:19:21Z</time>
      </trkpt>
      <trkpt lat="48.14879" lon="-0.53692">
        <ele>148</ele>
        <time>2009-10-25T12:19:25Z</time>
      </trkpt>
      <trkpt lat="48.14856" lon="-0.53728">
        <ele>148</ele>
        <time>2009-10-25T12:19:29Z</time>
      </trkpt>
      <trkpt lat="48.14837" lon="-0.53764">
        <ele>148</ele>
        <time>2009-10-25T12:19:33Z</time>
      </trkpt>
      <trkpt lat="48.14822" lon="-0.53798">
        <ele>149</ele>
        <time>2009-10-25T12:19:37Z</time>
      </trkpt>
      <trkpt lat="48.14808" lon="-0.53829">
        <ele>149</ele>
        <time>2009-10-25T12:19:41Z</time>
      </trkpt>
      <trkpt lat="48.14793" lon="-0.53858">
        <ele>149</ele>
        <time>2009-10-25T12:19:45Z</time>
      </trkpt>
      <trkpt lat="48.14776" lon="-0.53879">
        <ele>150</ele>
        <time>2009-10-25T12:19:49Z</time>
      </trkpt>
      <trkpt lat="48.14755" lon="-0.53894">
        <ele>149</ele>
        <time>2009-10-25T12:19:53Z</time>
      </trkpt>
      <trkpt lat="48.14731" lon="-0.53908">
        <ele>148</ele>
        <time>2009-10-25T12:19:57Z</time>
      </trkpt>
      <trkpt lat="48.14705" lon="-0.53924">
        <ele>147</ele>
        <time>2009-10-25T12:20:01Z</time>
      </trkpt>
      <trkpt lat="48.14674" lon="-0.53929">
        <ele>145</ele>
        <time>2009-10-25T12:20:05Z</time>
      </trkpt>
      <trkpt lat="48.14649" lon="-0.53922">
        <ele>144</ele>
        <time>2009-10-25T12:20:09Z</time>
      </trkpt>
      <trkpt lat="48.14637" lon="-0.53948">
        <ele>143</ele>
        <time>2009-10-25T12:20:13Z</time>
      </trkpt>
      <trkpt lat="48.14626" lon="-0.53985">
        <ele>142</ele>
        <time>2009-10-25T12:20:17Z</time>
      </trkpt>
      <trkpt lat="48.14611" lon="-0.54028">
        <ele>140</ele>
        <time>2009-10-25T12:20:21Z</time>
      </trkpt>
      <trkpt lat="48.14595" lon="-0.54076">
        <ele>139</ele>
        <time>2009-10-25T12:20:25Z</time>
      </trkpt>
      <trkpt lat="48.14579" lon="-0.54129">
        <ele>137</ele>
        <time>2009-10-25T12:20:29Z</time>
      </trkpt>
      <trkpt lat="48.14561" lon="-0.54179">
        <ele>138</ele>
        <time>2009-10-25T12:20:33Z</time>
      </trkpt>
      <trkpt lat="48.14549" lon="-0.54217">
        <ele>138</ele>
        <time>2009-10-25T12:20:37Z</time>
      </trkpt>
      <trkpt lat="48.1454" lon="-0.54243">
        <ele>140</ele>
        <time>2009-10-25T12:20:41Z</time>
      </trkpt>
      <trkpt lat="48.14536" lon="-0.54255">
        <ele>140</ele>
        <time>2009-10-25T12:20:45Z</time>
      </trkpt>
      <trkpt lat="48.14534" lon="-0.54263">
        <ele>140</ele>
        <time>2009-10-25T12:20:49Z</time>
      </trkpt>
      <trkpt lat="48.14531" lon="-0.54272">
        <ele>141</ele>
        <time>2009-10-25T12:20:53Z</time>
      </trkpt>
      <trkpt lat="48.14528" lon="-0.54282">
        <ele>142</ele>
        <time>2009-10-25T12:20:57Z</time>
      </trkpt>
      <trkpt lat="48.14522" lon="-0.54294">
        <ele>143</ele>
        <time>2009-10-25T12:21:01Z</time>
      </trkpt>
      <trkpt lat="48.14515" lon="-0.54306">
        <ele>144</ele>
        <time>2009-10-25T12:21:05Z</time>
      </trkpt>
      <trkpt lat="48.14507" lon="-0.54316">
        <ele>145</ele>
        <time>2009-10-25T12:21:09Z</time>
      </trkpt>
      <trkpt lat="48.14499" lon="-0.54323">
        <ele>147</ele>
        <time>2009-10-25T12:21:13Z</time>
      </trkpt>
      <trkpt lat="48.1449" lon="-0.54325">
        <ele>149</ele>
        <time>2009-10-25T12:21:17Z</time>
      </trkpt>
      <trkpt lat="48.14479" lon="-0.54322">
        <ele>149</ele>
        <time>2009-10-25T12:21:21Z</time>
      </trkpt>
      <trkpt lat="48.14474" lon="-0.5432">
        <ele>149</ele>
        <time>2009-10-25T12:21:25Z</time>
      </trkpt>
      <trkpt lat="48.14466" lon="-0.5432">
        <ele>148</ele>
        <time>2009-10-25T12:21:29Z</time>
      </trkpt>
      <trkpt lat="48.1446" lon="-0.54321">
        <ele>147</ele>
        <time>2009-10-25T12:21:33Z</time>
      </trkpt>
      <trkpt lat="48.14454" lon="-0.54322">
        <ele>149</ele>
        <time>2009-10-25T12:21:37Z</time>
      </trkpt>
      <trkpt lat="48.1445" lon="-0.5432">
        <ele>149</ele>
        <time>2009-10-25T12:21:41Z</time>
      </trkpt>
      <trkpt lat="48.14441" lon="-0.54323">
        <ele>149</ele>
        <time>2009-10-25T12:21:45Z</time>
      </trkpt>
      <trkpt lat="48.14434" lon="-0.54337">
        <ele>150</ele>
        <time>2009-10-25T12:21:49Z</time>
      </trkpt>
      <trkpt lat="48.14435" lon="-0.54345">
        <ele>151</ele>
        <time>2009-10-25T12:21:53Z</time>
      </trkpt>
      <trkpt lat="48.14427" lon="-0.54353">
        <ele>153</ele>
        <time>2009-10-25T12:21:57Z</time>
      </trkpt>
      <trkpt lat="48.14417" lon="-0.54371">
        <ele>154</ele>
        <time>2009-10-25T12:22:01Z</time>
      </trkpt>
      <trkpt lat="48.14408" lon="-0.54384">
        <ele>155</ele>
        <time>2009-10-25T12:22:05Z</time>
      </trkpt>
      <trkpt lat="48.14396" lon="-0.54402">
        <ele>155</ele>
        <time>2009-10-25T12:22:09Z</time>
      </trkpt>
      <trkpt lat="48.14381" lon="-0.54423">
        <ele>155</ele>
        <time>2009-10-25T12:22:13Z</time>
      </trkpt>
      <trkpt lat="48.14367" lon="-0.54447">
        <ele>153</ele>
        <time>2009-10-25T12:22:17Z</time>
      </trkpt>
      <trkpt lat="48.14354" lon="-0.54482">
        <ele>153</ele>
        <time>2009-10-25T12:22:21Z</time>
      </trkpt>
      <trkpt lat="48.14344" lon="-0.54517">
        <ele>152</ele>
        <time>2009-10-25T12:22:25Z</time>
      </trkpt>
      <trkpt lat="48.14338" lon="-0.54548">
        <ele>152</ele>
        <time>2009-10-25T12:22:29Z</time>
      </trkpt>
      <trkpt lat="48.14333" lon="-0.54554">
        <ele>151</ele>
        <time>2009-10-25T12:22:33Z</time>
      </trkpt>
      <trkpt lat="48.14323" lon="-0.54572">
        <ele>150</ele>
        <time>2009-10-25T12:22:37Z</time>
      </trkpt>
      <trkpt lat="48.14318" lon="-0.54595">
        <ele>152</ele>
        <time>2009-10-25T12:22:41Z</time>
      </trkpt>
      <trkpt lat="48.14317" lon="-0.54607">
        <ele>154</ele>
        <time>2009-10-25T12:22:45Z</time>
      </trkpt>
      <trkpt lat="48.14315" lon="-0.54614">
        <ele>156</ele>
        <time>2009-10-25T12:22:49Z</time>
      </trkpt>
      <trkpt lat="48.14312" lon="-0.54617">
        <ele>156</ele>
        <time>2009-10-25T12:22:53Z</time>
      </trkpt>
      <trkpt lat="48.14311" lon="-0.54624">
        <ele>157</ele>
        <time>2009-10-25T12:22:57Z</time>
      </trkpt>
      <trkpt lat="48.1431" lon="-0.54634">
        <ele>158</ele>
        <time>2009-10-25T12:23:01Z</time>
      </trkpt>
      <trkpt lat="48.14309" lon="-0.54648">
        <ele>157</ele>
        <time>2009-10-25T12:23:05Z</time>
      </trkpt>
      <trkpt lat="48.14307" lon="-0.54661">
        <ele>159</ele>
        <time>2009-10-25T12:23:09Z</time>
      </trkpt>
      <trkpt lat="48.14304" lon="-0.54667">
        <ele>162</ele>
        <time>2009-10-25T12:23:13Z</time>
      </trkpt>
      <trkpt lat="48.14302" lon="-0.54672">
        <ele>162</ele>
        <time>2009-10-25T12:23:17Z</time>
      </trkpt>
      <trkpt lat="48.14301" lon="-0.54678">
        <ele>161</ele>
        <time>2009-10-25T12:23:21Z</time>
      </trkpt>
      <trkpt lat="48.14296" lon="-0.54692">
        <ele>158</ele>
        <time>2009-10-25T12:23:25Z</time>
      </trkpt>
      <trkpt lat="48.14295" lon="-0.54705">
        <ele>158</ele>
        <time>2009-10-25T12:23:29Z</time>
      </trkpt>
      <trkpt lat="48.14293" lon="-0.54719">
        <ele>160</ele>
        <time>2009-10-25T12:23:33Z</time>
      </trkpt>
      <trkpt lat="48.14289" lon="-0.54736">
        <ele>163</ele>
        <time>2009-10-25T12:23:37Z</time>
      </trkpt>
      <trkpt lat="48.14284" lon="-0.54747">
        <ele>164</ele>
        <time>2009-10-25T12:23:41Z</time>
      </trkpt>
      <trkpt lat="48.1428" lon="-0.54757">
        <ele>165</ele>
        <time>2009-10-25T12:23:45Z</time>
      </trkpt>
      <trkpt lat="48.14272" lon="-0.54777">
        <ele>162</ele>
        <time>2009-10-25T12:23:49Z</time>
      </trkpt>
      <trkpt lat="48.14268" lon="-0.54799">
        <ele>164</ele>
        <time>2009-10-25T12:23:53Z</time>
      </trkpt>
      <trkpt lat="48.14266" lon="-0.54818">
        <ele>165</ele>
        <time>2009-10-25T12:23:57Z</time>
      </trkpt>
      <trkpt lat="48.14266" lon="-0.54839">
        <ele>168</ele>
        <time>2009-10-25T12:24:01Z</time>
      </trkpt>
      <trkpt lat="48.1426" lon="-0.54861">
        <ele>170</ele>
        <time>2009-10-25T12:24:05Z</time>
      </trkpt>
      <trkpt lat="48.14248" lon="-0.54889">
        <ele>169</ele>
        <time>2009-10-25T12:24:09Z</time>
      </trkpt>
      <trkpt lat="48.14232" lon="-0.54916">
        <ele>162</ele>
        <time>2009-10-25T12:24:13Z</time>
      </trkpt>
      <trkpt lat="48.14222" lon="-0.54945">
        <ele>157</ele>
        <time>2009-10-25T12:24:17Z</time>
      </trkpt>
      <trkpt lat="48.14218" lon="-0.5497">
        <ele>154</ele>
        <time>2009-10-25T12:24:21Z</time>
      </trkpt>
      <trkpt lat="48.14212" lon="-0.54986">
        <ele>151</ele>
        <time>2009-10-25T12:24:25Z</time>
      </trkpt>
      <trkpt lat="48.14211" lon="-0.55005">
        <ele>151</ele>
        <time>2009-10-25T12:24:29Z</time>
      </trkpt>
      <trkpt lat="48.14211" lon="-0.55007">
        <ele>151</ele>
        <time>2009-10-25T12:24:33Z</time>
      </trkpt>
      <trkpt lat="48.14208" lon="-0.55012">
        <ele>150</ele>
        <time>2009-10-25T12:24:37Z</time>
      </trkpt>
      <trkpt lat="48.14206" lon="-0.55016">
        <ele>147</ele>
        <time>2009-10-25T12:24:41Z</time>
      </trkpt>
      <trkpt lat="48.14204" lon="-0.55028">
        <ele>146</ele>
        <time>2009-10-25T12:24:45Z</time>
      </trkpt>
      <trkpt lat="48.14198" lon="-0.55044">
        <ele>145</ele>
        <time>2009-10-25T12:24:49Z</time>
      </trkpt>
      <trkpt lat="48.14189" lon="-0.55061">
        <ele>143</ele>
        <time>2009-10-25T12:24:53Z</time>
      </trkpt>
      <trkpt lat="48.14183" lon="-0.55076">
        <ele>144</ele>
        <time>2009-10-25T12:24:57Z</time>
      </trkpt>
      <trkpt lat="48.14184" lon="-0.55093">
        <ele>146</ele>
        <time>2009-10-25T12:25:01Z</time>
      </trkpt>
      <trkpt lat="48.14189" lon="-0.55109">
        <ele>149</ele>
        <time>2009-10-25T12:25:05Z</time>
      </trkpt>
      <trkpt lat="48.14191" lon="-0.55125">
        <ele>152</ele>
        <time>2009-10-25T12:25:09Z</time>
      </trkpt>
      <trkpt lat="48.14188" lon="-0.55142">
        <ele>155</ele>
        <time>2009-10-25T12:25:13Z</time>
      </trkpt>
      <trkpt lat="48.14185" lon="-0.55161">
        <ele>158</ele>
        <time>2009-10-25T12:25:17Z</time>
      </trkpt>
      <trkpt lat="48.14181" lon="-0.5518">
        <ele>162</ele>
        <time>2009-10-25T12:25:21Z</time>
      </trkpt>
      <trkpt lat="48.14179" lon="-0.55195">
        <ele>167</ele>
        <time>2009-10-25T12:25:25Z</time>
      </trkpt>
      <trkpt lat="48.14168" lon="-0.55207">
        <ele>166</ele>
        <time>2009-10-25T12:25:29Z</time>
      </trkpt>
      <trkpt lat="48.14153" lon="-0.55213">
        <ele>161</ele>
        <time>2009-10-25T12:25:33Z</time>
      </trkpt>
      <trkpt lat="48.14146" lon="-0.55216">
        <ele>158</ele>
        <time>2009-10-25T12:25:37Z</time>
      </trkpt>
      <trkpt lat="48.14143" lon="-0.55219">
        <ele>156</ele>
        <time>2009-10-25T12:25:41Z</time>
      </trkpt>
      <trkpt lat="48.1414" lon="-0.55221">
        <ele>155</ele>
        <time>2009-10-25T12:25:45Z</time>
      </trkpt>
      <trkpt lat="48.14131" lon="-0.55221">
        <ele>151</ele>
        <time>2009-10-25T12:25:49Z</time>
      </trkpt>
      <trkpt lat="48.14128" lon="-0.55224">
        <ele>153</ele>
        <time>2009-10-25T12:25:53Z</time>
      </trkpt>
      <trkpt lat="48.14127" lon="-0.55224">
        <ele>153</ele>
        <time>2009-10-25T12:25:57Z</time>
      </trkpt>
      <trkpt lat="48.14127" lon="-0.55224">
        <ele>154</ele>
        <time>2009-10-25T12:26:01Z</time>
      </trkpt>
      <trkpt lat="48.14125" lon="-0.55224">
        <ele>154</ele>
        <time>2009-10-25T12:26:06Z</time>
      </trkpt>
      <trkpt lat="48.14119" lon="-0.55224">
        <ele>152</ele>
        <time>2009-10-25T12:26:10Z</time>
      </trkpt>
      <trkpt lat="48.1411" lon="-0.55223">
        <ele>150</ele>
        <time>2009-10-25T12:26:14Z</time>
      </trkpt>
      <trkpt lat="48.14099" lon="-0.55225">
        <ele>146</ele>
        <time>2009-10-25T12:26:18Z</time>
      </trkpt>
      <trkpt lat="48.14093" lon="-0.55223">
        <ele>144</ele>
        <time>2009-10-25T12:26:22Z</time>
      </trkpt>
      <trkpt lat="48.14089" lon="-0.55223">
        <ele>143</ele>
        <time>2009-10-25T12:26:26Z</time>
      </trkpt>
      <trkpt lat="48.14083" lon="-0.55223">
        <ele>138</ele>
        <time>2009-10-25T12:26:30Z</time>
      </trkpt>
      <trkpt lat="48.14077" lon="-0.5522">
        <ele>138</ele>
        <time>2009-10-25T12:26:34Z</time>
      </trkpt>
      <trkpt lat="48.14072" lon="-0.55216">
        <ele>138</ele>
        <time>2009-10-25T12:26:38Z</time>
      </trkpt>
      <trkpt lat="48.14066" lon="-0.55208">
        <ele>142</ele>
        <time>2009-10-25T12:26:42Z</time>
      </trkpt>
      <trkpt lat="48.14056" lon="-0.55199">
        <ele>141</ele>
        <time>2009-10-25T12:26:46Z</time>
      </trkpt>
      <trkpt lat="48.14047" lon="-0.55191">
        <ele>140</ele>
        <time>2009-10-25T12:26:50Z</time>
      </trkpt>
      <trkpt lat="48.14038" lon="-0.55189">
        <ele>141</ele>
        <time>2009-10-25T12:26:54Z</time>
      </trkpt>
      <trkpt lat="48.14025" lon="-0.55195">
        <ele>140</ele>
        <time>2009-10-25T12:26:58Z</time>
      </trkpt>
      <trkpt lat="48.14009" lon="-0.55203">
        <ele>138</ele>
        <time>2009-10-25T12:27:02Z</time>
      </trkpt>
      <trkpt lat="48.13991" lon="-0.55213">
        <ele>135</ele>
        <time>2009-10-25T12:27:06Z</time>
      </trkpt>
      <trkpt lat="48.13972" lon="-0.55222">
        <ele>134</ele>
        <time>2009-10-25T12:27:10Z</time>
      </trkpt>
      <trkpt lat="48.13954" lon="-0.55231">
        <ele>133</ele>
        <time>2009-10-25T12:27:14Z</time>
      </trkpt>
      <trkpt lat="48.13945" lon="-0.55238">
        <ele>133</ele>
        <time>2009-10-25T12:27:18Z</time>
      </trkpt>
      <trkpt lat="48.13945" lon="-0.55239">
        <ele>132</ele>
        <time>2009-10-25T12:27:22Z</time>
      </trkpt>
      <trkpt lat="48.13943" lon="-0.55239">
        <ele>134</ele>
        <time>2009-10-25T12:27:26Z</time>
      </trkpt>
      <trkpt lat="48.13943" lon="-0.55239">
        <ele>134</ele>
        <time>2009-10-25T12:27:30Z</time>
      </trkpt>
      <trkpt lat="48.13941" lon="-0.55239">
        <ele>135</ele>
        <time>2009-10-25T12:27:34Z</time>
      </trkpt>
      <trkpt lat="48.13932" lon="-0.55244">
        <ele>135</ele>
        <time>2009-10-25T12:27:38Z</time>
      </trkpt>
      <trkpt lat="48.13918" lon="-0.5525">
        <ele>135</ele>
        <time>2009-10-25T12:27:42Z</time>
      </trkpt>
      <trkpt lat="48.139" lon="-0.5526">
        <ele>135</ele>
        <time>2009-10-25T12:27:46Z</time>
      </trkpt>
      <trkpt lat="48.13881" lon="-0.55271">
        <ele>134</ele>
        <time>2009-10-25T12:27:50Z</time>
      </trkpt>
      <trkpt lat="48.13861" lon="-0.55282">
        <ele>134</ele>
        <time>2009-10-25T12:27:54Z</time>
      </trkpt>
      <trkpt lat="48.1384" lon="-0.55295">
        <ele>134</ele>
        <time>2009-10-25T12:27:58Z</time>
      </trkpt>
      <trkpt lat="48.13818" lon="-0.55308">
        <ele>133</ele>
        <time>2009-10-25T12:28:02Z</time>
      </trkpt>
      <trkpt lat="48.13795" lon="-0.5532">
        <ele>133</ele>
        <time>2009-10-25T12:28:06Z</time>
      </trkpt>
      <trkpt lat="48.13772" lon="-0.55335">
        <ele>133</ele>
        <time>2009-10-25T12:28:10Z</time>
      </trkpt>
      <trkpt lat="48.13749" lon="-0.55348">
        <ele>133</ele>
        <time>2009-10-25T12:28:14Z</time>
      </trkpt>
      <trkpt lat="48.13729" lon="-0.55364">
        <ele>134</ele>
        <time>2009-10-25T12:28:18Z</time>
      </trkpt>
      <trkpt lat="48.13711" lon="-0.5537">
        <ele>138</ele>
        <time>2009-10-25T12:28:22Z</time>
      </trkpt>
      <trkpt lat="48.13689" lon="-0.55368">
        <ele>138</ele>
        <time>2009-10-25T12:28:26Z</time>
      </trkpt>
      <trkpt lat="48.1368" lon="-0.55397">
        <ele>137</ele>
        <time>2009-10-25T12:28:30Z</time>
      </trkpt>
      <trkpt lat="48.1368" lon="-0.55433">
        <ele>138</ele>
        <time>2009-10-25T12:28:34Z</time>
      </trkpt>
      <trkpt lat="48.1368" lon="-0.55474">
        <ele>138</ele>
        <time>2009-10-25T12:28:38Z</time>
      </trkpt>
      <trkpt lat="48.13681" lon="-0.55511">
        <ele>137</ele>
        <time>2009-10-25T12:28:42Z</time>
      </trkpt>
      <trkpt lat="48.13685" lon="-0.55549">
        <ele>136</ele>
        <time>2009-10-25T12:28:46Z</time>
      </trkpt>
      <trkpt lat="48.13688" lon="-0.55586">
        <ele>135</ele>
        <time>2009-10-25T12:28:50Z</time>
      </trkpt>
      <trkpt lat="48.13696" lon="-0.55623">
        <ele>134</ele>
        <time>2009-10-25T12:28:54Z</time>
      </trkpt>
      <trkpt lat="48.13702" lon="-0.55657">
        <ele>136</ele>
        <time>2009-10-25T12:28:58Z</time>
      </trkpt>
      <trkpt lat="48.13703" lon="-0.5569">
        <ele>141</ele>
        <time>2009-10-25T12:29:02Z</time>
      </trkpt>
      <trkpt lat="48.137" lon="-0.55724">
        <ele>141</ele>
        <time>2009-10-25T12:29:06Z</time>
      </trkpt>
      <trkpt lat="48.13683" lon="-0.5574">
        <ele>139</ele>
        <time>2009-10-25T12:29:10Z</time>
      </trkpt>
      <trkpt lat="48.13665" lon="-0.55751">
        <ele>138</ele>
        <time>2009-10-25T12:29:14Z</time>
      </trkpt>
      <trkpt lat="48.13651" lon="-0.55763">
        <ele>132</ele>
        <time>2009-10-25T12:29:18Z</time>
      </trkpt>
      <trkpt lat="48.13638" lon="-0.55777">
        <ele>131</ele>
        <time>2009-10-25T12:29:22Z</time>
      </trkpt>
      <trkpt lat="48.13627" lon="-0.55784">
        <ele>130</ele>
        <time>2009-10-25T12:29:26Z</time>
      </trkpt>
      <trkpt lat="48.13617" lon="-0.55771">
        <ele>127</ele>
        <time>2009-10-25T12:29:30Z</time>
      </trkpt>
      <trkpt lat="48.13604" lon="-0.55757">
        <ele>125</ele>
        <time>2009-10-25T12:29:34Z</time>
      </trkpt>
      <trkpt lat="48.13591" lon="-0.55755">
        <ele>125</ele>
        <time>2009-10-25T12:29:38Z</time>
      </trkpt>
      <trkpt lat="48.13583" lon="-0.55744">
        <ele>125</ele>
        <time>2009-10-25T12:29:42Z</time>
      </trkpt>
      <trkpt lat="48.1358" lon="-0.55724">
        <ele>124</ele>
        <time>2009-10-25T12:29:46Z</time>
      </trkpt>
      <trkpt lat="48.13573" lon="-0.55713">
        <ele>125</ele>
        <time>2009-10-25T12:29:50Z</time>
      </trkpt>
      <trkpt lat="48.13574" lon="-0.5571">
        <ele>124</ele>
        <time>2009-10-25T12:29:54Z</time>
      </trkpt>
      <trkpt lat="48.13574" lon="-0.5571">
        <ele>125</ele>
        <time>2009-10-25T12:29:58Z</time>
      </trkpt>
      <trkpt lat="48.13574" lon="-0.5571">
        <ele>125</ele>
        <time>2009-10-25T12:30:02Z</time>
      </trkpt>
      <trkpt lat="48.13575" lon="-0.55709">
        <ele>126</ele>
        <time>2009-10-25T12:30:06Z</time>
      </trkpt>
      <trkpt lat="48.13576" lon="-0.55708">
        <ele>127</ele>
        <time>2009-10-25T12:30:10Z</time>
      </trkpt>
      <trkpt lat="48.13576" lon="-0.55708">
        <ele>128</ele>
        <time>2009-10-25T12:30:14Z</time>
      </trkpt>
      <trkpt lat="48.13576" lon="-0.55707">
        <ele>128</ele>
        <time>2009-10-25T12:30:18Z</time>
      </trkpt>
      <trkpt lat="48.13575" lon="-0.55706">
        <ele>129</ele>
        <time>2009-10-25T12:30:22Z</time>
      </trkpt>
      <trkpt lat="48.13575" lon="-0.55706">
        <ele>128</ele>
        <time>2009-10-25T12:30:26Z</time>
      </trkpt>
      <trkpt lat="48.13575" lon="-0.55704">
        <ele>129</ele>
        <time>2009-10-25T12:30:30Z</time>
      </trkpt>
      <trkpt lat="48.13575" lon="-0.55703">
        <ele>129</ele>
        <time>2009-10-25T12:30:34Z</time>
      </trkpt>
      <trkpt lat="48.13575" lon="-0.55703">
        <ele>129</ele>
        <time>2009-10-25T12:30:38Z</time>
      </trkpt>
      <trkpt lat="48.13575" lon="-0.55703">
        <ele>129</ele>
        <time>2009-10-25T12:30:42Z</time>
      </trkpt>
      <trkpt lat="48.13573" lon="-0.55703">
        <ele>128</ele>
        <time>2009-10-25T12:30:46Z</time>
      </trkpt>
      <trkpt lat="48.13573" lon="-0.55703">
        <ele>127</ele>
        <time>2009-10-25T12:30:50Z</time>
      </trkpt>
      <trkpt lat="48.13572" lon="-0.55705">
        <ele>127</ele>
        <time>2009-10-25T12:30:54Z</time>
      </trkpt>
      <trkpt lat="48.13572" lon="-0.55705">
        <ele>127</ele>
        <time>2009-10-25T12:30:58Z</time>
      </trkpt>
      <trkpt lat="48.13572" lon="-0.55706">
        <ele>127</ele>
        <time>2009-10-25T12:31:02Z</time>
      </trkpt>
      <trkpt lat="48.13572" lon="-0.55706">
        <ele>127</ele>
        <time>2009-10-25T12:31:06Z</time>
      </trkpt>
      <trkpt lat="48.13572" lon="-0.55707">
        <ele>126</ele>
        <time>2009-10-25T12:31:10Z</time>
      </trkpt>
      <trkpt lat="48.13572" lon="-0.55707">
        <ele>126</ele>
        <time>2009-10-25T12:31:14Z</time>
      </trkpt>
      <trkpt lat="48.13572" lon="-0.55707">
        <ele>126</ele>
        <time>2009-10-25T12:31:18Z</time>
      </trkpt>
      <trkpt lat="48.13571" lon="-0.55707">
        <ele>126</ele>
        <time>2009-10-25T12:31:22Z</time>
      </trkpt>
      <trkpt lat="48.13571" lon="-0.55707">
        <ele>126</ele>
        <time>2009-10-25T12:31:26Z</time>
      </trkpt>
      <trkpt lat="48.13571" lon="-0.55707">
        <ele>126</ele>
        <time>2009-10-25T12:31:30Z</time>
      </trkpt>
      <trkpt lat="48.13571" lon="-0.55707">
        <ele>126</ele>
        <time>2009-10-25T12:31:34Z</time>
      </trkpt>
      <trkpt lat="48.13571" lon="-0.55707">
        <ele>126</ele>
        <time>2009-10-25T12:31:38Z</time>
      </trkpt>
      <trkpt lat="48.13571" lon="-0.55706">
        <ele>126</ele>
        <time>2009-10-25T12:31:42Z</time>
      </trkpt>
      <trkpt lat="48.13571" lon="-0.55707">
        <ele>126</ele>
        <time>2009-10-25T12:31:46Z</time>
      </trkpt>
      <trkpt lat="48.13571" lon="-0.55707">
        <ele>125</ele>
        <time>2009-10-25T12:31:50Z</time>
      </trkpt>
    </trkseg>
  </trk>
</gpx>